<?xml version="1.0" encoding="UTF-8" standalone="no" ?>
<gpx xmlns="http://www.topografix.com/GPX/1/1" xmlns:xsi="http://www.w3.org/2001/XMLSchema-instance" xsi:schemaLocation="http://www.topografix.com/GPX/1/1 http://www.topografix.com/GPX/1/1/gpx.xsd" version="1.1" creator="VisuGPX - https://www.visugpx.com">
  <metadata>
    <name>essai</name>
    <desc><![CDATA[essai sur une trace que je n\\\'arrive pas à importer]]></desc>
  </metadata>
  <trk>
    <name><![CDATA[VA-nasque-St Hubert J1]]></name>
    <trkseg>
      <trkpt lat="43.99242" lon="5.14526">
        <ele>296</ele>
        <time>2011-03-26T16:55:27Z</time>
      </trkpt>
      <trkpt lat="43.99248" lon="5.14526">
        <ele>298</ele>
        <time>2011-03-26T16:55:28Z</time>
      </trkpt>
      <trkpt lat="43.99236" lon="5.14537">
        <ele>313</ele>
        <time>2011-03-26T16:56:56Z</time>
      </trkpt>
      <trkpt lat="43.99236" lon="5.1452">
        <ele>300</ele>
        <time>2011-03-27T09:21:33Z</time>
      </trkpt>
      <trkpt lat="43.99234" lon="5.1452">
        <ele>300</ele>
        <time>2011-03-27T09:21:34Z</time>
      </trkpt>
      <trkpt lat="43.99228" lon="5.14531">
        <ele>308</ele>
        <time>2011-03-27T09:22:01Z</time>
      </trkpt>
      <trkpt lat="43.99235" lon="5.14525">
        <ele>304</ele>
        <time>2011-03-27T09:36:18Z</time>
      </trkpt>
      <trkpt lat="43.99235" lon="5.14524">
        <ele>304</ele>
        <time>2011-03-27T09:36:19Z</time>
      </trkpt>
      <trkpt lat="43.99243" lon="5.14516">
        <ele>304</ele>
        <time>2011-03-27T09:38:50Z</time>
      </trkpt>
      <trkpt lat="43.99248" lon="5.145">
        <ele>304</ele>
        <time>2011-03-27T09:39:31Z</time>
      </trkpt>
      <trkpt lat="43.9924" lon="5.14501">
        <ele>305</ele>
        <time>2011-03-27T09:39:39Z</time>
      </trkpt>
      <trkpt lat="43.99231" lon="5.14504">
        <ele>306</ele>
        <time>2011-03-27T09:39:47Z</time>
      </trkpt>
      <trkpt lat="43.99223" lon="5.14503">
        <ele>306</ele>
        <time>2011-03-27T09:39:54Z</time>
      </trkpt>
      <trkpt lat="43.99222" lon="5.14502">
        <ele>306</ele>
        <time>2011-03-27T09:39:55Z</time>
      </trkpt>
      <trkpt lat="43.99208" lon="5.14494">
        <ele>306</ele>
        <time>2011-03-27T09:40:09Z</time>
      </trkpt>
      <trkpt lat="43.992" lon="5.14489">
        <ele>305</ele>
        <time>2011-03-27T09:40:17Z</time>
      </trkpt>
      <trkpt lat="43.99192" lon="5.14484">
        <ele>305</ele>
        <time>2011-03-27T09:40:24Z</time>
      </trkpt>
      <trkpt lat="43.99184" lon="5.14479">
        <ele>304</ele>
        <time>2011-03-27T09:40:30Z</time>
      </trkpt>
      <trkpt lat="43.99176" lon="5.14477">
        <ele>304</ele>
        <time>2011-03-27T09:40:37Z</time>
      </trkpt>
      <trkpt lat="43.99167" lon="5.1448">
        <ele>305</ele>
        <time>2011-03-27T09:40:44Z</time>
      </trkpt>
      <trkpt lat="43.99153" lon="5.14484">
        <ele>304</ele>
        <time>2011-03-27T09:40:54Z</time>
      </trkpt>
      <trkpt lat="43.99151" lon="5.14484">
        <ele>304</ele>
        <time>2011-03-27T09:40:56Z</time>
      </trkpt>
      <trkpt lat="43.99138" lon="5.14491">
        <ele>306</ele>
        <time>2011-03-27T09:41:06Z</time>
      </trkpt>
      <trkpt lat="43.99131" lon="5.14497">
        <ele>307</ele>
        <time>2011-03-27T09:41:12Z</time>
      </trkpt>
      <trkpt lat="43.99124" lon="5.14501">
        <ele>307</ele>
        <time>2011-03-27T09:41:18Z</time>
      </trkpt>
      <trkpt lat="43.99116" lon="5.14506">
        <ele>308</ele>
        <time>2011-03-27T09:41:25Z</time>
      </trkpt>
      <trkpt lat="43.99111" lon="5.14516">
        <ele>308</ele>
        <time>2011-03-27T09:41:31Z</time>
      </trkpt>
      <trkpt lat="43.99108" lon="5.14525">
        <ele>310</ele>
        <time>2011-03-27T09:41:36Z</time>
      </trkpt>
      <trkpt lat="43.99105" lon="5.14537">
        <ele>310</ele>
        <time>2011-03-27T09:41:42Z</time>
      </trkpt>
      <trkpt lat="43.99102" lon="5.14547">
        <ele>311</ele>
        <time>2011-03-27T09:41:48Z</time>
      </trkpt>
      <trkpt lat="43.99097" lon="5.14557">
        <ele>311</ele>
        <time>2011-03-27T09:41:54Z</time>
      </trkpt>
      <trkpt lat="43.99089" lon="5.1456">
        <ele>313</ele>
        <time>2011-03-27T09:42:01Z</time>
      </trkpt>
      <trkpt lat="43.99088" lon="5.14561">
        <ele>313</ele>
        <time>2011-03-27T09:42:02Z</time>
      </trkpt>
      <trkpt lat="43.99072" lon="5.14563">
        <ele>313</ele>
        <time>2011-03-27T09:42:14Z</time>
      </trkpt>
      <trkpt lat="43.99063" lon="5.14567">
        <ele>314</ele>
        <time>2011-03-27T09:42:21Z</time>
      </trkpt>
      <trkpt lat="43.99055" lon="5.14572">
        <ele>313</ele>
        <time>2011-03-27T09:42:32Z</time>
      </trkpt>
      <trkpt lat="43.99047" lon="5.14577">
        <ele>313</ele>
        <time>2011-03-27T09:42:42Z</time>
      </trkpt>
      <trkpt lat="43.9904" lon="5.14582">
        <ele>314</ele>
        <time>2011-03-27T09:42:49Z</time>
      </trkpt>
      <trkpt lat="43.99033" lon="5.14588">
        <ele>314</ele>
        <time>2011-03-27T09:42:56Z</time>
      </trkpt>
      <trkpt lat="43.99026" lon="5.14595">
        <ele>314</ele>
        <time>2011-03-27T09:43:03Z</time>
      </trkpt>
      <trkpt lat="43.99025" lon="5.14597">
        <ele>314</ele>
        <time>2011-03-27T09:43:04Z</time>
      </trkpt>
      <trkpt lat="43.99014" lon="5.1461">
        <ele>314</ele>
        <time>2011-03-27T09:43:15Z</time>
      </trkpt>
      <trkpt lat="43.99008" lon="5.14618">
        <ele>314</ele>
        <time>2011-03-27T09:43:21Z</time>
      </trkpt>
      <trkpt lat="43.99002" lon="5.14625">
        <ele>315</ele>
        <time>2011-03-27T09:43:27Z</time>
      </trkpt>
      <trkpt lat="43.98995" lon="5.14633">
        <ele>315</ele>
        <time>2011-03-27T09:43:33Z</time>
      </trkpt>
      <trkpt lat="43.98989" lon="5.14641">
        <ele>316</ele>
        <time>2011-03-27T09:43:39Z</time>
      </trkpt>
      <trkpt lat="43.98982" lon="5.14649">
        <ele>317</ele>
        <time>2011-03-27T09:43:45Z</time>
      </trkpt>
      <trkpt lat="43.98976" lon="5.14656">
        <ele>317</ele>
        <time>2011-03-27T09:43:51Z</time>
      </trkpt>
      <trkpt lat="43.9897" lon="5.14664">
        <ele>318</ele>
        <time>2011-03-27T09:43:58Z</time>
      </trkpt>
      <trkpt lat="43.98964" lon="5.14672">
        <ele>318</ele>
        <time>2011-03-27T09:44:04Z</time>
      </trkpt>
      <trkpt lat="43.98963" lon="5.14673">
        <ele>318</ele>
        <time>2011-03-27T09:44:05Z</time>
      </trkpt>
      <trkpt lat="43.98957" lon="5.14692">
        <ele>319</ele>
        <time>2011-03-27T09:44:23Z</time>
      </trkpt>
      <trkpt lat="43.98961" lon="5.14703">
        <ele>320</ele>
        <time>2011-03-27T09:44:31Z</time>
      </trkpt>
      <trkpt lat="43.98966" lon="5.14712">
        <ele>321</ele>
        <time>2011-03-27T09:44:39Z</time>
      </trkpt>
      <trkpt lat="43.98971" lon="5.14722">
        <ele>321</ele>
        <time>2011-03-27T09:44:46Z</time>
      </trkpt>
      <trkpt lat="43.98976" lon="5.14731">
        <ele>321</ele>
        <time>2011-03-27T09:44:52Z</time>
      </trkpt>
      <trkpt lat="43.9898" lon="5.1474">
        <ele>322</ele>
        <time>2011-03-27T09:44:58Z</time>
      </trkpt>
      <trkpt lat="43.98985" lon="5.1475">
        <ele>322</ele>
        <time>2011-03-27T09:45:04Z</time>
      </trkpt>
      <trkpt lat="43.98989" lon="5.14759">
        <ele>323</ele>
        <time>2011-03-27T09:45:10Z</time>
      </trkpt>
      <trkpt lat="43.9899" lon="5.14761">
        <ele>323</ele>
        <time>2011-03-27T09:45:11Z</time>
      </trkpt>
      <trkpt lat="43.98997" lon="5.14779">
        <ele>323</ele>
        <time>2011-03-27T09:45:23Z</time>
      </trkpt>
      <trkpt lat="43.99002" lon="5.14789">
        <ele>323</ele>
        <time>2011-03-27T09:45:30Z</time>
      </trkpt>
      <trkpt lat="43.99007" lon="5.14799">
        <ele>321</ele>
        <time>2011-03-27T09:45:37Z</time>
      </trkpt>
      <trkpt lat="43.99011" lon="5.1481">
        <ele>321</ele>
        <time>2011-03-27T09:45:44Z</time>
      </trkpt>
      <trkpt lat="43.99015" lon="5.1482">
        <ele>319</ele>
        <time>2011-03-27T09:45:50Z</time>
      </trkpt>
      <trkpt lat="43.99019" lon="5.1483">
        <ele>317</ele>
        <time>2011-03-27T09:45:56Z</time>
      </trkpt>
      <trkpt lat="43.99024" lon="5.14839">
        <ele>317</ele>
        <time>2011-03-27T09:46:02Z</time>
      </trkpt>
      <trkpt lat="43.99028" lon="5.14849">
        <ele>317</ele>
        <time>2011-03-27T09:46:08Z</time>
      </trkpt>
      <trkpt lat="43.99033" lon="5.14858">
        <ele>316</ele>
        <time>2011-03-27T09:46:14Z</time>
      </trkpt>
      <trkpt lat="43.99033" lon="5.1486">
        <ele>316</ele>
        <time>2011-03-27T09:46:15Z</time>
      </trkpt>
      <trkpt lat="43.99041" lon="5.14877">
        <ele>315</ele>
        <time>2011-03-27T09:46:26Z</time>
      </trkpt>
      <trkpt lat="43.99042" lon="5.14889">
        <ele>315</ele>
        <time>2011-03-27T09:46:35Z</time>
      </trkpt>
      <trkpt lat="43.99035" lon="5.14894">
        <ele>315</ele>
        <time>2011-03-27T09:46:44Z</time>
      </trkpt>
      <trkpt lat="43.99028" lon="5.14903">
        <ele>317</ele>
        <time>2011-03-27T09:46:57Z</time>
      </trkpt>
      <trkpt lat="43.99021" lon="5.14905">
        <ele>317</ele>
        <time>2011-03-27T09:47:14Z</time>
      </trkpt>
      <trkpt lat="43.99012" lon="5.14907">
        <ele>319</ele>
        <time>2011-03-27T09:47:20Z</time>
      </trkpt>
      <trkpt lat="43.99011" lon="5.14907">
        <ele>319</ele>
        <time>2011-03-27T09:47:21Z</time>
      </trkpt>
      <trkpt lat="43.98996" lon="5.14913">
        <ele>320</ele>
        <time>2011-03-27T09:47:41Z</time>
      </trkpt>
      <trkpt lat="43.98989" lon="5.14916">
        <ele>322</ele>
        <time>2011-03-27T09:47:46Z</time>
      </trkpt>
      <trkpt lat="43.98981" lon="5.14919">
        <ele>323</ele>
        <time>2011-03-27T09:47:51Z</time>
      </trkpt>
      <trkpt lat="43.98974" lon="5.14924">
        <ele>324</ele>
        <time>2011-03-27T09:47:57Z</time>
      </trkpt>
      <trkpt lat="43.98967" lon="5.14927">
        <ele>324</ele>
        <time>2011-03-27T09:48:01Z</time>
      </trkpt>
      <trkpt lat="43.98959" lon="5.14929">
        <ele>324</ele>
        <time>2011-03-27T09:48:04Z</time>
      </trkpt>
      <trkpt lat="43.98952" lon="5.14929">
        <ele>325</ele>
        <time>2011-03-27T09:48:07Z</time>
      </trkpt>
      <trkpt lat="43.98944" lon="5.14928">
        <ele>325</ele>
        <time>2011-03-27T09:48:12Z</time>
      </trkpt>
      <trkpt lat="43.98936" lon="5.14926">
        <ele>327</ele>
        <time>2011-03-27T09:48:18Z</time>
      </trkpt>
      <trkpt lat="43.98927" lon="5.14923">
        <ele>328</ele>
        <time>2011-03-27T09:48:24Z</time>
      </trkpt>
      <trkpt lat="43.98926" lon="5.14923">
        <ele>328</ele>
        <time>2011-03-27T09:48:25Z</time>
      </trkpt>
      <trkpt lat="43.98913" lon="5.14916">
        <ele>328</ele>
        <time>2011-03-27T09:48:34Z</time>
      </trkpt>
      <trkpt lat="43.98905" lon="5.14913">
        <ele>329</ele>
        <time>2011-03-27T09:48:39Z</time>
      </trkpt>
      <trkpt lat="43.98897" lon="5.14911">
        <ele>330</ele>
        <time>2011-03-27T09:48:45Z</time>
      </trkpt>
      <trkpt lat="43.98889" lon="5.14907">
        <ele>330</ele>
        <time>2011-03-27T09:48:51Z</time>
      </trkpt>
      <trkpt lat="43.98881" lon="5.14905">
        <ele>331</ele>
        <time>2011-03-27T09:48:57Z</time>
      </trkpt>
      <trkpt lat="43.98872" lon="5.14905">
        <ele>332</ele>
        <time>2011-03-27T09:49:05Z</time>
      </trkpt>
      <trkpt lat="43.98864" lon="5.14908">
        <ele>332</ele>
        <time>2011-03-27T09:49:11Z</time>
      </trkpt>
      <trkpt lat="43.98855" lon="5.14911">
        <ele>331</ele>
        <time>2011-03-27T09:49:16Z</time>
      </trkpt>
      <trkpt lat="43.98847" lon="5.14916">
        <ele>332</ele>
        <time>2011-03-27T09:49:22Z</time>
      </trkpt>
      <trkpt lat="43.9884" lon="5.14923">
        <ele>331</ele>
        <time>2011-03-27T09:49:28Z</time>
      </trkpt>
      <trkpt lat="43.98839" lon="5.14924">
        <ele>331</ele>
        <time>2011-03-27T09:49:29Z</time>
      </trkpt>
      <trkpt lat="43.98827" lon="5.14937">
        <ele>331</ele>
        <time>2011-03-27T09:49:39Z</time>
      </trkpt>
      <trkpt lat="43.98821" lon="5.14945">
        <ele>331</ele>
        <time>2011-03-27T09:49:44Z</time>
      </trkpt>
      <trkpt lat="43.98816" lon="5.14952">
        <ele>331</ele>
        <time>2011-03-27T09:49:49Z</time>
      </trkpt>
      <trkpt lat="43.98811" lon="5.14961">
        <ele>332</ele>
        <time>2011-03-27T09:49:55Z</time>
      </trkpt>
      <trkpt lat="43.98807" lon="5.1497">
        <ele>332</ele>
        <time>2011-03-27T09:50:01Z</time>
      </trkpt>
      <trkpt lat="43.98803" lon="5.14981">
        <ele>331</ele>
        <time>2011-03-27T09:50:08Z</time>
      </trkpt>
      <trkpt lat="43.988" lon="5.14991">
        <ele>331</ele>
        <time>2011-03-27T09:50:14Z</time>
      </trkpt>
      <trkpt lat="43.98796" lon="5.15003">
        <ele>331</ele>
        <time>2011-03-27T09:50:22Z</time>
      </trkpt>
      <trkpt lat="43.98793" lon="5.15013">
        <ele>332</ele>
        <time>2011-03-27T09:50:27Z</time>
      </trkpt>
      <trkpt lat="43.9879" lon="5.15024">
        <ele>332</ele>
        <time>2011-03-27T09:50:33Z</time>
      </trkpt>
      <trkpt lat="43.9879" lon="5.15027">
        <ele>332</ele>
        <time>2011-03-27T09:50:34Z</time>
      </trkpt>
      <trkpt lat="43.9878" lon="5.15045">
        <ele>331</ele>
        <time>2011-03-27T09:51:36Z</time>
      </trkpt>
      <trkpt lat="43.9878" lon="5.15045">
        <ele>331</ele>
        <time>2011-03-27T09:51:37Z</time>
      </trkpt>
      <trkpt lat="43.98773" lon="5.15053">
        <ele>333</ele>
        <time>2011-03-27T09:54:06Z</time>
      </trkpt>
      <trkpt lat="43.98771" lon="5.15066">
        <ele>335</ele>
        <time>2011-03-27T09:55:18Z</time>
      </trkpt>
      <trkpt lat="43.98764" lon="5.15084">
        <ele>334</ele>
        <time>2011-03-27T09:55:31Z</time>
      </trkpt>
      <trkpt lat="43.98761" lon="5.15095">
        <ele>333</ele>
        <time>2011-03-27T09:55:37Z</time>
      </trkpt>
      <trkpt lat="43.98759" lon="5.15106">
        <ele>332</ele>
        <time>2011-03-27T09:55:43Z</time>
      </trkpt>
      <trkpt lat="43.98757" lon="5.15117">
        <ele>330</ele>
        <time>2011-03-27T09:55:49Z</time>
      </trkpt>
      <trkpt lat="43.98757" lon="5.15128">
        <ele>330</ele>
        <time>2011-03-27T09:55:54Z</time>
      </trkpt>
      <trkpt lat="43.98755" lon="5.15139">
        <ele>330</ele>
        <time>2011-03-27T09:55:59Z</time>
      </trkpt>
      <trkpt lat="43.98753" lon="5.15149">
        <ele>330</ele>
        <time>2011-03-27T09:56:04Z</time>
      </trkpt>
      <trkpt lat="43.98749" lon="5.15158">
        <ele>330</ele>
        <time>2011-03-27T09:56:09Z</time>
      </trkpt>
      <trkpt lat="43.98744" lon="5.15166">
        <ele>331</ele>
        <time>2011-03-27T09:56:14Z</time>
      </trkpt>
      <trkpt lat="43.98739" lon="5.15174">
        <ele>330</ele>
        <time>2011-03-27T09:56:19Z</time>
      </trkpt>
      <trkpt lat="43.98738" lon="5.15176">
        <ele>330</ele>
        <time>2011-03-27T09:56:20Z</time>
      </trkpt>
      <trkpt lat="43.98728" lon="5.15192">
        <ele>330</ele>
        <time>2011-03-27T09:56:30Z</time>
      </trkpt>
      <trkpt lat="43.98723" lon="5.15202">
        <ele>330</ele>
        <time>2011-03-27T09:56:35Z</time>
      </trkpt>
      <trkpt lat="43.98719" lon="5.1521">
        <ele>330</ele>
        <time>2011-03-27T09:56:41Z</time>
      </trkpt>
      <trkpt lat="43.98716" lon="5.1522">
        <ele>330</ele>
        <time>2011-03-27T09:56:47Z</time>
      </trkpt>
      <trkpt lat="43.98712" lon="5.15231">
        <ele>330</ele>
        <time>2011-03-27T09:56:59Z</time>
      </trkpt>
      <trkpt lat="43.98707" lon="5.15241">
        <ele>331</ele>
        <time>2011-03-27T10:02:44Z</time>
      </trkpt>
      <trkpt lat="43.98707" lon="5.15243">
        <ele>331</ele>
        <time>2011-03-27T10:02:45Z</time>
      </trkpt>
      <trkpt lat="43.98698" lon="5.15262">
        <ele>331</ele>
        <time>2011-03-27T10:03:22Z</time>
      </trkpt>
      <trkpt lat="43.98694" lon="5.15272">
        <ele>330</ele>
        <time>2011-03-27T10:03:29Z</time>
      </trkpt>
      <trkpt lat="43.98689" lon="5.15283">
        <ele>331</ele>
        <time>2011-03-27T10:03:35Z</time>
      </trkpt>
      <trkpt lat="43.98685" lon="5.15293">
        <ele>332</ele>
        <time>2011-03-27T10:03:40Z</time>
      </trkpt>
      <trkpt lat="43.98681" lon="5.15302">
        <ele>332</ele>
        <time>2011-03-27T10:03:45Z</time>
      </trkpt>
      <trkpt lat="43.9868" lon="5.15304">
        <ele>332</ele>
        <time>2011-03-27T10:03:46Z</time>
      </trkpt>
      <trkpt lat="43.98671" lon="5.15323">
        <ele>332</ele>
        <time>2011-03-27T10:03:57Z</time>
      </trkpt>
      <trkpt lat="43.98668" lon="5.15333">
        <ele>332</ele>
        <time>2011-03-27T10:04:02Z</time>
      </trkpt>
      <trkpt lat="43.98665" lon="5.15343">
        <ele>332</ele>
        <time>2011-03-27T10:04:07Z</time>
      </trkpt>
      <trkpt lat="43.98663" lon="5.15354">
        <ele>333</ele>
        <time>2011-03-27T10:04:12Z</time>
      </trkpt>
      <trkpt lat="43.9866" lon="5.15364">
        <ele>333</ele>
        <time>2011-03-27T10:04:17Z</time>
      </trkpt>
      <trkpt lat="43.98659" lon="5.15375">
        <ele>333</ele>
        <time>2011-03-27T10:04:22Z</time>
      </trkpt>
      <trkpt lat="43.98657" lon="5.15386">
        <ele>334</ele>
        <time>2011-03-27T10:04:27Z</time>
      </trkpt>
      <trkpt lat="43.98656" lon="5.15397">
        <ele>335</ele>
        <time>2011-03-27T10:04:32Z</time>
      </trkpt>
      <trkpt lat="43.98655" lon="5.15407">
        <ele>334</ele>
        <time>2011-03-27T10:04:37Z</time>
      </trkpt>
      <trkpt lat="43.98654" lon="5.15418">
        <ele>335</ele>
        <time>2011-03-27T10:04:42Z</time>
      </trkpt>
      <trkpt lat="43.98654" lon="5.15429">
        <ele>337</ele>
        <time>2011-03-27T10:04:47Z</time>
      </trkpt>
      <trkpt lat="43.98654" lon="5.15431">
        <ele>337</ele>
        <time>2011-03-27T10:04:48Z</time>
      </trkpt>
      <trkpt lat="43.98652" lon="5.15451">
        <ele>338</ele>
        <time>2011-03-27T10:04:57Z</time>
      </trkpt>
      <trkpt lat="43.98649" lon="5.15462">
        <ele>338</ele>
        <time>2011-03-27T10:05:03Z</time>
      </trkpt>
      <trkpt lat="43.98645" lon="5.15472">
        <ele>338</ele>
        <time>2011-03-27T10:05:08Z</time>
      </trkpt>
      <trkpt lat="43.98642" lon="5.15481">
        <ele>339</ele>
        <time>2011-03-27T10:05:13Z</time>
      </trkpt>
      <trkpt lat="43.98639" lon="5.15492">
        <ele>338</ele>
        <time>2011-03-27T10:05:18Z</time>
      </trkpt>
      <trkpt lat="43.98637" lon="5.15503">
        <ele>338</ele>
        <time>2011-03-27T10:05:23Z</time>
      </trkpt>
      <trkpt lat="43.98634" lon="5.15515">
        <ele>338</ele>
        <time>2011-03-27T10:05:29Z</time>
      </trkpt>
      <trkpt lat="43.98632" lon="5.15525">
        <ele>338</ele>
        <time>2011-03-27T10:05:34Z</time>
      </trkpt>
      <trkpt lat="43.98628" lon="5.15534">
        <ele>337</ele>
        <time>2011-03-27T10:05:39Z</time>
      </trkpt>
      <trkpt lat="43.98625" lon="5.15544">
        <ele>336</ele>
        <time>2011-03-27T10:05:44Z</time>
      </trkpt>
      <trkpt lat="43.9862" lon="5.15553">
        <ele>335</ele>
        <time>2011-03-27T10:05:49Z</time>
      </trkpt>
      <trkpt lat="43.98619" lon="5.15555">
        <ele>336</ele>
        <time>2011-03-27T10:05:50Z</time>
      </trkpt>
      <trkpt lat="43.98608" lon="5.1557">
        <ele>336</ele>
        <time>2011-03-27T10:06:00Z</time>
      </trkpt>
      <trkpt lat="43.98601" lon="5.15576">
        <ele>336</ele>
        <time>2011-03-27T10:06:06Z</time>
      </trkpt>
      <trkpt lat="43.98594" lon="5.15584">
        <ele>337</ele>
        <time>2011-03-27T10:06:12Z</time>
      </trkpt>
      <trkpt lat="43.98589" lon="5.15593">
        <ele>337</ele>
        <time>2011-03-27T10:06:18Z</time>
      </trkpt>
      <trkpt lat="43.98585" lon="5.15604">
        <ele>337</ele>
        <time>2011-03-27T10:06:24Z</time>
      </trkpt>
      <trkpt lat="43.98583" lon="5.15616">
        <ele>338</ele>
        <time>2011-03-27T10:06:30Z</time>
      </trkpt>
      <trkpt lat="43.98582" lon="5.15627">
        <ele>338</ele>
        <time>2011-03-27T10:06:35Z</time>
      </trkpt>
      <trkpt lat="43.98581" lon="5.15638">
        <ele>339</ele>
        <time>2011-03-27T10:06:40Z</time>
      </trkpt>
      <trkpt lat="43.98581" lon="5.15649">
        <ele>339</ele>
        <time>2011-03-27T10:06:45Z</time>
      </trkpt>
      <trkpt lat="43.98579" lon="5.15659">
        <ele>340</ele>
        <time>2011-03-27T10:06:50Z</time>
      </trkpt>
      <trkpt lat="43.98578" lon="5.15661">
        <ele>340</ele>
        <time>2011-03-27T10:06:51Z</time>
      </trkpt>
      <trkpt lat="43.98572" lon="5.15678">
        <ele>341</ele>
        <time>2011-03-27T10:07:00Z</time>
      </trkpt>
      <trkpt lat="43.98569" lon="5.15688">
        <ele>341</ele>
        <time>2011-03-27T10:07:05Z</time>
      </trkpt>
      <trkpt lat="43.98565" lon="5.15697">
        <ele>341</ele>
        <time>2011-03-27T10:07:10Z</time>
      </trkpt>
      <trkpt lat="43.98562" lon="5.15707">
        <ele>339</ele>
        <time>2011-03-27T10:07:15Z</time>
      </trkpt>
      <trkpt lat="43.98559" lon="5.15719">
        <ele>338</ele>
        <time>2011-03-27T10:07:21Z</time>
      </trkpt>
      <trkpt lat="43.98556" lon="5.1573">
        <ele>338</ele>
        <time>2011-03-27T10:07:27Z</time>
      </trkpt>
      <trkpt lat="43.98554" lon="5.1574">
        <ele>338</ele>
        <time>2011-03-27T10:07:32Z</time>
      </trkpt>
      <trkpt lat="43.98552" lon="5.15751">
        <ele>338</ele>
        <time>2011-03-27T10:07:38Z</time>
      </trkpt>
      <trkpt lat="43.98549" lon="5.15763">
        <ele>337</ele>
        <time>2011-03-27T10:07:44Z</time>
      </trkpt>
      <trkpt lat="43.98545" lon="5.15773">
        <ele>336</ele>
        <time>2011-03-27T10:07:50Z</time>
      </trkpt>
      <trkpt lat="43.98542" lon="5.15783">
        <ele>334</ele>
        <time>2011-03-27T10:07:56Z</time>
      </trkpt>
      <trkpt lat="43.98541" lon="5.15785">
        <ele>334</ele>
        <time>2011-03-27T10:07:57Z</time>
      </trkpt>
      <trkpt lat="43.98531" lon="5.15801">
        <ele>332</ele>
        <time>2011-03-27T10:08:08Z</time>
      </trkpt>
      <trkpt lat="43.98524" lon="5.15809">
        <ele>330</ele>
        <time>2011-03-27T10:08:14Z</time>
      </trkpt>
      <trkpt lat="43.98518" lon="5.15817">
        <ele>329</ele>
        <time>2011-03-27T10:08:19Z</time>
      </trkpt>
      <trkpt lat="43.98512" lon="5.15824">
        <ele>328</ele>
        <time>2011-03-27T10:08:24Z</time>
      </trkpt>
      <trkpt lat="43.98506" lon="5.1583">
        <ele>327</ele>
        <time>2011-03-27T10:08:29Z</time>
      </trkpt>
      <trkpt lat="43.98499" lon="5.15836">
        <ele>327</ele>
        <time>2011-03-27T10:08:34Z</time>
      </trkpt>
      <trkpt lat="43.98492" lon="5.15841">
        <ele>326</ele>
        <time>2011-03-27T10:08:39Z</time>
      </trkpt>
      <trkpt lat="43.98485" lon="5.15846">
        <ele>326</ele>
        <time>2011-03-27T10:08:44Z</time>
      </trkpt>
      <trkpt lat="43.98478" lon="5.15851">
        <ele>325</ele>
        <time>2011-03-27T10:08:49Z</time>
      </trkpt>
      <trkpt lat="43.9847" lon="5.15856">
        <ele>325</ele>
        <time>2011-03-27T10:08:55Z</time>
      </trkpt>
      <trkpt lat="43.98462" lon="5.1586">
        <ele>325</ele>
        <time>2011-03-27T10:09:00Z</time>
      </trkpt>
      <trkpt lat="43.98461" lon="5.15861">
        <ele>325</ele>
        <time>2011-03-27T10:09:01Z</time>
      </trkpt>
      <trkpt lat="43.9845" lon="5.15875">
        <ele>324</ele>
        <time>2011-03-27T10:09:12Z</time>
      </trkpt>
      <trkpt lat="43.98446" lon="5.15885">
        <ele>324</ele>
        <time>2011-03-27T10:09:17Z</time>
      </trkpt>
      <trkpt lat="43.98443" lon="5.15894">
        <ele>324</ele>
        <time>2011-03-27T10:09:22Z</time>
      </trkpt>
      <trkpt lat="43.9844" lon="5.15905">
        <ele>323</ele>
        <time>2011-03-27T10:09:29Z</time>
      </trkpt>
      <trkpt lat="43.98433" lon="5.15912">
        <ele>321</ele>
        <time>2011-03-27T10:09:37Z</time>
      </trkpt>
      <trkpt lat="43.98425" lon="5.15911">
        <ele>321</ele>
        <time>2011-03-27T10:09:43Z</time>
      </trkpt>
      <trkpt lat="43.98417" lon="5.15908">
        <ele>320</ele>
        <time>2011-03-27T10:09:49Z</time>
      </trkpt>
      <trkpt lat="43.9841" lon="5.15904">
        <ele>320</ele>
        <time>2011-03-27T10:09:55Z</time>
      </trkpt>
      <trkpt lat="43.98402" lon="5.15902">
        <ele>320</ele>
        <time>2011-03-27T10:10:00Z</time>
      </trkpt>
      <trkpt lat="43.98394" lon="5.159">
        <ele>320</ele>
        <time>2011-03-27T10:10:06Z</time>
      </trkpt>
      <trkpt lat="43.98392" lon="5.159">
        <ele>320</ele>
        <time>2011-03-27T10:10:07Z</time>
      </trkpt>
      <trkpt lat="43.98377" lon="5.15899">
        <ele>320</ele>
        <time>2011-03-27T10:10:17Z</time>
      </trkpt>
      <trkpt lat="43.98369" lon="5.159">
        <ele>320</ele>
        <time>2011-03-27T10:10:23Z</time>
      </trkpt>
      <trkpt lat="43.98361" lon="5.15901">
        <ele>321</ele>
        <time>2011-03-27T10:10:29Z</time>
      </trkpt>
      <trkpt lat="43.98354" lon="5.15902">
        <ele>321</ele>
        <time>2011-03-27T10:10:33Z</time>
      </trkpt>
      <trkpt lat="43.98345" lon="5.15902">
        <ele>323</ele>
        <time>2011-03-27T10:10:38Z</time>
      </trkpt>
      <trkpt lat="43.98338" lon="5.15902">
        <ele>324</ele>
        <time>2011-03-27T10:10:43Z</time>
      </trkpt>
      <trkpt lat="43.98329" lon="5.15902">
        <ele>325</ele>
        <time>2011-03-27T10:10:48Z</time>
      </trkpt>
      <trkpt lat="43.98321" lon="5.15906">
        <ele>327</ele>
        <time>2011-03-27T10:10:54Z</time>
      </trkpt>
      <trkpt lat="43.98315" lon="5.1591">
        <ele>328</ele>
        <time>2011-03-27T10:10:59Z</time>
      </trkpt>
      <trkpt lat="43.98306" lon="5.15914">
        <ele>329</ele>
        <time>2011-03-27T10:11:04Z</time>
      </trkpt>
      <trkpt lat="43.98298" lon="5.15915">
        <ele>330</ele>
        <time>2011-03-27T10:11:09Z</time>
      </trkpt>
      <trkpt lat="43.98297" lon="5.15915">
        <ele>331</ele>
        <time>2011-03-27T10:11:10Z</time>
      </trkpt>
      <trkpt lat="43.98282" lon="5.15915">
        <ele>333</ele>
        <time>2011-03-27T10:11:21Z</time>
      </trkpt>
      <trkpt lat="43.98274" lon="5.15916">
        <ele>333</ele>
        <time>2011-03-27T10:11:26Z</time>
      </trkpt>
      <trkpt lat="43.98266" lon="5.15918">
        <ele>333</ele>
        <time>2011-03-27T10:11:32Z</time>
      </trkpt>
      <trkpt lat="43.98257" lon="5.15919">
        <ele>335</ele>
        <time>2011-03-27T10:11:38Z</time>
      </trkpt>
      <trkpt lat="43.98249" lon="5.15921">
        <ele>334</ele>
        <time>2011-03-27T10:11:44Z</time>
      </trkpt>
      <trkpt lat="43.98241" lon="5.15923">
        <ele>335</ele>
        <time>2011-03-27T10:11:50Z</time>
      </trkpt>
      <trkpt lat="43.98232" lon="5.15926">
        <ele>337</ele>
        <time>2011-03-27T10:11:56Z</time>
      </trkpt>
      <trkpt lat="43.98224" lon="5.15929">
        <ele>338</ele>
        <time>2011-03-27T10:12:02Z</time>
      </trkpt>
      <trkpt lat="43.98216" lon="5.15934">
        <ele>340</ele>
        <time>2011-03-27T10:12:10Z</time>
      </trkpt>
      <trkpt lat="43.98215" lon="5.15934">
        <ele>341</ele>
        <time>2011-03-27T10:12:11Z</time>
      </trkpt>
      <trkpt lat="43.982" lon="5.15943">
        <ele>343</ele>
        <time>2011-03-27T10:12:22Z</time>
      </trkpt>
      <trkpt lat="43.98191" lon="5.15946">
        <ele>344</ele>
        <time>2011-03-27T10:12:28Z</time>
      </trkpt>
      <trkpt lat="43.98184" lon="5.15952">
        <ele>344</ele>
        <time>2011-03-27T10:12:34Z</time>
      </trkpt>
      <trkpt lat="43.9818" lon="5.15961">
        <ele>344</ele>
        <time>2011-03-27T10:12:39Z</time>
      </trkpt>
      <trkpt lat="43.98175" lon="5.1597">
        <ele>344</ele>
        <time>2011-03-27T10:12:45Z</time>
      </trkpt>
      <trkpt lat="43.98169" lon="5.15977">
        <ele>345</ele>
        <time>2011-03-27T10:12:50Z</time>
      </trkpt>
      <trkpt lat="43.98163" lon="5.15985">
        <ele>345</ele>
        <time>2011-03-27T10:12:56Z</time>
      </trkpt>
      <trkpt lat="43.98156" lon="5.15992">
        <ele>346</ele>
        <time>2011-03-27T10:13:02Z</time>
      </trkpt>
      <trkpt lat="43.98148" lon="5.15999">
        <ele>347</ele>
        <time>2011-03-27T10:13:08Z</time>
      </trkpt>
      <trkpt lat="43.98141" lon="5.16004">
        <ele>348</ele>
        <time>2011-03-27T10:13:13Z</time>
      </trkpt>
      <trkpt lat="43.98139" lon="5.16005">
        <ele>348</ele>
        <time>2011-03-27T10:13:14Z</time>
      </trkpt>
      <trkpt lat="43.98126" lon="5.16019">
        <ele>350</ele>
        <time>2011-03-27T10:13:25Z</time>
      </trkpt>
      <trkpt lat="43.9812" lon="5.16026">
        <ele>351</ele>
        <time>2011-03-27T10:13:30Z</time>
      </trkpt>
      <trkpt lat="43.98114" lon="5.16032">
        <ele>352</ele>
        <time>2011-03-27T10:13:35Z</time>
      </trkpt>
      <trkpt lat="43.98108" lon="5.16039">
        <ele>352</ele>
        <time>2011-03-27T10:13:40Z</time>
      </trkpt>
      <trkpt lat="43.98101" lon="5.16047">
        <ele>353</ele>
        <time>2011-03-27T10:13:46Z</time>
      </trkpt>
      <trkpt lat="43.98095" lon="5.16055">
        <ele>354</ele>
        <time>2011-03-27T10:13:52Z</time>
      </trkpt>
      <trkpt lat="43.98089" lon="5.16063">
        <ele>356</ele>
        <time>2011-03-27T10:13:57Z</time>
      </trkpt>
      <trkpt lat="43.98083" lon="5.16069">
        <ele>356</ele>
        <time>2011-03-27T10:14:02Z</time>
      </trkpt>
      <trkpt lat="43.98076" lon="5.16076">
        <ele>358</ele>
        <time>2011-03-27T10:14:07Z</time>
      </trkpt>
      <trkpt lat="43.98069" lon="5.16083">
        <ele>358</ele>
        <time>2011-03-27T10:14:12Z</time>
      </trkpt>
      <trkpt lat="43.98062" lon="5.16089">
        <ele>360</ele>
        <time>2011-03-27T10:14:16Z</time>
      </trkpt>
      <trkpt lat="43.98061" lon="5.16091">
        <ele>360</ele>
        <time>2011-03-27T10:14:17Z</time>
      </trkpt>
      <trkpt lat="43.9805" lon="5.16105">
        <ele>362</ele>
        <time>2011-03-27T10:14:27Z</time>
      </trkpt>
      <trkpt lat="43.98045" lon="5.16114">
        <ele>362</ele>
        <time>2011-03-27T10:14:32Z</time>
      </trkpt>
      <trkpt lat="43.9804" lon="5.16123">
        <ele>362</ele>
        <time>2011-03-27T10:14:37Z</time>
      </trkpt>
      <trkpt lat="43.98036" lon="5.16133">
        <ele>361</ele>
        <time>2011-03-27T10:14:42Z</time>
      </trkpt>
      <trkpt lat="43.98032" lon="5.16143">
        <ele>362</ele>
        <time>2011-03-27T10:14:47Z</time>
      </trkpt>
      <trkpt lat="43.98029" lon="5.16154">
        <ele>362</ele>
        <time>2011-03-27T10:14:53Z</time>
      </trkpt>
      <trkpt lat="43.98026" lon="5.16164">
        <ele>363</ele>
        <time>2011-03-27T10:14:59Z</time>
      </trkpt>
      <trkpt lat="43.98023" lon="5.16175">
        <ele>362</ele>
        <time>2011-03-27T10:15:05Z</time>
      </trkpt>
      <trkpt lat="43.98021" lon="5.16187">
        <ele>362</ele>
        <time>2011-03-27T10:15:11Z</time>
      </trkpt>
      <trkpt lat="43.98021" lon="5.162">
        <ele>361</ele>
        <time>2011-03-27T10:15:17Z</time>
      </trkpt>
      <trkpt lat="43.98021" lon="5.16202">
        <ele>360</ele>
        <time>2011-03-27T10:15:18Z</time>
      </trkpt>
      <trkpt lat="43.9802" lon="5.16222">
        <ele>362</ele>
        <time>2011-03-27T10:15:27Z</time>
      </trkpt>
      <trkpt lat="43.9802" lon="5.16234">
        <ele>362</ele>
        <time>2011-03-27T10:15:32Z</time>
      </trkpt>
      <trkpt lat="43.98019" lon="5.16246">
        <ele>361</ele>
        <time>2011-03-27T10:15:37Z</time>
      </trkpt>
      <trkpt lat="43.9802" lon="5.16258">
        <ele>362</ele>
        <time>2011-03-27T10:15:42Z</time>
      </trkpt>
      <trkpt lat="43.98021" lon="5.16269">
        <ele>363</ele>
        <time>2011-03-27T10:15:47Z</time>
      </trkpt>
      <trkpt lat="43.98023" lon="5.1628">
        <ele>362</ele>
        <time>2011-03-27T10:15:52Z</time>
      </trkpt>
      <trkpt lat="43.98026" lon="5.16291">
        <ele>363</ele>
        <time>2011-03-27T10:15:57Z</time>
      </trkpt>
      <trkpt lat="43.98028" lon="5.16301">
        <ele>362</ele>
        <time>2011-03-27T10:16:02Z</time>
      </trkpt>
      <trkpt lat="43.9803" lon="5.16312">
        <ele>361</ele>
        <time>2011-03-27T10:16:07Z</time>
      </trkpt>
      <trkpt lat="43.98033" lon="5.16323">
        <ele>361</ele>
        <time>2011-03-27T10:16:12Z</time>
      </trkpt>
      <trkpt lat="43.98035" lon="5.16333">
        <ele>361</ele>
        <time>2011-03-27T10:16:17Z</time>
      </trkpt>
      <trkpt lat="43.98038" lon="5.16344">
        <ele>360</ele>
        <time>2011-03-27T10:16:22Z</time>
      </trkpt>
      <trkpt lat="43.98039" lon="5.16346">
        <ele>360</ele>
        <time>2011-03-27T10:16:23Z</time>
      </trkpt>
      <trkpt lat="43.98044" lon="5.16364">
        <ele>362</ele>
        <time>2011-03-27T10:16:32Z</time>
      </trkpt>
      <trkpt lat="43.98047" lon="5.16375">
        <ele>363</ele>
        <time>2011-03-27T10:16:38Z</time>
      </trkpt>
      <trkpt lat="43.98049" lon="5.16387">
        <ele>362</ele>
        <time>2011-03-27T10:16:44Z</time>
      </trkpt>
      <trkpt lat="43.98051" lon="5.16397">
        <ele>363</ele>
        <time>2011-03-27T10:16:49Z</time>
      </trkpt>
      <trkpt lat="43.98053" lon="5.16408">
        <ele>362</ele>
        <time>2011-03-27T10:16:54Z</time>
      </trkpt>
      <trkpt lat="43.98054" lon="5.16418">
        <ele>362</ele>
        <time>2011-03-27T10:16:59Z</time>
      </trkpt>
      <trkpt lat="43.98055" lon="5.1643">
        <ele>363</ele>
        <time>2011-03-27T10:17:04Z</time>
      </trkpt>
      <trkpt lat="43.98054" lon="5.1644">
        <ele>363</ele>
        <time>2011-03-27T10:17:09Z</time>
      </trkpt>
      <trkpt lat="43.98053" lon="5.16451">
        <ele>363</ele>
        <time>2011-03-27T10:17:14Z</time>
      </trkpt>
      <trkpt lat="43.98051" lon="5.16461">
        <ele>363</ele>
        <time>2011-03-27T10:17:19Z</time>
      </trkpt>
      <trkpt lat="43.98049" lon="5.16471">
        <ele>364</ele>
        <time>2011-03-27T10:17:24Z</time>
      </trkpt>
      <trkpt lat="43.98048" lon="5.16474">
        <ele>364</ele>
        <time>2011-03-27T10:17:25Z</time>
      </trkpt>
      <trkpt lat="43.98043" lon="5.16492">
        <ele>364</ele>
        <time>2011-03-27T10:17:36Z</time>
      </trkpt>
      <trkpt lat="43.9804" lon="5.16503">
        <ele>364</ele>
        <time>2011-03-27T10:17:43Z</time>
      </trkpt>
      <trkpt lat="43.98038" lon="5.16514">
        <ele>363</ele>
        <time>2011-03-27T10:17:49Z</time>
      </trkpt>
      <trkpt lat="43.98038" lon="5.16526">
        <ele>363</ele>
        <time>2011-03-27T10:17:55Z</time>
      </trkpt>
      <trkpt lat="43.98039" lon="5.16537">
        <ele>363</ele>
        <time>2011-03-27T10:18:00Z</time>
      </trkpt>
      <trkpt lat="43.98041" lon="5.16549">
        <ele>362</ele>
        <time>2011-03-27T10:18:05Z</time>
      </trkpt>
      <trkpt lat="43.98044" lon="5.1656">
        <ele>362</ele>
        <time>2011-03-27T10:18:10Z</time>
      </trkpt>
      <trkpt lat="43.98046" lon="5.16572">
        <ele>362</ele>
        <time>2011-03-27T10:18:15Z</time>
      </trkpt>
      <trkpt lat="43.98047" lon="5.16584">
        <ele>361</ele>
        <time>2011-03-27T10:18:20Z</time>
      </trkpt>
      <trkpt lat="43.98047" lon="5.16595">
        <ele>361</ele>
        <time>2011-03-27T10:18:25Z</time>
      </trkpt>
      <trkpt lat="43.98047" lon="5.16597">
        <ele>361</ele>
        <time>2011-03-27T10:18:26Z</time>
      </trkpt>
      <trkpt lat="43.98048" lon="5.16617">
        <ele>361</ele>
        <time>2011-03-27T10:18:35Z</time>
      </trkpt>
      <trkpt lat="43.98048" lon="5.16628">
        <ele>362</ele>
        <time>2011-03-27T10:18:40Z</time>
      </trkpt>
      <trkpt lat="43.98048" lon="5.16639">
        <ele>362</ele>
        <time>2011-03-27T10:18:45Z</time>
      </trkpt>
      <trkpt lat="43.98048" lon="5.1665">
        <ele>362</ele>
        <time>2011-03-27T10:18:50Z</time>
      </trkpt>
      <trkpt lat="43.98048" lon="5.16662">
        <ele>362</ele>
        <time>2011-03-27T10:18:55Z</time>
      </trkpt>
      <trkpt lat="43.98048" lon="5.16674">
        <ele>362</ele>
        <time>2011-03-27T10:19:00Z</time>
      </trkpt>
      <trkpt lat="43.98048" lon="5.16685">
        <ele>362</ele>
        <time>2011-03-27T10:19:05Z</time>
      </trkpt>
      <trkpt lat="43.98047" lon="5.16696">
        <ele>362</ele>
        <time>2011-03-27T10:19:10Z</time>
      </trkpt>
      <trkpt lat="43.98046" lon="5.16707">
        <ele>362</ele>
        <time>2011-03-27T10:19:15Z</time>
      </trkpt>
      <trkpt lat="43.98045" lon="5.16718">
        <ele>362</ele>
        <time>2011-03-27T10:19:20Z</time>
      </trkpt>
      <trkpt lat="43.98043" lon="5.16729">
        <ele>362</ele>
        <time>2011-03-27T10:19:25Z</time>
      </trkpt>
      <trkpt lat="43.98041" lon="5.16741">
        <ele>363</ele>
        <time>2011-03-27T10:19:31Z</time>
      </trkpt>
      <trkpt lat="43.98041" lon="5.16743">
        <ele>363</ele>
        <time>2011-03-27T10:19:32Z</time>
      </trkpt>
      <trkpt lat="43.98042" lon="5.16763">
        <ele>363</ele>
        <time>2011-03-27T10:19:41Z</time>
      </trkpt>
      <trkpt lat="43.98042" lon="5.16775">
        <ele>362</ele>
        <time>2011-03-27T10:19:46Z</time>
      </trkpt>
      <trkpt lat="43.98043" lon="5.16785">
        <ele>362</ele>
        <time>2011-03-27T10:19:50Z</time>
      </trkpt>
      <trkpt lat="43.98045" lon="5.16795">
        <ele>361</ele>
        <time>2011-03-27T10:19:54Z</time>
      </trkpt>
      <trkpt lat="43.98049" lon="5.16806">
        <ele>361</ele>
        <time>2011-03-27T10:19:59Z</time>
      </trkpt>
      <trkpt lat="43.98053" lon="5.16815">
        <ele>361</ele>
        <time>2011-03-27T10:20:04Z</time>
      </trkpt>
      <trkpt lat="43.98058" lon="5.16824">
        <ele>362</ele>
        <time>2011-03-27T10:20:09Z</time>
      </trkpt>
      <trkpt lat="43.98061" lon="5.16834">
        <ele>362</ele>
        <time>2011-03-27T10:20:14Z</time>
      </trkpt>
      <trkpt lat="43.98065" lon="5.16845">
        <ele>361</ele>
        <time>2011-03-27T10:20:19Z</time>
      </trkpt>
      <trkpt lat="43.9807" lon="5.16855">
        <ele>362</ele>
        <time>2011-03-27T10:20:24Z</time>
      </trkpt>
      <trkpt lat="43.98075" lon="5.16864">
        <ele>363</ele>
        <time>2011-03-27T10:20:29Z</time>
      </trkpt>
      <trkpt lat="43.98079" lon="5.16872">
        <ele>364</ele>
        <time>2011-03-27T10:20:34Z</time>
      </trkpt>
      <trkpt lat="43.9808" lon="5.16874">
        <ele>364</ele>
        <time>2011-03-27T10:20:35Z</time>
      </trkpt>
      <trkpt lat="43.98091" lon="5.16888">
        <ele>364</ele>
        <time>2011-03-27T10:20:44Z</time>
      </trkpt>
      <trkpt lat="43.98097" lon="5.16895">
        <ele>365</ele>
        <time>2011-03-27T10:20:49Z</time>
      </trkpt>
      <trkpt lat="43.98103" lon="5.16902">
        <ele>366</ele>
        <time>2011-03-27T10:20:55Z</time>
      </trkpt>
      <trkpt lat="43.98109" lon="5.16909">
        <ele>366</ele>
        <time>2011-03-27T10:21:00Z</time>
      </trkpt>
      <trkpt lat="43.98116" lon="5.16916">
        <ele>366</ele>
        <time>2011-03-27T10:21:06Z</time>
      </trkpt>
      <trkpt lat="43.98122" lon="5.16923">
        <ele>365</ele>
        <time>2011-03-27T10:21:11Z</time>
      </trkpt>
      <trkpt lat="43.98128" lon="5.1693">
        <ele>365</ele>
        <time>2011-03-27T10:21:16Z</time>
      </trkpt>
      <trkpt lat="43.98133" lon="5.16939">
        <ele>366</ele>
        <time>2011-03-27T10:21:21Z</time>
      </trkpt>
      <trkpt lat="43.98138" lon="5.16947">
        <ele>365</ele>
        <time>2011-03-27T10:21:26Z</time>
      </trkpt>
      <trkpt lat="43.98144" lon="5.16955">
        <ele>365</ele>
        <time>2011-03-27T10:21:31Z</time>
      </trkpt>
      <trkpt lat="43.98149" lon="5.16963">
        <ele>365</ele>
        <time>2011-03-27T10:21:36Z</time>
      </trkpt>
      <trkpt lat="43.98151" lon="5.16965">
        <ele>365</ele>
        <time>2011-03-27T10:21:37Z</time>
      </trkpt>
      <trkpt lat="43.98163" lon="5.16975">
        <ele>367</ele>
        <time>2011-03-27T10:22:06Z</time>
      </trkpt>
      <trkpt lat="43.98171" lon="5.16982">
        <ele>367</ele>
        <time>2011-03-27T10:23:10Z</time>
      </trkpt>
      <trkpt lat="43.98171" lon="5.16983">
        <ele>367</ele>
        <time>2011-03-27T10:23:11Z</time>
      </trkpt>
      <trkpt lat="43.98185" lon="5.16996">
        <ele>368</ele>
        <time>2011-03-27T10:23:24Z</time>
      </trkpt>
      <trkpt lat="43.98192" lon="5.17002">
        <ele>367</ele>
        <time>2011-03-27T10:23:30Z</time>
      </trkpt>
      <trkpt lat="43.98199" lon="5.17007">
        <ele>366</ele>
        <time>2011-03-27T10:23:38Z</time>
      </trkpt>
      <trkpt lat="43.98206" lon="5.17013">
        <ele>364</ele>
        <time>2011-03-27T10:23:43Z</time>
      </trkpt>
      <trkpt lat="43.98212" lon="5.1702">
        <ele>364</ele>
        <time>2011-03-27T10:23:48Z</time>
      </trkpt>
      <trkpt lat="43.98219" lon="5.17027">
        <ele>366</ele>
        <time>2011-03-27T10:23:53Z</time>
      </trkpt>
      <trkpt lat="43.98225" lon="5.17035">
        <ele>366</ele>
        <time>2011-03-27T10:23:58Z</time>
      </trkpt>
      <trkpt lat="43.9823" lon="5.17043">
        <ele>366</ele>
        <time>2011-03-27T10:24:03Z</time>
      </trkpt>
      <trkpt lat="43.98237" lon="5.17049">
        <ele>365</ele>
        <time>2011-03-27T10:24:08Z</time>
      </trkpt>
      <trkpt lat="43.98245" lon="5.17052">
        <ele>364</ele>
        <time>2011-03-27T10:24:13Z</time>
      </trkpt>
      <trkpt lat="43.98246" lon="5.17053">
        <ele>364</ele>
        <time>2011-03-27T10:24:14Z</time>
      </trkpt>
      <trkpt lat="43.9826" lon="5.1706">
        <ele>364</ele>
        <time>2011-03-27T10:24:23Z</time>
      </trkpt>
      <trkpt lat="43.98268" lon="5.17065">
        <ele>364</ele>
        <time>2011-03-27T10:24:28Z</time>
      </trkpt>
      <trkpt lat="43.98275" lon="5.17071">
        <ele>365</ele>
        <time>2011-03-27T10:24:33Z</time>
      </trkpt>
      <trkpt lat="43.98283" lon="5.17077">
        <ele>366</ele>
        <time>2011-03-27T10:24:38Z</time>
      </trkpt>
      <trkpt lat="43.9829" lon="5.17084">
        <ele>367</ele>
        <time>2011-03-27T10:24:43Z</time>
      </trkpt>
      <trkpt lat="43.98297" lon="5.17089">
        <ele>367</ele>
        <time>2011-03-27T10:24:48Z</time>
      </trkpt>
      <trkpt lat="43.98304" lon="5.17094">
        <ele>367</ele>
        <time>2011-03-27T10:24:53Z</time>
      </trkpt>
      <trkpt lat="43.98311" lon="5.17099">
        <ele>367</ele>
        <time>2011-03-27T10:24:58Z</time>
      </trkpt>
      <trkpt lat="43.98319" lon="5.17104">
        <ele>365</ele>
        <time>2011-03-27T10:25:03Z</time>
      </trkpt>
      <trkpt lat="43.98327" lon="5.1711">
        <ele>365</ele>
        <time>2011-03-27T10:25:08Z</time>
      </trkpt>
      <trkpt lat="43.98335" lon="5.17115">
        <ele>366</ele>
        <time>2011-03-27T10:25:13Z</time>
      </trkpt>
      <trkpt lat="43.98343" lon="5.1712">
        <ele>366</ele>
        <time>2011-03-27T10:25:18Z</time>
      </trkpt>
      <trkpt lat="43.98345" lon="5.17121">
        <ele>366</ele>
        <time>2011-03-27T10:25:19Z</time>
      </trkpt>
      <trkpt lat="43.98358" lon="5.1713">
        <ele>367</ele>
        <time>2011-03-27T10:25:28Z</time>
      </trkpt>
      <trkpt lat="43.98365" lon="5.17136">
        <ele>366</ele>
        <time>2011-03-27T10:25:34Z</time>
      </trkpt>
      <trkpt lat="43.98372" lon="5.17143">
        <ele>366</ele>
        <time>2011-03-27T10:25:40Z</time>
      </trkpt>
      <trkpt lat="43.98378" lon="5.17151">
        <ele>366</ele>
        <time>2011-03-27T10:25:46Z</time>
      </trkpt>
      <trkpt lat="43.98384" lon="5.17158">
        <ele>367</ele>
        <time>2011-03-27T10:25:51Z</time>
      </trkpt>
      <trkpt lat="43.98391" lon="5.17165">
        <ele>367</ele>
        <time>2011-03-27T10:25:56Z</time>
      </trkpt>
      <trkpt lat="43.98397" lon="5.17171">
        <ele>368</ele>
        <time>2011-03-27T10:26:01Z</time>
      </trkpt>
      <trkpt lat="43.98404" lon="5.17178">
        <ele>368</ele>
        <time>2011-03-27T10:26:07Z</time>
      </trkpt>
      <trkpt lat="43.98412" lon="5.17184">
        <ele>369</ele>
        <time>2011-03-27T10:26:13Z</time>
      </trkpt>
      <trkpt lat="43.98418" lon="5.17189">
        <ele>368</ele>
        <time>2011-03-27T10:26:18Z</time>
      </trkpt>
      <trkpt lat="43.98426" lon="5.17196">
        <ele>369</ele>
        <time>2011-03-27T10:26:24Z</time>
      </trkpt>
      <trkpt lat="43.98427" lon="5.17197">
        <ele>369</ele>
        <time>2011-03-27T10:26:25Z</time>
      </trkpt>
      <trkpt lat="43.98439" lon="5.1721">
        <ele>370</ele>
        <time>2011-03-27T10:26:34Z</time>
      </trkpt>
      <trkpt lat="43.98446" lon="5.17217">
        <ele>370</ele>
        <time>2011-03-27T10:26:39Z</time>
      </trkpt>
      <trkpt lat="43.98454" lon="5.1722">
        <ele>370</ele>
        <time>2011-03-27T10:26:45Z</time>
      </trkpt>
      <trkpt lat="43.98462" lon="5.17222">
        <ele>369</ele>
        <time>2011-03-27T10:26:50Z</time>
      </trkpt>
      <trkpt lat="43.98469" lon="5.17224">
        <ele>368</ele>
        <time>2011-03-27T10:26:54Z</time>
      </trkpt>
      <trkpt lat="43.98478" lon="5.17226">
        <ele>366</ele>
        <time>2011-03-27T10:26:59Z</time>
      </trkpt>
      <trkpt lat="43.98486" lon="5.17228">
        <ele>363</ele>
        <time>2011-03-27T10:27:05Z</time>
      </trkpt>
      <trkpt lat="43.98492" lon="5.17233">
        <ele>362</ele>
        <time>2011-03-27T10:27:09Z</time>
      </trkpt>
      <trkpt lat="43.985" lon="5.17238">
        <ele>361</ele>
        <time>2011-03-27T10:27:14Z</time>
      </trkpt>
      <trkpt lat="43.98507" lon="5.1724">
        <ele>361</ele>
        <time>2011-03-27T10:27:18Z</time>
      </trkpt>
      <trkpt lat="43.98515" lon="5.17242">
        <ele>359</ele>
        <time>2011-03-27T10:27:23Z</time>
      </trkpt>
      <trkpt lat="43.98524" lon="5.17244">
        <ele>356</ele>
        <time>2011-03-27T10:27:29Z</time>
      </trkpt>
      <trkpt lat="43.98525" lon="5.17245">
        <ele>356</ele>
        <time>2011-03-27T10:27:30Z</time>
      </trkpt>
      <trkpt lat="43.9854" lon="5.17247">
        <ele>354</ele>
        <time>2011-03-27T10:27:40Z</time>
      </trkpt>
      <trkpt lat="43.98549" lon="5.17249">
        <ele>353</ele>
        <time>2011-03-27T10:27:45Z</time>
      </trkpt>
      <trkpt lat="43.98557" lon="5.17251">
        <ele>352</ele>
        <time>2011-03-27T10:27:50Z</time>
      </trkpt>
      <trkpt lat="43.98565" lon="5.17253">
        <ele>351</ele>
        <time>2011-03-27T10:27:55Z</time>
      </trkpt>
      <trkpt lat="43.98573" lon="5.17258">
        <ele>349</ele>
        <time>2011-03-27T10:28:00Z</time>
      </trkpt>
      <trkpt lat="43.9858" lon="5.17266">
        <ele>348</ele>
        <time>2011-03-27T10:28:05Z</time>
      </trkpt>
      <trkpt lat="43.98585" lon="5.17274">
        <ele>347</ele>
        <time>2011-03-27T10:28:10Z</time>
      </trkpt>
      <trkpt lat="43.98591" lon="5.17283">
        <ele>346</ele>
        <time>2011-03-27T10:28:15Z</time>
      </trkpt>
      <trkpt lat="43.98596" lon="5.17293">
        <ele>345</ele>
        <time>2011-03-27T10:28:20Z</time>
      </trkpt>
      <trkpt lat="43.986" lon="5.17301">
        <ele>344</ele>
        <time>2011-03-27T10:28:24Z</time>
      </trkpt>
      <trkpt lat="43.98605" lon="5.17311">
        <ele>344</ele>
        <time>2011-03-27T10:28:29Z</time>
      </trkpt>
      <trkpt lat="43.9861" lon="5.1732">
        <ele>343</ele>
        <time>2011-03-27T10:28:34Z</time>
      </trkpt>
      <trkpt lat="43.98612" lon="5.17322">
        <ele>343</ele>
        <time>2011-03-27T10:28:35Z</time>
      </trkpt>
      <trkpt lat="43.98623" lon="5.17338">
        <ele>342</ele>
        <time>2011-03-27T10:28:45Z</time>
      </trkpt>
      <trkpt lat="43.9863" lon="5.17335">
        <ele>341</ele>
        <time>2011-03-27T10:28:51Z</time>
      </trkpt>
      <trkpt lat="43.98637" lon="5.17327">
        <ele>341</ele>
        <time>2011-03-27T10:28:57Z</time>
      </trkpt>
      <trkpt lat="43.98643" lon="5.1732">
        <ele>341</ele>
        <time>2011-03-27T10:29:02Z</time>
      </trkpt>
      <trkpt lat="43.98649" lon="5.17313">
        <ele>340</ele>
        <time>2011-03-27T10:29:07Z</time>
      </trkpt>
      <trkpt lat="43.98656" lon="5.17307">
        <ele>340</ele>
        <time>2011-03-27T10:29:12Z</time>
      </trkpt>
      <trkpt lat="43.98664" lon="5.17306">
        <ele>340</ele>
        <time>2011-03-27T10:29:17Z</time>
      </trkpt>
      <trkpt lat="43.98671" lon="5.17313">
        <ele>339</ele>
        <time>2011-03-27T10:29:22Z</time>
      </trkpt>
      <trkpt lat="43.98677" lon="5.17321">
        <ele>339</ele>
        <time>2011-03-27T10:29:27Z</time>
      </trkpt>
      <trkpt lat="43.98683" lon="5.17329">
        <ele>339</ele>
        <time>2011-03-27T10:29:32Z</time>
      </trkpt>
      <trkpt lat="43.98687" lon="5.1734">
        <ele>339</ele>
        <time>2011-03-27T10:29:37Z</time>
      </trkpt>
      <trkpt lat="43.98687" lon="5.17343">
        <ele>339</ele>
        <time>2011-03-27T10:29:38Z</time>
      </trkpt>
      <trkpt lat="43.9869" lon="5.17364">
        <ele>340</ele>
        <time>2011-03-27T10:29:47Z</time>
      </trkpt>
      <trkpt lat="43.98692" lon="5.17376">
        <ele>341</ele>
        <time>2011-03-27T10:29:52Z</time>
      </trkpt>
      <trkpt lat="43.98693" lon="5.17388">
        <ele>342</ele>
        <time>2011-03-27T10:29:57Z</time>
      </trkpt>
      <trkpt lat="43.98693" lon="5.174">
        <ele>342</ele>
        <time>2011-03-27T10:30:02Z</time>
      </trkpt>
      <trkpt lat="43.98693" lon="5.17412">
        <ele>344</ele>
        <time>2011-03-27T10:30:07Z</time>
      </trkpt>
      <trkpt lat="43.98693" lon="5.17422">
        <ele>344</ele>
        <time>2011-03-27T10:30:11Z</time>
      </trkpt>
      <trkpt lat="43.98693" lon="5.17435">
        <ele>346</ele>
        <time>2011-03-27T10:30:16Z</time>
      </trkpt>
      <trkpt lat="43.98694" lon="5.17445">
        <ele>346</ele>
        <time>2011-03-27T10:30:20Z</time>
      </trkpt>
      <trkpt lat="43.98694" lon="5.17457">
        <ele>346</ele>
        <time>2011-03-27T10:30:25Z</time>
      </trkpt>
      <trkpt lat="43.98694" lon="5.17469">
        <ele>349</ele>
        <time>2011-03-27T10:30:30Z</time>
      </trkpt>
      <trkpt lat="43.98694" lon="5.17481">
        <ele>350</ele>
        <time>2011-03-27T10:30:35Z</time>
      </trkpt>
      <trkpt lat="43.98695" lon="5.17491">
        <ele>351</ele>
        <time>2011-03-27T10:30:40Z</time>
      </trkpt>
      <trkpt lat="43.98695" lon="5.17494">
        <ele>350</ele>
        <time>2011-03-27T10:30:41Z</time>
      </trkpt>
      <trkpt lat="43.98695" lon="5.17514">
        <ele>352</ele>
        <time>2011-03-27T10:30:50Z</time>
      </trkpt>
      <trkpt lat="43.98695" lon="5.17525">
        <ele>353</ele>
        <time>2011-03-27T10:30:55Z</time>
      </trkpt>
      <trkpt lat="43.98694" lon="5.17536">
        <ele>354</ele>
        <time>2011-03-27T10:31:00Z</time>
      </trkpt>
      <trkpt lat="43.98694" lon="5.17547">
        <ele>357</ele>
        <time>2011-03-27T10:31:05Z</time>
      </trkpt>
      <trkpt lat="43.98693" lon="5.17558">
        <ele>358</ele>
        <time>2011-03-27T10:31:10Z</time>
      </trkpt>
      <trkpt lat="43.98694" lon="5.17569">
        <ele>359</ele>
        <time>2011-03-27T10:31:15Z</time>
      </trkpt>
      <trkpt lat="43.98698" lon="5.17579">
        <ele>361</ele>
        <time>2011-03-27T10:31:20Z</time>
      </trkpt>
      <trkpt lat="43.98704" lon="5.17588">
        <ele>364</ele>
        <time>2011-03-27T10:31:26Z</time>
      </trkpt>
      <trkpt lat="43.9871" lon="5.17596">
        <ele>365</ele>
        <time>2011-03-27T10:31:32Z</time>
      </trkpt>
      <trkpt lat="43.98715" lon="5.17605">
        <ele>366</ele>
        <time>2011-03-27T10:31:37Z</time>
      </trkpt>
      <trkpt lat="43.98719" lon="5.17614">
        <ele>368</ele>
        <time>2011-03-27T10:31:41Z</time>
      </trkpt>
      <trkpt lat="43.98719" lon="5.17616">
        <ele>368</ele>
        <time>2011-03-27T10:31:42Z</time>
      </trkpt>
      <trkpt lat="43.98719" lon="5.17635">
        <ele>371</ele>
        <time>2011-03-27T10:31:49Z</time>
      </trkpt>
      <trkpt lat="43.9872" lon="5.17647">
        <ele>372</ele>
        <time>2011-03-27T10:31:54Z</time>
      </trkpt>
      <trkpt lat="43.9872" lon="5.17658">
        <ele>374</ele>
        <time>2011-03-27T10:31:59Z</time>
      </trkpt>
      <trkpt lat="43.9872" lon="5.17669">
        <ele>375</ele>
        <time>2011-03-27T10:32:04Z</time>
      </trkpt>
      <trkpt lat="43.98721" lon="5.17681">
        <ele>377</ele>
        <time>2011-03-27T10:32:09Z</time>
      </trkpt>
      <trkpt lat="43.9872" lon="5.17693">
        <ele>378</ele>
        <time>2011-03-27T10:32:14Z</time>
      </trkpt>
      <trkpt lat="43.98719" lon="5.17705">
        <ele>380</ele>
        <time>2011-03-27T10:32:19Z</time>
      </trkpt>
      <trkpt lat="43.98717" lon="5.17716">
        <ele>381</ele>
        <time>2011-03-27T10:32:24Z</time>
      </trkpt>
      <trkpt lat="43.98718" lon="5.17728">
        <ele>381</ele>
        <time>2011-03-27T10:32:30Z</time>
      </trkpt>
      <trkpt lat="43.98718" lon="5.17738">
        <ele>381</ele>
        <time>2011-03-27T10:32:35Z</time>
      </trkpt>
      <trkpt lat="43.98719" lon="5.17749">
        <ele>383</ele>
        <time>2011-03-27T10:32:40Z</time>
      </trkpt>
      <trkpt lat="43.9872" lon="5.1776">
        <ele>384</ele>
        <time>2011-03-27T10:32:45Z</time>
      </trkpt>
      <trkpt lat="43.9872" lon="5.17762">
        <ele>384</ele>
        <time>2011-03-27T10:32:46Z</time>
      </trkpt>
      <trkpt lat="43.98724" lon="5.17781">
        <ele>385</ele>
        <time>2011-03-27T10:32:55Z</time>
      </trkpt>
      <trkpt lat="43.98728" lon="5.17793">
        <ele>385</ele>
        <time>2011-03-27T10:33:01Z</time>
      </trkpt>
      <trkpt lat="43.98731" lon="5.17804">
        <ele>386</ele>
        <time>2011-03-27T10:33:07Z</time>
      </trkpt>
      <trkpt lat="43.98734" lon="5.17814">
        <ele>386</ele>
        <time>2011-03-27T10:33:12Z</time>
      </trkpt>
      <trkpt lat="43.98737" lon="5.17824">
        <ele>387</ele>
        <time>2011-03-27T10:33:17Z</time>
      </trkpt>
      <trkpt lat="43.9874" lon="5.17835">
        <ele>388</ele>
        <time>2011-03-27T10:33:22Z</time>
      </trkpt>
      <trkpt lat="43.98743" lon="5.17845">
        <ele>388</ele>
        <time>2011-03-27T10:33:27Z</time>
      </trkpt>
      <trkpt lat="43.98744" lon="5.17856">
        <ele>389</ele>
        <time>2011-03-27T10:33:32Z</time>
      </trkpt>
      <trkpt lat="43.98745" lon="5.17868">
        <ele>388</ele>
        <time>2011-03-27T10:33:37Z</time>
      </trkpt>
      <trkpt lat="43.98746" lon="5.17879">
        <ele>388</ele>
        <time>2011-03-27T10:33:42Z</time>
      </trkpt>
      <trkpt lat="43.98746" lon="5.1789">
        <ele>388</ele>
        <time>2011-03-27T10:33:47Z</time>
      </trkpt>
      <trkpt lat="43.98746" lon="5.17892">
        <ele>388</ele>
        <time>2011-03-27T10:33:48Z</time>
      </trkpt>
      <trkpt lat="43.98745" lon="5.17913">
        <ele>389</ele>
        <time>2011-03-27T10:33:57Z</time>
      </trkpt>
      <trkpt lat="43.98743" lon="5.17924">
        <ele>389</ele>
        <time>2011-03-27T10:34:02Z</time>
      </trkpt>
      <trkpt lat="43.98739" lon="5.17934">
        <ele>388</ele>
        <time>2011-03-27T10:34:07Z</time>
      </trkpt>
      <trkpt lat="43.98736" lon="5.17944">
        <ele>389</ele>
        <time>2011-03-27T10:34:12Z</time>
      </trkpt>
      <trkpt lat="43.98735" lon="5.17955">
        <ele>389</ele>
        <time>2011-03-27T10:34:17Z</time>
      </trkpt>
      <trkpt lat="43.98734" lon="5.17966">
        <ele>388</ele>
        <time>2011-03-27T10:34:23Z</time>
      </trkpt>
      <trkpt lat="43.98731" lon="5.17977">
        <ele>388</ele>
        <time>2011-03-27T10:34:28Z</time>
      </trkpt>
      <trkpt lat="43.98732" lon="5.17989">
        <ele>388</ele>
        <time>2011-03-27T10:34:33Z</time>
      </trkpt>
      <trkpt lat="43.98735" lon="5.18">
        <ele>387</ele>
        <time>2011-03-27T10:34:39Z</time>
      </trkpt>
      <trkpt lat="43.98738" lon="5.1801">
        <ele>387</ele>
        <time>2011-03-27T10:34:44Z</time>
      </trkpt>
      <trkpt lat="43.98739" lon="5.18023">
        <ele>387</ele>
        <time>2011-03-27T10:34:49Z</time>
      </trkpt>
      <trkpt lat="43.98739" lon="5.18025">
        <ele>387</ele>
        <time>2011-03-27T10:34:50Z</time>
      </trkpt>
      <trkpt lat="43.9874" lon="5.18044">
        <ele>387</ele>
        <time>2011-03-27T10:34:57Z</time>
      </trkpt>
      <trkpt lat="43.98741" lon="5.18054">
        <ele>386</ele>
        <time>2011-03-27T10:35:01Z</time>
      </trkpt>
      <trkpt lat="43.98744" lon="5.18064">
        <ele>386</ele>
        <time>2011-03-27T10:35:05Z</time>
      </trkpt>
      <trkpt lat="43.98747" lon="5.18074">
        <ele>385</ele>
        <time>2011-03-27T10:35:09Z</time>
      </trkpt>
      <trkpt lat="43.98749" lon="5.18084">
        <ele>386</ele>
        <time>2011-03-27T10:35:14Z</time>
      </trkpt>
      <trkpt lat="43.98751" lon="5.18096">
        <ele>388</ele>
        <time>2011-03-27T10:35:19Z</time>
      </trkpt>
      <trkpt lat="43.98753" lon="5.18107">
        <ele>389</ele>
        <time>2011-03-27T10:35:24Z</time>
      </trkpt>
      <trkpt lat="43.98756" lon="5.18119">
        <ele>389</ele>
        <time>2011-03-27T10:35:29Z</time>
      </trkpt>
      <trkpt lat="43.9876" lon="5.18129">
        <ele>391</ele>
        <time>2011-03-27T10:35:34Z</time>
      </trkpt>
      <trkpt lat="43.98763" lon="5.18141">
        <ele>392</ele>
        <time>2011-03-27T10:35:40Z</time>
      </trkpt>
      <trkpt lat="43.98766" lon="5.18152">
        <ele>393</ele>
        <time>2011-03-27T10:35:46Z</time>
      </trkpt>
      <trkpt lat="43.98768" lon="5.18163">
        <ele>393</ele>
        <time>2011-03-27T10:35:51Z</time>
      </trkpt>
      <trkpt lat="43.98768" lon="5.18165">
        <ele>393</ele>
        <time>2011-03-27T10:35:52Z</time>
      </trkpt>
      <trkpt lat="43.98768" lon="5.18185">
        <ele>395</ele>
        <time>2011-03-27T10:36:01Z</time>
      </trkpt>
      <trkpt lat="43.98768" lon="5.18198">
        <ele>395</ele>
        <time>2011-03-27T10:36:07Z</time>
      </trkpt>
      <trkpt lat="43.98772" lon="5.18209">
        <ele>395</ele>
        <time>2011-03-27T10:36:12Z</time>
      </trkpt>
      <trkpt lat="43.98775" lon="5.18219">
        <ele>395</ele>
        <time>2011-03-27T10:36:16Z</time>
      </trkpt>
      <trkpt lat="43.98779" lon="5.18228">
        <ele>395</ele>
        <time>2011-03-27T10:36:20Z</time>
      </trkpt>
      <trkpt lat="43.98783" lon="5.18239">
        <ele>396</ele>
        <time>2011-03-27T10:36:25Z</time>
      </trkpt>
      <trkpt lat="43.98786" lon="5.1825">
        <ele>396</ele>
        <time>2011-03-27T10:36:30Z</time>
      </trkpt>
      <trkpt lat="43.9879" lon="5.1826">
        <ele>395</ele>
        <time>2011-03-27T10:36:35Z</time>
      </trkpt>
      <trkpt lat="43.98794" lon="5.1827">
        <ele>395</ele>
        <time>2011-03-27T10:36:40Z</time>
      </trkpt>
      <trkpt lat="43.98797" lon="5.18281">
        <ele>395</ele>
        <time>2011-03-27T10:36:45Z</time>
      </trkpt>
      <trkpt lat="43.988" lon="5.18292">
        <ele>396</ele>
        <time>2011-03-27T10:36:50Z</time>
      </trkpt>
      <trkpt lat="43.98804" lon="5.18302">
        <ele>396</ele>
        <time>2011-03-27T10:36:55Z</time>
      </trkpt>
      <trkpt lat="43.98805" lon="5.18304">
        <ele>396</ele>
        <time>2011-03-27T10:36:56Z</time>
      </trkpt>
      <trkpt lat="43.98811" lon="5.18321">
        <ele>397</ele>
        <time>2011-03-27T10:37:05Z</time>
      </trkpt>
      <trkpt lat="43.98816" lon="5.18331">
        <ele>398</ele>
        <time>2011-03-27T10:39:04Z</time>
      </trkpt>
      <trkpt lat="43.98816" lon="5.18332">
        <ele>398</ele>
        <time>2011-03-27T10:39:05Z</time>
      </trkpt>
      <trkpt lat="43.98822" lon="5.18353">
        <ele>398</ele>
        <time>2011-03-27T10:39:17Z</time>
      </trkpt>
      <trkpt lat="43.98826" lon="5.18363">
        <ele>398</ele>
        <time>2011-03-27T10:39:23Z</time>
      </trkpt>
      <trkpt lat="43.98829" lon="5.18375">
        <ele>400</ele>
        <time>2011-03-27T10:39:29Z</time>
      </trkpt>
      <trkpt lat="43.98833" lon="5.18384">
        <ele>400</ele>
        <time>2011-03-27T10:39:34Z</time>
      </trkpt>
      <trkpt lat="43.98837" lon="5.18394">
        <ele>400</ele>
        <time>2011-03-27T10:39:39Z</time>
      </trkpt>
      <trkpt lat="43.98841" lon="5.18403">
        <ele>400</ele>
        <time>2011-03-27T10:39:44Z</time>
      </trkpt>
      <trkpt lat="43.98846" lon="5.18412">
        <ele>401</ele>
        <time>2011-03-27T10:39:49Z</time>
      </trkpt>
      <trkpt lat="43.98851" lon="5.18421">
        <ele>400</ele>
        <time>2011-03-27T10:39:54Z</time>
      </trkpt>
      <trkpt lat="43.98857" lon="5.1843">
        <ele>400</ele>
        <time>2011-03-27T10:40:00Z</time>
      </trkpt>
      <trkpt lat="43.98862" lon="5.18438">
        <ele>400</ele>
        <time>2011-03-27T10:40:05Z</time>
      </trkpt>
      <trkpt lat="43.98863" lon="5.1844">
        <ele>400</ele>
        <time>2011-03-27T10:40:06Z</time>
      </trkpt>
      <trkpt lat="43.98872" lon="5.18455">
        <ele>401</ele>
        <time>2011-03-27T10:40:15Z</time>
      </trkpt>
      <trkpt lat="43.98877" lon="5.18464">
        <ele>400</ele>
        <time>2011-03-27T10:40:20Z</time>
      </trkpt>
      <trkpt lat="43.98881" lon="5.18473">
        <ele>401</ele>
        <time>2011-03-27T10:40:25Z</time>
      </trkpt>
      <trkpt lat="43.98886" lon="5.18482">
        <ele>402</ele>
        <time>2011-03-27T10:40:30Z</time>
      </trkpt>
      <trkpt lat="43.9889" lon="5.18491">
        <ele>402</ele>
        <time>2011-03-27T10:40:35Z</time>
      </trkpt>
      <trkpt lat="43.98895" lon="5.185">
        <ele>402</ele>
        <time>2011-03-27T10:40:40Z</time>
      </trkpt>
      <trkpt lat="43.98899" lon="5.1851">
        <ele>402</ele>
        <time>2011-03-27T10:40:45Z</time>
      </trkpt>
      <trkpt lat="43.98902" lon="5.18521">
        <ele>401</ele>
        <time>2011-03-27T10:40:50Z</time>
      </trkpt>
      <trkpt lat="43.98906" lon="5.1853">
        <ele>402</ele>
        <time>2011-03-27T10:40:55Z</time>
      </trkpt>
      <trkpt lat="43.9891" lon="5.18541">
        <ele>402</ele>
        <time>2011-03-27T10:41:00Z</time>
      </trkpt>
      <trkpt lat="43.98913" lon="5.18551">
        <ele>402</ele>
        <time>2011-03-27T10:41:05Z</time>
      </trkpt>
      <trkpt lat="43.98917" lon="5.18561">
        <ele>402</ele>
        <time>2011-03-27T10:41:10Z</time>
      </trkpt>
      <trkpt lat="43.98918" lon="5.18563">
        <ele>402</ele>
        <time>2011-03-27T10:41:11Z</time>
      </trkpt>
      <trkpt lat="43.98924" lon="5.1858">
        <ele>404</ele>
        <time>2011-03-27T10:41:20Z</time>
      </trkpt>
      <trkpt lat="43.98928" lon="5.1859">
        <ele>405</ele>
        <time>2011-03-27T10:41:25Z</time>
      </trkpt>
      <trkpt lat="43.98932" lon="5.18599">
        <ele>404</ele>
        <time>2011-03-27T10:41:30Z</time>
      </trkpt>
      <trkpt lat="43.98936" lon="5.18609">
        <ele>404</ele>
        <time>2011-03-27T10:41:35Z</time>
      </trkpt>
      <trkpt lat="43.9894" lon="5.18619">
        <ele>405</ele>
        <time>2011-03-27T10:41:40Z</time>
      </trkpt>
      <trkpt lat="43.98944" lon="5.1863">
        <ele>405</ele>
        <time>2011-03-27T10:41:45Z</time>
      </trkpt>
      <trkpt lat="43.98948" lon="5.1864">
        <ele>405</ele>
        <time>2011-03-27T10:41:50Z</time>
      </trkpt>
      <trkpt lat="43.98951" lon="5.1865">
        <ele>405</ele>
        <time>2011-03-27T10:41:55Z</time>
      </trkpt>
      <trkpt lat="43.98955" lon="5.18661">
        <ele>406</ele>
        <time>2011-03-27T10:42:00Z</time>
      </trkpt>
      <trkpt lat="43.98958" lon="5.18671">
        <ele>407</ele>
        <time>2011-03-27T10:42:05Z</time>
      </trkpt>
      <trkpt lat="43.98962" lon="5.18681">
        <ele>407</ele>
        <time>2011-03-27T10:42:10Z</time>
      </trkpt>
      <trkpt lat="43.98967" lon="5.18689">
        <ele>408</ele>
        <time>2011-03-27T10:42:15Z</time>
      </trkpt>
      <trkpt lat="43.98968" lon="5.1869">
        <ele>409</ele>
        <time>2011-03-27T10:42:16Z</time>
      </trkpt>
      <trkpt lat="43.98981" lon="5.18698">
        <ele>410</ele>
        <time>2011-03-27T10:42:25Z</time>
      </trkpt>
      <trkpt lat="43.98989" lon="5.18699">
        <ele>411</ele>
        <time>2011-03-27T10:42:30Z</time>
      </trkpt>
      <trkpt lat="43.98997" lon="5.18698">
        <ele>412</ele>
        <time>2011-03-27T10:42:35Z</time>
      </trkpt>
      <trkpt lat="43.99004" lon="5.187">
        <ele>414</ele>
        <time>2011-03-27T10:42:40Z</time>
      </trkpt>
      <trkpt lat="43.99011" lon="5.18706">
        <ele>415</ele>
        <time>2011-03-27T10:42:45Z</time>
      </trkpt>
      <trkpt lat="43.99016" lon="5.18716">
        <ele>415</ele>
        <time>2011-03-27T10:42:50Z</time>
      </trkpt>
      <trkpt lat="43.9902" lon="5.18727">
        <ele>417</ele>
        <time>2011-03-27T10:42:56Z</time>
      </trkpt>
      <trkpt lat="43.99027" lon="5.18736">
        <ele>417</ele>
        <time>2011-03-27T10:43:02Z</time>
      </trkpt>
      <trkpt lat="43.99033" lon="5.18743">
        <ele>417</ele>
        <time>2011-03-27T10:43:07Z</time>
      </trkpt>
      <trkpt lat="43.99039" lon="5.18749">
        <ele>418</ele>
        <time>2011-03-27T10:43:12Z</time>
      </trkpt>
      <trkpt lat="43.99045" lon="5.18757">
        <ele>419</ele>
        <time>2011-03-27T10:43:17Z</time>
      </trkpt>
      <trkpt lat="43.99046" lon="5.18758">
        <ele>419</ele>
        <time>2011-03-27T10:43:18Z</time>
      </trkpt>
      <trkpt lat="43.99058" lon="5.1877">
        <ele>420</ele>
        <time>2011-03-27T10:43:27Z</time>
      </trkpt>
      <trkpt lat="43.99064" lon="5.18776">
        <ele>420</ele>
        <time>2011-03-27T10:43:32Z</time>
      </trkpt>
      <trkpt lat="43.99071" lon="5.18783">
        <ele>420</ele>
        <time>2011-03-27T10:43:37Z</time>
      </trkpt>
      <trkpt lat="43.99076" lon="5.1879">
        <ele>421</ele>
        <time>2011-03-27T10:43:42Z</time>
      </trkpt>
      <trkpt lat="43.99081" lon="5.18799">
        <ele>421</ele>
        <time>2011-03-27T10:43:47Z</time>
      </trkpt>
      <trkpt lat="43.99086" lon="5.18807">
        <ele>422</ele>
        <time>2011-03-27T10:43:52Z</time>
      </trkpt>
      <trkpt lat="43.99091" lon="5.18816">
        <ele>422</ele>
        <time>2011-03-27T10:43:57Z</time>
      </trkpt>
      <trkpt lat="43.99095" lon="5.18825">
        <ele>423</ele>
        <time>2011-03-27T10:44:02Z</time>
      </trkpt>
      <trkpt lat="43.99099" lon="5.18835">
        <ele>424</ele>
        <time>2011-03-27T10:44:07Z</time>
      </trkpt>
      <trkpt lat="43.99102" lon="5.18845">
        <ele>424</ele>
        <time>2011-03-27T10:44:12Z</time>
      </trkpt>
      <trkpt lat="43.99105" lon="5.18856">
        <ele>424</ele>
        <time>2011-03-27T10:44:17Z</time>
      </trkpt>
      <trkpt lat="43.99108" lon="5.18867">
        <ele>426</ele>
        <time>2011-03-27T10:44:22Z</time>
      </trkpt>
      <trkpt lat="43.99108" lon="5.18869">
        <ele>426</ele>
        <time>2011-03-27T10:44:23Z</time>
      </trkpt>
      <trkpt lat="43.99115" lon="5.18887">
        <ele>428</ele>
        <time>2011-03-27T10:44:32Z</time>
      </trkpt>
      <trkpt lat="43.9912" lon="5.18896">
        <ele>429</ele>
        <time>2011-03-27T10:44:37Z</time>
      </trkpt>
      <trkpt lat="43.99125" lon="5.18905">
        <ele>429</ele>
        <time>2011-03-27T10:44:42Z</time>
      </trkpt>
      <trkpt lat="43.9913" lon="5.18913">
        <ele>429</ele>
        <time>2011-03-27T10:44:47Z</time>
      </trkpt>
      <trkpt lat="43.99136" lon="5.18922">
        <ele>429</ele>
        <time>2011-03-27T10:44:52Z</time>
      </trkpt>
      <trkpt lat="43.99141" lon="5.1893">
        <ele>429</ele>
        <time>2011-03-27T10:44:57Z</time>
      </trkpt>
      <trkpt lat="43.99147" lon="5.18938">
        <ele>431</ele>
        <time>2011-03-27T10:45:02Z</time>
      </trkpt>
      <trkpt lat="43.99153" lon="5.18946">
        <ele>431</ele>
        <time>2011-03-27T10:45:07Z</time>
      </trkpt>
      <trkpt lat="43.99159" lon="5.18955">
        <ele>432</ele>
        <time>2011-03-27T10:45:12Z</time>
      </trkpt>
      <trkpt lat="43.99166" lon="5.18963">
        <ele>433</ele>
        <time>2011-03-27T10:45:17Z</time>
      </trkpt>
      <trkpt lat="43.99171" lon="5.18971">
        <ele>433</ele>
        <time>2011-03-27T10:45:22Z</time>
      </trkpt>
      <trkpt lat="43.99179" lon="5.18975">
        <ele>434</ele>
        <time>2011-03-27T10:46:04Z</time>
      </trkpt>
      <trkpt lat="43.9918" lon="5.18975">
        <ele>434</ele>
        <time>2011-03-27T10:46:05Z</time>
      </trkpt>
      <trkpt lat="43.99192" lon="5.1899">
        <ele>434</ele>
        <time>2011-03-27T10:46:27Z</time>
      </trkpt>
      <trkpt lat="43.99199" lon="5.18989">
        <ele>435</ele>
        <time>2011-03-27T10:46:31Z</time>
      </trkpt>
      <trkpt lat="43.99208" lon="5.18987">
        <ele>436</ele>
        <time>2011-03-27T10:46:36Z</time>
      </trkpt>
      <trkpt lat="43.99216" lon="5.18986">
        <ele>437</ele>
        <time>2011-03-27T10:46:41Z</time>
      </trkpt>
      <trkpt lat="43.99223" lon="5.18988">
        <ele>438</ele>
        <time>2011-03-27T10:46:45Z</time>
      </trkpt>
      <trkpt lat="43.9923" lon="5.18989">
        <ele>439</ele>
        <time>2011-03-27T10:46:49Z</time>
      </trkpt>
      <trkpt lat="43.99238" lon="5.18992">
        <ele>439</ele>
        <time>2011-03-27T10:46:54Z</time>
      </trkpt>
      <trkpt lat="43.99246" lon="5.18996">
        <ele>441</ele>
        <time>2011-03-27T10:46:59Z</time>
      </trkpt>
      <trkpt lat="43.99253" lon="5.19003">
        <ele>442</ele>
        <time>2011-03-27T10:47:04Z</time>
      </trkpt>
      <trkpt lat="43.9926" lon="5.19007">
        <ele>443</ele>
        <time>2011-03-27T10:47:09Z</time>
      </trkpt>
      <trkpt lat="43.99261" lon="5.19008">
        <ele>443</ele>
        <time>2011-03-27T10:47:10Z</time>
      </trkpt>
      <trkpt lat="43.99274" lon="5.19018">
        <ele>444</ele>
        <time>2011-03-27T10:47:20Z</time>
      </trkpt>
      <trkpt lat="43.99279" lon="5.19029">
        <ele>446</ele>
        <time>2011-03-27T10:47:26Z</time>
      </trkpt>
      <trkpt lat="43.99281" lon="5.19039">
        <ele>447</ele>
        <time>2011-03-27T10:47:31Z</time>
      </trkpt>
      <trkpt lat="43.99284" lon="5.19049">
        <ele>448</ele>
        <time>2011-03-27T10:47:36Z</time>
      </trkpt>
      <trkpt lat="43.99287" lon="5.19059">
        <ele>448</ele>
        <time>2011-03-27T10:47:41Z</time>
      </trkpt>
      <trkpt lat="43.99287" lon="5.1907">
        <ele>448</ele>
        <time>2011-03-27T10:47:46Z</time>
      </trkpt>
      <trkpt lat="43.99287" lon="5.19081">
        <ele>449</ele>
        <time>2011-03-27T10:47:51Z</time>
      </trkpt>
      <trkpt lat="43.99286" lon="5.19091">
        <ele>449</ele>
        <time>2011-03-27T10:47:56Z</time>
      </trkpt>
      <trkpt lat="43.99286" lon="5.19102">
        <ele>449</ele>
        <time>2011-03-27T10:48:01Z</time>
      </trkpt>
      <trkpt lat="43.99286" lon="5.19114">
        <ele>450</ele>
        <time>2011-03-27T10:48:06Z</time>
      </trkpt>
      <trkpt lat="43.99286" lon="5.19126">
        <ele>451</ele>
        <time>2011-03-27T10:48:11Z</time>
      </trkpt>
      <trkpt lat="43.99286" lon="5.19128">
        <ele>451</ele>
        <time>2011-03-27T10:48:12Z</time>
      </trkpt>
      <trkpt lat="43.99288" lon="5.1915">
        <ele>451</ele>
        <time>2011-03-27T10:48:21Z</time>
      </trkpt>
      <trkpt lat="43.9929" lon="5.19161">
        <ele>451</ele>
        <time>2011-03-27T10:48:26Z</time>
      </trkpt>
      <trkpt lat="43.99292" lon="5.19172">
        <ele>452</ele>
        <time>2011-03-27T10:48:31Z</time>
      </trkpt>
      <trkpt lat="43.99294" lon="5.19184">
        <ele>452</ele>
        <time>2011-03-27T10:48:36Z</time>
      </trkpt>
      <trkpt lat="43.99295" lon="5.19195">
        <ele>451</ele>
        <time>2011-03-27T10:48:41Z</time>
      </trkpt>
      <trkpt lat="43.99296" lon="5.19207">
        <ele>453</ele>
        <time>2011-03-27T10:48:47Z</time>
      </trkpt>
      <trkpt lat="43.99298" lon="5.19218">
        <ele>452</ele>
        <time>2011-03-27T10:48:52Z</time>
      </trkpt>
      <trkpt lat="43.99299" lon="5.19229">
        <ele>452</ele>
        <time>2011-03-27T10:48:57Z</time>
      </trkpt>
      <trkpt lat="43.993" lon="5.1924">
        <ele>451</ele>
        <time>2011-03-27T10:49:02Z</time>
      </trkpt>
      <trkpt lat="43.99302" lon="5.19252">
        <ele>451</ele>
        <time>2011-03-27T10:49:07Z</time>
      </trkpt>
      <trkpt lat="43.99306" lon="5.19261">
        <ele>451</ele>
        <time>2011-03-27T10:49:12Z</time>
      </trkpt>
      <trkpt lat="43.99307" lon="5.19263">
        <ele>451</ele>
        <time>2011-03-27T10:49:13Z</time>
      </trkpt>
      <trkpt lat="43.99318" lon="5.19277">
        <ele>452</ele>
        <time>2011-03-27T10:49:22Z</time>
      </trkpt>
      <trkpt lat="43.99323" lon="5.19286">
        <ele>452</ele>
        <time>2011-03-27T10:49:27Z</time>
      </trkpt>
      <trkpt lat="43.99328" lon="5.19294">
        <ele>453</ele>
        <time>2011-03-27T10:49:32Z</time>
      </trkpt>
      <trkpt lat="43.99333" lon="5.19304">
        <ele>453</ele>
        <time>2011-03-27T10:49:38Z</time>
      </trkpt>
      <trkpt lat="43.99337" lon="5.19313">
        <ele>453</ele>
        <time>2011-03-27T10:49:43Z</time>
      </trkpt>
      <trkpt lat="43.99339" lon="5.19324">
        <ele>454</ele>
        <time>2011-03-27T10:49:48Z</time>
      </trkpt>
      <trkpt lat="43.99342" lon="5.19335">
        <ele>455</ele>
        <time>2011-03-27T10:49:54Z</time>
      </trkpt>
      <trkpt lat="43.99344" lon="5.19347">
        <ele>455</ele>
        <time>2011-03-27T10:49:59Z</time>
      </trkpt>
      <trkpt lat="43.99346" lon="5.19358">
        <ele>456</ele>
        <time>2011-03-27T10:50:04Z</time>
      </trkpt>
      <trkpt lat="43.99348" lon="5.19369">
        <ele>456</ele>
        <time>2011-03-27T10:50:09Z</time>
      </trkpt>
      <trkpt lat="43.9935" lon="5.1938">
        <ele>457</ele>
        <time>2011-03-27T10:50:14Z</time>
      </trkpt>
      <trkpt lat="43.99351" lon="5.19382">
        <ele>457</ele>
        <time>2011-03-27T10:50:15Z</time>
      </trkpt>
      <trkpt lat="43.99353" lon="5.19402">
        <ele>458</ele>
        <time>2011-03-27T10:50:24Z</time>
      </trkpt>
      <trkpt lat="43.99358" lon="5.19411">
        <ele>459</ele>
        <time>2011-03-27T10:50:29Z</time>
      </trkpt>
      <trkpt lat="43.99363" lon="5.1942">
        <ele>462</ele>
        <time>2011-03-27T10:50:33Z</time>
      </trkpt>
      <trkpt lat="43.99368" lon="5.19429">
        <ele>464</ele>
        <time>2011-03-27T10:50:38Z</time>
      </trkpt>
      <trkpt lat="43.99374" lon="5.19436">
        <ele>466</ele>
        <time>2011-03-27T10:50:43Z</time>
      </trkpt>
      <trkpt lat="43.9938" lon="5.19442">
        <ele>467</ele>
        <time>2011-03-27T10:50:48Z</time>
      </trkpt>
      <trkpt lat="43.99387" lon="5.19448">
        <ele>469</ele>
        <time>2011-03-27T10:50:53Z</time>
      </trkpt>
      <trkpt lat="43.99393" lon="5.19456">
        <ele>470</ele>
        <time>2011-03-27T10:50:58Z</time>
      </trkpt>
      <trkpt lat="43.99398" lon="5.19465">
        <ele>471</ele>
        <time>2011-03-27T10:51:03Z</time>
      </trkpt>
      <trkpt lat="43.99404" lon="5.19473">
        <ele>472</ele>
        <time>2011-03-27T10:51:08Z</time>
      </trkpt>
      <trkpt lat="43.99409" lon="5.19482">
        <ele>472</ele>
        <time>2011-03-27T10:51:14Z</time>
      </trkpt>
      <trkpt lat="43.99413" lon="5.19493">
        <ele>472</ele>
        <time>2011-03-27T10:51:20Z</time>
      </trkpt>
      <trkpt lat="43.99413" lon="5.19495">
        <ele>472</ele>
        <time>2011-03-27T10:51:21Z</time>
      </trkpt>
      <trkpt lat="43.9941" lon="5.19516">
        <ele>473</ele>
        <time>2011-03-27T10:51:30Z</time>
      </trkpt>
      <trkpt lat="43.99408" lon="5.19528">
        <ele>474</ele>
        <time>2011-03-27T10:51:36Z</time>
      </trkpt>
      <trkpt lat="43.99406" lon="5.19538">
        <ele>475</ele>
        <time>2011-03-27T10:51:41Z</time>
      </trkpt>
      <trkpt lat="43.99404" lon="5.19549">
        <ele>475</ele>
        <time>2011-03-27T10:51:46Z</time>
      </trkpt>
      <trkpt lat="43.99402" lon="5.1956">
        <ele>476</ele>
        <time>2011-03-27T10:51:51Z</time>
      </trkpt>
      <trkpt lat="43.99399" lon="5.1957">
        <ele>476</ele>
        <time>2011-03-27T10:51:56Z</time>
      </trkpt>
      <trkpt lat="43.99396" lon="5.19581">
        <ele>478</ele>
        <time>2011-03-27T10:52:01Z</time>
      </trkpt>
      <trkpt lat="43.99395" lon="5.19591">
        <ele>479</ele>
        <time>2011-03-27T10:52:06Z</time>
      </trkpt>
      <trkpt lat="43.99392" lon="5.19601">
        <ele>480</ele>
        <time>2011-03-27T10:52:11Z</time>
      </trkpt>
      <trkpt lat="43.9939" lon="5.19611">
        <ele>481</ele>
        <time>2011-03-27T10:52:16Z</time>
      </trkpt>
      <trkpt lat="43.99388" lon="5.19622">
        <ele>483</ele>
        <time>2011-03-27T10:52:21Z</time>
      </trkpt>
      <trkpt lat="43.99387" lon="5.19624">
        <ele>483</ele>
        <time>2011-03-27T10:52:22Z</time>
      </trkpt>
      <trkpt lat="43.99384" lon="5.19645">
        <ele>485</ele>
        <time>2011-03-27T10:52:33Z</time>
      </trkpt>
      <trkpt lat="43.99382" lon="5.19655">
        <ele>484</ele>
        <time>2011-03-27T10:52:38Z</time>
      </trkpt>
      <trkpt lat="43.9938" lon="5.19668">
        <ele>487</ele>
        <time>2011-03-27T10:52:44Z</time>
      </trkpt>
      <trkpt lat="43.99379" lon="5.19679">
        <ele>488</ele>
        <time>2011-03-27T10:52:49Z</time>
      </trkpt>
      <trkpt lat="43.99378" lon="5.1969">
        <ele>489</ele>
        <time>2011-03-27T10:52:54Z</time>
      </trkpt>
      <trkpt lat="43.99376" lon="5.197">
        <ele>490</ele>
        <time>2011-03-27T10:52:59Z</time>
      </trkpt>
      <trkpt lat="43.99374" lon="5.19712">
        <ele>490</ele>
        <time>2011-03-27T10:53:04Z</time>
      </trkpt>
      <trkpt lat="43.99371" lon="5.19722">
        <ele>491</ele>
        <time>2011-03-27T10:53:09Z</time>
      </trkpt>
      <trkpt lat="43.99369" lon="5.19733">
        <ele>493</ele>
        <time>2011-03-27T10:53:14Z</time>
      </trkpt>
      <trkpt lat="43.99366" lon="5.19744">
        <ele>494</ele>
        <time>2011-03-27T10:53:19Z</time>
      </trkpt>
      <trkpt lat="43.99363" lon="5.19754">
        <ele>495</ele>
        <time>2011-03-27T10:53:24Z</time>
      </trkpt>
      <trkpt lat="43.99363" lon="5.19756">
        <ele>495</ele>
        <time>2011-03-27T10:53:25Z</time>
      </trkpt>
      <trkpt lat="43.99355" lon="5.19775">
        <ele>497</ele>
        <time>2011-03-27T10:53:34Z</time>
      </trkpt>
      <trkpt lat="43.9935" lon="5.19785">
        <ele>497</ele>
        <time>2011-03-27T10:53:39Z</time>
      </trkpt>
      <trkpt lat="43.99345" lon="5.19794">
        <ele>499</ele>
        <time>2011-03-27T10:53:44Z</time>
      </trkpt>
      <trkpt lat="43.9934" lon="5.19803">
        <ele>501</ele>
        <time>2011-03-27T10:53:49Z</time>
      </trkpt>
      <trkpt lat="43.99334" lon="5.19812">
        <ele>502</ele>
        <time>2011-03-27T10:53:55Z</time>
      </trkpt>
      <trkpt lat="43.99329" lon="5.19821">
        <ele>503</ele>
        <time>2011-03-27T10:54:00Z</time>
      </trkpt>
      <trkpt lat="43.99324" lon="5.19829">
        <ele>504</ele>
        <time>2011-03-27T10:54:06Z</time>
      </trkpt>
      <trkpt lat="43.9932" lon="5.1984">
        <ele>504</ele>
        <time>2011-03-27T10:54:12Z</time>
      </trkpt>
      <trkpt lat="43.99317" lon="5.19851">
        <ele>505</ele>
        <time>2011-03-27T10:54:17Z</time>
      </trkpt>
      <trkpt lat="43.99314" lon="5.19863">
        <ele>507</ele>
        <time>2011-03-27T10:54:22Z</time>
      </trkpt>
      <trkpt lat="43.99312" lon="5.19874">
        <ele>509</ele>
        <time>2011-03-27T10:54:27Z</time>
      </trkpt>
      <trkpt lat="43.99311" lon="5.19876">
        <ele>509</ele>
        <time>2011-03-27T10:54:28Z</time>
      </trkpt>
      <trkpt lat="43.99304" lon="5.19894">
        <ele>511</ele>
        <time>2011-03-27T10:54:37Z</time>
      </trkpt>
      <trkpt lat="43.99302" lon="5.19906">
        <ele>513</ele>
        <time>2011-03-27T10:54:42Z</time>
      </trkpt>
      <trkpt lat="43.99299" lon="5.19917">
        <ele>515</ele>
        <time>2011-03-27T10:54:47Z</time>
      </trkpt>
      <trkpt lat="43.99297" lon="5.19928">
        <ele>516</ele>
        <time>2011-03-27T10:54:52Z</time>
      </trkpt>
      <trkpt lat="43.99295" lon="5.19939">
        <ele>519</ele>
        <time>2011-03-27T10:54:57Z</time>
      </trkpt>
      <trkpt lat="43.99295" lon="5.19951">
        <ele>520</ele>
        <time>2011-03-27T10:55:01Z</time>
      </trkpt>
      <trkpt lat="43.99295" lon="5.19962">
        <ele>521</ele>
        <time>2011-03-27T10:55:06Z</time>
      </trkpt>
      <trkpt lat="43.99294" lon="5.19974">
        <ele>522</ele>
        <time>2011-03-27T10:55:11Z</time>
      </trkpt>
      <trkpt lat="43.99294" lon="5.19984">
        <ele>523</ele>
        <time>2011-03-27T10:55:16Z</time>
      </trkpt>
      <trkpt lat="43.99293" lon="5.19996">
        <ele>525</ele>
        <time>2011-03-27T10:55:22Z</time>
      </trkpt>
      <trkpt lat="43.99292" lon="5.20008">
        <ele>526</ele>
        <time>2011-03-27T10:55:27Z</time>
      </trkpt>
      <trkpt lat="43.99291" lon="5.20019">
        <ele>528</ele>
        <time>2011-03-27T10:55:32Z</time>
      </trkpt>
      <trkpt lat="43.99291" lon="5.20023">
        <ele>528</ele>
        <time>2011-03-27T10:55:33Z</time>
      </trkpt>
      <trkpt lat="43.99288" lon="5.20041">
        <ele>531</ele>
        <time>2011-03-27T10:55:41Z</time>
      </trkpt>
      <trkpt lat="43.99287" lon="5.20052">
        <ele>533</ele>
        <time>2011-03-27T10:55:47Z</time>
      </trkpt>
      <trkpt lat="43.99289" lon="5.20062">
        <ele>534</ele>
        <time>2011-03-27T10:55:51Z</time>
      </trkpt>
      <trkpt lat="43.99288" lon="5.20075">
        <ele>536</ele>
        <time>2011-03-27T10:55:56Z</time>
      </trkpt>
      <trkpt lat="43.99288" lon="5.20086">
        <ele>538</ele>
        <time>2011-03-27T10:56:02Z</time>
      </trkpt>
      <trkpt lat="43.99288" lon="5.20098">
        <ele>539</ele>
        <time>2011-03-27T10:56:07Z</time>
      </trkpt>
      <trkpt lat="43.99287" lon="5.2011">
        <ele>540</ele>
        <time>2011-03-27T10:56:12Z</time>
      </trkpt>
      <trkpt lat="43.99286" lon="5.2012">
        <ele>542</ele>
        <time>2011-03-27T10:56:17Z</time>
      </trkpt>
      <trkpt lat="43.99286" lon="5.20131">
        <ele>544</ele>
        <time>2011-03-27T10:56:22Z</time>
      </trkpt>
      <trkpt lat="43.99285" lon="5.20142">
        <ele>545</ele>
        <time>2011-03-27T10:56:27Z</time>
      </trkpt>
      <trkpt lat="43.99284" lon="5.20153">
        <ele>547</ele>
        <time>2011-03-27T10:56:32Z</time>
      </trkpt>
      <trkpt lat="43.99284" lon="5.20164">
        <ele>549</ele>
        <time>2011-03-27T10:56:37Z</time>
      </trkpt>
      <trkpt lat="43.99284" lon="5.20167">
        <ele>549</ele>
        <time>2011-03-27T10:56:38Z</time>
      </trkpt>
      <trkpt lat="43.99284" lon="5.20187">
        <ele>551</ele>
        <time>2011-03-27T10:56:47Z</time>
      </trkpt>
      <trkpt lat="43.99282" lon="5.20199">
        <ele>554</ele>
        <time>2011-03-27T10:56:52Z</time>
      </trkpt>
      <trkpt lat="43.9928" lon="5.2021">
        <ele>555</ele>
        <time>2011-03-27T10:56:57Z</time>
      </trkpt>
      <trkpt lat="43.99276" lon="5.20219">
        <ele>556</ele>
        <time>2011-03-27T10:57:02Z</time>
      </trkpt>
      <trkpt lat="43.99271" lon="5.20228">
        <ele>557</ele>
        <time>2011-03-27T10:57:07Z</time>
      </trkpt>
      <trkpt lat="43.99266" lon="5.20237">
        <ele>557</ele>
        <time>2011-03-27T10:57:12Z</time>
      </trkpt>
      <trkpt lat="43.99262" lon="5.20246">
        <ele>557</ele>
        <time>2011-03-27T10:57:17Z</time>
      </trkpt>
      <trkpt lat="43.99258" lon="5.20256">
        <ele>557</ele>
        <time>2011-03-27T10:57:22Z</time>
      </trkpt>
      <trkpt lat="43.99254" lon="5.20267">
        <ele>557</ele>
        <time>2011-03-27T10:57:27Z</time>
      </trkpt>
      <trkpt lat="43.99251" lon="5.20278">
        <ele>558</ele>
        <time>2011-03-27T10:57:32Z</time>
      </trkpt>
      <trkpt lat="43.9925" lon="5.2029">
        <ele>558</ele>
        <time>2011-03-27T10:57:37Z</time>
      </trkpt>
      <trkpt lat="43.99248" lon="5.20301">
        <ele>559</ele>
        <time>2011-03-27T10:57:42Z</time>
      </trkpt>
      <trkpt lat="43.99248" lon="5.20303">
        <ele>560</ele>
        <time>2011-03-27T10:57:43Z</time>
      </trkpt>
      <trkpt lat="43.99245" lon="5.20322">
        <ele>559</ele>
        <time>2011-03-27T10:57:52Z</time>
      </trkpt>
      <trkpt lat="43.99241" lon="5.20333">
        <ele>560</ele>
        <time>2011-03-27T10:57:57Z</time>
      </trkpt>
      <trkpt lat="43.99238" lon="5.20343">
        <ele>562</ele>
        <time>2011-03-27T10:58:02Z</time>
      </trkpt>
      <trkpt lat="43.99234" lon="5.20354">
        <ele>563</ele>
        <time>2011-03-27T10:58:07Z</time>
      </trkpt>
      <trkpt lat="43.9923" lon="5.20364">
        <ele>563</ele>
        <time>2011-03-27T10:58:12Z</time>
      </trkpt>
      <trkpt lat="43.99226" lon="5.20375">
        <ele>564</ele>
        <time>2011-03-27T10:58:17Z</time>
      </trkpt>
      <trkpt lat="43.99221" lon="5.20385">
        <ele>565</ele>
        <time>2011-03-27T10:58:22Z</time>
      </trkpt>
      <trkpt lat="43.99217" lon="5.20394">
        <ele>565</ele>
        <time>2011-03-27T10:58:27Z</time>
      </trkpt>
      <trkpt lat="43.99212" lon="5.20404">
        <ele>567</ele>
        <time>2011-03-27T10:58:32Z</time>
      </trkpt>
      <trkpt lat="43.99208" lon="5.20414">
        <ele>568</ele>
        <time>2011-03-27T10:58:37Z</time>
      </trkpt>
      <trkpt lat="43.99205" lon="5.20424">
        <ele>569</ele>
        <time>2011-03-27T10:58:42Z</time>
      </trkpt>
      <trkpt lat="43.99204" lon="5.20435">
        <ele>569</ele>
        <time>2011-03-27T10:58:47Z</time>
      </trkpt>
      <trkpt lat="43.99204" lon="5.20438">
        <ele>569</ele>
        <time>2011-03-27T10:58:48Z</time>
      </trkpt>
      <trkpt lat="43.99199" lon="5.20456">
        <ele>569</ele>
        <time>2011-03-27T10:58:57Z</time>
      </trkpt>
      <trkpt lat="43.99198" lon="5.20466">
        <ele>569</ele>
        <time>2011-03-27T10:59:04Z</time>
      </trkpt>
      <trkpt lat="43.99195" lon="5.20477">
        <ele>570</ele>
        <time>2011-03-27T10:59:09Z</time>
      </trkpt>
      <trkpt lat="43.99192" lon="5.20488">
        <ele>570</ele>
        <time>2011-03-27T10:59:14Z</time>
      </trkpt>
      <trkpt lat="43.99189" lon="5.20497">
        <ele>571</ele>
        <time>2011-03-27T10:59:19Z</time>
      </trkpt>
      <trkpt lat="43.99185" lon="5.20507">
        <ele>571</ele>
        <time>2011-03-27T10:59:24Z</time>
      </trkpt>
      <trkpt lat="43.99182" lon="5.20517">
        <ele>572</ele>
        <time>2011-03-27T10:59:29Z</time>
      </trkpt>
      <trkpt lat="43.9918" lon="5.20528">
        <ele>572</ele>
        <time>2011-03-27T10:59:35Z</time>
      </trkpt>
      <trkpt lat="43.99178" lon="5.20539">
        <ele>572</ele>
        <time>2011-03-27T10:59:40Z</time>
      </trkpt>
      <trkpt lat="43.99176" lon="5.2055">
        <ele>573</ele>
        <time>2011-03-27T10:59:45Z</time>
      </trkpt>
      <trkpt lat="43.99173" lon="5.2056">
        <ele>573</ele>
        <time>2011-03-27T10:59:50Z</time>
      </trkpt>
      <trkpt lat="43.99173" lon="5.20562">
        <ele>573</ele>
        <time>2011-03-27T10:59:51Z</time>
      </trkpt>
      <trkpt lat="43.99169" lon="5.20582">
        <ele>572</ele>
        <time>2011-03-27T11:00:01Z</time>
      </trkpt>
      <trkpt lat="43.99167" lon="5.20592">
        <ele>574</ele>
        <time>2011-03-27T11:00:06Z</time>
      </trkpt>
      <trkpt lat="43.99165" lon="5.20602">
        <ele>574</ele>
        <time>2011-03-27T11:00:11Z</time>
      </trkpt>
      <trkpt lat="43.99162" lon="5.20613">
        <ele>573</ele>
        <time>2011-03-27T11:00:16Z</time>
      </trkpt>
      <trkpt lat="43.9916" lon="5.20623">
        <ele>574</ele>
        <time>2011-03-27T11:00:21Z</time>
      </trkpt>
      <trkpt lat="43.99159" lon="5.20635">
        <ele>574</ele>
        <time>2011-03-27T11:00:26Z</time>
      </trkpt>
      <trkpt lat="43.99158" lon="5.20645">
        <ele>574</ele>
        <time>2011-03-27T11:00:31Z</time>
      </trkpt>
      <trkpt lat="43.99158" lon="5.20657">
        <ele>574</ele>
        <time>2011-03-27T11:00:36Z</time>
      </trkpt>
      <trkpt lat="43.99159" lon="5.20668">
        <ele>574</ele>
        <time>2011-03-27T11:00:41Z</time>
      </trkpt>
      <trkpt lat="43.99159" lon="5.20679">
        <ele>575</ele>
        <time>2011-03-27T11:00:46Z</time>
      </trkpt>
      <trkpt lat="43.99158" lon="5.2069">
        <ele>574</ele>
        <time>2011-03-27T11:00:51Z</time>
      </trkpt>
      <trkpt lat="43.99159" lon="5.20702">
        <ele>575</ele>
        <time>2011-03-27T11:00:56Z</time>
      </trkpt>
      <trkpt lat="43.99159" lon="5.20705">
        <ele>575</ele>
        <time>2011-03-27T11:00:57Z</time>
      </trkpt>
      <trkpt lat="43.99159" lon="5.20724">
        <ele>576</ele>
        <time>2011-03-27T11:01:06Z</time>
      </trkpt>
      <trkpt lat="43.99159" lon="5.20735">
        <ele>576</ele>
        <time>2011-03-27T11:01:11Z</time>
      </trkpt>
      <trkpt lat="43.99157" lon="5.20747">
        <ele>576</ele>
        <time>2011-03-27T11:01:16Z</time>
      </trkpt>
      <trkpt lat="43.99155" lon="5.20758">
        <ele>576</ele>
        <time>2011-03-27T11:01:21Z</time>
      </trkpt>
      <trkpt lat="43.99154" lon="5.20769">
        <ele>577</ele>
        <time>2011-03-27T11:01:26Z</time>
      </trkpt>
      <trkpt lat="43.99151" lon="5.2078">
        <ele>577</ele>
        <time>2011-03-27T11:01:31Z</time>
      </trkpt>
      <trkpt lat="43.9915" lon="5.20792">
        <ele>578</ele>
        <time>2011-03-27T11:01:36Z</time>
      </trkpt>
      <trkpt lat="43.99148" lon="5.20803">
        <ele>578</ele>
        <time>2011-03-27T11:01:41Z</time>
      </trkpt>
      <trkpt lat="43.99147" lon="5.20815">
        <ele>578</ele>
        <time>2011-03-27T11:01:46Z</time>
      </trkpt>
      <trkpt lat="43.99146" lon="5.20827">
        <ele>578</ele>
        <time>2011-03-27T11:01:51Z</time>
      </trkpt>
      <trkpt lat="43.99144" lon="5.20838">
        <ele>577</ele>
        <time>2011-03-27T11:01:56Z</time>
      </trkpt>
      <trkpt lat="43.99143" lon="5.2085">
        <ele>579</ele>
        <time>2011-03-27T11:02:01Z</time>
      </trkpt>
      <trkpt lat="43.99142" lon="5.20852">
        <ele>579</ele>
        <time>2011-03-27T11:02:02Z</time>
      </trkpt>
      <trkpt lat="43.99139" lon="5.20872">
        <ele>579</ele>
        <time>2011-03-27T11:02:11Z</time>
      </trkpt>
      <trkpt lat="43.99136" lon="5.20884">
        <ele>579</ele>
        <time>2011-03-27T11:02:16Z</time>
      </trkpt>
      <trkpt lat="43.99134" lon="5.20895">
        <ele>580</ele>
        <time>2011-03-27T11:02:21Z</time>
      </trkpt>
      <trkpt lat="43.99131" lon="5.20906">
        <ele>580</ele>
        <time>2011-03-27T11:02:26Z</time>
      </trkpt>
      <trkpt lat="43.99128" lon="5.20917">
        <ele>579</ele>
        <time>2011-03-27T11:02:31Z</time>
      </trkpt>
      <trkpt lat="43.99126" lon="5.20928">
        <ele>579</ele>
        <time>2011-03-27T11:02:36Z</time>
      </trkpt>
      <trkpt lat="43.99123" lon="5.20939">
        <ele>578</ele>
        <time>2011-03-27T11:02:41Z</time>
      </trkpt>
      <trkpt lat="43.9912" lon="5.2095">
        <ele>579</ele>
        <time>2011-03-27T11:02:46Z</time>
      </trkpt>
      <trkpt lat="43.99118" lon="5.2096">
        <ele>578</ele>
        <time>2011-03-27T11:02:50Z</time>
      </trkpt>
      <trkpt lat="43.99117" lon="5.20971">
        <ele>578</ele>
        <time>2011-03-27T11:02:55Z</time>
      </trkpt>
      <trkpt lat="43.99113" lon="5.20981">
        <ele>578</ele>
        <time>2011-03-27T11:03:00Z</time>
      </trkpt>
      <trkpt lat="43.99108" lon="5.20991">
        <ele>577</ele>
        <time>2011-03-27T11:03:05Z</time>
      </trkpt>
      <trkpt lat="43.99108" lon="5.20993">
        <ele>577</ele>
        <time>2011-03-27T11:03:06Z</time>
      </trkpt>
      <trkpt lat="43.99101" lon="5.21008">
        <ele>576</ele>
        <time>2011-03-27T11:03:13Z</time>
      </trkpt>
      <trkpt lat="43.99096" lon="5.21018">
        <ele>575</ele>
        <time>2011-03-27T11:03:18Z</time>
      </trkpt>
      <trkpt lat="43.99091" lon="5.21028">
        <ele>575</ele>
        <time>2011-03-27T11:03:23Z</time>
      </trkpt>
      <trkpt lat="43.99086" lon="5.21037">
        <ele>575</ele>
        <time>2011-03-27T11:03:28Z</time>
      </trkpt>
      <trkpt lat="43.99081" lon="5.21047">
        <ele>574</ele>
        <time>2011-03-27T11:03:33Z</time>
      </trkpt>
      <trkpt lat="43.99077" lon="5.21058">
        <ele>574</ele>
        <time>2011-03-27T11:03:38Z</time>
      </trkpt>
      <trkpt lat="43.99073" lon="5.21068">
        <ele>574</ele>
        <time>2011-03-27T11:03:43Z</time>
      </trkpt>
      <trkpt lat="43.99071" lon="5.21079">
        <ele>574</ele>
        <time>2011-03-27T11:03:48Z</time>
      </trkpt>
      <trkpt lat="43.99068" lon="5.21091">
        <ele>574</ele>
        <time>2011-03-27T11:03:53Z</time>
      </trkpt>
      <trkpt lat="43.99064" lon="5.21102">
        <ele>574</ele>
        <time>2011-03-27T11:03:58Z</time>
      </trkpt>
      <trkpt lat="43.99061" lon="5.21112">
        <ele>574</ele>
        <time>2011-03-27T11:04:03Z</time>
      </trkpt>
      <trkpt lat="43.99056" lon="5.21122">
        <ele>574</ele>
        <time>2011-03-27T11:04:08Z</time>
      </trkpt>
      <trkpt lat="43.99055" lon="5.21124">
        <ele>574</ele>
        <time>2011-03-27T11:04:09Z</time>
      </trkpt>
      <trkpt lat="43.99048" lon="5.21142">
        <ele>573</ele>
        <time>2011-03-27T11:04:18Z</time>
      </trkpt>
      <trkpt lat="43.99045" lon="5.21154">
        <ele>571</ele>
        <time>2011-03-27T11:04:24Z</time>
      </trkpt>
      <trkpt lat="43.9904" lon="5.21163">
        <ele>571</ele>
        <time>2011-03-27T11:04:29Z</time>
      </trkpt>
      <trkpt lat="43.99035" lon="5.21174">
        <ele>570</ele>
        <time>2011-03-27T11:04:34Z</time>
      </trkpt>
      <trkpt lat="43.99032" lon="5.21185">
        <ele>569</ele>
        <time>2011-03-27T11:04:39Z</time>
      </trkpt>
      <trkpt lat="43.99028" lon="5.21195">
        <ele>569</ele>
        <time>2011-03-27T11:04:44Z</time>
      </trkpt>
      <trkpt lat="43.99023" lon="5.21205">
        <ele>569</ele>
        <time>2011-03-27T11:04:49Z</time>
      </trkpt>
      <trkpt lat="43.99018" lon="5.21215">
        <ele>568</ele>
        <time>2011-03-27T11:04:54Z</time>
      </trkpt>
      <trkpt lat="43.99013" lon="5.21223">
        <ele>569</ele>
        <time>2011-03-27T11:04:58Z</time>
      </trkpt>
      <trkpt lat="43.99009" lon="5.21232">
        <ele>568</ele>
        <time>2011-03-27T11:05:02Z</time>
      </trkpt>
      <trkpt lat="43.99005" lon="5.21242">
        <ele>567</ele>
        <time>2011-03-27T11:05:07Z</time>
      </trkpt>
      <trkpt lat="43.99001" lon="5.21253">
        <ele>566</ele>
        <time>2011-03-27T11:05:12Z</time>
      </trkpt>
      <trkpt lat="43.99" lon="5.21255">
        <ele>566</ele>
        <time>2011-03-27T11:05:13Z</time>
      </trkpt>
      <trkpt lat="43.98998" lon="5.21277">
        <ele>566</ele>
        <time>2011-03-27T11:05:22Z</time>
      </trkpt>
      <trkpt lat="43.98998" lon="5.21289">
        <ele>566</ele>
        <time>2011-03-27T11:05:27Z</time>
      </trkpt>
      <trkpt lat="43.98995" lon="5.21299">
        <ele>566</ele>
        <time>2011-03-27T11:05:33Z</time>
      </trkpt>
      <trkpt lat="43.98994" lon="5.21311">
        <ele>566</ele>
        <time>2011-03-27T11:05:37Z</time>
      </trkpt>
      <trkpt lat="43.98993" lon="5.2132">
        <ele>566</ele>
        <time>2011-03-27T11:05:40Z</time>
      </trkpt>
      <trkpt lat="43.98992" lon="5.21331">
        <ele>567</ele>
        <time>2011-03-27T11:05:44Z</time>
      </trkpt>
      <trkpt lat="43.98991" lon="5.21343">
        <ele>567</ele>
        <time>2011-03-27T11:05:49Z</time>
      </trkpt>
      <trkpt lat="43.9899" lon="5.21356">
        <ele>567</ele>
        <time>2011-03-27T11:05:54Z</time>
      </trkpt>
      <trkpt lat="43.98989" lon="5.21366">
        <ele>567</ele>
        <time>2011-03-27T11:05:58Z</time>
      </trkpt>
      <trkpt lat="43.98987" lon="5.21378">
        <ele>567</ele>
        <time>2011-03-27T11:06:03Z</time>
      </trkpt>
      <trkpt lat="43.98985" lon="5.2139">
        <ele>568</ele>
        <time>2011-03-27T11:06:08Z</time>
      </trkpt>
      <trkpt lat="43.98984" lon="5.21401">
        <ele>568</ele>
        <time>2011-03-27T11:06:13Z</time>
      </trkpt>
      <trkpt lat="43.98984" lon="5.21403">
        <ele>568</ele>
        <time>2011-03-27T11:06:14Z</time>
      </trkpt>
      <trkpt lat="43.98985" lon="5.21424">
        <ele>570</ele>
        <time>2011-03-27T11:06:23Z</time>
      </trkpt>
      <trkpt lat="43.98985" lon="5.21436">
        <ele>571</ele>
        <time>2011-03-27T11:06:28Z</time>
      </trkpt>
      <trkpt lat="43.98982" lon="5.21445">
        <ele>570</ele>
        <time>2011-03-27T11:06:32Z</time>
      </trkpt>
      <trkpt lat="43.98978" lon="5.21456">
        <ele>572</ele>
        <time>2011-03-27T11:06:37Z</time>
      </trkpt>
      <trkpt lat="43.98974" lon="5.21465">
        <ele>572</ele>
        <time>2011-03-27T11:06:42Z</time>
      </trkpt>
      <trkpt lat="43.98971" lon="5.21476">
        <ele>573</ele>
        <time>2011-03-27T11:06:47Z</time>
      </trkpt>
      <trkpt lat="43.98967" lon="5.21486">
        <ele>572</ele>
        <time>2011-03-27T11:06:52Z</time>
      </trkpt>
      <trkpt lat="43.98963" lon="5.21497">
        <ele>572</ele>
        <time>2011-03-27T11:06:57Z</time>
      </trkpt>
      <trkpt lat="43.9896" lon="5.21508">
        <ele>573</ele>
        <time>2011-03-27T11:07:02Z</time>
      </trkpt>
      <trkpt lat="43.98956" lon="5.21518">
        <ele>573</ele>
        <time>2011-03-27T11:07:07Z</time>
      </trkpt>
      <trkpt lat="43.98953" lon="5.2153">
        <ele>572</ele>
        <time>2011-03-27T11:07:12Z</time>
      </trkpt>
      <trkpt lat="43.98951" lon="5.21541">
        <ele>573</ele>
        <time>2011-03-27T11:07:17Z</time>
      </trkpt>
      <trkpt lat="43.9895" lon="5.21543">
        <ele>574</ele>
        <time>2011-03-27T11:07:18Z</time>
      </trkpt>
      <trkpt lat="43.98946" lon="5.21564">
        <ele>571</ele>
        <time>2011-03-27T11:07:27Z</time>
      </trkpt>
      <trkpt lat="43.98944" lon="5.21575">
        <ele>572</ele>
        <time>2011-03-27T11:07:32Z</time>
      </trkpt>
      <trkpt lat="43.9894" lon="5.21585">
        <ele>574</ele>
        <time>2011-03-27T11:07:37Z</time>
      </trkpt>
      <trkpt lat="43.98936" lon="5.21595">
        <ele>574</ele>
        <time>2011-03-27T11:07:42Z</time>
      </trkpt>
      <trkpt lat="43.98932" lon="5.21604">
        <ele>575</ele>
        <time>2011-03-27T11:07:47Z</time>
      </trkpt>
      <trkpt lat="43.98928" lon="5.21614">
        <ele>575</ele>
        <time>2011-03-27T11:07:52Z</time>
      </trkpt>
      <trkpt lat="43.98924" lon="5.21623">
        <ele>576</ele>
        <time>2011-03-27T11:07:57Z</time>
      </trkpt>
      <trkpt lat="43.98919" lon="5.21632">
        <ele>577</ele>
        <time>2011-03-27T11:08:02Z</time>
      </trkpt>
      <trkpt lat="43.98914" lon="5.21642">
        <ele>577</ele>
        <time>2011-03-27T11:08:08Z</time>
      </trkpt>
      <trkpt lat="43.9891" lon="5.21652">
        <ele>579</ele>
        <time>2011-03-27T11:08:13Z</time>
      </trkpt>
      <trkpt lat="43.98906" lon="5.21661">
        <ele>580</ele>
        <time>2011-03-27T11:08:18Z</time>
      </trkpt>
      <trkpt lat="43.98905" lon="5.21662">
        <ele>581</ele>
        <time>2011-03-27T11:08:19Z</time>
      </trkpt>
      <trkpt lat="43.98896" lon="5.21681">
        <ele>583</ele>
        <time>2011-03-27T11:08:30Z</time>
      </trkpt>
      <trkpt lat="43.98892" lon="5.21691">
        <ele>584</ele>
        <time>2011-03-27T11:08:36Z</time>
      </trkpt>
      <trkpt lat="43.98886" lon="5.21701">
        <ele>586</ele>
        <time>2011-03-27T11:08:41Z</time>
      </trkpt>
      <trkpt lat="43.98882" lon="5.21709">
        <ele>587</ele>
        <time>2011-03-27T11:08:46Z</time>
      </trkpt>
      <trkpt lat="43.98877" lon="5.2172">
        <ele>590</ele>
        <time>2011-03-27T11:08:52Z</time>
      </trkpt>
      <trkpt lat="43.98873" lon="5.2173">
        <ele>592</ele>
        <time>2011-03-27T11:08:58Z</time>
      </trkpt>
      <trkpt lat="43.98868" lon="5.21739">
        <ele>594</ele>
        <time>2011-03-27T11:09:04Z</time>
      </trkpt>
      <trkpt lat="43.98861" lon="5.21747">
        <ele>595</ele>
        <time>2011-03-27T11:09:10Z</time>
      </trkpt>
      <trkpt lat="43.98855" lon="5.21754">
        <ele>597</ele>
        <time>2011-03-27T11:09:15Z</time>
      </trkpt>
      <trkpt lat="43.98848" lon="5.21761">
        <ele>598</ele>
        <time>2011-03-27T11:09:21Z</time>
      </trkpt>
      <trkpt lat="43.98847" lon="5.21763">
        <ele>598</ele>
        <time>2011-03-27T11:09:22Z</time>
      </trkpt>
      <trkpt lat="43.98836" lon="5.21777">
        <ele>602</ele>
        <time>2011-03-27T11:09:33Z</time>
      </trkpt>
      <trkpt lat="43.98833" lon="5.21789">
        <ele>603</ele>
        <time>2011-03-27T11:09:39Z</time>
      </trkpt>
      <trkpt lat="43.9883" lon="5.218">
        <ele>604</ele>
        <time>2011-03-27T11:09:45Z</time>
      </trkpt>
      <trkpt lat="43.98827" lon="5.21811">
        <ele>605</ele>
        <time>2011-03-27T11:09:51Z</time>
      </trkpt>
      <trkpt lat="43.98823" lon="5.21822">
        <ele>608</ele>
        <time>2011-03-27T11:10:01Z</time>
      </trkpt>
      <trkpt lat="43.98818" lon="5.21832">
        <ele>609</ele>
        <time>2011-03-27T11:10:06Z</time>
      </trkpt>
      <trkpt lat="43.98813" lon="5.2184">
        <ele>609</ele>
        <time>2011-03-27T11:10:11Z</time>
      </trkpt>
      <trkpt lat="43.98809" lon="5.21849">
        <ele>611</ele>
        <time>2011-03-27T11:10:16Z</time>
      </trkpt>
      <trkpt lat="43.98804" lon="5.21857">
        <ele>611</ele>
        <time>2011-03-27T11:10:21Z</time>
      </trkpt>
      <trkpt lat="43.98799" lon="5.21866">
        <ele>612</ele>
        <time>2011-03-27T11:10:26Z</time>
      </trkpt>
      <trkpt lat="43.98798" lon="5.21868">
        <ele>612</ele>
        <time>2011-03-27T11:10:27Z</time>
      </trkpt>
      <trkpt lat="43.98791" lon="5.21885">
        <ele>612</ele>
        <time>2011-03-27T11:10:36Z</time>
      </trkpt>
      <trkpt lat="43.98788" lon="5.21894">
        <ele>612</ele>
        <time>2011-03-27T11:10:41Z</time>
      </trkpt>
      <trkpt lat="43.98785" lon="5.21906">
        <ele>613</ele>
        <time>2011-03-27T11:10:47Z</time>
      </trkpt>
      <trkpt lat="43.98782" lon="5.21916">
        <ele>612</ele>
        <time>2011-03-27T11:10:52Z</time>
      </trkpt>
      <trkpt lat="43.98779" lon="5.21926">
        <ele>613</ele>
        <time>2011-03-27T11:10:57Z</time>
      </trkpt>
      <trkpt lat="43.98776" lon="5.21935">
        <ele>615</ele>
        <time>2011-03-27T11:11:02Z</time>
      </trkpt>
      <trkpt lat="43.98773" lon="5.21945">
        <ele>616</ele>
        <time>2011-03-27T11:11:07Z</time>
      </trkpt>
      <trkpt lat="43.9877" lon="5.21955">
        <ele>616</ele>
        <time>2011-03-27T11:11:12Z</time>
      </trkpt>
      <trkpt lat="43.98766" lon="5.21967">
        <ele>617</ele>
        <time>2011-03-27T11:11:18Z</time>
      </trkpt>
      <trkpt lat="43.98762" lon="5.21976">
        <ele>618</ele>
        <time>2011-03-27T11:11:23Z</time>
      </trkpt>
      <trkpt lat="43.98758" lon="5.21987">
        <ele>618</ele>
        <time>2011-03-27T11:11:29Z</time>
      </trkpt>
      <trkpt lat="43.98757" lon="5.21989">
        <ele>619</ele>
        <time>2011-03-27T11:11:30Z</time>
      </trkpt>
      <trkpt lat="43.98749" lon="5.22005">
        <ele>620</ele>
        <time>2011-03-27T11:11:39Z</time>
      </trkpt>
      <trkpt lat="43.98744" lon="5.22014">
        <ele>620</ele>
        <time>2011-03-27T11:11:44Z</time>
      </trkpt>
      <trkpt lat="43.98738" lon="5.22022">
        <ele>621</ele>
        <time>2011-03-27T11:11:49Z</time>
      </trkpt>
      <trkpt lat="43.98732" lon="5.22029">
        <ele>620</ele>
        <time>2011-03-27T11:11:54Z</time>
      </trkpt>
      <trkpt lat="43.98726" lon="5.22035">
        <ele>621</ele>
        <time>2011-03-27T11:11:59Z</time>
      </trkpt>
      <trkpt lat="43.98718" lon="5.22042">
        <ele>622</ele>
        <time>2011-03-27T11:12:05Z</time>
      </trkpt>
      <trkpt lat="43.98712" lon="5.22049">
        <ele>621</ele>
        <time>2011-03-27T11:12:10Z</time>
      </trkpt>
      <trkpt lat="43.98706" lon="5.22055">
        <ele>623</ele>
        <time>2011-03-27T11:12:15Z</time>
      </trkpt>
      <trkpt lat="43.98699" lon="5.22061">
        <ele>624</ele>
        <time>2011-03-27T11:12:20Z</time>
      </trkpt>
      <trkpt lat="43.98692" lon="5.22068">
        <ele>623</ele>
        <time>2011-03-27T11:12:25Z</time>
      </trkpt>
      <trkpt lat="43.98686" lon="5.22075">
        <ele>624</ele>
        <time>2011-03-27T11:12:30Z</time>
      </trkpt>
      <trkpt lat="43.98684" lon="5.22077">
        <ele>624</ele>
        <time>2011-03-27T11:12:31Z</time>
      </trkpt>
      <trkpt lat="43.98672" lon="5.22089">
        <ele>624</ele>
        <time>2011-03-27T11:12:40Z</time>
      </trkpt>
      <trkpt lat="43.98666" lon="5.22095">
        <ele>625</ele>
        <time>2011-03-27T11:12:45Z</time>
      </trkpt>
      <trkpt lat="43.98659" lon="5.22102">
        <ele>625</ele>
        <time>2011-03-27T11:12:50Z</time>
      </trkpt>
      <trkpt lat="43.98652" lon="5.22109">
        <ele>624</ele>
        <time>2011-03-27T11:12:55Z</time>
      </trkpt>
      <trkpt lat="43.98646" lon="5.22115">
        <ele>624</ele>
        <time>2011-03-27T11:13:00Z</time>
      </trkpt>
      <trkpt lat="43.98638" lon="5.22121">
        <ele>625</ele>
        <time>2011-03-27T11:13:05Z</time>
      </trkpt>
      <trkpt lat="43.98632" lon="5.22127">
        <ele>625</ele>
        <time>2011-03-27T11:13:10Z</time>
      </trkpt>
      <trkpt lat="43.98628" lon="5.22136">
        <ele>626</ele>
        <time>2011-03-27T11:13:15Z</time>
      </trkpt>
      <trkpt lat="43.98627" lon="5.22148">
        <ele>626</ele>
        <time>2011-03-27T11:13:20Z</time>
      </trkpt>
      <trkpt lat="43.98628" lon="5.22158">
        <ele>627</ele>
        <time>2011-03-27T11:13:25Z</time>
      </trkpt>
      <trkpt lat="43.98629" lon="5.22169">
        <ele>627</ele>
        <time>2011-03-27T11:13:30Z</time>
      </trkpt>
      <trkpt lat="43.98629" lon="5.2218">
        <ele>628</ele>
        <time>2011-03-27T11:13:35Z</time>
      </trkpt>
      <trkpt lat="43.98629" lon="5.22182">
        <ele>628</ele>
        <time>2011-03-27T11:13:36Z</time>
      </trkpt>
      <trkpt lat="43.98622" lon="5.222">
        <ele>629</ele>
        <time>2011-03-27T11:13:45Z</time>
      </trkpt>
      <trkpt lat="43.98617" lon="5.22208">
        <ele>630</ele>
        <time>2011-03-27T11:13:50Z</time>
      </trkpt>
      <trkpt lat="43.98611" lon="5.22217">
        <ele>630</ele>
        <time>2011-03-27T11:13:55Z</time>
      </trkpt>
      <trkpt lat="43.98606" lon="5.22225">
        <ele>630</ele>
        <time>2011-03-27T11:14:00Z</time>
      </trkpt>
      <trkpt lat="43.98601" lon="5.22233">
        <ele>630</ele>
        <time>2011-03-27T11:14:05Z</time>
      </trkpt>
      <trkpt lat="43.98596" lon="5.2224">
        <ele>630</ele>
        <time>2011-03-27T11:14:10Z</time>
      </trkpt>
      <trkpt lat="43.9859" lon="5.22249">
        <ele>631</ele>
        <time>2011-03-27T11:14:15Z</time>
      </trkpt>
      <trkpt lat="43.98585" lon="5.22257">
        <ele>632</ele>
        <time>2011-03-27T11:14:20Z</time>
      </trkpt>
      <trkpt lat="43.9858" lon="5.22265">
        <ele>632</ele>
        <time>2011-03-27T11:14:25Z</time>
      </trkpt>
      <trkpt lat="43.98573" lon="5.22273">
        <ele>633</ele>
        <time>2011-03-27T11:14:30Z</time>
      </trkpt>
      <trkpt lat="43.98568" lon="5.2228">
        <ele>633</ele>
        <time>2011-03-27T11:14:35Z</time>
      </trkpt>
      <trkpt lat="43.98562" lon="5.22287">
        <ele>634</ele>
        <time>2011-03-27T11:14:40Z</time>
      </trkpt>
      <trkpt lat="43.98561" lon="5.22288">
        <ele>634</ele>
        <time>2011-03-27T11:14:41Z</time>
      </trkpt>
      <trkpt lat="43.9855" lon="5.22302">
        <ele>634</ele>
        <time>2011-03-27T11:14:50Z</time>
      </trkpt>
      <trkpt lat="43.98544" lon="5.22309">
        <ele>634</ele>
        <time>2011-03-27T11:14:55Z</time>
      </trkpt>
      <trkpt lat="43.98538" lon="5.22315">
        <ele>635</ele>
        <time>2011-03-27T11:15:00Z</time>
      </trkpt>
      <trkpt lat="43.98532" lon="5.22322">
        <ele>635</ele>
        <time>2011-03-27T11:15:05Z</time>
      </trkpt>
      <trkpt lat="43.98524" lon="5.22328">
        <ele>636</ele>
        <time>2011-03-27T11:15:11Z</time>
      </trkpt>
      <trkpt lat="43.98516" lon="5.22332">
        <ele>635</ele>
        <time>2011-03-27T11:15:17Z</time>
      </trkpt>
      <trkpt lat="43.98507" lon="5.22337">
        <ele>635</ele>
        <time>2011-03-27T11:15:23Z</time>
      </trkpt>
      <trkpt lat="43.98501" lon="5.22341">
        <ele>634</ele>
        <time>2011-03-27T11:15:28Z</time>
      </trkpt>
      <trkpt lat="43.98494" lon="5.22346">
        <ele>633</ele>
        <time>2011-03-27T11:15:33Z</time>
      </trkpt>
      <trkpt lat="43.98488" lon="5.22352">
        <ele>632</ele>
        <time>2011-03-27T11:15:38Z</time>
      </trkpt>
      <trkpt lat="43.98482" lon="5.2236">
        <ele>632</ele>
        <time>2011-03-27T11:15:43Z</time>
      </trkpt>
      <trkpt lat="43.98481" lon="5.22361">
        <ele>632</ele>
        <time>2011-03-27T11:15:44Z</time>
      </trkpt>
      <trkpt lat="43.9847" lon="5.22377">
        <ele>632</ele>
        <time>2011-03-27T11:15:53Z</time>
      </trkpt>
      <trkpt lat="43.98464" lon="5.22386">
        <ele>631</ele>
        <time>2011-03-27T11:15:59Z</time>
      </trkpt>
      <trkpt lat="43.9846" lon="5.22394">
        <ele>631</ele>
        <time>2011-03-27T11:16:04Z</time>
      </trkpt>
      <trkpt lat="43.98456" lon="5.22404">
        <ele>630</ele>
        <time>2011-03-27T11:16:09Z</time>
      </trkpt>
      <trkpt lat="43.98453" lon="5.22415">
        <ele>630</ele>
        <time>2011-03-27T11:16:15Z</time>
      </trkpt>
      <trkpt lat="43.98451" lon="5.22425">
        <ele>630</ele>
        <time>2011-03-27T11:16:20Z</time>
      </trkpt>
      <trkpt lat="43.9845" lon="5.22437">
        <ele>628</ele>
        <time>2011-03-27T11:16:26Z</time>
      </trkpt>
      <trkpt lat="43.98447" lon="5.22448">
        <ele>628</ele>
        <time>2011-03-27T11:16:33Z</time>
      </trkpt>
      <trkpt lat="43.98439" lon="5.22449">
        <ele>627</ele>
        <time>2011-03-27T11:16:40Z</time>
      </trkpt>
      <trkpt lat="43.9843" lon="5.22451">
        <ele>626</ele>
        <time>2011-03-27T11:16:46Z</time>
      </trkpt>
      <trkpt lat="43.98429" lon="5.2245">
        <ele>626</ele>
        <time>2011-03-27T11:16:47Z</time>
      </trkpt>
      <trkpt lat="43.98416" lon="5.22441">
        <ele>624</ele>
        <time>2011-03-27T11:16:56Z</time>
      </trkpt>
      <trkpt lat="43.98409" lon="5.22436">
        <ele>623</ele>
        <time>2011-03-27T11:17:01Z</time>
      </trkpt>
      <trkpt lat="43.98401" lon="5.22431">
        <ele>622</ele>
        <time>2011-03-27T11:17:07Z</time>
      </trkpt>
      <trkpt lat="43.98394" lon="5.22425">
        <ele>621</ele>
        <time>2011-03-27T11:17:12Z</time>
      </trkpt>
      <trkpt lat="43.98387" lon="5.22417">
        <ele>621</ele>
        <time>2011-03-27T11:17:18Z</time>
      </trkpt>
      <trkpt lat="43.9838" lon="5.22411">
        <ele>620</ele>
        <time>2011-03-27T11:17:23Z</time>
      </trkpt>
      <trkpt lat="43.98374" lon="5.22404">
        <ele>619</ele>
        <time>2011-03-27T11:17:28Z</time>
      </trkpt>
      <trkpt lat="43.98366" lon="5.22402">
        <ele>618</ele>
        <time>2011-03-27T11:17:33Z</time>
      </trkpt>
      <trkpt lat="43.98358" lon="5.22402">
        <ele>617</ele>
        <time>2011-03-27T11:17:39Z</time>
      </trkpt>
      <trkpt lat="43.98349" lon="5.22403">
        <ele>616</ele>
        <time>2011-03-27T11:17:44Z</time>
      </trkpt>
      <trkpt lat="43.98341" lon="5.224">
        <ele>615</ele>
        <time>2011-03-27T11:17:49Z</time>
      </trkpt>
      <trkpt lat="43.98339" lon="5.224">
        <ele>615</ele>
        <time>2011-03-27T11:17:50Z</time>
      </trkpt>
      <trkpt lat="43.98326" lon="5.22392">
        <ele>614</ele>
        <time>2011-03-27T11:18:00Z</time>
      </trkpt>
      <trkpt lat="43.98318" lon="5.22387">
        <ele>612</ele>
        <time>2011-03-27T11:18:05Z</time>
      </trkpt>
      <trkpt lat="43.98311" lon="5.22379">
        <ele>611</ele>
        <time>2011-03-27T11:18:11Z</time>
      </trkpt>
      <trkpt lat="43.98303" lon="5.22378">
        <ele>609</ele>
        <time>2011-03-27T11:18:18Z</time>
      </trkpt>
      <trkpt lat="43.98297" lon="5.22387">
        <ele>607</ele>
        <time>2011-03-27T11:18:22Z</time>
      </trkpt>
      <trkpt lat="43.98298" lon="5.22397">
        <ele>607</ele>
        <time>2011-03-27T11:18:25Z</time>
      </trkpt>
      <trkpt lat="43.98301" lon="5.22408">
        <ele>607</ele>
        <time>2011-03-27T11:18:29Z</time>
      </trkpt>
      <trkpt lat="43.98304" lon="5.22418">
        <ele>607</ele>
        <time>2011-03-27T11:18:34Z</time>
      </trkpt>
      <trkpt lat="43.983" lon="5.22428">
        <ele>608</ele>
        <time>2011-03-27T11:18:40Z</time>
      </trkpt>
      <trkpt lat="43.98292" lon="5.22432">
        <ele>607</ele>
        <time>2011-03-27T11:18:47Z</time>
      </trkpt>
      <trkpt lat="43.98283" lon="5.22435">
        <ele>607</ele>
        <time>2011-03-27T11:18:51Z</time>
      </trkpt>
      <trkpt lat="43.9828" lon="5.22436">
        <ele>608</ele>
        <time>2011-03-27T11:18:52Z</time>
      </trkpt>
      <trkpt lat="43.98271" lon="5.22442">
        <ele>609</ele>
        <time>2011-03-27T11:18:55Z</time>
      </trkpt>
      <trkpt lat="43.98265" lon="5.22448">
        <ele>610</ele>
        <time>2011-03-27T11:18:57Z</time>
      </trkpt>
      <trkpt lat="43.98259" lon="5.22454">
        <ele>609</ele>
        <time>2011-03-27T11:18:59Z</time>
      </trkpt>
      <trkpt lat="43.98253" lon="5.2246">
        <ele>609</ele>
        <time>2011-03-27T11:19:01Z</time>
      </trkpt>
      <trkpt lat="43.98247" lon="5.22467">
        <ele>609</ele>
        <time>2011-03-27T11:19:03Z</time>
      </trkpt>
      <trkpt lat="43.9824" lon="5.22473">
        <ele>609</ele>
        <time>2011-03-27T11:19:05Z</time>
      </trkpt>
      <trkpt lat="43.98233" lon="5.2248">
        <ele>610</ele>
        <time>2011-03-27T11:19:07Z</time>
      </trkpt>
      <trkpt lat="43.98227" lon="5.22488">
        <ele>611</ele>
        <time>2011-03-27T11:19:09Z</time>
      </trkpt>
      <trkpt lat="43.98221" lon="5.22495">
        <ele>612</ele>
        <time>2011-03-27T11:19:11Z</time>
      </trkpt>
      <trkpt lat="43.98217" lon="5.22499">
        <ele>612</ele>
        <time>2011-03-27T11:19:12Z</time>
      </trkpt>
      <trkpt lat="43.98211" lon="5.22506">
        <ele>613</ele>
        <time>2011-03-27T11:19:14Z</time>
      </trkpt>
      <trkpt lat="43.98206" lon="5.22514">
        <ele>614</ele>
        <time>2011-03-27T11:19:16Z</time>
      </trkpt>
      <trkpt lat="43.982" lon="5.2252">
        <ele>615</ele>
        <time>2011-03-27T11:19:18Z</time>
      </trkpt>
      <trkpt lat="43.98195" lon="5.22527">
        <ele>616</ele>
        <time>2011-03-27T11:19:20Z</time>
      </trkpt>
      <trkpt lat="43.98188" lon="5.22534">
        <ele>617</ele>
        <time>2011-03-27T11:19:24Z</time>
      </trkpt>
      <trkpt lat="43.98181" lon="5.22542">
        <ele>619</ele>
        <time>2011-03-27T11:19:29Z</time>
      </trkpt>
      <trkpt lat="43.98174" lon="5.22547">
        <ele>619</ele>
        <time>2011-03-27T11:19:33Z</time>
      </trkpt>
      <trkpt lat="43.98166" lon="5.22548">
        <ele>620</ele>
        <time>2011-03-27T11:19:38Z</time>
      </trkpt>
      <trkpt lat="43.98158" lon="5.22549">
        <ele>622</ele>
        <time>2011-03-27T11:19:43Z</time>
      </trkpt>
      <trkpt lat="43.98149" lon="5.22548">
        <ele>622</ele>
        <time>2011-03-27T11:19:48Z</time>
      </trkpt>
      <trkpt lat="43.98141" lon="5.22549">
        <ele>623</ele>
        <time>2011-03-27T11:19:53Z</time>
      </trkpt>
      <trkpt lat="43.9814" lon="5.22549">
        <ele>623</ele>
        <time>2011-03-27T11:19:54Z</time>
      </trkpt>
      <trkpt lat="43.98125" lon="5.22553">
        <ele>625</ele>
        <time>2011-03-27T11:20:03Z</time>
      </trkpt>
      <trkpt lat="43.98117" lon="5.22557">
        <ele>626</ele>
        <time>2011-03-27T11:20:08Z</time>
      </trkpt>
      <trkpt lat="43.9811" lon="5.22561">
        <ele>627</ele>
        <time>2011-03-27T11:20:13Z</time>
      </trkpt>
      <trkpt lat="43.98103" lon="5.22567">
        <ele>629</ele>
        <time>2011-03-27T11:20:18Z</time>
      </trkpt>
      <trkpt lat="43.98096" lon="5.22572">
        <ele>630</ele>
        <time>2011-03-27T11:20:23Z</time>
      </trkpt>
      <trkpt lat="43.98088" lon="5.22574">
        <ele>631</ele>
        <time>2011-03-27T11:20:28Z</time>
      </trkpt>
      <trkpt lat="43.9808" lon="5.22575">
        <ele>632</ele>
        <time>2011-03-27T11:20:34Z</time>
      </trkpt>
      <trkpt lat="43.98072" lon="5.22573">
        <ele>633</ele>
        <time>2011-03-27T11:20:39Z</time>
      </trkpt>
      <trkpt lat="43.98065" lon="5.22577">
        <ele>634</ele>
        <time>2011-03-27T11:20:43Z</time>
      </trkpt>
      <trkpt lat="43.98057" lon="5.22581">
        <ele>635</ele>
        <time>2011-03-27T11:20:48Z</time>
      </trkpt>
      <trkpt lat="43.98049" lon="5.22583">
        <ele>636</ele>
        <time>2011-03-27T11:20:53Z</time>
      </trkpt>
      <trkpt lat="43.98041" lon="5.22587">
        <ele>637</ele>
        <time>2011-03-27T11:20:59Z</time>
      </trkpt>
      <trkpt lat="43.9804" lon="5.22588">
        <ele>637</ele>
        <time>2011-03-27T11:21:00Z</time>
      </trkpt>
      <trkpt lat="43.98025" lon="5.22584">
        <ele>640</ele>
        <time>2011-03-27T11:21:11Z</time>
      </trkpt>
      <trkpt lat="43.98018" lon="5.22577">
        <ele>640</ele>
        <time>2011-03-27T11:21:17Z</time>
      </trkpt>
      <trkpt lat="43.98009" lon="5.22573">
        <ele>640</ele>
        <time>2011-03-27T11:21:22Z</time>
      </trkpt>
      <trkpt lat="43.98001" lon="5.22575">
        <ele>641</ele>
        <time>2011-03-27T11:21:27Z</time>
      </trkpt>
      <trkpt lat="43.97994" lon="5.22577">
        <ele>642</ele>
        <time>2011-03-27T11:21:32Z</time>
      </trkpt>
      <trkpt lat="43.97986" lon="5.22579">
        <ele>642</ele>
        <time>2011-03-27T11:21:37Z</time>
      </trkpt>
      <trkpt lat="43.97977" lon="5.2258">
        <ele>642</ele>
        <time>2011-03-27T11:21:43Z</time>
      </trkpt>
      <trkpt lat="43.9797" lon="5.22582">
        <ele>642</ele>
        <time>2011-03-27T11:21:48Z</time>
      </trkpt>
      <trkpt lat="43.97961" lon="5.22585">
        <ele>642</ele>
        <time>2011-03-27T11:21:54Z</time>
      </trkpt>
      <trkpt lat="43.97953" lon="5.22589">
        <ele>642</ele>
        <time>2011-03-27T11:22:00Z</time>
      </trkpt>
      <trkpt lat="43.97946" lon="5.22593">
        <ele>642</ele>
        <time>2011-03-27T11:22:06Z</time>
      </trkpt>
      <trkpt lat="43.97945" lon="5.22594">
        <ele>642</ele>
        <time>2011-03-27T11:22:07Z</time>
      </trkpt>
      <trkpt lat="43.97931" lon="5.22602">
        <ele>641</ele>
        <time>2011-03-27T11:22:17Z</time>
      </trkpt>
      <trkpt lat="43.97924" lon="5.22607">
        <ele>641</ele>
        <time>2011-03-27T11:22:23Z</time>
      </trkpt>
      <trkpt lat="43.97916" lon="5.22611">
        <ele>641</ele>
        <time>2011-03-27T11:22:29Z</time>
      </trkpt>
      <trkpt lat="43.97909" lon="5.22615">
        <ele>641</ele>
        <time>2011-03-27T11:22:34Z</time>
      </trkpt>
      <trkpt lat="43.97902" lon="5.22616">
        <ele>641</ele>
        <time>2011-03-27T11:22:38Z</time>
      </trkpt>
      <trkpt lat="43.97893" lon="5.22616">
        <ele>640</ele>
        <time>2011-03-27T11:22:43Z</time>
      </trkpt>
      <trkpt lat="43.97884" lon="5.22616">
        <ele>639</ele>
        <time>2011-03-27T11:22:48Z</time>
      </trkpt>
      <trkpt lat="43.97876" lon="5.2262">
        <ele>638</ele>
        <time>2011-03-27T11:22:53Z</time>
      </trkpt>
      <trkpt lat="43.97864" lon="5.22626">
        <ele>638</ele>
        <time>2011-03-27T11:23:00Z</time>
      </trkpt>
      <trkpt lat="43.97856" lon="5.2263">
        <ele>639</ele>
        <time>2011-03-27T11:23:06Z</time>
      </trkpt>
      <trkpt lat="43.97847" lon="5.2263">
        <ele>640</ele>
        <time>2011-03-27T11:23:11Z</time>
      </trkpt>
      <trkpt lat="43.97846" lon="5.2263">
        <ele>640</ele>
        <time>2011-03-27T11:23:12Z</time>
      </trkpt>
      <trkpt lat="43.9783" lon="5.22631">
        <ele>640</ele>
        <time>2011-03-27T11:23:21Z</time>
      </trkpt>
      <trkpt lat="43.97821" lon="5.22633">
        <ele>640</ele>
        <time>2011-03-27T11:23:26Z</time>
      </trkpt>
      <trkpt lat="43.97814" lon="5.22636">
        <ele>640</ele>
        <time>2011-03-27T11:23:31Z</time>
      </trkpt>
      <trkpt lat="43.97807" lon="5.2264">
        <ele>641</ele>
        <time>2011-03-27T11:23:35Z</time>
      </trkpt>
      <trkpt lat="43.978" lon="5.22641">
        <ele>641</ele>
        <time>2011-03-27T11:23:39Z</time>
      </trkpt>
      <trkpt lat="43.97793" lon="5.22641">
        <ele>641</ele>
        <time>2011-03-27T11:23:43Z</time>
      </trkpt>
      <trkpt lat="43.97785" lon="5.22645">
        <ele>642</ele>
        <time>2011-03-27T11:23:48Z</time>
      </trkpt>
      <trkpt lat="43.97777" lon="5.2265">
        <ele>642</ele>
        <time>2011-03-27T11:23:53Z</time>
      </trkpt>
      <trkpt lat="43.97769" lon="5.22651">
        <ele>642</ele>
        <time>2011-03-27T11:23:58Z</time>
      </trkpt>
      <trkpt lat="43.9776" lon="5.2265">
        <ele>642</ele>
        <time>2011-03-27T11:24:03Z</time>
      </trkpt>
      <trkpt lat="43.97753" lon="5.22648">
        <ele>642</ele>
        <time>2011-03-27T11:24:07Z</time>
      </trkpt>
      <trkpt lat="43.97745" lon="5.22646">
        <ele>642</ele>
        <time>2011-03-27T11:24:11Z</time>
      </trkpt>
      <trkpt lat="43.97738" lon="5.22643">
        <ele>640</ele>
        <time>2011-03-27T11:24:15Z</time>
      </trkpt>
      <trkpt lat="43.97737" lon="5.22642">
        <ele>640</ele>
        <time>2011-03-27T11:24:16Z</time>
      </trkpt>
      <trkpt lat="43.97724" lon="5.22638">
        <ele>641</ele>
        <time>2011-03-27T11:24:23Z</time>
      </trkpt>
      <trkpt lat="43.97716" lon="5.2264">
        <ele>640</ele>
        <time>2011-03-27T11:24:29Z</time>
      </trkpt>
      <trkpt lat="43.97708" lon="5.22646">
        <ele>639</ele>
        <time>2011-03-27T11:24:46Z</time>
      </trkpt>
      <trkpt lat="43.97702" lon="5.22636">
        <ele>638</ele>
        <time>2011-03-27T11:24:55Z</time>
      </trkpt>
      <trkpt lat="43.97695" lon="5.22635">
        <ele>638</ele>
        <time>2011-03-27T11:25:01Z</time>
      </trkpt>
      <trkpt lat="43.97687" lon="5.22635">
        <ele>637</ele>
        <time>2011-03-27T11:25:06Z</time>
      </trkpt>
      <trkpt lat="43.97679" lon="5.22636">
        <ele>636</ele>
        <time>2011-03-27T11:25:11Z</time>
      </trkpt>
      <trkpt lat="43.9767" lon="5.22635">
        <ele>636</ele>
        <time>2011-03-27T11:25:16Z</time>
      </trkpt>
      <trkpt lat="43.97669" lon="5.22635">
        <ele>636</ele>
        <time>2011-03-27T11:25:17Z</time>
      </trkpt>
      <trkpt lat="43.97654" lon="5.22632">
        <ele>635</ele>
        <time>2011-03-27T11:25:25Z</time>
      </trkpt>
      <trkpt lat="43.97647" lon="5.2263">
        <ele>634</ele>
        <time>2011-03-27T11:25:29Z</time>
      </trkpt>
      <trkpt lat="43.97638" lon="5.2263">
        <ele>635</ele>
        <time>2011-03-27T11:25:34Z</time>
      </trkpt>
      <trkpt lat="43.9763" lon="5.22627">
        <ele>634</ele>
        <time>2011-03-27T11:25:39Z</time>
      </trkpt>
      <trkpt lat="43.97622" lon="5.22624">
        <ele>632</ele>
        <time>2011-03-27T11:25:44Z</time>
      </trkpt>
      <trkpt lat="43.97614" lon="5.22622">
        <ele>632</ele>
        <time>2011-03-27T11:25:49Z</time>
      </trkpt>
      <trkpt lat="43.97607" lon="5.22625">
        <ele>632</ele>
        <time>2011-03-27T11:25:54Z</time>
      </trkpt>
      <trkpt lat="43.97599" lon="5.22631">
        <ele>632</ele>
        <time>2011-03-27T11:26:00Z</time>
      </trkpt>
      <trkpt lat="43.97591" lon="5.22634">
        <ele>631</ele>
        <time>2011-03-27T11:26:05Z</time>
      </trkpt>
      <trkpt lat="43.97583" lon="5.22633">
        <ele>632</ele>
        <time>2011-03-27T11:26:10Z</time>
      </trkpt>
      <trkpt lat="43.97575" lon="5.22636">
        <ele>634</ele>
        <time>2011-03-27T11:26:15Z</time>
      </trkpt>
      <trkpt lat="43.97567" lon="5.2264">
        <ele>633</ele>
        <time>2011-03-27T11:26:20Z</time>
      </trkpt>
      <trkpt lat="43.97565" lon="5.22641">
        <ele>633</ele>
        <time>2011-03-27T11:26:21Z</time>
      </trkpt>
      <trkpt lat="43.97552" lon="5.22641">
        <ele>631</ele>
        <time>2011-03-27T11:26:29Z</time>
      </trkpt>
      <trkpt lat="43.97543" lon="5.2264">
        <ele>631</ele>
        <time>2011-03-27T11:26:34Z</time>
      </trkpt>
      <trkpt lat="43.97536" lon="5.22639">
        <ele>631</ele>
        <time>2011-03-27T11:26:39Z</time>
      </trkpt>
      <trkpt lat="43.97528" lon="5.2264">
        <ele>630</ele>
        <time>2011-03-27T11:26:44Z</time>
      </trkpt>
      <trkpt lat="43.9752" lon="5.2264">
        <ele>629</ele>
        <time>2011-03-27T11:26:49Z</time>
      </trkpt>
      <trkpt lat="43.97511" lon="5.2264">
        <ele>629</ele>
        <time>2011-03-27T11:26:55Z</time>
      </trkpt>
      <trkpt lat="43.97503" lon="5.22639">
        <ele>629</ele>
        <time>2011-03-27T11:27:00Z</time>
      </trkpt>
      <trkpt lat="43.97495" lon="5.22639">
        <ele>628</ele>
        <time>2011-03-27T11:27:05Z</time>
      </trkpt>
      <trkpt lat="43.97487" lon="5.22638">
        <ele>627</ele>
        <time>2011-03-27T11:27:10Z</time>
      </trkpt>
      <trkpt lat="43.9748" lon="5.22636">
        <ele>628</ele>
        <time>2011-03-27T11:27:15Z</time>
      </trkpt>
      <trkpt lat="43.97473" lon="5.2263">
        <ele>628</ele>
        <time>2011-03-27T11:27:21Z</time>
      </trkpt>
      <trkpt lat="43.97472" lon="5.22629">
        <ele>628</ele>
        <time>2011-03-27T11:27:22Z</time>
      </trkpt>
      <trkpt lat="43.97458" lon="5.2262">
        <ele>625</ele>
        <time>2011-03-27T11:27:33Z</time>
      </trkpt>
      <trkpt lat="43.9745" lon="5.22617">
        <ele>624</ele>
        <time>2011-03-27T11:27:39Z</time>
      </trkpt>
      <trkpt lat="43.97442" lon="5.22619">
        <ele>623</ele>
        <time>2011-03-27T11:27:45Z</time>
      </trkpt>
      <trkpt lat="43.97434" lon="5.22623">
        <ele>622</ele>
        <time>2011-03-27T11:27:51Z</time>
      </trkpt>
      <trkpt lat="43.97425" lon="5.22622">
        <ele>622</ele>
        <time>2011-03-27T11:27:57Z</time>
      </trkpt>
      <trkpt lat="43.97417" lon="5.22621">
        <ele>621</ele>
        <time>2011-03-27T11:28:03Z</time>
      </trkpt>
      <trkpt lat="43.97408" lon="5.22623">
        <ele>620</ele>
        <time>2011-03-27T11:28:09Z</time>
      </trkpt>
      <trkpt lat="43.97401" lon="5.22627">
        <ele>619</ele>
        <time>2011-03-27T11:28:14Z</time>
      </trkpt>
      <trkpt lat="43.97394" lon="5.22632">
        <ele>618</ele>
        <time>2011-03-27T11:28:19Z</time>
      </trkpt>
      <trkpt lat="43.97386" lon="5.22637">
        <ele>617</ele>
        <time>2011-03-27T11:28:24Z</time>
      </trkpt>
      <trkpt lat="43.97385" lon="5.22638">
        <ele>617</ele>
        <time>2011-03-27T11:28:25Z</time>
      </trkpt>
      <trkpt lat="43.9737" lon="5.22646">
        <ele>616</ele>
        <time>2011-03-27T11:28:36Z</time>
      </trkpt>
      <trkpt lat="43.97362" lon="5.22652">
        <ele>615</ele>
        <time>2011-03-27T11:28:43Z</time>
      </trkpt>
      <trkpt lat="43.97355" lon="5.22656">
        <ele>613</ele>
        <time>2011-03-27T11:28:49Z</time>
      </trkpt>
      <trkpt lat="43.97346" lon="5.22659">
        <ele>612</ele>
        <time>2011-03-27T11:28:56Z</time>
      </trkpt>
      <trkpt lat="43.97339" lon="5.22664">
        <ele>610</ele>
        <time>2011-03-27T11:29:03Z</time>
      </trkpt>
      <trkpt lat="43.9733" lon="5.22669">
        <ele>609</ele>
        <time>2011-03-27T11:29:09Z</time>
      </trkpt>
      <trkpt lat="43.97323" lon="5.22672">
        <ele>608</ele>
        <time>2011-03-27T11:29:15Z</time>
      </trkpt>
      <trkpt lat="43.97315" lon="5.22675">
        <ele>608</ele>
        <time>2011-03-27T11:29:21Z</time>
      </trkpt>
      <trkpt lat="43.97307" lon="5.2268">
        <ele>606</ele>
        <time>2011-03-27T11:29:28Z</time>
      </trkpt>
      <trkpt lat="43.97306" lon="5.22681">
        <ele>606</ele>
        <time>2011-03-27T11:29:29Z</time>
      </trkpt>
      <trkpt lat="43.97295" lon="5.22695">
        <ele>602</ele>
        <time>2011-03-27T11:29:40Z</time>
      </trkpt>
      <trkpt lat="43.97293" lon="5.22707">
        <ele>602</ele>
        <time>2011-03-27T11:29:46Z</time>
      </trkpt>
      <trkpt lat="43.97292" lon="5.22719">
        <ele>601</ele>
        <time>2011-03-27T11:29:52Z</time>
      </trkpt>
      <trkpt lat="43.97296" lon="5.22729">
        <ele>599</ele>
        <time>2011-03-27T11:29:59Z</time>
      </trkpt>
      <trkpt lat="43.97301" lon="5.22738">
        <ele>599</ele>
        <time>2011-03-27T11:30:05Z</time>
      </trkpt>
      <trkpt lat="43.97306" lon="5.22747">
        <ele>599</ele>
        <time>2011-03-27T11:30:11Z</time>
      </trkpt>
      <trkpt lat="43.97312" lon="5.22754">
        <ele>598</ele>
        <time>2011-03-27T11:30:16Z</time>
      </trkpt>
      <trkpt lat="43.97317" lon="5.22762">
        <ele>599</ele>
        <time>2011-03-27T11:30:21Z</time>
      </trkpt>
      <trkpt lat="43.97324" lon="5.22769">
        <ele>598</ele>
        <time>2011-03-27T11:30:26Z</time>
      </trkpt>
      <trkpt lat="43.97332" lon="5.22773">
        <ele>598</ele>
        <time>2011-03-27T11:30:32Z</time>
      </trkpt>
      <trkpt lat="43.97333" lon="5.22773">
        <ele>598</ele>
        <time>2011-03-27T11:30:33Z</time>
      </trkpt>
      <trkpt lat="43.97319" lon="5.22781">
        <ele>594</ele>
        <time>2011-03-27T11:30:51Z</time>
      </trkpt>
      <trkpt lat="43.97313" lon="5.22775">
        <ele>594</ele>
        <time>2011-03-27T11:30:57Z</time>
      </trkpt>
      <trkpt lat="43.97305" lon="5.22771">
        <ele>592</ele>
        <time>2011-03-27T11:31:03Z</time>
      </trkpt>
      <trkpt lat="43.97296" lon="5.22767">
        <ele>590</ele>
        <time>2011-03-27T11:31:09Z</time>
      </trkpt>
      <trkpt lat="43.97288" lon="5.22764">
        <ele>589</ele>
        <time>2011-03-27T11:31:15Z</time>
      </trkpt>
      <trkpt lat="43.97281" lon="5.22761">
        <ele>588</ele>
        <time>2011-03-27T11:31:20Z</time>
      </trkpt>
      <trkpt lat="43.97274" lon="5.22756">
        <ele>587</ele>
        <time>2011-03-27T11:31:25Z</time>
      </trkpt>
      <trkpt lat="43.97266" lon="5.2275">
        <ele>586</ele>
        <time>2011-03-27T11:31:32Z</time>
      </trkpt>
      <trkpt lat="43.97259" lon="5.22743">
        <ele>585</ele>
        <time>2011-03-27T11:31:38Z</time>
      </trkpt>
      <trkpt lat="43.97258" lon="5.22742">
        <ele>584</ele>
        <time>2011-03-27T11:31:39Z</time>
      </trkpt>
      <trkpt lat="43.97244" lon="5.22732">
        <ele>582</ele>
        <time>2011-03-27T11:31:51Z</time>
      </trkpt>
      <trkpt lat="43.97238" lon="5.22728">
        <ele>580</ele>
        <time>2011-03-27T11:31:56Z</time>
      </trkpt>
      <trkpt lat="43.97231" lon="5.22722">
        <ele>579</ele>
        <time>2011-03-27T11:32:00Z</time>
      </trkpt>
      <trkpt lat="43.97223" lon="5.22725">
        <ele>577</ele>
        <time>2011-03-27T11:32:07Z</time>
      </trkpt>
      <trkpt lat="43.97218" lon="5.22734">
        <ele>576</ele>
        <time>2011-03-27T11:32:14Z</time>
      </trkpt>
      <trkpt lat="43.97213" lon="5.22744">
        <ele>575</ele>
        <time>2011-03-27T11:32:22Z</time>
      </trkpt>
      <trkpt lat="43.97208" lon="5.22754">
        <ele>573</ele>
        <time>2011-03-27T11:32:30Z</time>
      </trkpt>
      <trkpt lat="43.97204" lon="5.22763">
        <ele>572</ele>
        <time>2011-03-27T11:32:36Z</time>
      </trkpt>
      <trkpt lat="43.97199" lon="5.22773">
        <ele>571</ele>
        <time>2011-03-27T11:32:43Z</time>
      </trkpt>
      <trkpt lat="43.97199" lon="5.22774">
        <ele>571</ele>
        <time>2011-03-27T11:32:44Z</time>
      </trkpt>
      <trkpt lat="43.97191" lon="5.22792">
        <ele>570</ele>
        <time>2011-03-27T11:32:56Z</time>
      </trkpt>
      <trkpt lat="43.97186" lon="5.22802">
        <ele>569</ele>
        <time>2011-03-27T11:33:02Z</time>
      </trkpt>
      <trkpt lat="43.97183" lon="5.22812">
        <ele>569</ele>
        <time>2011-03-27T11:33:07Z</time>
      </trkpt>
      <trkpt lat="43.97178" lon="5.22823">
        <ele>568</ele>
        <time>2011-03-27T11:33:13Z</time>
      </trkpt>
      <trkpt lat="43.97174" lon="5.22833">
        <ele>567</ele>
        <time>2011-03-27T11:33:20Z</time>
      </trkpt>
      <trkpt lat="43.97171" lon="5.22843">
        <ele>566</ele>
        <time>2011-03-27T11:33:26Z</time>
      </trkpt>
      <trkpt lat="43.97166" lon="5.22853">
        <ele>565</ele>
        <time>2011-03-27T11:33:33Z</time>
      </trkpt>
      <trkpt lat="43.97162" lon="5.22862">
        <ele>564</ele>
        <time>2011-03-27T11:33:39Z</time>
      </trkpt>
      <trkpt lat="43.97161" lon="5.22874">
        <ele>562</ele>
        <time>2011-03-27T11:33:46Z</time>
      </trkpt>
      <trkpt lat="43.97161" lon="5.22876">
        <ele>562</ele>
        <time>2011-03-27T11:33:47Z</time>
      </trkpt>
      <trkpt lat="43.97159" lon="5.22897">
        <ele>561</ele>
        <time>2011-03-27T11:33:59Z</time>
      </trkpt>
      <trkpt lat="43.97154" lon="5.22906">
        <ele>560</ele>
        <time>2011-03-27T11:34:04Z</time>
      </trkpt>
      <trkpt lat="43.97148" lon="5.22914">
        <ele>559</ele>
        <time>2011-03-27T11:34:09Z</time>
      </trkpt>
      <trkpt lat="43.97141" lon="5.22921">
        <ele>559</ele>
        <time>2011-03-27T11:34:15Z</time>
      </trkpt>
      <trkpt lat="43.97136" lon="5.22929">
        <ele>558</ele>
        <time>2011-03-27T11:34:20Z</time>
      </trkpt>
      <trkpt lat="43.97131" lon="5.22939">
        <ele>556</ele>
        <time>2011-03-27T11:34:26Z</time>
      </trkpt>
      <trkpt lat="43.97125" lon="5.22946">
        <ele>556</ele>
        <time>2011-03-27T11:34:31Z</time>
      </trkpt>
      <trkpt lat="43.97118" lon="5.22953">
        <ele>556</ele>
        <time>2011-03-27T11:34:36Z</time>
      </trkpt>
      <trkpt lat="43.97111" lon="5.2296">
        <ele>555</ele>
        <time>2011-03-27T11:34:42Z</time>
      </trkpt>
      <trkpt lat="43.97104" lon="5.22964">
        <ele>555</ele>
        <time>2011-03-27T11:34:48Z</time>
      </trkpt>
      <trkpt lat="43.97103" lon="5.22965">
        <ele>555</ele>
        <time>2011-03-27T11:34:49Z</time>
      </trkpt>
      <trkpt lat="43.9709" lon="5.22971">
        <ele>554</ele>
        <time>2011-03-27T11:34:58Z</time>
      </trkpt>
      <trkpt lat="43.97082" lon="5.22971">
        <ele>553</ele>
        <time>2011-03-27T11:35:04Z</time>
      </trkpt>
      <trkpt lat="43.97074" lon="5.22969">
        <ele>553</ele>
        <time>2011-03-27T11:35:09Z</time>
      </trkpt>
      <trkpt lat="43.97067" lon="5.22968">
        <ele>552</ele>
        <time>2011-03-27T11:35:14Z</time>
      </trkpt>
      <trkpt lat="43.97059" lon="5.22968">
        <ele>552</ele>
        <time>2011-03-27T11:35:19Z</time>
      </trkpt>
      <trkpt lat="43.9705" lon="5.22967">
        <ele>551</ele>
        <time>2011-03-27T11:35:25Z</time>
      </trkpt>
      <trkpt lat="43.97042" lon="5.22968">
        <ele>550</ele>
        <time>2011-03-27T11:35:30Z</time>
      </trkpt>
      <trkpt lat="43.97035" lon="5.22969">
        <ele>550</ele>
        <time>2011-03-27T11:35:35Z</time>
      </trkpt>
      <trkpt lat="43.97026" lon="5.22968">
        <ele>550</ele>
        <time>2011-03-27T11:35:41Z</time>
      </trkpt>
      <trkpt lat="43.97018" lon="5.22969">
        <ele>550</ele>
        <time>2011-03-27T11:35:47Z</time>
      </trkpt>
      <trkpt lat="43.97011" lon="5.2297">
        <ele>550</ele>
        <time>2011-03-27T11:35:52Z</time>
      </trkpt>
      <trkpt lat="43.97009" lon="5.22971">
        <ele>550</ele>
        <time>2011-03-27T11:35:53Z</time>
      </trkpt>
      <trkpt lat="43.96994" lon="5.22976">
        <ele>548</ele>
        <time>2011-03-27T11:36:05Z</time>
      </trkpt>
      <trkpt lat="43.96987" lon="5.22972">
        <ele>546</ele>
        <time>2011-03-27T11:36:12Z</time>
      </trkpt>
      <trkpt lat="43.9698" lon="5.22966">
        <ele>546</ele>
        <time>2011-03-27T11:36:17Z</time>
      </trkpt>
      <trkpt lat="43.96972" lon="5.22966">
        <ele>544</ele>
        <time>2011-03-27T11:36:22Z</time>
      </trkpt>
      <trkpt lat="43.96964" lon="5.22967">
        <ele>544</ele>
        <time>2011-03-27T11:36:28Z</time>
      </trkpt>
      <trkpt lat="43.96955" lon="5.22964">
        <ele>543</ele>
        <time>2011-03-27T11:36:34Z</time>
      </trkpt>
      <trkpt lat="43.96947" lon="5.22963">
        <ele>542</ele>
        <time>2011-03-27T11:36:40Z</time>
      </trkpt>
      <trkpt lat="43.96939" lon="5.22963">
        <ele>541</ele>
        <time>2011-03-27T11:36:46Z</time>
      </trkpt>
      <trkpt lat="43.9693" lon="5.22961">
        <ele>540</ele>
        <time>2011-03-27T11:36:51Z</time>
      </trkpt>
      <trkpt lat="43.96922" lon="5.22958">
        <ele>540</ele>
        <time>2011-03-27T11:36:57Z</time>
      </trkpt>
      <trkpt lat="43.9692" lon="5.22958">
        <ele>540</ele>
        <time>2011-03-27T11:36:58Z</time>
      </trkpt>
      <trkpt lat="43.96905" lon="5.22955">
        <ele>539</ele>
        <time>2011-03-27T11:37:08Z</time>
      </trkpt>
      <trkpt lat="43.96898" lon="5.22955">
        <ele>538</ele>
        <time>2011-03-27T11:37:13Z</time>
      </trkpt>
      <trkpt lat="43.96889" lon="5.22956">
        <ele>537</ele>
        <time>2011-03-27T11:37:18Z</time>
      </trkpt>
      <trkpt lat="43.9688" lon="5.22956">
        <ele>538</ele>
        <time>2011-03-27T11:37:24Z</time>
      </trkpt>
      <trkpt lat="43.96872" lon="5.22958">
        <ele>538</ele>
        <time>2011-03-27T11:37:32Z</time>
      </trkpt>
      <trkpt lat="43.96863" lon="5.22958">
        <ele>536</ele>
        <time>2011-03-27T11:37:38Z</time>
      </trkpt>
      <trkpt lat="43.96855" lon="5.2296">
        <ele>534</ele>
        <time>2011-03-27T11:37:44Z</time>
      </trkpt>
      <trkpt lat="43.96847" lon="5.22962">
        <ele>533</ele>
        <time>2011-03-27T11:37:49Z</time>
      </trkpt>
      <trkpt lat="43.96839" lon="5.22966">
        <ele>534</ele>
        <time>2011-03-27T11:37:54Z</time>
      </trkpt>
      <trkpt lat="43.96834" lon="5.22973">
        <ele>533</ele>
        <time>2011-03-27T11:37:59Z</time>
      </trkpt>
      <trkpt lat="43.96833" lon="5.22975">
        <ele>532</ele>
        <time>2011-03-27T11:38:00Z</time>
      </trkpt>
      <trkpt lat="43.96827" lon="5.22992">
        <ele>532</ele>
        <time>2011-03-27T11:38:07Z</time>
      </trkpt>
      <trkpt lat="43.96824" lon="5.23003">
        <ele>531</ele>
        <time>2011-03-27T11:38:12Z</time>
      </trkpt>
      <trkpt lat="43.96823" lon="5.23015">
        <ele>531</ele>
        <time>2011-03-27T11:38:17Z</time>
      </trkpt>
      <trkpt lat="43.9682" lon="5.23025">
        <ele>531</ele>
        <time>2011-03-27T11:38:22Z</time>
      </trkpt>
      <trkpt lat="43.96816" lon="5.23035">
        <ele>531</ele>
        <time>2011-03-27T11:38:27Z</time>
      </trkpt>
      <trkpt lat="43.96811" lon="5.23044">
        <ele>530</ele>
        <time>2011-03-27T11:38:32Z</time>
      </trkpt>
      <trkpt lat="43.96806" lon="5.23053">
        <ele>530</ele>
        <time>2011-03-27T11:38:37Z</time>
      </trkpt>
      <trkpt lat="43.96802" lon="5.23062">
        <ele>530</ele>
        <time>2011-03-27T11:38:42Z</time>
      </trkpt>
      <trkpt lat="43.96794" lon="5.23066">
        <ele>530</ele>
        <time>2011-03-27T11:38:48Z</time>
      </trkpt>
      <trkpt lat="43.96785" lon="5.23069">
        <ele>529</ele>
        <time>2011-03-27T11:38:54Z</time>
      </trkpt>
      <trkpt lat="43.96778" lon="5.23072">
        <ele>528</ele>
        <time>2011-03-27T11:38:59Z</time>
      </trkpt>
      <trkpt lat="43.96769" lon="5.23074">
        <ele>526</ele>
        <time>2011-03-27T11:39:05Z</time>
      </trkpt>
      <trkpt lat="43.96767" lon="5.23075">
        <ele>526</ele>
        <time>2011-03-27T11:39:06Z</time>
      </trkpt>
      <trkpt lat="43.96752" lon="5.23077">
        <ele>524</ele>
        <time>2011-03-27T11:39:17Z</time>
      </trkpt>
      <trkpt lat="43.96743" lon="5.23079">
        <ele>524</ele>
        <time>2011-03-27T11:39:23Z</time>
      </trkpt>
      <trkpt lat="43.96735" lon="5.23078">
        <ele>523</ele>
        <time>2011-03-27T11:39:29Z</time>
      </trkpt>
      <trkpt lat="43.96727" lon="5.23076">
        <ele>522</ele>
        <time>2011-03-27T11:39:35Z</time>
      </trkpt>
      <trkpt lat="43.96719" lon="5.23072">
        <ele>520</ele>
        <time>2011-03-27T11:39:40Z</time>
      </trkpt>
      <trkpt lat="43.96711" lon="5.23068">
        <ele>520</ele>
        <time>2011-03-27T11:39:45Z</time>
      </trkpt>
      <trkpt lat="43.96704" lon="5.23064">
        <ele>518</ele>
        <time>2011-03-27T11:39:50Z</time>
      </trkpt>
      <trkpt lat="43.96697" lon="5.23061">
        <ele>518</ele>
        <time>2011-03-27T11:39:55Z</time>
      </trkpt>
      <trkpt lat="43.96689" lon="5.23058">
        <ele>517</ele>
        <time>2011-03-27T11:40:00Z</time>
      </trkpt>
      <trkpt lat="43.96681" lon="5.23054">
        <ele>516</ele>
        <time>2011-03-27T11:40:06Z</time>
      </trkpt>
      <trkpt lat="43.9668" lon="5.23053">
        <ele>516</ele>
        <time>2011-03-27T11:40:07Z</time>
      </trkpt>
      <trkpt lat="43.96664" lon="5.23051">
        <ele>514</ele>
        <time>2011-03-27T11:40:18Z</time>
      </trkpt>
      <trkpt lat="43.96656" lon="5.23052">
        <ele>512</ele>
        <time>2011-03-27T11:40:23Z</time>
      </trkpt>
      <trkpt lat="43.96648" lon="5.23055">
        <ele>512</ele>
        <time>2011-03-27T11:40:29Z</time>
      </trkpt>
      <trkpt lat="43.9664" lon="5.2306">
        <ele>510</ele>
        <time>2011-03-27T11:41:36Z</time>
      </trkpt>
      <trkpt lat="43.96639" lon="5.2306">
        <ele>510</ele>
        <time>2011-03-27T11:41:37Z</time>
      </trkpt>
      <trkpt lat="43.96624" lon="5.23064">
        <ele>509</ele>
        <time>2011-03-27T11:41:50Z</time>
      </trkpt>
      <trkpt lat="43.96616" lon="5.23068">
        <ele>506</ele>
        <time>2011-03-27T11:41:57Z</time>
      </trkpt>
      <trkpt lat="43.96608" lon="5.23072">
        <ele>506</ele>
        <time>2011-03-27T11:42:04Z</time>
      </trkpt>
      <trkpt lat="43.96601" lon="5.23078">
        <ele>504</ele>
        <time>2011-03-27T11:42:10Z</time>
      </trkpt>
      <trkpt lat="43.96594" lon="5.23084">
        <ele>502</ele>
        <time>2011-03-27T11:42:16Z</time>
      </trkpt>
      <trkpt lat="43.96587" lon="5.2309">
        <ele>501</ele>
        <time>2011-03-27T11:42:22Z</time>
      </trkpt>
      <trkpt lat="43.9658" lon="5.23096">
        <ele>500</ele>
        <time>2011-03-27T11:42:28Z</time>
      </trkpt>
      <trkpt lat="43.96573" lon="5.23101">
        <ele>500</ele>
        <time>2011-03-27T11:42:34Z</time>
      </trkpt>
      <trkpt lat="43.96566" lon="5.23105">
        <ele>499</ele>
        <time>2011-03-27T11:42:40Z</time>
      </trkpt>
      <trkpt lat="43.96565" lon="5.23106">
        <ele>498</ele>
        <time>2011-03-27T11:42:41Z</time>
      </trkpt>
      <trkpt lat="43.96551" lon="5.23117">
        <ele>496</ele>
        <time>2011-03-27T11:42:54Z</time>
      </trkpt>
      <trkpt lat="43.96545" lon="5.23124">
        <ele>494</ele>
        <time>2011-03-27T11:43:00Z</time>
      </trkpt>
      <trkpt lat="43.96539" lon="5.23132">
        <ele>493</ele>
        <time>2011-03-27T11:43:06Z</time>
      </trkpt>
      <trkpt lat="43.96534" lon="5.23141">
        <ele>491</ele>
        <time>2011-03-27T11:43:12Z</time>
      </trkpt>
      <trkpt lat="43.96529" lon="5.2315">
        <ele>490</ele>
        <time>2011-03-27T11:43:18Z</time>
      </trkpt>
      <trkpt lat="43.96524" lon="5.2316">
        <ele>490</ele>
        <time>2011-03-27T11:43:24Z</time>
      </trkpt>
      <trkpt lat="43.96517" lon="5.23167">
        <ele>490</ele>
        <time>2011-03-27T11:43:30Z</time>
      </trkpt>
      <trkpt lat="43.9651" lon="5.23174">
        <ele>489</ele>
        <time>2011-03-27T11:43:36Z</time>
      </trkpt>
      <trkpt lat="43.96504" lon="5.2318">
        <ele>488</ele>
        <time>2011-03-27T11:43:41Z</time>
      </trkpt>
      <trkpt lat="43.96503" lon="5.23181">
        <ele>488</ele>
        <time>2011-03-27T11:43:42Z</time>
      </trkpt>
      <trkpt lat="43.96491" lon="5.2319">
        <ele>487</ele>
        <time>2011-03-27T11:43:51Z</time>
      </trkpt>
      <trkpt lat="43.96483" lon="5.23196">
        <ele>487</ele>
        <time>2011-03-27T11:43:57Z</time>
      </trkpt>
      <trkpt lat="43.96476" lon="5.23203">
        <ele>486</ele>
        <time>2011-03-27T11:44:03Z</time>
      </trkpt>
      <trkpt lat="43.96471" lon="5.23211">
        <ele>486</ele>
        <time>2011-03-27T11:44:09Z</time>
      </trkpt>
      <trkpt lat="43.96465" lon="5.23218">
        <ele>485</ele>
        <time>2011-03-27T11:44:15Z</time>
      </trkpt>
      <trkpt lat="43.96458" lon="5.23223">
        <ele>484</ele>
        <time>2011-03-27T11:44:21Z</time>
      </trkpt>
      <trkpt lat="43.96451" lon="5.23228">
        <ele>484</ele>
        <time>2011-03-27T11:44:27Z</time>
      </trkpt>
      <trkpt lat="43.96444" lon="5.23232">
        <ele>482</ele>
        <time>2011-03-27T11:44:33Z</time>
      </trkpt>
      <trkpt lat="43.96437" lon="5.23237">
        <ele>481</ele>
        <time>2011-03-27T11:44:39Z</time>
      </trkpt>
      <trkpt lat="43.96429" lon="5.23242">
        <ele>480</ele>
        <time>2011-03-27T11:44:45Z</time>
      </trkpt>
      <trkpt lat="43.96428" lon="5.23242">
        <ele>480</ele>
        <time>2011-03-27T11:44:46Z</time>
      </trkpt>
      <trkpt lat="43.96414" lon="5.23249">
        <ele>480</ele>
        <time>2011-03-27T11:44:57Z</time>
      </trkpt>
      <trkpt lat="43.96407" lon="5.23253">
        <ele>479</ele>
        <time>2011-03-27T11:45:03Z</time>
      </trkpt>
      <trkpt lat="43.96399" lon="5.23257">
        <ele>478</ele>
        <time>2011-03-27T11:45:09Z</time>
      </trkpt>
      <trkpt lat="43.96391" lon="5.23261">
        <ele>476</ele>
        <time>2011-03-27T11:45:15Z</time>
      </trkpt>
      <trkpt lat="43.96383" lon="5.23264">
        <ele>475</ele>
        <time>2011-03-27T11:45:21Z</time>
      </trkpt>
      <trkpt lat="43.96375" lon="5.23268">
        <ele>475</ele>
        <time>2011-03-27T11:45:27Z</time>
      </trkpt>
      <trkpt lat="43.96368" lon="5.23272">
        <ele>474</ele>
        <time>2011-03-27T11:45:32Z</time>
      </trkpt>
      <trkpt lat="43.9636" lon="5.23277">
        <ele>473</ele>
        <time>2011-03-27T11:45:38Z</time>
      </trkpt>
      <trkpt lat="43.96353" lon="5.23282">
        <ele>473</ele>
        <time>2011-03-27T11:45:43Z</time>
      </trkpt>
      <trkpt lat="43.96346" lon="5.23288">
        <ele>472</ele>
        <time>2011-03-27T11:45:49Z</time>
      </trkpt>
      <trkpt lat="43.96345" lon="5.23289">
        <ele>472</ele>
        <time>2011-03-27T11:45:50Z</time>
      </trkpt>
      <trkpt lat="43.96331" lon="5.23301">
        <ele>470</ele>
        <time>2011-03-27T11:46:01Z</time>
      </trkpt>
      <trkpt lat="43.96324" lon="5.23309">
        <ele>471</ele>
        <time>2011-03-27T11:46:07Z</time>
      </trkpt>
      <trkpt lat="43.96317" lon="5.23316">
        <ele>470</ele>
        <time>2011-03-27T11:46:13Z</time>
      </trkpt>
      <trkpt lat="43.96313" lon="5.23327">
        <ele>469</ele>
        <time>2011-03-27T11:46:21Z</time>
      </trkpt>
      <trkpt lat="43.96307" lon="5.23334">
        <ele>468</ele>
        <time>2011-03-27T11:46:37Z</time>
      </trkpt>
      <trkpt lat="43.96301" lon="5.23342">
        <ele>468</ele>
        <time>2011-03-27T11:46:43Z</time>
      </trkpt>
      <trkpt lat="43.96294" lon="5.23348">
        <ele>467</ele>
        <time>2011-03-27T11:46:48Z</time>
      </trkpt>
      <trkpt lat="43.9629" lon="5.23359">
        <ele>468</ele>
        <time>2011-03-27T11:46:57Z</time>
      </trkpt>
      <trkpt lat="43.9629" lon="5.23359">
        <ele>468</ele>
        <time>2011-03-27T11:46:58Z</time>
      </trkpt>
      <trkpt lat="43.96281" lon="5.23357">
        <ele>469</ele>
        <time>2011-03-27T11:54:07Z</time>
      </trkpt>
      <trkpt lat="43.96265" lon="5.23358">
        <ele>470</ele>
        <time>2011-03-27T11:54:19Z</time>
      </trkpt>
      <trkpt lat="43.96257" lon="5.23359">
        <ele>471</ele>
        <time>2011-03-27T11:54:25Z</time>
      </trkpt>
      <trkpt lat="43.96248" lon="5.2336">
        <ele>470</ele>
        <time>2011-03-27T11:54:31Z</time>
      </trkpt>
      <trkpt lat="43.9624" lon="5.23361">
        <ele>470</ele>
        <time>2011-03-27T11:54:37Z</time>
      </trkpt>
      <trkpt lat="43.96231" lon="5.23362">
        <ele>471</ele>
        <time>2011-03-27T11:54:43Z</time>
      </trkpt>
      <trkpt lat="43.96222" lon="5.23363">
        <ele>472</ele>
        <time>2011-03-27T11:54:49Z</time>
      </trkpt>
      <trkpt lat="43.96214" lon="5.23365">
        <ele>473</ele>
        <time>2011-03-27T11:54:55Z</time>
      </trkpt>
      <trkpt lat="43.96205" lon="5.23365">
        <ele>476</ele>
        <time>2011-03-27T11:55:01Z</time>
      </trkpt>
      <trkpt lat="43.96196" lon="5.23367">
        <ele>476</ele>
        <time>2011-03-27T11:55:07Z</time>
      </trkpt>
      <trkpt lat="43.96195" lon="5.23367">
        <ele>476</ele>
        <time>2011-03-27T11:55:08Z</time>
      </trkpt>
      <trkpt lat="43.9618" lon="5.2337">
        <ele>478</ele>
        <time>2011-03-27T11:55:18Z</time>
      </trkpt>
      <trkpt lat="43.96171" lon="5.23373">
        <ele>479</ele>
        <time>2011-03-27T11:55:24Z</time>
      </trkpt>
      <trkpt lat="43.96164" lon="5.23377">
        <ele>479</ele>
        <time>2011-03-27T11:55:29Z</time>
      </trkpt>
      <trkpt lat="43.96156" lon="5.2338">
        <ele>480</ele>
        <time>2011-03-27T11:55:34Z</time>
      </trkpt>
      <trkpt lat="43.96147" lon="5.23384">
        <ele>480</ele>
        <time>2011-03-27T11:55:39Z</time>
      </trkpt>
      <trkpt lat="43.96139" lon="5.23388">
        <ele>481</ele>
        <time>2011-03-27T11:55:44Z</time>
      </trkpt>
      <trkpt lat="43.96131" lon="5.23391">
        <ele>481</ele>
        <time>2011-03-27T11:55:49Z</time>
      </trkpt>
      <trkpt lat="43.96124" lon="5.23394">
        <ele>482</ele>
        <time>2011-03-27T11:55:54Z</time>
      </trkpt>
      <trkpt lat="43.96116" lon="5.23396">
        <ele>482</ele>
        <time>2011-03-27T11:55:59Z</time>
      </trkpt>
      <trkpt lat="43.96108" lon="5.23397">
        <ele>484</ele>
        <time>2011-03-27T11:56:04Z</time>
      </trkpt>
      <trkpt lat="43.961" lon="5.23397">
        <ele>484</ele>
        <time>2011-03-27T11:56:09Z</time>
      </trkpt>
      <trkpt lat="43.96099" lon="5.23397">
        <ele>484</ele>
        <time>2011-03-27T11:56:10Z</time>
      </trkpt>
      <trkpt lat="43.96085" lon="5.23394">
        <ele>486</ele>
        <time>2011-03-27T11:56:19Z</time>
      </trkpt>
      <trkpt lat="43.96077" lon="5.23391">
        <ele>488</ele>
        <time>2011-03-27T11:56:25Z</time>
      </trkpt>
      <trkpt lat="43.96069" lon="5.23387">
        <ele>489</ele>
        <time>2011-03-27T11:56:31Z</time>
      </trkpt>
      <trkpt lat="43.96062" lon="5.23382">
        <ele>490</ele>
        <time>2011-03-27T11:56:36Z</time>
      </trkpt>
      <trkpt lat="43.96055" lon="5.23378">
        <ele>491</ele>
        <time>2011-03-27T11:56:41Z</time>
      </trkpt>
      <trkpt lat="43.96047" lon="5.23374">
        <ele>492</ele>
        <time>2011-03-27T11:56:46Z</time>
      </trkpt>
      <trkpt lat="43.96039" lon="5.23371">
        <ele>492</ele>
        <time>2011-03-27T11:56:51Z</time>
      </trkpt>
      <trkpt lat="43.96031" lon="5.23367">
        <ele>492</ele>
        <time>2011-03-27T11:56:56Z</time>
      </trkpt>
      <trkpt lat="43.96023" lon="5.23364">
        <ele>494</ele>
        <time>2011-03-27T11:57:01Z</time>
      </trkpt>
      <trkpt lat="43.96015" lon="5.23361">
        <ele>494</ele>
        <time>2011-03-27T11:57:06Z</time>
      </trkpt>
      <trkpt lat="43.96007" lon="5.23359">
        <ele>495</ele>
        <time>2011-03-27T11:57:11Z</time>
      </trkpt>
      <trkpt lat="43.96006" lon="5.23359">
        <ele>495</ele>
        <time>2011-03-27T11:57:12Z</time>
      </trkpt>
      <trkpt lat="43.95992" lon="5.23358">
        <ele>497</ele>
        <time>2011-03-27T11:57:21Z</time>
      </trkpt>
      <trkpt lat="43.95984" lon="5.23358">
        <ele>498</ele>
        <time>2011-03-27T11:57:26Z</time>
      </trkpt>
      <trkpt lat="43.95976" lon="5.23358">
        <ele>499</ele>
        <time>2011-03-27T11:57:31Z</time>
      </trkpt>
      <trkpt lat="43.95969" lon="5.23359">
        <ele>500</ele>
        <time>2011-03-27T11:57:36Z</time>
      </trkpt>
      <trkpt lat="43.95961" lon="5.2336">
        <ele>501</ele>
        <time>2011-03-27T11:57:41Z</time>
      </trkpt>
      <trkpt lat="43.95954" lon="5.23361">
        <ele>500</ele>
        <time>2011-03-27T11:57:46Z</time>
      </trkpt>
      <trkpt lat="43.95946" lon="5.23361">
        <ele>501</ele>
        <time>2011-03-27T11:57:51Z</time>
      </trkpt>
      <trkpt lat="43.95938" lon="5.23362">
        <ele>501</ele>
        <time>2011-03-27T11:57:56Z</time>
      </trkpt>
      <trkpt lat="43.9593" lon="5.23364">
        <ele>502</ele>
        <time>2011-03-27T11:58:01Z</time>
      </trkpt>
      <trkpt lat="43.95923" lon="5.23366">
        <ele>503</ele>
        <time>2011-03-27T11:58:06Z</time>
      </trkpt>
      <trkpt lat="43.95916" lon="5.2337">
        <ele>504</ele>
        <time>2011-03-27T11:58:11Z</time>
      </trkpt>
      <trkpt lat="43.95908" lon="5.23375">
        <ele>505</ele>
        <time>2011-03-27T11:58:17Z</time>
      </trkpt>
      <trkpt lat="43.95907" lon="5.23376">
        <ele>506</ele>
        <time>2011-03-27T11:58:18Z</time>
      </trkpt>
      <trkpt lat="43.95894" lon="5.23387">
        <ele>506</ele>
        <time>2011-03-27T11:58:28Z</time>
      </trkpt>
      <trkpt lat="43.95888" lon="5.23394">
        <ele>507</ele>
        <time>2011-03-27T11:58:33Z</time>
      </trkpt>
      <trkpt lat="43.95882" lon="5.23403">
        <ele>508</ele>
        <time>2011-03-27T11:58:39Z</time>
      </trkpt>
      <trkpt lat="43.95877" lon="5.23411">
        <ele>508</ele>
        <time>2011-03-27T11:58:44Z</time>
      </trkpt>
      <trkpt lat="43.95872" lon="5.23419">
        <ele>509</ele>
        <time>2011-03-27T11:58:49Z</time>
      </trkpt>
      <trkpt lat="43.95868" lon="5.23429">
        <ele>510</ele>
        <time>2011-03-27T11:58:54Z</time>
      </trkpt>
      <trkpt lat="43.95864" lon="5.23438">
        <ele>510</ele>
        <time>2011-03-27T11:58:59Z</time>
      </trkpt>
      <trkpt lat="43.9586" lon="5.23449">
        <ele>510</ele>
        <time>2011-03-27T11:59:04Z</time>
      </trkpt>
      <trkpt lat="43.95856" lon="5.23459">
        <ele>510</ele>
        <time>2011-03-27T11:59:09Z</time>
      </trkpt>
      <trkpt lat="43.95852" lon="5.23469">
        <ele>510</ele>
        <time>2011-03-27T11:59:14Z</time>
      </trkpt>
      <trkpt lat="43.95847" lon="5.23478">
        <ele>511</ele>
        <time>2011-03-27T11:59:19Z</time>
      </trkpt>
      <trkpt lat="43.95846" lon="5.2348">
        <ele>510</ele>
        <time>2011-03-27T11:59:20Z</time>
      </trkpt>
      <trkpt lat="43.95837" lon="5.23495">
        <ele>509</ele>
        <time>2011-03-27T11:59:29Z</time>
      </trkpt>
      <trkpt lat="43.95831" lon="5.23502">
        <ele>509</ele>
        <time>2011-03-27T11:59:34Z</time>
      </trkpt>
      <trkpt lat="43.95824" lon="5.23508">
        <ele>508</ele>
        <time>2011-03-27T11:59:40Z</time>
      </trkpt>
      <trkpt lat="43.95817" lon="5.23515">
        <ele>508</ele>
        <time>2011-03-27T11:59:45Z</time>
      </trkpt>
      <trkpt lat="43.95809" lon="5.23521">
        <ele>508</ele>
        <time>2011-03-27T11:59:50Z</time>
      </trkpt>
      <trkpt lat="43.958" lon="5.23526">
        <ele>508</ele>
        <time>2011-03-27T11:59:55Z</time>
      </trkpt>
      <trkpt lat="43.95794" lon="5.23529">
        <ele>508</ele>
        <time>2011-03-27T11:59:59Z</time>
      </trkpt>
      <trkpt lat="43.95786" lon="5.23533">
        <ele>507</ele>
        <time>2011-03-27T12:00:03Z</time>
      </trkpt>
      <trkpt lat="43.95778" lon="5.23537">
        <ele>508</ele>
        <time>2011-03-27T12:00:08Z</time>
      </trkpt>
      <trkpt lat="43.95771" lon="5.23541">
        <ele>508</ele>
        <time>2011-03-27T12:00:13Z</time>
      </trkpt>
      <trkpt lat="43.95762" lon="5.23545">
        <ele>508</ele>
        <time>2011-03-27T12:00:18Z</time>
      </trkpt>
      <trkpt lat="43.95755" lon="5.23548">
        <ele>508</ele>
        <time>2011-03-27T12:00:22Z</time>
      </trkpt>
      <trkpt lat="43.95753" lon="5.23549">
        <ele>508</ele>
        <time>2011-03-27T12:00:23Z</time>
      </trkpt>
      <trkpt lat="43.9574" lon="5.23556">
        <ele>508</ele>
        <time>2011-03-27T12:00:31Z</time>
      </trkpt>
      <trkpt lat="43.95732" lon="5.23561">
        <ele>509</ele>
        <time>2011-03-27T12:00:36Z</time>
      </trkpt>
      <trkpt lat="43.95724" lon="5.23565">
        <ele>509</ele>
        <time>2011-03-27T12:00:41Z</time>
      </trkpt>
      <trkpt lat="43.95717" lon="5.2357">
        <ele>510</ele>
        <time>2011-03-27T12:00:46Z</time>
      </trkpt>
      <trkpt lat="43.9571" lon="5.23575">
        <ele>510</ele>
        <time>2011-03-27T12:00:51Z</time>
      </trkpt>
      <trkpt lat="43.95702" lon="5.2358">
        <ele>509</ele>
        <time>2011-03-27T12:00:56Z</time>
      </trkpt>
      <trkpt lat="43.95694" lon="5.23585">
        <ele>509</ele>
        <time>2011-03-27T12:01:01Z</time>
      </trkpt>
      <trkpt lat="43.95687" lon="5.23588">
        <ele>510</ele>
        <time>2011-03-27T12:01:06Z</time>
      </trkpt>
      <trkpt lat="43.95679" lon="5.23592">
        <ele>511</ele>
        <time>2011-03-27T12:01:11Z</time>
      </trkpt>
      <trkpt lat="43.95672" lon="5.23596">
        <ele>511</ele>
        <time>2011-03-27T12:01:16Z</time>
      </trkpt>
      <trkpt lat="43.95664" lon="5.23599">
        <ele>511</ele>
        <time>2011-03-27T12:01:21Z</time>
      </trkpt>
      <trkpt lat="43.95656" lon="5.23602">
        <ele>511</ele>
        <time>2011-03-27T12:01:26Z</time>
      </trkpt>
      <trkpt lat="43.95654" lon="5.23602">
        <ele>512</ele>
        <time>2011-03-27T12:01:27Z</time>
      </trkpt>
      <trkpt lat="43.9564" lon="5.23606">
        <ele>513</ele>
        <time>2011-03-27T12:01:36Z</time>
      </trkpt>
      <trkpt lat="43.95631" lon="5.23607">
        <ele>512</ele>
        <time>2011-03-27T12:01:41Z</time>
      </trkpt>
      <trkpt lat="43.95624" lon="5.23609">
        <ele>513</ele>
        <time>2011-03-27T12:01:46Z</time>
      </trkpt>
      <trkpt lat="43.95616" lon="5.2361">
        <ele>515</ele>
        <time>2011-03-27T12:01:51Z</time>
      </trkpt>
      <trkpt lat="43.95605" lon="5.23613">
        <ele>514</ele>
        <time>2011-03-27T12:01:58Z</time>
      </trkpt>
      <trkpt lat="43.95594" lon="5.23618">
        <ele>514</ele>
        <time>2011-03-27T12:02:06Z</time>
      </trkpt>
      <trkpt lat="43.95587" lon="5.23622">
        <ele>516</ele>
        <time>2011-03-27T12:02:12Z</time>
      </trkpt>
      <trkpt lat="43.95579" lon="5.23626">
        <ele>516</ele>
        <time>2011-03-27T12:02:17Z</time>
      </trkpt>
      <trkpt lat="43.95571" lon="5.2363">
        <ele>516</ele>
        <time>2011-03-27T12:02:22Z</time>
      </trkpt>
      <trkpt lat="43.95563" lon="5.23634">
        <ele>515</ele>
        <time>2011-03-27T12:02:27Z</time>
      </trkpt>
      <trkpt lat="43.95561" lon="5.23635">
        <ele>515</ele>
        <time>2011-03-27T12:02:28Z</time>
      </trkpt>
      <trkpt lat="43.95547" lon="5.23641">
        <ele>515</ele>
        <time>2011-03-27T12:02:37Z</time>
      </trkpt>
      <trkpt lat="43.95539" lon="5.23644">
        <ele>515</ele>
        <time>2011-03-27T12:02:42Z</time>
      </trkpt>
      <trkpt lat="43.95531" lon="5.23648">
        <ele>514</ele>
        <time>2011-03-27T12:02:47Z</time>
      </trkpt>
      <trkpt lat="43.95523" lon="5.23651">
        <ele>514</ele>
        <time>2011-03-27T12:02:52Z</time>
      </trkpt>
      <trkpt lat="43.95517" lon="5.23657">
        <ele>513</ele>
        <time>2011-03-27T12:02:56Z</time>
      </trkpt>
      <trkpt lat="43.9551" lon="5.23662">
        <ele>513</ele>
        <time>2011-03-27T12:03:01Z</time>
      </trkpt>
      <trkpt lat="43.95503" lon="5.23668">
        <ele>513</ele>
        <time>2011-03-27T12:03:06Z</time>
      </trkpt>
      <trkpt lat="43.95496" lon="5.23675">
        <ele>514</ele>
        <time>2011-03-27T12:03:11Z</time>
      </trkpt>
      <trkpt lat="43.9549" lon="5.23682">
        <ele>514</ele>
        <time>2011-03-27T12:03:16Z</time>
      </trkpt>
      <trkpt lat="43.95485" lon="5.23691">
        <ele>514</ele>
        <time>2011-03-27T12:03:21Z</time>
      </trkpt>
      <trkpt lat="43.95479" lon="5.237">
        <ele>513</ele>
        <time>2011-03-27T12:03:26Z</time>
      </trkpt>
      <trkpt lat="43.95474" lon="5.23708">
        <ele>514</ele>
        <time>2011-03-27T12:03:31Z</time>
      </trkpt>
      <trkpt lat="43.95472" lon="5.2371">
        <ele>514</ele>
        <time>2011-03-27T12:03:32Z</time>
      </trkpt>
      <trkpt lat="43.95462" lon="5.23725">
        <ele>514</ele>
        <time>2011-03-27T12:03:42Z</time>
      </trkpt>
      <trkpt lat="43.95457" lon="5.23733">
        <ele>513</ele>
        <time>2011-03-27T12:03:47Z</time>
      </trkpt>
      <trkpt lat="43.95451" lon="5.23741">
        <ele>513</ele>
        <time>2011-03-27T12:03:52Z</time>
      </trkpt>
      <trkpt lat="43.95446" lon="5.23749">
        <ele>514</ele>
        <time>2011-03-27T12:03:57Z</time>
      </trkpt>
      <trkpt lat="43.9544" lon="5.23757">
        <ele>513</ele>
        <time>2011-03-27T12:04:02Z</time>
      </trkpt>
      <trkpt lat="43.95435" lon="5.23764">
        <ele>512</ele>
        <time>2011-03-27T12:04:07Z</time>
      </trkpt>
      <trkpt lat="43.95428" lon="5.23773">
        <ele>513</ele>
        <time>2011-03-27T12:04:13Z</time>
      </trkpt>
      <trkpt lat="43.95422" lon="5.23779">
        <ele>512</ele>
        <time>2011-03-27T12:04:18Z</time>
      </trkpt>
      <trkpt lat="43.95417" lon="5.23786">
        <ele>512</ele>
        <time>2011-03-27T12:04:23Z</time>
      </trkpt>
      <trkpt lat="43.95411" lon="5.23793">
        <ele>512</ele>
        <time>2011-03-27T12:04:28Z</time>
      </trkpt>
      <trkpt lat="43.95405" lon="5.238">
        <ele>512</ele>
        <time>2011-03-27T12:04:33Z</time>
      </trkpt>
      <trkpt lat="43.95404" lon="5.23802">
        <ele>513</ele>
        <time>2011-03-27T12:04:34Z</time>
      </trkpt>
      <trkpt lat="43.95393" lon="5.23815">
        <ele>512</ele>
        <time>2011-03-27T12:04:43Z</time>
      </trkpt>
      <trkpt lat="43.95387" lon="5.23823">
        <ele>512</ele>
        <time>2011-03-27T12:04:48Z</time>
      </trkpt>
      <trkpt lat="43.95381" lon="5.2383">
        <ele>512</ele>
        <time>2011-03-27T12:04:53Z</time>
      </trkpt>
      <trkpt lat="43.95375" lon="5.23838">
        <ele>512</ele>
        <time>2011-03-27T12:04:58Z</time>
      </trkpt>
      <trkpt lat="43.95369" lon="5.23846">
        <ele>512</ele>
        <time>2011-03-27T12:05:03Z</time>
      </trkpt>
      <trkpt lat="43.95362" lon="5.23853">
        <ele>511</ele>
        <time>2011-03-27T12:05:08Z</time>
      </trkpt>
      <trkpt lat="43.95356" lon="5.23861">
        <ele>511</ele>
        <time>2011-03-27T12:05:13Z</time>
      </trkpt>
      <trkpt lat="43.9535" lon="5.23869">
        <ele>511</ele>
        <time>2011-03-27T12:05:18Z</time>
      </trkpt>
      <trkpt lat="43.95343" lon="5.23877">
        <ele>511</ele>
        <time>2011-03-27T12:05:23Z</time>
      </trkpt>
      <trkpt lat="43.95337" lon="5.23884">
        <ele>511</ele>
        <time>2011-03-27T12:05:28Z</time>
      </trkpt>
      <trkpt lat="43.95331" lon="5.23892">
        <ele>510</ele>
        <time>2011-03-27T12:05:33Z</time>
      </trkpt>
      <trkpt lat="43.95325" lon="5.23899">
        <ele>510</ele>
        <time>2011-03-27T12:05:38Z</time>
      </trkpt>
      <trkpt lat="43.95324" lon="5.23901">
        <ele>510</ele>
        <time>2011-03-27T12:05:39Z</time>
      </trkpt>
      <trkpt lat="43.95313" lon="5.23914">
        <ele>510</ele>
        <time>2011-03-27T12:05:48Z</time>
      </trkpt>
      <trkpt lat="43.95308" lon="5.23923">
        <ele>511</ele>
        <time>2011-03-27T12:05:53Z</time>
      </trkpt>
      <trkpt lat="43.95305" lon="5.23932">
        <ele>511</ele>
        <time>2011-03-27T12:05:58Z</time>
      </trkpt>
      <trkpt lat="43.95303" lon="5.23942">
        <ele>511</ele>
        <time>2011-03-27T12:06:03Z</time>
      </trkpt>
      <trkpt lat="43.95302" lon="5.23953">
        <ele>511</ele>
        <time>2011-03-27T12:06:08Z</time>
      </trkpt>
      <trkpt lat="43.95302" lon="5.23965">
        <ele>511</ele>
        <time>2011-03-27T12:06:13Z</time>
      </trkpt>
      <trkpt lat="43.95302" lon="5.23976">
        <ele>511</ele>
        <time>2011-03-27T12:06:18Z</time>
      </trkpt>
      <trkpt lat="43.95305" lon="5.23986">
        <ele>511</ele>
        <time>2011-03-27T12:06:24Z</time>
      </trkpt>
      <trkpt lat="43.95307" lon="5.23998">
        <ele>511</ele>
        <time>2011-03-27T12:06:30Z</time>
      </trkpt>
      <trkpt lat="43.95305" lon="5.2401">
        <ele>510</ele>
        <time>2011-03-27T12:06:36Z</time>
      </trkpt>
      <trkpt lat="43.95301" lon="5.24019">
        <ele>511</ele>
        <time>2011-03-27T12:06:41Z</time>
      </trkpt>
      <trkpt lat="43.953" lon="5.24021">
        <ele>511</ele>
        <time>2011-03-27T12:06:42Z</time>
      </trkpt>
      <trkpt lat="43.9529" lon="5.24036">
        <ele>511</ele>
        <time>2011-03-27T12:06:52Z</time>
      </trkpt>
      <trkpt lat="43.95285" lon="5.24045">
        <ele>511</ele>
        <time>2011-03-27T12:07:08Z</time>
      </trkpt>
      <trkpt lat="43.95277" lon="5.24049">
        <ele>510</ele>
        <time>2011-03-27T12:07:28Z</time>
      </trkpt>
      <trkpt lat="43.9527" lon="5.24054">
        <ele>510</ele>
        <time>2011-03-27T12:07:35Z</time>
      </trkpt>
      <trkpt lat="43.95263" lon="5.24062">
        <ele>510</ele>
        <time>2011-03-27T12:07:44Z</time>
      </trkpt>
      <trkpt lat="43.95262" lon="5.24062">
        <ele>510</ele>
        <time>2011-03-27T12:07:45Z</time>
      </trkpt>
      <trkpt lat="43.95252" lon="5.24079">
        <ele>510</ele>
        <time>2011-03-27T12:09:41Z</time>
      </trkpt>
      <trkpt lat="43.95251" lon="5.2408">
        <ele>510</ele>
        <time>2011-03-27T12:09:42Z</time>
      </trkpt>
      <trkpt lat="43.95237" lon="5.2409">
        <ele>511</ele>
        <time>2011-03-27T12:09:55Z</time>
      </trkpt>
      <trkpt lat="43.95229" lon="5.24096">
        <ele>512</ele>
        <time>2011-03-27T12:10:02Z</time>
      </trkpt>
      <trkpt lat="43.95222" lon="5.24101">
        <ele>511</ele>
        <time>2011-03-27T12:10:08Z</time>
      </trkpt>
      <trkpt lat="43.95214" lon="5.24104">
        <ele>511</ele>
        <time>2011-03-27T12:10:14Z</time>
      </trkpt>
      <trkpt lat="43.95206" lon="5.24104">
        <ele>509</ele>
        <time>2011-03-27T12:10:20Z</time>
      </trkpt>
      <trkpt lat="43.95197" lon="5.24105">
        <ele>509</ele>
        <time>2011-03-27T12:10:26Z</time>
      </trkpt>
      <trkpt lat="43.9519" lon="5.24106">
        <ele>510</ele>
        <time>2011-03-27T12:10:30Z</time>
      </trkpt>
      <trkpt lat="43.95182" lon="5.24109">
        <ele>510</ele>
        <time>2011-03-27T12:10:35Z</time>
      </trkpt>
      <trkpt lat="43.95175" lon="5.24114">
        <ele>510</ele>
        <time>2011-03-27T12:10:40Z</time>
      </trkpt>
      <trkpt lat="43.95167" lon="5.24118">
        <ele>511</ele>
        <time>2011-03-27T12:10:45Z</time>
      </trkpt>
      <trkpt lat="43.95165" lon="5.24119">
        <ele>511</ele>
        <time>2011-03-27T12:10:46Z</time>
      </trkpt>
      <trkpt lat="43.95151" lon="5.24127">
        <ele>510</ele>
        <time>2011-03-27T12:10:55Z</time>
      </trkpt>
      <trkpt lat="43.95145" lon="5.24133">
        <ele>510</ele>
        <time>2011-03-27T12:11:00Z</time>
      </trkpt>
      <trkpt lat="43.95138" lon="5.24138">
        <ele>510</ele>
        <time>2011-03-27T12:11:05Z</time>
      </trkpt>
      <trkpt lat="43.95131" lon="5.24146">
        <ele>511</ele>
        <time>2011-03-27T12:11:11Z</time>
      </trkpt>
      <trkpt lat="43.95127" lon="5.24157">
        <ele>510</ele>
        <time>2011-03-27T12:11:16Z</time>
      </trkpt>
      <trkpt lat="43.95125" lon="5.24168">
        <ele>510</ele>
        <time>2011-03-27T12:11:21Z</time>
      </trkpt>
      <trkpt lat="43.95124" lon="5.24179">
        <ele>511</ele>
        <time>2011-03-27T12:11:26Z</time>
      </trkpt>
      <trkpt lat="43.95144" lon="5.24223">
        <ele>518</ele>
        <time>2011-03-27T13:32:04Z</time>
      </trkpt>
      <trkpt lat="43.95152" lon="5.24226">
        <ele>518</ele>
        <time>2011-03-27T13:32:09Z</time>
      </trkpt>
      <trkpt lat="43.9516" lon="5.24228">
        <ele>518</ele>
        <time>2011-03-27T13:32:14Z</time>
      </trkpt>
      <trkpt lat="43.95168" lon="5.24231">
        <ele>518</ele>
        <time>2011-03-27T13:32:20Z</time>
      </trkpt>
      <trkpt lat="43.9517" lon="5.24232">
        <ele>519</ele>
        <time>2011-03-27T13:32:21Z</time>
      </trkpt>
      <trkpt lat="43.95181" lon="5.24245">
        <ele>521</ele>
        <time>2011-03-27T13:32:32Z</time>
      </trkpt>
      <trkpt lat="43.95186" lon="5.24253">
        <ele>521</ele>
        <time>2011-03-27T13:32:38Z</time>
      </trkpt>
      <trkpt lat="43.95192" lon="5.24262">
        <ele>523</ele>
        <time>2011-03-27T13:32:44Z</time>
      </trkpt>
      <trkpt lat="43.95198" lon="5.2427">
        <ele>525</ele>
        <time>2011-03-27T13:32:50Z</time>
      </trkpt>
      <trkpt lat="43.95203" lon="5.24278">
        <ele>525</ele>
        <time>2011-03-27T13:32:56Z</time>
      </trkpt>
      <trkpt lat="43.95209" lon="5.24286">
        <ele>525</ele>
        <time>2011-03-27T13:33:02Z</time>
      </trkpt>
      <trkpt lat="43.95215" lon="5.24294">
        <ele>527</ele>
        <time>2011-03-27T13:33:08Z</time>
      </trkpt>
      <trkpt lat="43.9522" lon="5.24303">
        <ele>528</ele>
        <time>2011-03-27T13:33:14Z</time>
      </trkpt>
      <trkpt lat="43.95227" lon="5.24312">
        <ele>528</ele>
        <time>2011-03-27T13:33:20Z</time>
      </trkpt>
      <trkpt lat="43.95233" lon="5.2432">
        <ele>529</ele>
        <time>2011-03-27T13:33:26Z</time>
      </trkpt>
      <trkpt lat="43.95234" lon="5.24321">
        <ele>529</ele>
        <time>2011-03-27T13:33:27Z</time>
      </trkpt>
      <trkpt lat="43.95245" lon="5.24336">
        <ele>530</ele>
        <time>2011-03-27T13:33:38Z</time>
      </trkpt>
      <trkpt lat="43.9525" lon="5.24345">
        <ele>530</ele>
        <time>2011-03-27T13:33:44Z</time>
      </trkpt>
      <trkpt lat="43.95256" lon="5.24355">
        <ele>532</ele>
        <time>2011-03-27T13:33:50Z</time>
      </trkpt>
      <trkpt lat="43.9526" lon="5.24363">
        <ele>532</ele>
        <time>2011-03-27T13:33:55Z</time>
      </trkpt>
      <trkpt lat="43.95264" lon="5.24373">
        <ele>532</ele>
        <time>2011-03-27T13:34:00Z</time>
      </trkpt>
      <trkpt lat="43.95269" lon="5.24382">
        <ele>533</ele>
        <time>2011-03-27T13:34:05Z</time>
      </trkpt>
      <trkpt lat="43.95273" lon="5.24391">
        <ele>534</ele>
        <time>2011-03-27T13:34:10Z</time>
      </trkpt>
      <trkpt lat="43.95277" lon="5.244">
        <ele>534</ele>
        <time>2011-03-27T13:34:15Z</time>
      </trkpt>
      <trkpt lat="43.95281" lon="5.24409">
        <ele>534</ele>
        <time>2011-03-27T13:34:20Z</time>
      </trkpt>
      <trkpt lat="43.95286" lon="5.24419">
        <ele>533</ele>
        <time>2011-03-27T13:34:26Z</time>
      </trkpt>
      <trkpt lat="43.9529" lon="5.24428">
        <ele>534</ele>
        <time>2011-03-27T13:34:31Z</time>
      </trkpt>
      <trkpt lat="43.95291" lon="5.24429">
        <ele>534</ele>
        <time>2011-03-27T13:34:32Z</time>
      </trkpt>
      <trkpt lat="43.953" lon="5.24447">
        <ele>534</ele>
        <time>2011-03-27T13:34:42Z</time>
      </trkpt>
      <trkpt lat="43.95304" lon="5.24457">
        <ele>533</ele>
        <time>2011-03-27T13:34:48Z</time>
      </trkpt>
      <trkpt lat="43.95309" lon="5.24466">
        <ele>533</ele>
        <time>2011-03-27T13:34:53Z</time>
      </trkpt>
      <trkpt lat="43.95314" lon="5.24474">
        <ele>533</ele>
        <time>2011-03-27T13:34:58Z</time>
      </trkpt>
      <trkpt lat="43.9532" lon="5.24482">
        <ele>534</ele>
        <time>2011-03-27T13:35:03Z</time>
      </trkpt>
      <trkpt lat="43.95326" lon="5.2449">
        <ele>534</ele>
        <time>2011-03-27T13:35:08Z</time>
      </trkpt>
      <trkpt lat="43.95332" lon="5.24495">
        <ele>534</ele>
        <time>2011-03-27T13:35:13Z</time>
      </trkpt>
      <trkpt lat="43.95339" lon="5.24503">
        <ele>534</ele>
        <time>2011-03-27T13:35:19Z</time>
      </trkpt>
      <trkpt lat="43.95345" lon="5.2451">
        <ele>534</ele>
        <time>2011-03-27T13:35:24Z</time>
      </trkpt>
      <trkpt lat="43.95352" lon="5.24518">
        <ele>534</ele>
        <time>2011-03-27T13:35:30Z</time>
      </trkpt>
      <trkpt lat="43.95358" lon="5.24525">
        <ele>534</ele>
        <time>2011-03-27T13:35:35Z</time>
      </trkpt>
      <trkpt lat="43.95359" lon="5.24526">
        <ele>534</ele>
        <time>2011-03-27T13:35:36Z</time>
      </trkpt>
      <trkpt lat="43.9537" lon="5.24539">
        <ele>534</ele>
        <time>2011-03-27T13:35:46Z</time>
      </trkpt>
      <trkpt lat="43.95376" lon="5.24546">
        <ele>535</ele>
        <time>2011-03-27T13:35:51Z</time>
      </trkpt>
      <trkpt lat="43.95382" lon="5.24553">
        <ele>535</ele>
        <time>2011-03-27T13:35:56Z</time>
      </trkpt>
      <trkpt lat="43.95389" lon="5.24561">
        <ele>534</ele>
        <time>2011-03-27T13:36:02Z</time>
      </trkpt>
      <trkpt lat="43.95394" lon="5.24569">
        <ele>535</ele>
        <time>2011-03-27T13:36:07Z</time>
      </trkpt>
      <trkpt lat="43.95401" lon="5.24576">
        <ele>535</ele>
        <time>2011-03-27T13:36:12Z</time>
      </trkpt>
      <trkpt lat="43.95407" lon="5.24584">
        <ele>535</ele>
        <time>2011-03-27T13:36:17Z</time>
      </trkpt>
      <trkpt lat="43.95413" lon="5.24591">
        <ele>535</ele>
        <time>2011-03-27T13:36:22Z</time>
      </trkpt>
      <trkpt lat="43.9542" lon="5.24599">
        <ele>534</ele>
        <time>2011-03-27T13:36:28Z</time>
      </trkpt>
      <trkpt lat="43.95426" lon="5.24606">
        <ele>534</ele>
        <time>2011-03-27T13:36:33Z</time>
      </trkpt>
      <trkpt lat="43.95432" lon="5.24613">
        <ele>534</ele>
        <time>2011-03-27T13:36:38Z</time>
      </trkpt>
      <trkpt lat="43.95433" lon="5.24614">
        <ele>534</ele>
        <time>2011-03-27T13:36:39Z</time>
      </trkpt>
      <trkpt lat="43.95445" lon="5.24627">
        <ele>534</ele>
        <time>2011-03-27T13:36:49Z</time>
      </trkpt>
      <trkpt lat="43.95452" lon="5.24635">
        <ele>535</ele>
        <time>2011-03-27T13:36:55Z</time>
      </trkpt>
      <trkpt lat="43.95458" lon="5.24642">
        <ele>534</ele>
        <time>2011-03-27T13:37:00Z</time>
      </trkpt>
      <trkpt lat="43.95464" lon="5.24648">
        <ele>534</ele>
        <time>2011-03-27T13:37:05Z</time>
      </trkpt>
      <trkpt lat="43.9547" lon="5.24655">
        <ele>535</ele>
        <time>2011-03-27T13:37:10Z</time>
      </trkpt>
      <trkpt lat="43.95476" lon="5.24662">
        <ele>534</ele>
        <time>2011-03-27T13:37:15Z</time>
      </trkpt>
      <trkpt lat="43.95482" lon="5.24669">
        <ele>534</ele>
        <time>2011-03-27T13:37:20Z</time>
      </trkpt>
      <trkpt lat="43.95488" lon="5.24676">
        <ele>533</ele>
        <time>2011-03-27T13:37:25Z</time>
      </trkpt>
      <trkpt lat="43.95494" lon="5.24683">
        <ele>534</ele>
        <time>2011-03-27T13:37:30Z</time>
      </trkpt>
      <trkpt lat="43.95501" lon="5.24691">
        <ele>534</ele>
        <time>2011-03-27T13:37:36Z</time>
      </trkpt>
      <trkpt lat="43.95506" lon="5.24697">
        <ele>534</ele>
        <time>2011-03-27T13:37:41Z</time>
      </trkpt>
      <trkpt lat="43.95508" lon="5.24698">
        <ele>534</ele>
        <time>2011-03-27T13:37:42Z</time>
      </trkpt>
      <trkpt lat="43.95519" lon="5.24711">
        <ele>534</ele>
        <time>2011-03-27T13:37:51Z</time>
      </trkpt>
      <trkpt lat="43.95526" lon="5.24718">
        <ele>534</ele>
        <time>2011-03-27T13:37:57Z</time>
      </trkpt>
      <trkpt lat="43.95532" lon="5.24726">
        <ele>534</ele>
        <time>2011-03-27T13:38:02Z</time>
      </trkpt>
      <trkpt lat="43.95538" lon="5.24733">
        <ele>533</ele>
        <time>2011-03-27T13:38:07Z</time>
      </trkpt>
      <trkpt lat="43.95545" lon="5.2474">
        <ele>533</ele>
        <time>2011-03-27T13:38:12Z</time>
      </trkpt>
      <trkpt lat="43.95549" lon="5.24751">
        <ele>533</ele>
        <time>2011-03-27T13:38:18Z</time>
      </trkpt>
      <trkpt lat="43.95555" lon="5.2476">
        <ele>534</ele>
        <time>2011-03-27T13:38:24Z</time>
      </trkpt>
      <trkpt lat="43.95562" lon="5.24766">
        <ele>533</ele>
        <time>2011-03-27T13:38:29Z</time>
      </trkpt>
      <trkpt lat="43.9557" lon="5.24768">
        <ele>533</ele>
        <time>2011-03-27T13:38:35Z</time>
      </trkpt>
      <trkpt lat="43.95577" lon="5.24773">
        <ele>533</ele>
        <time>2011-03-27T13:38:40Z</time>
      </trkpt>
      <trkpt lat="43.95584" lon="5.24779">
        <ele>534</ele>
        <time>2011-03-27T13:38:46Z</time>
      </trkpt>
      <trkpt lat="43.95585" lon="5.24781">
        <ele>533</ele>
        <time>2011-03-27T13:38:47Z</time>
      </trkpt>
      <trkpt lat="43.95596" lon="5.24794">
        <ele>533</ele>
        <time>2011-03-27T13:38:56Z</time>
      </trkpt>
      <trkpt lat="43.95602" lon="5.24801">
        <ele>532</ele>
        <time>2011-03-27T13:39:01Z</time>
      </trkpt>
      <trkpt lat="43.9561" lon="5.24808">
        <ele>532</ele>
        <time>2011-03-27T13:39:07Z</time>
      </trkpt>
      <trkpt lat="43.95615" lon="5.24818">
        <ele>531</ele>
        <time>2011-03-27T13:39:13Z</time>
      </trkpt>
      <trkpt lat="43.9562" lon="5.24828">
        <ele>532</ele>
        <time>2011-03-27T13:39:19Z</time>
      </trkpt>
      <trkpt lat="43.95625" lon="5.24838">
        <ele>531</ele>
        <time>2011-03-27T13:39:24Z</time>
      </trkpt>
      <trkpt lat="43.9563" lon="5.24847">
        <ele>532</ele>
        <time>2011-03-27T13:39:29Z</time>
      </trkpt>
      <trkpt lat="43.95635" lon="5.24857">
        <ele>532</ele>
        <time>2011-03-27T13:39:35Z</time>
      </trkpt>
      <trkpt lat="43.95641" lon="5.24866">
        <ele>532</ele>
        <time>2011-03-27T13:39:40Z</time>
      </trkpt>
      <trkpt lat="43.95648" lon="5.24874">
        <ele>531</ele>
        <time>2011-03-27T13:39:45Z</time>
      </trkpt>
      <trkpt lat="43.95654" lon="5.2488">
        <ele>531</ele>
        <time>2011-03-27T13:39:50Z</time>
      </trkpt>
      <trkpt lat="43.95654" lon="5.24882">
        <ele>532</ele>
        <time>2011-03-27T13:39:51Z</time>
      </trkpt>
      <trkpt lat="43.95663" lon="5.24899">
        <ele>531</ele>
        <time>2011-03-27T13:40:01Z</time>
      </trkpt>
      <trkpt lat="43.95669" lon="5.24907">
        <ele>531</ele>
        <time>2011-03-27T13:40:06Z</time>
      </trkpt>
      <trkpt lat="43.95674" lon="5.24915">
        <ele>530</ele>
        <time>2011-03-27T13:40:11Z</time>
      </trkpt>
      <trkpt lat="43.95679" lon="5.24924">
        <ele>529</ele>
        <time>2011-03-27T13:40:17Z</time>
      </trkpt>
      <trkpt lat="43.95683" lon="5.24934">
        <ele>528</ele>
        <time>2011-03-27T13:40:23Z</time>
      </trkpt>
      <trkpt lat="43.95688" lon="5.24942">
        <ele>528</ele>
        <time>2011-03-27T13:40:28Z</time>
      </trkpt>
      <trkpt lat="43.95692" lon="5.24952">
        <ele>528</ele>
        <time>2011-03-27T13:40:33Z</time>
      </trkpt>
      <trkpt lat="43.95694" lon="5.24962">
        <ele>528</ele>
        <time>2011-03-27T13:40:38Z</time>
      </trkpt>
      <trkpt lat="43.95697" lon="5.24974">
        <ele>527</ele>
        <time>2011-03-27T13:41:07Z</time>
      </trkpt>
      <trkpt lat="43.95697" lon="5.24976">
        <ele>527</ele>
        <time>2011-03-27T13:41:08Z</time>
      </trkpt>
      <trkpt lat="43.95701" lon="5.24996">
        <ele>525</ele>
        <time>2011-03-27T13:41:17Z</time>
      </trkpt>
      <trkpt lat="43.95706" lon="5.25007">
        <ele>522</ele>
        <time>2011-03-27T13:41:22Z</time>
      </trkpt>
      <trkpt lat="43.9571" lon="5.25017">
        <ele>522</ele>
        <time>2011-03-27T13:41:27Z</time>
      </trkpt>
      <trkpt lat="43.95713" lon="5.25026">
        <ele>522</ele>
        <time>2011-03-27T13:41:31Z</time>
      </trkpt>
      <trkpt lat="43.95716" lon="5.25036">
        <ele>520</ele>
        <time>2011-03-27T13:41:35Z</time>
      </trkpt>
      <trkpt lat="43.95719" lon="5.25045">
        <ele>519</ele>
        <time>2011-03-27T13:41:39Z</time>
      </trkpt>
      <trkpt lat="43.95724" lon="5.25055">
        <ele>518</ele>
        <time>2011-03-27T13:41:44Z</time>
      </trkpt>
      <trkpt lat="43.95729" lon="5.25065">
        <ele>517</ele>
        <time>2011-03-27T13:41:48Z</time>
      </trkpt>
      <trkpt lat="43.95734" lon="5.25073">
        <ele>517</ele>
        <time>2011-03-27T13:41:51Z</time>
      </trkpt>
      <trkpt lat="43.95738" lon="5.25082">
        <ele>516</ele>
        <time>2011-03-27T13:41:54Z</time>
      </trkpt>
      <trkpt lat="43.95743" lon="5.2509">
        <ele>515</ele>
        <time>2011-03-27T13:41:57Z</time>
      </trkpt>
      <trkpt lat="43.95746" lon="5.25098">
        <ele>514</ele>
        <time>2011-03-27T13:42:00Z</time>
      </trkpt>
      <trkpt lat="43.95749" lon="5.2511">
        <ele>512</ele>
        <time>2011-03-27T13:42:04Z</time>
      </trkpt>
      <trkpt lat="43.95751" lon="5.25121">
        <ele>510</ele>
        <time>2011-03-27T13:42:08Z</time>
      </trkpt>
      <trkpt lat="43.95752" lon="5.25124">
        <ele>510</ele>
        <time>2011-03-27T13:42:09Z</time>
      </trkpt>
      <trkpt lat="43.95754" lon="5.25141">
        <ele>508</ele>
        <time>2011-03-27T13:42:16Z</time>
      </trkpt>
      <trkpt lat="43.95754" lon="5.25152">
        <ele>507</ele>
        <time>2011-03-27T13:42:20Z</time>
      </trkpt>
      <trkpt lat="43.95754" lon="5.25162">
        <ele>507</ele>
        <time>2011-03-27T13:42:24Z</time>
      </trkpt>
      <trkpt lat="43.95754" lon="5.25173">
        <ele>505</ele>
        <time>2011-03-27T13:42:29Z</time>
      </trkpt>
      <trkpt lat="43.95757" lon="5.25184">
        <ele>504</ele>
        <time>2011-03-27T13:42:35Z</time>
      </trkpt>
      <trkpt lat="43.95759" lon="5.25194">
        <ele>502</ele>
        <time>2011-03-27T13:42:41Z</time>
      </trkpt>
      <trkpt lat="43.9576" lon="5.25205">
        <ele>500</ele>
        <time>2011-03-27T13:42:46Z</time>
      </trkpt>
      <trkpt lat="43.9576" lon="5.25217">
        <ele>498</ele>
        <time>2011-03-27T13:42:51Z</time>
      </trkpt>
      <trkpt lat="43.95761" lon="5.25229">
        <ele>496</ele>
        <time>2011-03-27T13:43:19Z</time>
      </trkpt>
      <trkpt lat="43.95761" lon="5.25229">
        <ele>497</ele>
        <time>2011-03-27T13:43:20Z</time>
      </trkpt>
      <trkpt lat="43.95752" lon="5.2525">
        <ele>495</ele>
        <time>2011-03-27T13:43:33Z</time>
      </trkpt>
      <trkpt lat="43.95749" lon="5.25261">
        <ele>494</ele>
        <time>2011-03-27T13:43:39Z</time>
      </trkpt>
      <trkpt lat="43.95749" lon="5.25272">
        <ele>494</ele>
        <time>2011-03-27T13:43:44Z</time>
      </trkpt>
      <trkpt lat="43.95749" lon="5.25282">
        <ele>494</ele>
        <time>2011-03-27T13:43:49Z</time>
      </trkpt>
      <trkpt lat="43.9575" lon="5.25295">
        <ele>494</ele>
        <time>2011-03-27T13:43:57Z</time>
      </trkpt>
      <trkpt lat="43.95751" lon="5.25305">
        <ele>494</ele>
        <time>2011-03-27T13:44:40Z</time>
      </trkpt>
      <trkpt lat="43.95752" lon="5.25307">
        <ele>493</ele>
        <time>2011-03-27T13:44:41Z</time>
      </trkpt>
      <trkpt lat="43.95755" lon="5.25327">
        <ele>492</ele>
        <time>2011-03-27T13:44:52Z</time>
      </trkpt>
      <trkpt lat="43.95757" lon="5.25339">
        <ele>491</ele>
        <time>2011-03-27T13:44:58Z</time>
      </trkpt>
      <trkpt lat="43.95759" lon="5.25349">
        <ele>491</ele>
        <time>2011-03-27T13:45:03Z</time>
      </trkpt>
      <trkpt lat="43.95761" lon="5.2536">
        <ele>490</ele>
        <time>2011-03-27T13:45:08Z</time>
      </trkpt>
      <trkpt lat="43.95763" lon="5.25371">
        <ele>490</ele>
        <time>2011-03-27T13:45:13Z</time>
      </trkpt>
      <trkpt lat="43.95764" lon="5.25383">
        <ele>490</ele>
        <time>2011-03-27T13:45:19Z</time>
      </trkpt>
      <trkpt lat="43.95766" lon="5.25393">
        <ele>491</ele>
        <time>2011-03-27T13:45:24Z</time>
      </trkpt>
      <trkpt lat="43.95768" lon="5.25404">
        <ele>490</ele>
        <time>2011-03-27T13:45:29Z</time>
      </trkpt>
      <trkpt lat="43.95769" lon="5.25415">
        <ele>489</ele>
        <time>2011-03-27T13:45:34Z</time>
      </trkpt>
      <trkpt lat="43.95769" lon="5.25427">
        <ele>490</ele>
        <time>2011-03-27T13:45:39Z</time>
      </trkpt>
      <trkpt lat="43.9577" lon="5.25438">
        <ele>492</ele>
        <time>2011-03-27T13:45:44Z</time>
      </trkpt>
      <trkpt lat="43.9577" lon="5.2544">
        <ele>492</ele>
        <time>2011-03-27T13:45:45Z</time>
      </trkpt>
      <trkpt lat="43.95771" lon="5.2546">
        <ele>490</ele>
        <time>2011-03-27T13:45:54Z</time>
      </trkpt>
      <trkpt lat="43.95771" lon="5.25471">
        <ele>492</ele>
        <time>2011-03-27T13:45:59Z</time>
      </trkpt>
      <trkpt lat="43.95771" lon="5.25482">
        <ele>492</ele>
        <time>2011-03-27T13:46:04Z</time>
      </trkpt>
      <trkpt lat="43.95771" lon="5.25493">
        <ele>492</ele>
        <time>2011-03-27T13:46:10Z</time>
      </trkpt>
      <trkpt lat="43.95779" lon="5.25496">
        <ele>494</ele>
        <time>2011-03-27T13:47:40Z</time>
      </trkpt>
      <trkpt lat="43.9578" lon="5.25497">
        <ele>494</ele>
        <time>2011-03-27T13:47:41Z</time>
      </trkpt>
      <trkpt lat="43.95794" lon="5.25499">
        <ele>495</ele>
        <time>2011-03-27T13:47:51Z</time>
      </trkpt>
      <trkpt lat="43.95802" lon="5.255">
        <ele>497</ele>
        <time>2011-03-27T13:47:56Z</time>
      </trkpt>
      <trkpt lat="43.95811" lon="5.25499">
        <ele>497</ele>
        <time>2011-03-27T13:48:02Z</time>
      </trkpt>
      <trkpt lat="43.95819" lon="5.25499">
        <ele>499</ele>
        <time>2011-03-27T13:48:09Z</time>
      </trkpt>
      <trkpt lat="43.95826" lon="5.25493">
        <ele>500</ele>
        <time>2011-03-27T13:48:15Z</time>
      </trkpt>
      <trkpt lat="43.95833" lon="5.25486">
        <ele>501</ele>
        <time>2011-03-27T13:48:20Z</time>
      </trkpt>
      <trkpt lat="43.95839" lon="5.25478">
        <ele>502</ele>
        <time>2011-03-27T13:48:25Z</time>
      </trkpt>
      <trkpt lat="43.95844" lon="5.25469">
        <ele>504</ele>
        <time>2011-03-27T13:48:30Z</time>
      </trkpt>
      <trkpt lat="43.95848" lon="5.25459">
        <ele>504</ele>
        <time>2011-03-27T13:48:36Z</time>
      </trkpt>
      <trkpt lat="43.95852" lon="5.25449">
        <ele>505</ele>
        <time>2011-03-27T13:48:42Z</time>
      </trkpt>
      <trkpt lat="43.95853" lon="5.25447">
        <ele>505</ele>
        <time>2011-03-27T13:48:43Z</time>
      </trkpt>
      <trkpt lat="43.95864" lon="5.25432">
        <ele>507</ele>
        <time>2011-03-27T13:48:52Z</time>
      </trkpt>
      <trkpt lat="43.95871" lon="5.25427">
        <ele>509</ele>
        <time>2011-03-27T13:48:57Z</time>
      </trkpt>
      <trkpt lat="43.95878" lon="5.25423">
        <ele>509</ele>
        <time>2011-03-27T13:49:02Z</time>
      </trkpt>
      <trkpt lat="43.95885" lon="5.25421">
        <ele>510</ele>
        <time>2011-03-27T13:49:07Z</time>
      </trkpt>
      <trkpt lat="43.95894" lon="5.25422">
        <ele>512</ele>
        <time>2011-03-27T13:49:13Z</time>
      </trkpt>
      <trkpt lat="43.95901" lon="5.25422">
        <ele>512</ele>
        <time>2011-03-27T13:49:18Z</time>
      </trkpt>
      <trkpt lat="43.95909" lon="5.2542">
        <ele>513</ele>
        <time>2011-03-27T13:49:23Z</time>
      </trkpt>
      <trkpt lat="43.95918" lon="5.25421">
        <ele>513</ele>
        <time>2011-03-27T13:49:29Z</time>
      </trkpt>
      <trkpt lat="43.95927" lon="5.25417">
        <ele>515</ele>
        <time>2011-03-27T13:49:35Z</time>
      </trkpt>
      <trkpt lat="43.95934" lon="5.25412">
        <ele>515</ele>
        <time>2011-03-27T13:49:40Z</time>
      </trkpt>
      <trkpt lat="43.9594" lon="5.25404">
        <ele>516</ele>
        <time>2011-03-27T13:49:46Z</time>
      </trkpt>
      <trkpt lat="43.95941" lon="5.25403">
        <ele>516</ele>
        <time>2011-03-27T13:49:47Z</time>
      </trkpt>
      <trkpt lat="43.95952" lon="5.25388">
        <ele>517</ele>
        <time>2011-03-27T13:50:00Z</time>
      </trkpt>
      <trkpt lat="43.95956" lon="5.25379">
        <ele>517</ele>
        <time>2011-03-27T13:50:05Z</time>
      </trkpt>
      <trkpt lat="43.95961" lon="5.25369">
        <ele>517</ele>
        <time>2011-03-27T13:50:11Z</time>
      </trkpt>
      <trkpt lat="43.95966" lon="5.25361">
        <ele>517</ele>
        <time>2011-03-27T13:50:16Z</time>
      </trkpt>
      <trkpt lat="43.95972" lon="5.25352">
        <ele>517</ele>
        <time>2011-03-27T13:50:22Z</time>
      </trkpt>
      <trkpt lat="43.95978" lon="5.25344">
        <ele>518</ele>
        <time>2011-03-27T13:50:28Z</time>
      </trkpt>
      <trkpt lat="43.95983" lon="5.25337">
        <ele>518</ele>
        <time>2011-03-27T13:50:33Z</time>
      </trkpt>
      <trkpt lat="43.9599" lon="5.25328">
        <ele>517</ele>
        <time>2011-03-27T13:50:39Z</time>
      </trkpt>
      <trkpt lat="43.95995" lon="5.2532">
        <ele>518</ele>
        <time>2011-03-27T13:50:44Z</time>
      </trkpt>
      <trkpt lat="43.96" lon="5.25311">
        <ele>518</ele>
        <time>2011-03-27T13:50:50Z</time>
      </trkpt>
      <trkpt lat="43.96001" lon="5.25309">
        <ele>518</ele>
        <time>2011-03-27T13:50:51Z</time>
      </trkpt>
      <trkpt lat="43.96011" lon="5.25293">
        <ele>519</ele>
        <time>2011-03-27T13:51:01Z</time>
      </trkpt>
      <trkpt lat="43.96016" lon="5.25284">
        <ele>519</ele>
        <time>2011-03-27T13:51:06Z</time>
      </trkpt>
      <trkpt lat="43.96021" lon="5.25276">
        <ele>519</ele>
        <time>2011-03-27T13:51:11Z</time>
      </trkpt>
      <trkpt lat="43.96027" lon="5.25267">
        <ele>520</ele>
        <time>2011-03-27T13:51:16Z</time>
      </trkpt>
      <trkpt lat="43.96032" lon="5.25258">
        <ele>519</ele>
        <time>2011-03-27T13:51:21Z</time>
      </trkpt>
      <trkpt lat="43.96037" lon="5.25249">
        <ele>520</ele>
        <time>2011-03-27T13:51:26Z</time>
      </trkpt>
      <trkpt lat="43.96042" lon="5.2524">
        <ele>520</ele>
        <time>2011-03-27T13:51:31Z</time>
      </trkpt>
      <trkpt lat="43.96046" lon="5.25231">
        <ele>520</ele>
        <time>2011-03-27T13:51:36Z</time>
      </trkpt>
      <trkpt lat="43.96051" lon="5.25222">
        <ele>521</ele>
        <time>2011-03-27T13:51:41Z</time>
      </trkpt>
      <trkpt lat="43.96056" lon="5.25213">
        <ele>520</ele>
        <time>2011-03-27T13:51:46Z</time>
      </trkpt>
      <trkpt lat="43.9606" lon="5.25203">
        <ele>521</ele>
        <time>2011-03-27T13:51:51Z</time>
      </trkpt>
      <trkpt lat="43.96061" lon="5.25201">
        <ele>521</ele>
        <time>2011-03-27T13:51:52Z</time>
      </trkpt>
      <trkpt lat="43.96068" lon="5.25184">
        <ele>522</ele>
        <time>2011-03-27T13:52:01Z</time>
      </trkpt>
      <trkpt lat="43.96071" lon="5.25173">
        <ele>522</ele>
        <time>2011-03-27T13:52:07Z</time>
      </trkpt>
      <trkpt lat="43.96075" lon="5.25163">
        <ele>522</ele>
        <time>2011-03-27T13:52:13Z</time>
      </trkpt>
      <trkpt lat="43.96079" lon="5.25153">
        <ele>523</ele>
        <time>2011-03-27T13:52:19Z</time>
      </trkpt>
      <trkpt lat="43.96083" lon="5.25143">
        <ele>523</ele>
        <time>2011-03-27T13:52:25Z</time>
      </trkpt>
      <trkpt lat="43.96087" lon="5.25133">
        <ele>524</ele>
        <time>2011-03-27T13:52:31Z</time>
      </trkpt>
      <trkpt lat="43.96091" lon="5.25124">
        <ele>523</ele>
        <time>2011-03-27T13:52:37Z</time>
      </trkpt>
      <trkpt lat="43.96095" lon="5.25114">
        <ele>524</ele>
        <time>2011-03-27T13:52:43Z</time>
      </trkpt>
      <trkpt lat="43.96101" lon="5.25104">
        <ele>524</ele>
        <time>2011-03-27T13:52:50Z</time>
      </trkpt>
      <trkpt lat="43.96105" lon="5.25094">
        <ele>524</ele>
        <time>2011-03-27T13:53:21Z</time>
      </trkpt>
      <trkpt lat="43.96105" lon="5.25093">
        <ele>524</ele>
        <time>2011-03-27T13:53:22Z</time>
      </trkpt>
      <trkpt lat="43.96092" lon="5.25081">
        <ele>523</ele>
        <time>2011-03-27T13:54:12Z</time>
      </trkpt>
      <trkpt lat="43.96097" lon="5.2509">
        <ele>524</ele>
        <time>2011-03-27T13:57:21Z</time>
      </trkpt>
      <trkpt lat="43.96097" lon="5.25092">
        <ele>524</ele>
        <time>2011-03-27T13:57:22Z</time>
      </trkpt>
      <trkpt lat="43.96105" lon="5.25111">
        <ele>525</ele>
        <time>2011-03-27T13:57:44Z</time>
      </trkpt>
      <trkpt lat="43.96108" lon="5.25122">
        <ele>523</ele>
        <time>2011-03-27T13:57:51Z</time>
      </trkpt>
      <trkpt lat="43.96111" lon="5.25133">
        <ele>524</ele>
        <time>2011-03-27T13:57:57Z</time>
      </trkpt>
      <trkpt lat="43.96114" lon="5.25144">
        <ele>524</ele>
        <time>2011-03-27T13:58:03Z</time>
      </trkpt>
      <trkpt lat="43.96116" lon="5.25156">
        <ele>525</ele>
        <time>2011-03-27T13:58:09Z</time>
      </trkpt>
      <trkpt lat="43.96118" lon="5.25166">
        <ele>525</ele>
        <time>2011-03-27T13:58:14Z</time>
      </trkpt>
      <trkpt lat="43.96119" lon="5.25176">
        <ele>525</ele>
        <time>2011-03-27T13:58:19Z</time>
      </trkpt>
      <trkpt lat="43.96121" lon="5.25187">
        <ele>524</ele>
        <time>2011-03-27T13:58:24Z</time>
      </trkpt>
      <trkpt lat="43.96121" lon="5.25189">
        <ele>524</ele>
        <time>2011-03-27T13:58:25Z</time>
      </trkpt>
      <trkpt lat="43.96126" lon="5.25207">
        <ele>524</ele>
        <time>2011-03-27T13:58:34Z</time>
      </trkpt>
      <trkpt lat="43.96128" lon="5.25219">
        <ele>524</ele>
        <time>2011-03-27T13:58:40Z</time>
      </trkpt>
      <trkpt lat="43.96131" lon="5.2523">
        <ele>523</ele>
        <time>2011-03-27T13:58:46Z</time>
      </trkpt>
      <trkpt lat="43.96133" lon="5.25242">
        <ele>524</ele>
        <time>2011-03-27T13:58:52Z</time>
      </trkpt>
      <trkpt lat="43.96136" lon="5.25253">
        <ele>525</ele>
        <time>2011-03-27T13:58:58Z</time>
      </trkpt>
      <trkpt lat="43.96138" lon="5.25264">
        <ele>525</ele>
        <time>2011-03-27T13:59:04Z</time>
      </trkpt>
      <trkpt lat="43.9614" lon="5.25276">
        <ele>525</ele>
        <time>2011-03-27T13:59:10Z</time>
      </trkpt>
      <trkpt lat="43.9614" lon="5.25287">
        <ele>524</ele>
        <time>2011-03-27T13:59:15Z</time>
      </trkpt>
      <trkpt lat="43.96138" lon="5.25299">
        <ele>524</ele>
        <time>2011-03-27T13:59:21Z</time>
      </trkpt>
      <trkpt lat="43.96137" lon="5.2531">
        <ele>524</ele>
        <time>2011-03-27T13:59:27Z</time>
      </trkpt>
      <trkpt lat="43.96137" lon="5.25312">
        <ele>524</ele>
        <time>2011-03-27T13:59:28Z</time>
      </trkpt>
      <trkpt lat="43.96137" lon="5.25333">
        <ele>523</ele>
        <time>2011-03-27T13:59:38Z</time>
      </trkpt>
      <trkpt lat="43.96138" lon="5.25345">
        <ele>523</ele>
        <time>2011-03-27T13:59:44Z</time>
      </trkpt>
      <trkpt lat="43.96139" lon="5.25357">
        <ele>522</ele>
        <time>2011-03-27T13:59:50Z</time>
      </trkpt>
      <trkpt lat="43.9614" lon="5.25368">
        <ele>522</ele>
        <time>2011-03-27T13:59:55Z</time>
      </trkpt>
      <trkpt lat="43.96141" lon="5.2538">
        <ele>521</ele>
        <time>2011-03-27T14:00:01Z</time>
      </trkpt>
      <trkpt lat="43.96143" lon="5.25392">
        <ele>521</ele>
        <time>2011-03-27T14:00:06Z</time>
      </trkpt>
      <trkpt lat="43.96146" lon="5.25403">
        <ele>520</ele>
        <time>2011-03-27T14:00:11Z</time>
      </trkpt>
      <trkpt lat="43.96148" lon="5.25413">
        <ele>520</ele>
        <time>2011-03-27T14:00:15Z</time>
      </trkpt>
      <trkpt lat="43.96151" lon="5.25424">
        <ele>519</ele>
        <time>2011-03-27T14:00:20Z</time>
      </trkpt>
      <trkpt lat="43.96154" lon="5.25435">
        <ele>519</ele>
        <time>2011-03-27T14:00:25Z</time>
      </trkpt>
      <trkpt lat="43.96158" lon="5.25446">
        <ele>517</ele>
        <time>2011-03-27T14:00:31Z</time>
      </trkpt>
      <trkpt lat="43.96159" lon="5.25448">
        <ele>518</ele>
        <time>2011-03-27T14:00:32Z</time>
      </trkpt>
      <trkpt lat="43.96168" lon="5.25465">
        <ele>516</ele>
        <time>2011-03-27T14:00:41Z</time>
      </trkpt>
      <trkpt lat="43.96176" lon="5.25471">
        <ele>516</ele>
        <time>2011-03-27T14:00:47Z</time>
      </trkpt>
      <trkpt lat="43.96184" lon="5.25467">
        <ele>515</ele>
        <time>2011-03-27T14:00:55Z</time>
      </trkpt>
      <trkpt lat="43.9619" lon="5.25458">
        <ele>514</ele>
        <time>2011-03-27T14:01:01Z</time>
      </trkpt>
      <trkpt lat="43.96195" lon="5.25448">
        <ele>513</ele>
        <time>2011-03-27T14:01:07Z</time>
      </trkpt>
      <trkpt lat="43.962" lon="5.2544">
        <ele>512</ele>
        <time>2011-03-27T14:01:12Z</time>
      </trkpt>
      <trkpt lat="43.96205" lon="5.25432">
        <ele>512</ele>
        <time>2011-03-27T14:01:18Z</time>
      </trkpt>
      <trkpt lat="43.96213" lon="5.25429">
        <ele>511</ele>
        <time>2011-03-27T14:01:24Z</time>
      </trkpt>
      <trkpt lat="43.96221" lon="5.25429">
        <ele>510</ele>
        <time>2011-03-27T14:01:30Z</time>
      </trkpt>
      <trkpt lat="43.96229" lon="5.25434">
        <ele>510</ele>
        <time>2011-03-27T14:01:36Z</time>
      </trkpt>
      <trkpt lat="43.9623" lon="5.25434">
        <ele>510</ele>
        <time>2011-03-27T14:01:37Z</time>
      </trkpt>
      <trkpt lat="43.96242" lon="5.25445">
        <ele>509</ele>
        <time>2011-03-27T14:01:46Z</time>
      </trkpt>
      <trkpt lat="43.96249" lon="5.25451">
        <ele>507</ele>
        <time>2011-03-27T14:01:52Z</time>
      </trkpt>
      <trkpt lat="43.96256" lon="5.25457">
        <ele>506</ele>
        <time>2011-03-27T14:01:58Z</time>
      </trkpt>
      <trkpt lat="43.96262" lon="5.25462">
        <ele>506</ele>
        <time>2011-03-27T14:02:03Z</time>
      </trkpt>
      <trkpt lat="43.9627" lon="5.25466">
        <ele>505</ele>
        <time>2011-03-27T14:02:08Z</time>
      </trkpt>
      <trkpt lat="43.96277" lon="5.2547">
        <ele>505</ele>
        <time>2011-03-27T14:02:12Z</time>
      </trkpt>
      <trkpt lat="43.96284" lon="5.25474">
        <ele>504</ele>
        <time>2011-03-27T14:02:17Z</time>
      </trkpt>
      <trkpt lat="43.96293" lon="5.25476">
        <ele>503</ele>
        <time>2011-03-27T14:02:23Z</time>
      </trkpt>
      <trkpt lat="43.96301" lon="5.25474">
        <ele>503</ele>
        <time>2011-03-27T14:02:28Z</time>
      </trkpt>
      <trkpt lat="43.96309" lon="5.2547">
        <ele>503</ele>
        <time>2011-03-27T14:02:33Z</time>
      </trkpt>
      <trkpt lat="43.96316" lon="5.25465">
        <ele>502</ele>
        <time>2011-03-27T14:02:38Z</time>
      </trkpt>
      <trkpt lat="43.96318" lon="5.25464">
        <ele>502</ele>
        <time>2011-03-27T14:02:39Z</time>
      </trkpt>
      <trkpt lat="43.96329" lon="5.25457">
        <ele>501</ele>
        <time>2011-03-27T14:02:46Z</time>
      </trkpt>
      <trkpt lat="43.96336" lon="5.25453">
        <ele>500</ele>
        <time>2011-03-27T14:02:50Z</time>
      </trkpt>
      <trkpt lat="43.96345" lon="5.25449">
        <ele>500</ele>
        <time>2011-03-27T14:02:55Z</time>
      </trkpt>
      <trkpt lat="43.96352" lon="5.25446">
        <ele>501</ele>
        <time>2011-03-27T14:02:59Z</time>
      </trkpt>
      <trkpt lat="43.9636" lon="5.25444">
        <ele>500</ele>
        <time>2011-03-27T14:03:04Z</time>
      </trkpt>
      <trkpt lat="43.96369" lon="5.25441">
        <ele>500</ele>
        <time>2011-03-27T14:03:09Z</time>
      </trkpt>
      <trkpt lat="43.96377" lon="5.2544">
        <ele>500</ele>
        <time>2011-03-27T14:03:14Z</time>
      </trkpt>
      <trkpt lat="43.96386" lon="5.25439">
        <ele>500</ele>
        <time>2011-03-27T14:03:19Z</time>
      </trkpt>
      <trkpt lat="43.96394" lon="5.25441">
        <ele>499</ele>
        <time>2011-03-27T14:03:24Z</time>
      </trkpt>
      <trkpt lat="43.96401" lon="5.25447">
        <ele>499</ele>
        <time>2011-03-27T14:03:29Z</time>
      </trkpt>
      <trkpt lat="43.96408" lon="5.25454">
        <ele>498</ele>
        <time>2011-03-27T14:03:34Z</time>
      </trkpt>
      <trkpt lat="43.96415" lon="5.25462">
        <ele>497</ele>
        <time>2011-03-27T14:03:39Z</time>
      </trkpt>
      <trkpt lat="43.96416" lon="5.25463">
        <ele>496</ele>
        <time>2011-03-27T14:03:40Z</time>
      </trkpt>
      <trkpt lat="43.96427" lon="5.25477">
        <ele>496</ele>
        <time>2011-03-27T14:03:49Z</time>
      </trkpt>
      <trkpt lat="43.96433" lon="5.25485">
        <ele>497</ele>
        <time>2011-03-27T14:03:54Z</time>
      </trkpt>
      <trkpt lat="43.96438" lon="5.25493">
        <ele>497</ele>
        <time>2011-03-27T14:03:59Z</time>
      </trkpt>
      <trkpt lat="43.96444" lon="5.255">
        <ele>496</ele>
        <time>2011-03-27T14:04:04Z</time>
      </trkpt>
      <trkpt lat="43.9645" lon="5.25508">
        <ele>496</ele>
        <time>2011-03-27T14:04:09Z</time>
      </trkpt>
      <trkpt lat="43.96456" lon="5.25516">
        <ele>496</ele>
        <time>2011-03-27T14:04:14Z</time>
      </trkpt>
      <trkpt lat="43.96462" lon="5.25524">
        <ele>496</ele>
        <time>2011-03-27T14:04:19Z</time>
      </trkpt>
      <trkpt lat="43.96467" lon="5.2553">
        <ele>496</ele>
        <time>2011-03-27T14:04:23Z</time>
      </trkpt>
      <trkpt lat="43.96474" lon="5.25538">
        <ele>496</ele>
        <time>2011-03-27T14:04:28Z</time>
      </trkpt>
      <trkpt lat="43.9648" lon="5.25545">
        <ele>496</ele>
        <time>2011-03-27T14:04:33Z</time>
      </trkpt>
      <trkpt lat="43.96486" lon="5.25552">
        <ele>496</ele>
        <time>2011-03-27T14:04:38Z</time>
      </trkpt>
      <trkpt lat="43.96492" lon="5.25559">
        <ele>497</ele>
        <time>2011-03-27T14:04:43Z</time>
      </trkpt>
      <trkpt lat="43.96493" lon="5.25561">
        <ele>496</ele>
        <time>2011-03-27T14:04:44Z</time>
      </trkpt>
      <trkpt lat="43.96504" lon="5.25573">
        <ele>498</ele>
        <time>2011-03-27T14:04:53Z</time>
      </trkpt>
      <trkpt lat="43.9651" lon="5.25581">
        <ele>499</ele>
        <time>2011-03-27T14:04:59Z</time>
      </trkpt>
      <trkpt lat="43.96516" lon="5.25589">
        <ele>499</ele>
        <time>2011-03-27T14:05:04Z</time>
      </trkpt>
      <trkpt lat="43.96523" lon="5.25597">
        <ele>501</ele>
        <time>2011-03-27T14:05:10Z</time>
      </trkpt>
      <trkpt lat="43.96529" lon="5.25604">
        <ele>501</ele>
        <time>2011-03-27T14:05:15Z</time>
      </trkpt>
      <trkpt lat="43.96534" lon="5.25611">
        <ele>502</ele>
        <time>2011-03-27T14:05:20Z</time>
      </trkpt>
      <trkpt lat="43.96539" lon="5.2562">
        <ele>502</ele>
        <time>2011-03-27T14:05:25Z</time>
      </trkpt>
      <trkpt lat="43.96544" lon="5.2563">
        <ele>502</ele>
        <time>2011-03-27T14:05:31Z</time>
      </trkpt>
      <trkpt lat="43.96546" lon="5.2564">
        <ele>504</ele>
        <time>2011-03-27T14:05:36Z</time>
      </trkpt>
      <trkpt lat="43.96546" lon="5.25652">
        <ele>504</ele>
        <time>2011-03-27T14:05:41Z</time>
      </trkpt>
      <trkpt lat="43.96543" lon="5.25663">
        <ele>504</ele>
        <time>2011-03-27T14:05:46Z</time>
      </trkpt>
      <trkpt lat="43.96542" lon="5.25665">
        <ele>504</ele>
        <time>2011-03-27T14:05:47Z</time>
      </trkpt>
      <trkpt lat="43.96533" lon="5.25679">
        <ele>506</ele>
        <time>2011-03-27T14:05:56Z</time>
      </trkpt>
      <trkpt lat="43.96526" lon="5.25686">
        <ele>505</ele>
        <time>2011-03-27T14:06:01Z</time>
      </trkpt>
      <trkpt lat="43.96519" lon="5.25689">
        <ele>505</ele>
        <time>2011-03-27T14:06:06Z</time>
      </trkpt>
      <trkpt lat="43.96511" lon="5.25692">
        <ele>505</ele>
        <time>2011-03-27T14:06:12Z</time>
      </trkpt>
      <trkpt lat="43.96503" lon="5.25695">
        <ele>505</ele>
        <time>2011-03-27T14:06:18Z</time>
      </trkpt>
      <trkpt lat="43.96496" lon="5.25697">
        <ele>505</ele>
        <time>2011-03-27T14:06:23Z</time>
      </trkpt>
      <trkpt lat="43.96488" lon="5.25699">
        <ele>506</ele>
        <time>2011-03-27T14:06:28Z</time>
      </trkpt>
      <trkpt lat="43.9648" lon="5.25702">
        <ele>506</ele>
        <time>2011-03-27T14:06:33Z</time>
      </trkpt>
      <trkpt lat="43.96472" lon="5.25705">
        <ele>507</ele>
        <time>2011-03-27T14:06:38Z</time>
      </trkpt>
      <trkpt lat="43.96465" lon="5.25707">
        <ele>507</ele>
        <time>2011-03-27T14:06:43Z</time>
      </trkpt>
      <trkpt lat="43.96456" lon="5.2571">
        <ele>508</ele>
        <time>2011-03-27T14:06:48Z</time>
      </trkpt>
      <trkpt lat="43.96455" lon="5.25711">
        <ele>508</ele>
        <time>2011-03-27T14:06:49Z</time>
      </trkpt>
      <trkpt lat="43.96442" lon="5.25719">
        <ele>508</ele>
        <time>2011-03-27T14:06:58Z</time>
      </trkpt>
      <trkpt lat="43.96434" lon="5.25724">
        <ele>508</ele>
        <time>2011-03-27T14:07:03Z</time>
      </trkpt>
      <trkpt lat="43.96427" lon="5.25731">
        <ele>509</ele>
        <time>2011-03-27T14:07:08Z</time>
      </trkpt>
      <trkpt lat="43.9642" lon="5.25738">
        <ele>510</ele>
        <time>2011-03-27T14:07:13Z</time>
      </trkpt>
      <trkpt lat="43.96414" lon="5.25746">
        <ele>509</ele>
        <time>2011-03-27T14:07:18Z</time>
      </trkpt>
      <trkpt lat="43.96408" lon="5.25755">
        <ele>510</ele>
        <time>2011-03-27T14:07:23Z</time>
      </trkpt>
      <trkpt lat="43.96404" lon="5.25765">
        <ele>510</ele>
        <time>2011-03-27T14:07:28Z</time>
      </trkpt>
      <trkpt lat="43.96399" lon="5.25775">
        <ele>509</ele>
        <time>2011-03-27T14:07:33Z</time>
      </trkpt>
      <trkpt lat="43.96395" lon="5.25785">
        <ele>510</ele>
        <time>2011-03-27T14:07:38Z</time>
      </trkpt>
      <trkpt lat="43.96391" lon="5.25796">
        <ele>511</ele>
        <time>2011-03-27T14:07:43Z</time>
      </trkpt>
      <trkpt lat="43.96388" lon="5.25807">
        <ele>511</ele>
        <time>2011-03-27T14:07:48Z</time>
      </trkpt>
      <trkpt lat="43.96386" lon="5.25818">
        <ele>511</ele>
        <time>2011-03-27T14:07:53Z</time>
      </trkpt>
      <trkpt lat="43.96386" lon="5.2582">
        <ele>512</ele>
        <time>2011-03-27T14:07:54Z</time>
      </trkpt>
      <trkpt lat="43.96386" lon="5.2584">
        <ele>511</ele>
        <time>2011-03-27T14:08:03Z</time>
      </trkpt>
      <trkpt lat="43.96387" lon="5.25851">
        <ele>511</ele>
        <time>2011-03-27T14:08:08Z</time>
      </trkpt>
      <trkpt lat="43.9639" lon="5.25862">
        <ele>512</ele>
        <time>2011-03-27T14:08:13Z</time>
      </trkpt>
      <trkpt lat="43.96394" lon="5.25872">
        <ele>511</ele>
        <time>2011-03-27T14:08:18Z</time>
      </trkpt>
      <trkpt lat="43.96399" lon="5.2588">
        <ele>512</ele>
        <time>2011-03-27T14:08:23Z</time>
      </trkpt>
      <trkpt lat="43.96406" lon="5.25887">
        <ele>512</ele>
        <time>2011-03-27T14:08:28Z</time>
      </trkpt>
      <trkpt lat="43.96413" lon="5.25894">
        <ele>511</ele>
        <time>2011-03-27T14:08:34Z</time>
      </trkpt>
      <trkpt lat="43.96421" lon="5.25899">
        <ele>510</ele>
        <time>2011-03-27T14:08:40Z</time>
      </trkpt>
      <trkpt lat="43.96428" lon="5.25903">
        <ele>509</ele>
        <time>2011-03-27T14:08:45Z</time>
      </trkpt>
      <trkpt lat="43.96435" lon="5.25908">
        <ele>510</ele>
        <time>2011-03-27T14:08:50Z</time>
      </trkpt>
      <trkpt lat="43.96442" lon="5.25913">
        <ele>510</ele>
        <time>2011-03-27T14:08:55Z</time>
      </trkpt>
      <trkpt lat="43.96443" lon="5.25915">
        <ele>510</ele>
        <time>2011-03-27T14:08:56Z</time>
      </trkpt>
      <trkpt lat="43.96447" lon="5.25934">
        <ele>508</ele>
        <time>2011-03-27T14:09:06Z</time>
      </trkpt>
      <trkpt lat="43.96443" lon="5.25945">
        <ele>509</ele>
        <time>2011-03-27T14:09:12Z</time>
      </trkpt>
      <trkpt lat="43.96438" lon="5.25954">
        <ele>508</ele>
        <time>2011-03-27T14:09:17Z</time>
      </trkpt>
      <trkpt lat="43.96433" lon="5.25962">
        <ele>508</ele>
        <time>2011-03-27T14:09:22Z</time>
      </trkpt>
      <trkpt lat="43.96427" lon="5.2597">
        <ele>509</ele>
        <time>2011-03-27T14:09:28Z</time>
      </trkpt>
      <trkpt lat="43.96422" lon="5.25978">
        <ele>508</ele>
        <time>2011-03-27T14:09:33Z</time>
      </trkpt>
      <trkpt lat="43.96417" lon="5.25986">
        <ele>509</ele>
        <time>2011-03-27T14:09:38Z</time>
      </trkpt>
      <trkpt lat="43.9641" lon="5.25993">
        <ele>508</ele>
        <time>2011-03-27T14:09:43Z</time>
      </trkpt>
      <trkpt lat="43.96404" lon="5.25998">
        <ele>508</ele>
        <time>2011-03-27T14:09:48Z</time>
      </trkpt>
      <trkpt lat="43.96396" lon="5.26005">
        <ele>507</ele>
        <time>2011-03-27T14:09:54Z</time>
      </trkpt>
      <trkpt lat="43.9639" lon="5.26011">
        <ele>507</ele>
        <time>2011-03-27T14:09:59Z</time>
      </trkpt>
      <trkpt lat="43.96389" lon="5.26013">
        <ele>507</ele>
        <time>2011-03-27T14:10:00Z</time>
      </trkpt>
      <trkpt lat="43.96382" lon="5.2603">
        <ele>506</ele>
        <time>2011-03-27T14:10:09Z</time>
      </trkpt>
      <trkpt lat="43.96379" lon="5.2604">
        <ele>506</ele>
        <time>2011-03-27T14:10:14Z</time>
      </trkpt>
      <trkpt lat="43.96377" lon="5.26051">
        <ele>505</ele>
        <time>2011-03-27T14:10:19Z</time>
      </trkpt>
      <trkpt lat="43.96375" lon="5.26063">
        <ele>505</ele>
        <time>2011-03-27T14:10:25Z</time>
      </trkpt>
      <trkpt lat="43.96375" lon="5.26073">
        <ele>506</ele>
        <time>2011-03-27T14:10:30Z</time>
      </trkpt>
      <trkpt lat="43.96375" lon="5.26084">
        <ele>505</ele>
        <time>2011-03-27T14:10:35Z</time>
      </trkpt>
      <trkpt lat="43.96375" lon="5.26096">
        <ele>505</ele>
        <time>2011-03-27T14:10:40Z</time>
      </trkpt>
      <trkpt lat="43.96374" lon="5.26106">
        <ele>504</ele>
        <time>2011-03-27T14:10:45Z</time>
      </trkpt>
      <trkpt lat="43.96372" lon="5.26117">
        <ele>503</ele>
        <time>2011-03-27T14:10:50Z</time>
      </trkpt>
      <trkpt lat="43.96371" lon="5.26128">
        <ele>503</ele>
        <time>2011-03-27T14:10:55Z</time>
      </trkpt>
      <trkpt lat="43.9637" lon="5.26139">
        <ele>502</ele>
        <time>2011-03-27T14:11:00Z</time>
      </trkpt>
      <trkpt lat="43.9637" lon="5.26141">
        <ele>502</ele>
        <time>2011-03-27T14:11:01Z</time>
      </trkpt>
      <trkpt lat="43.96372" lon="5.26161">
        <ele>502</ele>
        <time>2011-03-27T14:11:10Z</time>
      </trkpt>
      <trkpt lat="43.96373" lon="5.26172">
        <ele>501</ele>
        <time>2011-03-27T14:11:15Z</time>
      </trkpt>
      <trkpt lat="43.96375" lon="5.26184">
        <ele>501</ele>
        <time>2011-03-27T14:11:20Z</time>
      </trkpt>
      <trkpt lat="43.96376" lon="5.26195">
        <ele>500</ele>
        <time>2011-03-27T14:11:25Z</time>
      </trkpt>
      <trkpt lat="43.96377" lon="5.26206">
        <ele>500</ele>
        <time>2011-03-27T14:11:30Z</time>
      </trkpt>
      <trkpt lat="43.96377" lon="5.26218">
        <ele>499</ele>
        <time>2011-03-27T14:11:35Z</time>
      </trkpt>
      <trkpt lat="43.96379" lon="5.26229">
        <ele>499</ele>
        <time>2011-03-27T14:11:40Z</time>
      </trkpt>
      <trkpt lat="43.96384" lon="5.26237">
        <ele>499</ele>
        <time>2011-03-27T14:11:45Z</time>
      </trkpt>
      <trkpt lat="43.96392" lon="5.26243">
        <ele>498</ele>
        <time>2011-03-27T14:11:59Z</time>
      </trkpt>
      <trkpt lat="43.96399" lon="5.26239">
        <ele>498</ele>
        <time>2011-03-27T14:12:04Z</time>
      </trkpt>
      <trkpt lat="43.96401" lon="5.26238">
        <ele>498</ele>
        <time>2011-03-27T14:12:05Z</time>
      </trkpt>
      <trkpt lat="43.96415" lon="5.2623">
        <ele>498</ele>
        <time>2011-03-27T14:12:16Z</time>
      </trkpt>
      <trkpt lat="43.96423" lon="5.26226">
        <ele>498</ele>
        <time>2011-03-27T14:12:24Z</time>
      </trkpt>
      <trkpt lat="43.96432" lon="5.26222">
        <ele>498</ele>
        <time>2011-03-27T14:12:30Z</time>
      </trkpt>
      <trkpt lat="43.96439" lon="5.26218">
        <ele>497</ele>
        <time>2011-03-27T14:12:36Z</time>
      </trkpt>
      <trkpt lat="43.96448" lon="5.26217">
        <ele>496</ele>
        <time>2011-03-27T14:12:43Z</time>
      </trkpt>
      <trkpt lat="43.96456" lon="5.26215">
        <ele>496</ele>
        <time>2011-03-27T14:12:49Z</time>
      </trkpt>
      <trkpt lat="43.96465" lon="5.26214">
        <ele>495</ele>
        <time>2011-03-27T14:12:55Z</time>
      </trkpt>
      <trkpt lat="43.96473" lon="5.26213">
        <ele>495</ele>
        <time>2011-03-27T14:13:00Z</time>
      </trkpt>
      <trkpt lat="43.96481" lon="5.26213">
        <ele>494</ele>
        <time>2011-03-27T14:13:05Z</time>
      </trkpt>
      <trkpt lat="43.96482" lon="5.26214">
        <ele>494</ele>
        <time>2011-03-27T14:13:06Z</time>
      </trkpt>
      <trkpt lat="43.96498" lon="5.26216">
        <ele>494</ele>
        <time>2011-03-27T14:13:17Z</time>
      </trkpt>
      <trkpt lat="43.96506" lon="5.26217">
        <ele>494</ele>
        <time>2011-03-27T14:13:22Z</time>
      </trkpt>
      <trkpt lat="43.96513" lon="5.26219">
        <ele>493</ele>
        <time>2011-03-27T14:13:27Z</time>
      </trkpt>
      <trkpt lat="43.96522" lon="5.26221">
        <ele>493</ele>
        <time>2011-03-27T14:13:32Z</time>
      </trkpt>
      <trkpt lat="43.9653" lon="5.26222">
        <ele>494</ele>
        <time>2011-03-27T14:13:37Z</time>
      </trkpt>
      <trkpt lat="43.96538" lon="5.26225">
        <ele>493</ele>
        <time>2011-03-27T14:13:42Z</time>
      </trkpt>
      <trkpt lat="43.96546" lon="5.26226">
        <ele>493</ele>
        <time>2011-03-27T14:13:47Z</time>
      </trkpt>
      <trkpt lat="43.96554" lon="5.26229">
        <ele>493</ele>
        <time>2011-03-27T14:13:52Z</time>
      </trkpt>
      <trkpt lat="43.96562" lon="5.26231">
        <ele>493</ele>
        <time>2011-03-27T14:13:57Z</time>
      </trkpt>
      <trkpt lat="43.96571" lon="5.26233">
        <ele>492</ele>
        <time>2011-03-27T14:14:02Z</time>
      </trkpt>
      <trkpt lat="43.96579" lon="5.26236">
        <ele>492</ele>
        <time>2011-03-27T14:14:07Z</time>
      </trkpt>
      <trkpt lat="43.9658" lon="5.26237">
        <ele>492</ele>
        <time>2011-03-27T14:14:08Z</time>
      </trkpt>
      <trkpt lat="43.96594" lon="5.26245">
        <ele>490</ele>
        <time>2011-03-27T14:14:17Z</time>
      </trkpt>
      <trkpt lat="43.96602" lon="5.26249">
        <ele>491</ele>
        <time>2011-03-27T14:14:22Z</time>
      </trkpt>
      <trkpt lat="43.9661" lon="5.26251">
        <ele>492</ele>
        <time>2011-03-27T14:14:27Z</time>
      </trkpt>
      <trkpt lat="43.96619" lon="5.26253">
        <ele>491</ele>
        <time>2011-03-27T14:14:32Z</time>
      </trkpt>
      <trkpt lat="43.96627" lon="5.26255">
        <ele>490</ele>
        <time>2011-03-27T14:14:37Z</time>
      </trkpt>
      <trkpt lat="43.96636" lon="5.26259">
        <ele>490</ele>
        <time>2011-03-27T14:14:42Z</time>
      </trkpt>
      <trkpt lat="43.96644" lon="5.26262">
        <ele>490</ele>
        <time>2011-03-27T14:14:47Z</time>
      </trkpt>
      <trkpt lat="43.96653" lon="5.26265">
        <ele>490</ele>
        <time>2011-03-27T14:14:52Z</time>
      </trkpt>
      <trkpt lat="43.9666" lon="5.26266">
        <ele>490</ele>
        <time>2011-03-27T14:14:56Z</time>
      </trkpt>
      <trkpt lat="43.96668" lon="5.26266">
        <ele>490</ele>
        <time>2011-03-27T14:15:01Z</time>
      </trkpt>
      <trkpt lat="43.96677" lon="5.26266">
        <ele>490</ele>
        <time>2011-03-27T14:15:06Z</time>
      </trkpt>
      <trkpt lat="43.96685" lon="5.26264">
        <ele>489</ele>
        <time>2011-03-27T14:15:11Z</time>
      </trkpt>
      <trkpt lat="43.96687" lon="5.26263">
        <ele>489</ele>
        <time>2011-03-27T14:15:12Z</time>
      </trkpt>
      <trkpt lat="43.96702" lon="5.26262">
        <ele>489</ele>
        <time>2011-03-27T14:15:21Z</time>
      </trkpt>
      <trkpt lat="43.96711" lon="5.26263">
        <ele>487</ele>
        <time>2011-03-27T14:15:26Z</time>
      </trkpt>
      <trkpt lat="43.96719" lon="5.26264">
        <ele>488</ele>
        <time>2011-03-27T14:15:31Z</time>
      </trkpt>
      <trkpt lat="43.96728" lon="5.26266">
        <ele>488</ele>
        <time>2011-03-27T14:15:36Z</time>
      </trkpt>
      <trkpt lat="43.96736" lon="5.26268">
        <ele>487</ele>
        <time>2011-03-27T14:15:41Z</time>
      </trkpt>
      <trkpt lat="43.96744" lon="5.2627">
        <ele>486</ele>
        <time>2011-03-27T14:15:46Z</time>
      </trkpt>
      <trkpt lat="43.96751" lon="5.26276">
        <ele>485</ele>
        <time>2011-03-27T14:15:51Z</time>
      </trkpt>
      <trkpt lat="43.96757" lon="5.26284">
        <ele>486</ele>
        <time>2011-03-27T14:15:56Z</time>
      </trkpt>
      <trkpt lat="43.96762" lon="5.26293">
        <ele>486</ele>
        <time>2011-03-27T14:16:01Z</time>
      </trkpt>
      <trkpt lat="43.96767" lon="5.26303">
        <ele>486</ele>
        <time>2011-03-27T14:16:06Z</time>
      </trkpt>
      <trkpt lat="43.96773" lon="5.26312">
        <ele>486</ele>
        <time>2011-03-27T14:16:11Z</time>
      </trkpt>
      <trkpt lat="43.96778" lon="5.26321">
        <ele>485</ele>
        <time>2011-03-27T14:16:16Z</time>
      </trkpt>
      <trkpt lat="43.96779" lon="5.26323">
        <ele>485</ele>
        <time>2011-03-27T14:16:17Z</time>
      </trkpt>
      <trkpt lat="43.96788" lon="5.26338">
        <ele>486</ele>
        <time>2011-03-27T14:16:26Z</time>
      </trkpt>
      <trkpt lat="43.96794" lon="5.26347">
        <ele>488</ele>
        <time>2011-03-27T14:16:31Z</time>
      </trkpt>
      <trkpt lat="43.96798" lon="5.26355">
        <ele>487</ele>
        <time>2011-03-27T14:16:36Z</time>
      </trkpt>
      <trkpt lat="43.96801" lon="5.26366">
        <ele>487</ele>
        <time>2011-03-27T14:16:41Z</time>
      </trkpt>
      <trkpt lat="43.96799" lon="5.26377">
        <ele>488</ele>
        <time>2011-03-27T14:16:46Z</time>
      </trkpt>
      <trkpt lat="43.96792" lon="5.26382">
        <ele>488</ele>
        <time>2011-03-27T14:16:52Z</time>
      </trkpt>
      <trkpt lat="43.96783" lon="5.26382">
        <ele>490</ele>
        <time>2011-03-27T14:16:58Z</time>
      </trkpt>
      <trkpt lat="43.96774" lon="5.26379">
        <ele>490</ele>
        <time>2011-03-27T14:17:04Z</time>
      </trkpt>
      <trkpt lat="43.96767" lon="5.26375">
        <ele>492</ele>
        <time>2011-03-27T14:17:09Z</time>
      </trkpt>
      <trkpt lat="43.9676" lon="5.2637">
        <ele>492</ele>
        <time>2011-03-27T14:17:14Z</time>
      </trkpt>
      <trkpt lat="43.96754" lon="5.26364">
        <ele>493</ele>
        <time>2011-03-27T14:17:19Z</time>
      </trkpt>
      <trkpt lat="43.96753" lon="5.26363">
        <ele>494</ele>
        <time>2011-03-27T14:17:20Z</time>
      </trkpt>
      <trkpt lat="43.96741" lon="5.26352">
        <ele>495</ele>
        <time>2011-03-27T14:17:29Z</time>
      </trkpt>
      <trkpt lat="43.96733" lon="5.26348">
        <ele>496</ele>
        <time>2011-03-27T14:17:34Z</time>
      </trkpt>
      <trkpt lat="43.96725" lon="5.26347">
        <ele>497</ele>
        <time>2011-03-27T14:17:39Z</time>
      </trkpt>
      <trkpt lat="43.96716" lon="5.26346">
        <ele>497</ele>
        <time>2011-03-27T14:17:45Z</time>
      </trkpt>
      <trkpt lat="43.96708" lon="5.26346">
        <ele>499</ele>
        <time>2011-03-27T14:17:51Z</time>
      </trkpt>
      <trkpt lat="43.967" lon="5.26347">
        <ele>500</ele>
        <time>2011-03-27T14:17:57Z</time>
      </trkpt>
      <trkpt lat="43.96692" lon="5.26347">
        <ele>502</ele>
        <time>2011-03-27T14:18:03Z</time>
      </trkpt>
      <trkpt lat="43.96684" lon="5.26349">
        <ele>503</ele>
        <time>2011-03-27T14:18:09Z</time>
      </trkpt>
      <trkpt lat="43.96675" lon="5.26352">
        <ele>504</ele>
        <time>2011-03-27T14:18:16Z</time>
      </trkpt>
      <trkpt lat="43.96667" lon="5.26355">
        <ele>505</ele>
        <time>2011-03-27T14:18:22Z</time>
      </trkpt>
      <trkpt lat="43.96666" lon="5.26356">
        <ele>505</ele>
        <time>2011-03-27T14:18:23Z</time>
      </trkpt>
      <trkpt lat="43.96652" lon="5.26365">
        <ele>507</ele>
        <time>2011-03-27T14:18:33Z</time>
      </trkpt>
      <trkpt lat="43.96645" lon="5.2637">
        <ele>509</ele>
        <time>2011-03-27T14:18:38Z</time>
      </trkpt>
      <trkpt lat="43.96638" lon="5.26375">
        <ele>509</ele>
        <time>2011-03-27T14:18:43Z</time>
      </trkpt>
      <trkpt lat="43.96631" lon="5.26379">
        <ele>510</ele>
        <time>2011-03-27T14:18:48Z</time>
      </trkpt>
      <trkpt lat="43.96622" lon="5.26383">
        <ele>511</ele>
        <time>2011-03-27T14:18:54Z</time>
      </trkpt>
      <trkpt lat="43.96614" lon="5.26387">
        <ele>512</ele>
        <time>2011-03-27T14:19:00Z</time>
      </trkpt>
      <trkpt lat="43.96606" lon="5.26389">
        <ele>513</ele>
        <time>2011-03-27T14:19:05Z</time>
      </trkpt>
      <trkpt lat="43.96598" lon="5.2639">
        <ele>514</ele>
        <time>2011-03-27T14:19:11Z</time>
      </trkpt>
      <trkpt lat="43.9659" lon="5.26391">
        <ele>514</ele>
        <time>2011-03-27T14:19:16Z</time>
      </trkpt>
      <trkpt lat="43.96582" lon="5.26391">
        <ele>514</ele>
        <time>2011-03-27T14:19:21Z</time>
      </trkpt>
      <trkpt lat="43.96574" lon="5.26392">
        <ele>516</ele>
        <time>2011-03-27T14:19:27Z</time>
      </trkpt>
      <trkpt lat="43.96572" lon="5.26392">
        <ele>516</ele>
        <time>2011-03-27T14:19:28Z</time>
      </trkpt>
      <trkpt lat="43.96556" lon="5.26394">
        <ele>517</ele>
        <time>2011-03-27T14:19:39Z</time>
      </trkpt>
      <trkpt lat="43.96547" lon="5.26397">
        <ele>518</ele>
        <time>2011-03-27T14:19:45Z</time>
      </trkpt>
      <trkpt lat="43.96539" lon="5.26398">
        <ele>519</ele>
        <time>2011-03-27T14:19:51Z</time>
      </trkpt>
      <trkpt lat="43.96531" lon="5.26399">
        <ele>520</ele>
        <time>2011-03-27T14:19:56Z</time>
      </trkpt>
      <trkpt lat="43.96523" lon="5.26399">
        <ele>522</ele>
        <time>2011-03-27T14:20:01Z</time>
      </trkpt>
      <trkpt lat="43.96515" lon="5.264">
        <ele>523</ele>
        <time>2011-03-27T14:20:07Z</time>
      </trkpt>
      <trkpt lat="43.96506" lon="5.26403">
        <ele>524</ele>
        <time>2011-03-27T14:20:13Z</time>
      </trkpt>
      <trkpt lat="43.96498" lon="5.26408">
        <ele>525</ele>
        <time>2011-03-27T14:20:19Z</time>
      </trkpt>
      <trkpt lat="43.96493" lon="5.26415">
        <ele>526</ele>
        <time>2011-03-27T14:20:24Z</time>
      </trkpt>
      <trkpt lat="43.96488" lon="5.26424">
        <ele>527</ele>
        <time>2011-03-27T14:20:29Z</time>
      </trkpt>
      <trkpt lat="43.96487" lon="5.26425">
        <ele>526</ele>
        <time>2011-03-27T14:20:30Z</time>
      </trkpt>
      <trkpt lat="43.96481" lon="5.26442">
        <ele>528</ele>
        <time>2011-03-27T14:20:39Z</time>
      </trkpt>
      <trkpt lat="43.96479" lon="5.26453">
        <ele>529</ele>
        <time>2011-03-27T14:20:44Z</time>
      </trkpt>
      <trkpt lat="43.96478" lon="5.26464">
        <ele>529</ele>
        <time>2011-03-27T14:20:49Z</time>
      </trkpt>
      <trkpt lat="43.96478" lon="5.26476">
        <ele>530</ele>
        <time>2011-03-27T14:20:55Z</time>
      </trkpt>
      <trkpt lat="43.96477" lon="5.26488">
        <ele>530</ele>
        <time>2011-03-27T14:21:03Z</time>
      </trkpt>
      <trkpt lat="43.96475" lon="5.26499">
        <ele>530</ele>
        <time>2011-03-27T14:21:08Z</time>
      </trkpt>
      <trkpt lat="43.96473" lon="5.26509">
        <ele>529</ele>
        <time>2011-03-27T14:21:13Z</time>
      </trkpt>
      <trkpt lat="43.96472" lon="5.26521">
        <ele>529</ele>
        <time>2011-03-27T14:21:18Z</time>
      </trkpt>
      <trkpt lat="43.9647" lon="5.26532">
        <ele>529</ele>
        <time>2011-03-27T14:21:23Z</time>
      </trkpt>
      <trkpt lat="43.96469" lon="5.26543">
        <ele>529</ele>
        <time>2011-03-27T14:21:28Z</time>
      </trkpt>
      <trkpt lat="43.96468" lon="5.26555">
        <ele>529</ele>
        <time>2011-03-27T14:21:33Z</time>
      </trkpt>
      <trkpt lat="43.96468" lon="5.26557">
        <ele>529</ele>
        <time>2011-03-27T14:21:34Z</time>
      </trkpt>
      <trkpt lat="43.96467" lon="5.26577">
        <ele>528</ele>
        <time>2011-03-27T14:21:43Z</time>
      </trkpt>
      <trkpt lat="43.96467" lon="5.26588">
        <ele>527</ele>
        <time>2011-03-27T14:21:48Z</time>
      </trkpt>
      <trkpt lat="43.96466" lon="5.26599">
        <ele>527</ele>
        <time>2011-03-27T14:21:53Z</time>
      </trkpt>
      <trkpt lat="43.96466" lon="5.2661">
        <ele>526</ele>
        <time>2011-03-27T14:21:58Z</time>
      </trkpt>
      <trkpt lat="43.96467" lon="5.26621">
        <ele>525</ele>
        <time>2011-03-27T14:22:03Z</time>
      </trkpt>
      <trkpt lat="43.9647" lon="5.26631">
        <ele>526</ele>
        <time>2011-03-27T14:22:08Z</time>
      </trkpt>
      <trkpt lat="43.96477" lon="5.2664">
        <ele>525</ele>
        <time>2011-03-27T14:22:14Z</time>
      </trkpt>
      <trkpt lat="43.96482" lon="5.26647">
        <ele>525</ele>
        <time>2011-03-27T14:22:19Z</time>
      </trkpt>
      <trkpt lat="43.96488" lon="5.26655">
        <ele>525</ele>
        <time>2011-03-27T14:22:24Z</time>
      </trkpt>
      <trkpt lat="43.96494" lon="5.26663">
        <ele>524</ele>
        <time>2011-03-27T14:22:29Z</time>
      </trkpt>
      <trkpt lat="43.96499" lon="5.26672">
        <ele>524</ele>
        <time>2011-03-27T14:22:34Z</time>
      </trkpt>
      <trkpt lat="43.96501" lon="5.26673">
        <ele>524</ele>
        <time>2011-03-27T14:22:35Z</time>
      </trkpt>
      <trkpt lat="43.96507" lon="5.26691">
        <ele>524</ele>
        <time>2011-03-27T14:22:44Z</time>
      </trkpt>
      <trkpt lat="43.96507" lon="5.26702">
        <ele>522</ele>
        <time>2011-03-27T14:22:49Z</time>
      </trkpt>
      <trkpt lat="43.96506" lon="5.26713">
        <ele>522</ele>
        <time>2011-03-27T14:22:54Z</time>
      </trkpt>
      <trkpt lat="43.96503" lon="5.26723">
        <ele>521</ele>
        <time>2011-03-27T14:22:59Z</time>
      </trkpt>
      <trkpt lat="43.965" lon="5.26734">
        <ele>521</ele>
        <time>2011-03-27T14:23:04Z</time>
      </trkpt>
      <trkpt lat="43.96498" lon="5.26744">
        <ele>520</ele>
        <time>2011-03-27T14:23:09Z</time>
      </trkpt>
      <trkpt lat="43.96496" lon="5.26755">
        <ele>520</ele>
        <time>2011-03-27T14:23:14Z</time>
      </trkpt>
      <trkpt lat="43.96495" lon="5.26766">
        <ele>518</ele>
        <time>2011-03-27T14:23:19Z</time>
      </trkpt>
      <trkpt lat="43.96495" lon="5.26777">
        <ele>519</ele>
        <time>2011-03-27T14:23:24Z</time>
      </trkpt>
      <trkpt lat="43.96496" lon="5.26788">
        <ele>520</ele>
        <time>2011-03-27T14:23:29Z</time>
      </trkpt>
      <trkpt lat="43.96498" lon="5.26799">
        <ele>520</ele>
        <time>2011-03-27T14:23:34Z</time>
      </trkpt>
      <trkpt lat="43.96502" lon="5.26809">
        <ele>520</ele>
        <time>2011-03-27T14:23:39Z</time>
      </trkpt>
      <trkpt lat="43.96503" lon="5.2681">
        <ele>520</ele>
        <time>2011-03-27T14:23:40Z</time>
      </trkpt>
      <trkpt lat="43.96514" lon="5.26824">
        <ele>518</ele>
        <time>2011-03-27T14:23:49Z</time>
      </trkpt>
      <trkpt lat="43.96521" lon="5.2683">
        <ele>518</ele>
        <time>2011-03-27T14:23:54Z</time>
      </trkpt>
      <trkpt lat="43.96527" lon="5.26837">
        <ele>517</ele>
        <time>2011-03-27T14:23:59Z</time>
      </trkpt>
      <trkpt lat="43.96533" lon="5.26844">
        <ele>516</ele>
        <time>2011-03-27T14:24:04Z</time>
      </trkpt>
      <trkpt lat="43.96539" lon="5.26851">
        <ele>515</ele>
        <time>2011-03-27T14:24:09Z</time>
      </trkpt>
      <trkpt lat="43.96545" lon="5.26858">
        <ele>515</ele>
        <time>2011-03-27T14:24:14Z</time>
      </trkpt>
      <trkpt lat="43.96551" lon="5.26866">
        <ele>516</ele>
        <time>2011-03-27T14:24:19Z</time>
      </trkpt>
      <trkpt lat="43.96556" lon="5.26874">
        <ele>516</ele>
        <time>2011-03-27T14:24:24Z</time>
      </trkpt>
      <trkpt lat="43.96562" lon="5.26883">
        <ele>516</ele>
        <time>2011-03-27T14:24:29Z</time>
      </trkpt>
      <trkpt lat="43.96566" lon="5.26893">
        <ele>514</ele>
        <time>2011-03-27T14:24:34Z</time>
      </trkpt>
      <trkpt lat="43.9657" lon="5.26904">
        <ele>514</ele>
        <time>2011-03-27T14:24:39Z</time>
      </trkpt>
      <trkpt lat="43.96576" lon="5.26913">
        <ele>514</ele>
        <time>2011-03-27T14:24:44Z</time>
      </trkpt>
      <trkpt lat="43.96577" lon="5.26915">
        <ele>514</ele>
        <time>2011-03-27T14:24:45Z</time>
      </trkpt>
      <trkpt lat="43.96588" lon="5.26929">
        <ele>513</ele>
        <time>2011-03-27T14:24:54Z</time>
      </trkpt>
      <trkpt lat="43.96593" lon="5.26938">
        <ele>513</ele>
        <time>2011-03-27T14:24:59Z</time>
      </trkpt>
      <trkpt lat="43.96598" lon="5.26947">
        <ele>513</ele>
        <time>2011-03-27T14:25:04Z</time>
      </trkpt>
      <trkpt lat="43.96599" lon="5.26958">
        <ele>514</ele>
        <time>2011-03-27T14:25:09Z</time>
      </trkpt>
      <trkpt lat="43.96591" lon="5.26962">
        <ele>514</ele>
        <time>2011-03-27T14:25:14Z</time>
      </trkpt>
      <trkpt lat="43.96584" lon="5.26961">
        <ele>515</ele>
        <time>2011-03-27T14:25:18Z</time>
      </trkpt>
      <trkpt lat="43.96575" lon="5.26959">
        <ele>515</ele>
        <time>2011-03-27T14:25:22Z</time>
      </trkpt>
      <trkpt lat="43.96569" lon="5.26957">
        <ele>515</ele>
        <time>2011-03-27T14:25:24Z</time>
      </trkpt>
      <trkpt lat="43.96563" lon="5.26955">
        <ele>515</ele>
        <time>2011-03-27T14:25:26Z</time>
      </trkpt>
      <trkpt lat="43.96557" lon="5.26952">
        <ele>516</ele>
        <time>2011-03-27T14:25:28Z</time>
      </trkpt>
      <trkpt lat="43.96549" lon="5.2695">
        <ele>516</ele>
        <time>2011-03-27T14:25:31Z</time>
      </trkpt>
      <trkpt lat="43.96541" lon="5.26946">
        <ele>517</ele>
        <time>2011-03-27T14:25:36Z</time>
      </trkpt>
      <trkpt lat="43.96534" lon="5.26943">
        <ele>518</ele>
        <time>2011-03-27T14:25:41Z</time>
      </trkpt>
      <trkpt lat="43.96526" lon="5.2694">
        <ele>518</ele>
        <time>2011-03-27T14:25:46Z</time>
      </trkpt>
      <trkpt lat="43.96524" lon="5.2694">
        <ele>519</ele>
        <time>2011-03-27T14:25:47Z</time>
      </trkpt>
      <trkpt lat="43.9651" lon="5.2694">
        <ele>520</ele>
        <time>2011-03-27T14:25:56Z</time>
      </trkpt>
      <trkpt lat="43.96503" lon="5.26943">
        <ele>521</ele>
        <time>2011-03-27T14:26:01Z</time>
      </trkpt>
      <trkpt lat="43.96495" lon="5.26946">
        <ele>521</ele>
        <time>2011-03-27T14:26:06Z</time>
      </trkpt>
      <trkpt lat="43.96487" lon="5.26949">
        <ele>522</ele>
        <time>2011-03-27T14:26:11Z</time>
      </trkpt>
      <trkpt lat="43.96479" lon="5.26952">
        <ele>522</ele>
        <time>2011-03-27T14:26:16Z</time>
      </trkpt>
      <trkpt lat="43.96471" lon="5.26954">
        <ele>522</ele>
        <time>2011-03-27T14:26:21Z</time>
      </trkpt>
      <trkpt lat="43.96463" lon="5.26954">
        <ele>522</ele>
        <time>2011-03-27T14:26:26Z</time>
      </trkpt>
      <trkpt lat="43.96455" lon="5.26956">
        <ele>523</ele>
        <time>2011-03-27T14:26:32Z</time>
      </trkpt>
      <trkpt lat="43.96447" lon="5.26957">
        <ele>523</ele>
        <time>2011-03-27T14:26:37Z</time>
      </trkpt>
      <trkpt lat="43.96439" lon="5.26958">
        <ele>523</ele>
        <time>2011-03-27T14:26:42Z</time>
      </trkpt>
      <trkpt lat="43.96431" lon="5.26958">
        <ele>523</ele>
        <time>2011-03-27T14:26:47Z</time>
      </trkpt>
      <trkpt lat="43.96429" lon="5.26958">
        <ele>523</ele>
        <time>2011-03-27T14:26:48Z</time>
      </trkpt>
      <trkpt lat="43.96415" lon="5.26962">
        <ele>524</ele>
        <time>2011-03-27T14:26:58Z</time>
      </trkpt>
      <trkpt lat="43.96408" lon="5.26966">
        <ele>524</ele>
        <time>2011-03-27T14:27:03Z</time>
      </trkpt>
      <trkpt lat="43.964" lon="5.2697">
        <ele>524</ele>
        <time>2011-03-27T14:27:07Z</time>
      </trkpt>
      <trkpt lat="43.96392" lon="5.26974">
        <ele>524</ele>
        <time>2011-03-27T14:27:12Z</time>
      </trkpt>
      <trkpt lat="43.96384" lon="5.26979">
        <ele>525</ele>
        <time>2011-03-27T14:27:17Z</time>
      </trkpt>
      <trkpt lat="43.96376" lon="5.26983">
        <ele>525</ele>
        <time>2011-03-27T14:27:22Z</time>
      </trkpt>
      <trkpt lat="43.96368" lon="5.26986">
        <ele>525</ele>
        <time>2011-03-27T14:27:27Z</time>
      </trkpt>
      <trkpt lat="43.96359" lon="5.2699">
        <ele>525</ele>
        <time>2011-03-27T14:27:32Z</time>
      </trkpt>
      <trkpt lat="43.96351" lon="5.26993">
        <ele>525</ele>
        <time>2011-03-27T14:27:37Z</time>
      </trkpt>
      <trkpt lat="43.96343" lon="5.26996">
        <ele>525</ele>
        <time>2011-03-27T14:27:42Z</time>
      </trkpt>
      <trkpt lat="43.96336" lon="5.26999">
        <ele>525</ele>
        <time>2011-03-27T14:27:46Z</time>
      </trkpt>
      <trkpt lat="43.96329" lon="5.27002">
        <ele>525</ele>
        <time>2011-03-27T14:27:50Z</time>
      </trkpt>
      <trkpt lat="43.96328" lon="5.27002">
        <ele>525</ele>
        <time>2011-03-27T14:27:51Z</time>
      </trkpt>
      <trkpt lat="43.96313" lon="5.27009">
        <ele>526</ele>
        <time>2011-03-27T14:28:00Z</time>
      </trkpt>
      <trkpt lat="43.96307" lon="5.27017">
        <ele>526</ele>
        <time>2011-03-27T14:28:05Z</time>
      </trkpt>
      <trkpt lat="43.96306" lon="5.27028">
        <ele>526</ele>
        <time>2011-03-27T14:28:10Z</time>
      </trkpt>
      <trkpt lat="43.96307" lon="5.27039">
        <ele>527</ele>
        <time>2011-03-27T14:28:15Z</time>
      </trkpt>
      <trkpt lat="43.96308" lon="5.2705">
        <ele>528</ele>
        <time>2011-03-27T14:28:20Z</time>
      </trkpt>
      <trkpt lat="43.9631" lon="5.2706">
        <ele>528</ele>
        <time>2011-03-27T14:28:25Z</time>
      </trkpt>
      <trkpt lat="43.96312" lon="5.27071">
        <ele>528</ele>
        <time>2011-03-27T14:28:30Z</time>
      </trkpt>
      <trkpt lat="43.96314" lon="5.27082">
        <ele>528</ele>
        <time>2011-03-27T14:28:35Z</time>
      </trkpt>
      <trkpt lat="43.96317" lon="5.27093">
        <ele>528</ele>
        <time>2011-03-27T14:28:40Z</time>
      </trkpt>
      <trkpt lat="43.96319" lon="5.27104">
        <ele>528</ele>
        <time>2011-03-27T14:28:45Z</time>
      </trkpt>
      <trkpt lat="43.96321" lon="5.27115">
        <ele>528</ele>
        <time>2011-03-27T14:28:50Z</time>
      </trkpt>
      <trkpt lat="43.96324" lon="5.27125">
        <ele>529</ele>
        <time>2011-03-27T14:28:55Z</time>
      </trkpt>
      <trkpt lat="43.96324" lon="5.27128">
        <ele>529</ele>
        <time>2011-03-27T14:28:56Z</time>
      </trkpt>
      <trkpt lat="43.9633" lon="5.27146">
        <ele>530</ele>
        <time>2011-03-27T14:29:05Z</time>
      </trkpt>
      <trkpt lat="43.96334" lon="5.27155">
        <ele>530</ele>
        <time>2011-03-27T14:29:10Z</time>
      </trkpt>
      <trkpt lat="43.96339" lon="5.27164">
        <ele>530</ele>
        <time>2011-03-27T14:29:15Z</time>
      </trkpt>
      <trkpt lat="43.96343" lon="5.27173">
        <ele>530</ele>
        <time>2011-03-27T14:29:20Z</time>
      </trkpt>
      <trkpt lat="43.96349" lon="5.27181">
        <ele>531</ele>
        <time>2011-03-27T14:29:25Z</time>
      </trkpt>
      <trkpt lat="43.96353" lon="5.2719">
        <ele>532</ele>
        <time>2011-03-27T14:29:30Z</time>
      </trkpt>
      <trkpt lat="43.96356" lon="5.272">
        <ele>531</ele>
        <time>2011-03-27T14:29:35Z</time>
      </trkpt>
      <trkpt lat="43.96357" lon="5.27211">
        <ele>532</ele>
        <time>2011-03-27T14:29:40Z</time>
      </trkpt>
      <trkpt lat="43.96356" lon="5.27222">
        <ele>532</ele>
        <time>2011-03-27T14:29:45Z</time>
      </trkpt>
      <trkpt lat="43.96352" lon="5.27233">
        <ele>532</ele>
        <time>2011-03-27T14:29:51Z</time>
      </trkpt>
      <trkpt lat="43.96346" lon="5.27241">
        <ele>531</ele>
        <time>2011-03-27T14:29:56Z</time>
      </trkpt>
      <trkpt lat="43.96345" lon="5.27242">
        <ele>531</ele>
        <time>2011-03-27T14:29:57Z</time>
      </trkpt>
      <trkpt lat="43.96331" lon="5.27251">
        <ele>532</ele>
        <time>2011-03-27T14:30:06Z</time>
      </trkpt>
      <trkpt lat="43.96323" lon="5.27255">
        <ele>531</ele>
        <time>2011-03-27T14:30:11Z</time>
      </trkpt>
      <trkpt lat="43.96315" lon="5.27259">
        <ele>530</ele>
        <time>2011-03-27T14:30:16Z</time>
      </trkpt>
      <trkpt lat="43.96308" lon="5.27263">
        <ele>530</ele>
        <time>2011-03-27T14:30:21Z</time>
      </trkpt>
      <trkpt lat="43.963" lon="5.27267">
        <ele>530</ele>
        <time>2011-03-27T14:30:26Z</time>
      </trkpt>
      <trkpt lat="43.96293" lon="5.27271">
        <ele>529</ele>
        <time>2011-03-27T14:30:31Z</time>
      </trkpt>
      <trkpt lat="43.96286" lon="5.27275">
        <ele>528</ele>
        <time>2011-03-27T14:30:36Z</time>
      </trkpt>
      <trkpt lat="43.96278" lon="5.27279">
        <ele>528</ele>
        <time>2011-03-27T14:30:41Z</time>
      </trkpt>
      <trkpt lat="43.96271" lon="5.27283">
        <ele>529</ele>
        <time>2011-03-27T14:30:46Z</time>
      </trkpt>
      <trkpt lat="43.96264" lon="5.27286">
        <ele>528</ele>
        <time>2011-03-27T14:30:52Z</time>
      </trkpt>
      <trkpt lat="43.96257" lon="5.2729">
        <ele>528</ele>
        <time>2011-03-27T14:30:57Z</time>
      </trkpt>
      <trkpt lat="43.96255" lon="5.27291">
        <ele>528</ele>
        <time>2011-03-27T14:30:58Z</time>
      </trkpt>
      <trkpt lat="43.96242" lon="5.27298">
        <ele>526</ele>
        <time>2011-03-27T14:31:06Z</time>
      </trkpt>
      <trkpt lat="43.96234" lon="5.27303">
        <ele>526</ele>
        <time>2011-03-27T14:31:11Z</time>
      </trkpt>
      <trkpt lat="43.96225" lon="5.27308">
        <ele>525</ele>
        <time>2011-03-27T14:31:16Z</time>
      </trkpt>
      <trkpt lat="43.96217" lon="5.27312">
        <ele>526</ele>
        <time>2011-03-27T14:31:21Z</time>
      </trkpt>
      <trkpt lat="43.96209" lon="5.27317">
        <ele>526</ele>
        <time>2011-03-27T14:31:26Z</time>
      </trkpt>
      <trkpt lat="43.96201" lon="5.27322">
        <ele>524</ele>
        <time>2011-03-27T14:31:31Z</time>
      </trkpt>
      <trkpt lat="43.96193" lon="5.27327">
        <ele>525</ele>
        <time>2011-03-27T14:31:36Z</time>
      </trkpt>
      <trkpt lat="43.96186" lon="5.27331">
        <ele>525</ele>
        <time>2011-03-27T14:31:41Z</time>
      </trkpt>
      <trkpt lat="43.96179" lon="5.27338">
        <ele>525</ele>
        <time>2011-03-27T14:31:46Z</time>
      </trkpt>
      <trkpt lat="43.96174" lon="5.27347">
        <ele>526</ele>
        <time>2011-03-27T14:31:51Z</time>
      </trkpt>
      <trkpt lat="43.9617" lon="5.27356">
        <ele>527</ele>
        <time>2011-03-27T14:31:55Z</time>
      </trkpt>
      <trkpt lat="43.96167" lon="5.27366">
        <ele>529</ele>
        <time>2011-03-27T14:32:00Z</time>
      </trkpt>
      <trkpt lat="43.96167" lon="5.27368">
        <ele>529</ele>
        <time>2011-03-27T14:32:01Z</time>
      </trkpt>
      <trkpt lat="43.96173" lon="5.27387">
        <ele>530</ele>
        <time>2011-03-27T14:32:10Z</time>
      </trkpt>
      <trkpt lat="43.96177" lon="5.27398">
        <ele>530</ele>
        <time>2011-03-27T14:32:15Z</time>
      </trkpt>
      <trkpt lat="43.96179" lon="5.27409">
        <ele>531</ele>
        <time>2011-03-27T14:32:20Z</time>
      </trkpt>
      <trkpt lat="43.96181" lon="5.27421">
        <ele>530</ele>
        <time>2011-03-27T14:32:25Z</time>
      </trkpt>
      <trkpt lat="43.96182" lon="5.27433">
        <ele>530</ele>
        <time>2011-03-27T14:32:30Z</time>
      </trkpt>
      <trkpt lat="43.96183" lon="5.27444">
        <ele>531</ele>
        <time>2011-03-27T14:32:35Z</time>
      </trkpt>
      <trkpt lat="43.96184" lon="5.27456">
        <ele>532</ele>
        <time>2011-03-27T14:32:41Z</time>
      </trkpt>
      <trkpt lat="43.96185" lon="5.27468">
        <ele>533</ele>
        <time>2011-03-27T14:32:47Z</time>
      </trkpt>
      <trkpt lat="43.96187" lon="5.2748">
        <ele>534</ele>
        <time>2011-03-27T14:32:53Z</time>
      </trkpt>
      <trkpt lat="43.96189" lon="5.2749">
        <ele>535</ele>
        <time>2011-03-27T14:32:59Z</time>
      </trkpt>
      <trkpt lat="43.96193" lon="5.275">
        <ele>536</ele>
        <time>2011-03-27T14:33:05Z</time>
      </trkpt>
      <trkpt lat="43.96194" lon="5.27502">
        <ele>536</ele>
        <time>2011-03-27T14:33:06Z</time>
      </trkpt>
      <trkpt lat="43.96206" lon="5.27516">
        <ele>540</ele>
        <time>2011-03-27T14:33:17Z</time>
      </trkpt>
      <trkpt lat="43.96211" lon="5.27526">
        <ele>543</ele>
        <time>2011-03-27T14:33:23Z</time>
      </trkpt>
      <trkpt lat="43.96211" lon="5.27538">
        <ele>544</ele>
        <time>2011-03-27T14:33:29Z</time>
      </trkpt>
      <trkpt lat="43.96208" lon="5.27549">
        <ele>544</ele>
        <time>2011-03-27T14:33:36Z</time>
      </trkpt>
      <trkpt lat="43.96205" lon="5.27559">
        <ele>545</ele>
        <time>2011-03-27T14:33:41Z</time>
      </trkpt>
      <trkpt lat="43.96204" lon="5.2757">
        <ele>548</ele>
        <time>2011-03-27T14:33:46Z</time>
      </trkpt>
      <trkpt lat="43.96203" lon="5.27581">
        <ele>548</ele>
        <time>2011-03-27T14:33:52Z</time>
      </trkpt>
      <trkpt lat="43.96203" lon="5.27593">
        <ele>550</ele>
        <time>2011-03-27T14:33:57Z</time>
      </trkpt>
      <trkpt lat="43.96207" lon="5.27604">
        <ele>551</ele>
        <time>2011-03-27T14:34:03Z</time>
      </trkpt>
      <trkpt lat="43.96209" lon="5.27615">
        <ele>553</ele>
        <time>2011-03-27T14:34:09Z</time>
      </trkpt>
      <trkpt lat="43.9621" lon="5.27617">
        <ele>554</ele>
        <time>2011-03-27T14:34:10Z</time>
      </trkpt>
      <trkpt lat="43.96213" lon="5.27638">
        <ele>555</ele>
        <time>2011-03-27T14:34:21Z</time>
      </trkpt>
      <trkpt lat="43.96214" lon="5.2765">
        <ele>557</ele>
        <time>2011-03-27T14:35:35Z</time>
      </trkpt>
      <trkpt lat="43.96214" lon="5.27651">
        <ele>557</ele>
        <time>2011-03-27T14:35:36Z</time>
      </trkpt>
      <trkpt lat="43.96207" lon="5.27672">
        <ele>556</ele>
        <time>2011-03-27T14:35:50Z</time>
      </trkpt>
      <trkpt lat="43.96204" lon="5.27684">
        <ele>556</ele>
        <time>2011-03-27T14:35:56Z</time>
      </trkpt>
      <trkpt lat="43.96201" lon="5.27696">
        <ele>556</ele>
        <time>2011-03-27T14:36:02Z</time>
      </trkpt>
      <trkpt lat="43.96199" lon="5.27706">
        <ele>556</ele>
        <time>2011-03-27T14:36:07Z</time>
      </trkpt>
      <trkpt lat="43.96198" lon="5.27716">
        <ele>557</ele>
        <time>2011-03-27T14:36:12Z</time>
      </trkpt>
      <trkpt lat="43.96199" lon="5.27727">
        <ele>559</ele>
        <time>2011-03-27T14:36:17Z</time>
      </trkpt>
      <trkpt lat="43.96201" lon="5.27737">
        <ele>559</ele>
        <time>2011-03-27T14:36:22Z</time>
      </trkpt>
      <trkpt lat="43.96204" lon="5.27749">
        <ele>559</ele>
        <time>2011-03-27T14:36:28Z</time>
      </trkpt>
      <trkpt lat="43.96207" lon="5.2776">
        <ele>560</ele>
        <time>2011-03-27T14:36:34Z</time>
      </trkpt>
      <trkpt lat="43.96213" lon="5.27769">
        <ele>562</ele>
        <time>2011-03-27T14:36:40Z</time>
      </trkpt>
      <trkpt lat="43.96214" lon="5.27771">
        <ele>562</ele>
        <time>2011-03-27T14:36:41Z</time>
      </trkpt>
      <trkpt lat="43.96227" lon="5.27771">
        <ele>564</ele>
        <time>2011-03-27T14:36:51Z</time>
      </trkpt>
      <trkpt lat="43.96234" lon="5.27762">
        <ele>565</ele>
        <time>2011-03-27T14:36:57Z</time>
      </trkpt>
      <trkpt lat="43.96235" lon="5.2775">
        <ele>567</ele>
        <time>2011-03-27T14:39:48Z</time>
      </trkpt>
      <trkpt lat="43.96234" lon="5.27749">
        <ele>567</ele>
        <time>2011-03-27T14:39:49Z</time>
      </trkpt>
      <trkpt lat="43.96243" lon="5.27732">
        <ele>568</ele>
        <time>2011-03-27T14:40:06Z</time>
      </trkpt>
      <trkpt lat="43.96251" lon="5.27733">
        <ele>569</ele>
        <time>2011-03-27T14:40:12Z</time>
      </trkpt>
      <trkpt lat="43.96258" lon="5.27738">
        <ele>569</ele>
        <time>2011-03-27T14:40:17Z</time>
      </trkpt>
      <trkpt lat="43.96265" lon="5.27744">
        <ele>570</ele>
        <time>2011-03-27T14:40:23Z</time>
      </trkpt>
      <trkpt lat="43.96273" lon="5.27748">
        <ele>571</ele>
        <time>2011-03-27T14:40:29Z</time>
      </trkpt>
      <trkpt lat="43.96282" lon="5.27751">
        <ele>572</ele>
        <time>2011-03-27T14:40:35Z</time>
      </trkpt>
      <trkpt lat="43.96289" lon="5.27758">
        <ele>573</ele>
        <time>2011-03-27T14:40:42Z</time>
      </trkpt>
      <trkpt lat="43.96293" lon="5.27768">
        <ele>574</ele>
        <time>2011-03-27T14:40:48Z</time>
      </trkpt>
      <trkpt lat="43.96297" lon="5.27779">
        <ele>574</ele>
        <time>2011-03-27T14:40:54Z</time>
      </trkpt>
      <trkpt lat="43.96297" lon="5.2778">
        <ele>574</ele>
        <time>2011-03-27T14:40:55Z</time>
      </trkpt>
      <trkpt lat="43.96305" lon="5.27798">
        <ele>576</ele>
        <time>2011-03-27T14:41:05Z</time>
      </trkpt>
      <trkpt lat="43.96308" lon="5.27809">
        <ele>576</ele>
        <time>2011-03-27T14:41:10Z</time>
      </trkpt>
      <trkpt lat="43.96311" lon="5.27819">
        <ele>577</ele>
        <time>2011-03-27T14:41:15Z</time>
      </trkpt>
      <trkpt lat="43.96314" lon="5.27829">
        <ele>577</ele>
        <time>2011-03-27T14:41:20Z</time>
      </trkpt>
      <trkpt lat="43.96316" lon="5.2784">
        <ele>577</ele>
        <time>2011-03-27T14:41:25Z</time>
      </trkpt>
      <trkpt lat="43.9632" lon="5.27849">
        <ele>577</ele>
        <time>2011-03-27T14:41:30Z</time>
      </trkpt>
      <trkpt lat="43.96326" lon="5.27859">
        <ele>578</ele>
        <time>2011-03-27T14:41:35Z</time>
      </trkpt>
      <trkpt lat="43.96332" lon="5.27867">
        <ele>578</ele>
        <time>2011-03-27T14:41:40Z</time>
      </trkpt>
      <trkpt lat="43.96337" lon="5.27876">
        <ele>578</ele>
        <time>2011-03-27T14:41:45Z</time>
      </trkpt>
      <trkpt lat="43.96342" lon="5.27885">
        <ele>578</ele>
        <time>2011-03-27T14:41:50Z</time>
      </trkpt>
      <trkpt lat="43.96347" lon="5.27893">
        <ele>578</ele>
        <time>2011-03-27T14:41:55Z</time>
      </trkpt>
      <trkpt lat="43.96348" lon="5.27895">
        <ele>578</ele>
        <time>2011-03-27T14:41:56Z</time>
      </trkpt>
      <trkpt lat="43.96357" lon="5.2791">
        <ele>578</ele>
        <time>2011-03-27T14:42:05Z</time>
      </trkpt>
      <trkpt lat="43.96361" lon="5.27919">
        <ele>579</ele>
        <time>2011-03-27T14:42:10Z</time>
      </trkpt>
      <trkpt lat="43.96367" lon="5.27927">
        <ele>580</ele>
        <time>2011-03-27T14:42:15Z</time>
      </trkpt>
      <trkpt lat="43.96372" lon="5.27935">
        <ele>580</ele>
        <time>2011-03-27T14:42:20Z</time>
      </trkpt>
      <trkpt lat="43.96378" lon="5.27943">
        <ele>580</ele>
        <time>2011-03-27T14:42:25Z</time>
      </trkpt>
      <trkpt lat="43.96383" lon="5.2795">
        <ele>580</ele>
        <time>2011-03-27T14:42:30Z</time>
      </trkpt>
      <trkpt lat="43.96389" lon="5.27957">
        <ele>581</ele>
        <time>2011-03-27T14:42:35Z</time>
      </trkpt>
      <trkpt lat="43.96396" lon="5.27965">
        <ele>582</ele>
        <time>2011-03-27T14:42:41Z</time>
      </trkpt>
      <trkpt lat="43.96401" lon="5.27974">
        <ele>584</ele>
        <time>2011-03-27T14:42:47Z</time>
      </trkpt>
      <trkpt lat="43.96405" lon="5.27985">
        <ele>584</ele>
        <time>2011-03-27T14:42:53Z</time>
      </trkpt>
      <trkpt lat="43.9641" lon="5.27996">
        <ele>584</ele>
        <time>2011-03-27T14:42:59Z</time>
      </trkpt>
      <trkpt lat="43.9641" lon="5.27998">
        <ele>584</ele>
        <time>2011-03-27T14:43:00Z</time>
      </trkpt>
      <trkpt lat="43.9642" lon="5.28015">
        <ele>586</ele>
        <time>2011-03-27T14:43:11Z</time>
      </trkpt>
      <trkpt lat="43.96425" lon="5.28024">
        <ele>587</ele>
        <time>2011-03-27T14:43:17Z</time>
      </trkpt>
      <trkpt lat="43.9643" lon="5.28033">
        <ele>588</ele>
        <time>2011-03-27T14:43:23Z</time>
      </trkpt>
      <trkpt lat="43.96436" lon="5.28042">
        <ele>588</ele>
        <time>2011-03-27T14:43:29Z</time>
      </trkpt>
      <trkpt lat="43.96442" lon="5.2805">
        <ele>588</ele>
        <time>2011-03-27T14:43:34Z</time>
      </trkpt>
      <trkpt lat="43.96447" lon="5.28059">
        <ele>588</ele>
        <time>2011-03-27T14:43:39Z</time>
      </trkpt>
      <trkpt lat="43.96453" lon="5.28066">
        <ele>588</ele>
        <time>2011-03-27T14:43:44Z</time>
      </trkpt>
      <trkpt lat="43.9646" lon="5.28074">
        <ele>589</ele>
        <time>2011-03-27T14:43:50Z</time>
      </trkpt>
      <trkpt lat="43.96466" lon="5.28081">
        <ele>590</ele>
        <time>2011-03-27T14:43:55Z</time>
      </trkpt>
      <trkpt lat="43.96472" lon="5.28088">
        <ele>590</ele>
        <time>2011-03-27T14:44:00Z</time>
      </trkpt>
      <trkpt lat="43.96479" lon="5.28096">
        <ele>590</ele>
        <time>2011-03-27T14:44:06Z</time>
      </trkpt>
      <trkpt lat="43.9648" lon="5.28097">
        <ele>590</ele>
        <time>2011-03-27T14:44:07Z</time>
      </trkpt>
      <trkpt lat="43.96491" lon="5.2811">
        <ele>591</ele>
        <time>2011-03-27T14:44:16Z</time>
      </trkpt>
      <trkpt lat="43.96497" lon="5.28117">
        <ele>590</ele>
        <time>2011-03-27T14:44:21Z</time>
      </trkpt>
      <trkpt lat="43.96503" lon="5.28125">
        <ele>590</ele>
        <time>2011-03-27T14:44:26Z</time>
      </trkpt>
      <trkpt lat="43.96509" lon="5.28132">
        <ele>590</ele>
        <time>2011-03-27T14:44:31Z</time>
      </trkpt>
      <trkpt lat="43.96516" lon="5.28139">
        <ele>591</ele>
        <time>2011-03-27T14:44:37Z</time>
      </trkpt>
      <trkpt lat="43.96522" lon="5.28146">
        <ele>591</ele>
        <time>2011-03-27T14:44:42Z</time>
      </trkpt>
      <trkpt lat="43.96528" lon="5.28154">
        <ele>592</ele>
        <time>2011-03-27T14:44:47Z</time>
      </trkpt>
      <trkpt lat="43.96534" lon="5.28162">
        <ele>592</ele>
        <time>2011-03-27T14:44:52Z</time>
      </trkpt>
      <trkpt lat="43.96538" lon="5.28171">
        <ele>591</ele>
        <time>2011-03-27T14:44:57Z</time>
      </trkpt>
      <trkpt lat="43.96542" lon="5.2818">
        <ele>592</ele>
        <time>2011-03-27T14:45:02Z</time>
      </trkpt>
      <trkpt lat="43.96546" lon="5.2819">
        <ele>592</ele>
        <time>2011-03-27T14:45:07Z</time>
      </trkpt>
      <trkpt lat="43.96546" lon="5.28192">
        <ele>592</ele>
        <time>2011-03-27T14:45:08Z</time>
      </trkpt>
      <trkpt lat="43.96554" lon="5.28211">
        <ele>592</ele>
        <time>2011-03-27T14:45:18Z</time>
      </trkpt>
      <trkpt lat="43.96558" lon="5.28221">
        <ele>592</ele>
        <time>2011-03-27T14:45:23Z</time>
      </trkpt>
      <trkpt lat="43.96561" lon="5.28231">
        <ele>593</ele>
        <time>2011-03-27T14:45:28Z</time>
      </trkpt>
      <trkpt lat="43.96565" lon="5.2824">
        <ele>594</ele>
        <time>2011-03-27T14:45:33Z</time>
      </trkpt>
      <trkpt lat="43.96569" lon="5.2825">
        <ele>593</ele>
        <time>2011-03-27T14:45:38Z</time>
      </trkpt>
      <trkpt lat="43.96574" lon="5.28259">
        <ele>594</ele>
        <time>2011-03-27T14:45:43Z</time>
      </trkpt>
      <trkpt lat="43.9658" lon="5.28267">
        <ele>594</ele>
        <time>2011-03-27T14:45:48Z</time>
      </trkpt>
      <trkpt lat="43.96585" lon="5.28275">
        <ele>593</ele>
        <time>2011-03-27T14:45:53Z</time>
      </trkpt>
      <trkpt lat="43.9659" lon="5.28284">
        <ele>593</ele>
        <time>2011-03-27T14:45:58Z</time>
      </trkpt>
      <trkpt lat="43.96595" lon="5.28293">
        <ele>592</ele>
        <time>2011-03-27T14:46:03Z</time>
      </trkpt>
      <trkpt lat="43.966" lon="5.28302">
        <ele>593</ele>
        <time>2011-03-27T14:46:08Z</time>
      </trkpt>
      <trkpt lat="43.96605" lon="5.2831">
        <ele>592</ele>
        <time>2011-03-27T14:46:13Z</time>
      </trkpt>
      <trkpt lat="43.96606" lon="5.28312">
        <ele>592</ele>
        <time>2011-03-27T14:46:14Z</time>
      </trkpt>
      <trkpt lat="43.96616" lon="5.28326">
        <ele>593</ele>
        <time>2011-03-27T14:46:23Z</time>
      </trkpt>
      <trkpt lat="43.96622" lon="5.28333">
        <ele>593</ele>
        <time>2011-03-27T14:46:28Z</time>
      </trkpt>
      <trkpt lat="43.96628" lon="5.2834">
        <ele>592</ele>
        <time>2011-03-27T14:46:33Z</time>
      </trkpt>
      <trkpt lat="43.96633" lon="5.28348">
        <ele>592</ele>
        <time>2011-03-27T14:46:38Z</time>
      </trkpt>
      <trkpt lat="43.96639" lon="5.28356">
        <ele>592</ele>
        <time>2011-03-27T14:46:43Z</time>
      </trkpt>
      <trkpt lat="43.96645" lon="5.28362">
        <ele>591</ele>
        <time>2011-03-27T14:46:48Z</time>
      </trkpt>
      <trkpt lat="43.96653" lon="5.28369">
        <ele>591</ele>
        <time>2011-03-27T14:46:54Z</time>
      </trkpt>
      <trkpt lat="43.96659" lon="5.28377">
        <ele>590</ele>
        <time>2011-03-27T14:47:06Z</time>
      </trkpt>
      <trkpt lat="43.96668" lon="5.28374">
        <ele>590</ele>
        <time>2011-03-27T14:47:22Z</time>
      </trkpt>
      <trkpt lat="43.96669" lon="5.28374">
        <ele>590</ele>
        <time>2011-03-27T14:47:23Z</time>
      </trkpt>
      <trkpt lat="43.96684" lon="5.28369">
        <ele>590</ele>
        <time>2011-03-27T14:47:34Z</time>
      </trkpt>
      <trkpt lat="43.96692" lon="5.28364">
        <ele>589</ele>
        <time>2011-03-27T14:47:40Z</time>
      </trkpt>
      <trkpt lat="43.96699" lon="5.28359">
        <ele>588</ele>
        <time>2011-03-27T14:47:46Z</time>
      </trkpt>
      <trkpt lat="43.96707" lon="5.28354">
        <ele>588</ele>
        <time>2011-03-27T14:47:52Z</time>
      </trkpt>
      <trkpt lat="43.96715" lon="5.28352">
        <ele>588</ele>
        <time>2011-03-27T14:48:42Z</time>
      </trkpt>
      <trkpt lat="43.96716" lon="5.28351">
        <ele>588</ele>
        <time>2011-03-27T14:48:43Z</time>
      </trkpt>
      <trkpt lat="43.9673" lon="5.28341">
        <ele>588</ele>
        <time>2011-03-27T14:48:54Z</time>
      </trkpt>
      <trkpt lat="43.96738" lon="5.28338">
        <ele>588</ele>
        <time>2011-03-27T14:49:00Z</time>
      </trkpt>
      <trkpt lat="43.96745" lon="5.28336">
        <ele>588</ele>
        <time>2011-03-27T14:49:06Z</time>
      </trkpt>
      <trkpt lat="43.96753" lon="5.28332">
        <ele>590</ele>
        <time>2011-03-27T14:49:12Z</time>
      </trkpt>
      <trkpt lat="43.96761" lon="5.2833">
        <ele>589</ele>
        <time>2011-03-27T14:49:18Z</time>
      </trkpt>
      <trkpt lat="43.96769" lon="5.28328">
        <ele>589</ele>
        <time>2011-03-27T14:49:24Z</time>
      </trkpt>
      <trkpt lat="43.96778" lon="5.28327">
        <ele>591</ele>
        <time>2011-03-27T14:49:30Z</time>
      </trkpt>
      <trkpt lat="43.96786" lon="5.28326">
        <ele>591</ele>
        <time>2011-03-27T14:49:36Z</time>
      </trkpt>
      <trkpt lat="43.96794" lon="5.28325">
        <ele>592</ele>
        <time>2011-03-27T14:49:42Z</time>
      </trkpt>
      <trkpt lat="43.96802" lon="5.28326">
        <ele>592</ele>
        <time>2011-03-27T14:49:48Z</time>
      </trkpt>
      <trkpt lat="43.96803" lon="5.28326">
        <ele>592</ele>
        <time>2011-03-27T14:49:49Z</time>
      </trkpt>
      <trkpt lat="43.96817" lon="5.28333">
        <ele>591</ele>
        <time>2011-03-27T14:49:58Z</time>
      </trkpt>
      <trkpt lat="43.96824" lon="5.28338">
        <ele>592</ele>
        <time>2011-03-27T14:50:03Z</time>
      </trkpt>
      <trkpt lat="43.96831" lon="5.28345">
        <ele>591</ele>
        <time>2011-03-27T14:50:08Z</time>
      </trkpt>
      <trkpt lat="43.96837" lon="5.28352">
        <ele>591</ele>
        <time>2011-03-27T14:50:13Z</time>
      </trkpt>
      <trkpt lat="43.96843" lon="5.28359">
        <ele>592</ele>
        <time>2011-03-27T14:50:18Z</time>
      </trkpt>
      <trkpt lat="43.96849" lon="5.28367">
        <ele>592</ele>
        <time>2011-03-27T14:50:23Z</time>
      </trkpt>
      <trkpt lat="43.96854" lon="5.28375">
        <ele>592</ele>
        <time>2011-03-27T14:50:28Z</time>
      </trkpt>
      <trkpt lat="43.9686" lon="5.28384">
        <ele>591</ele>
        <time>2011-03-27T14:50:35Z</time>
      </trkpt>
      <trkpt lat="43.96865" lon="5.28394">
        <ele>591</ele>
        <time>2011-03-27T14:50:41Z</time>
      </trkpt>
      <trkpt lat="43.96869" lon="5.28404">
        <ele>592</ele>
        <time>2011-03-27T14:50:47Z</time>
      </trkpt>
      <trkpt lat="43.96873" lon="5.28414">
        <ele>592</ele>
        <time>2011-03-27T14:50:52Z</time>
      </trkpt>
      <trkpt lat="43.96873" lon="5.28416">
        <ele>592</ele>
        <time>2011-03-27T14:50:53Z</time>
      </trkpt>
      <trkpt lat="43.9688" lon="5.28434">
        <ele>592</ele>
        <time>2011-03-27T14:51:03Z</time>
      </trkpt>
      <trkpt lat="43.96885" lon="5.28444">
        <ele>592</ele>
        <time>2011-03-27T14:51:09Z</time>
      </trkpt>
      <trkpt lat="43.9689" lon="5.28453">
        <ele>593</ele>
        <time>2011-03-27T14:51:15Z</time>
      </trkpt>
      <trkpt lat="43.96894" lon="5.28464">
        <ele>592</ele>
        <time>2011-03-27T14:51:21Z</time>
      </trkpt>
      <trkpt lat="43.96899" lon="5.28474">
        <ele>594</ele>
        <time>2011-03-27T14:51:27Z</time>
      </trkpt>
      <trkpt lat="43.96904" lon="5.28485">
        <ele>592</ele>
        <time>2011-03-27T14:51:33Z</time>
      </trkpt>
      <trkpt lat="43.96908" lon="5.28494">
        <ele>592</ele>
        <time>2011-03-27T14:51:38Z</time>
      </trkpt>
      <trkpt lat="43.96911" lon="5.28504">
        <ele>592</ele>
        <time>2011-03-27T14:51:43Z</time>
      </trkpt>
      <trkpt lat="43.96914" lon="5.28515">
        <ele>593</ele>
        <time>2011-03-27T14:51:48Z</time>
      </trkpt>
      <trkpt lat="43.96916" lon="5.28526">
        <ele>594</ele>
        <time>2011-03-27T14:51:53Z</time>
      </trkpt>
      <trkpt lat="43.96919" lon="5.28536">
        <ele>594</ele>
        <time>2011-03-27T14:51:58Z</time>
      </trkpt>
      <trkpt lat="43.96919" lon="5.28538">
        <ele>594</ele>
        <time>2011-03-27T14:51:59Z</time>
      </trkpt>
      <trkpt lat="43.9692" lon="5.28561">
        <ele>595</ele>
        <time>2011-03-27T14:52:10Z</time>
      </trkpt>
      <trkpt lat="43.9692" lon="5.28572">
        <ele>596</ele>
        <time>2011-03-27T14:52:16Z</time>
      </trkpt>
      <trkpt lat="43.96922" lon="5.28584">
        <ele>596</ele>
        <time>2011-03-27T14:52:22Z</time>
      </trkpt>
      <trkpt lat="43.96925" lon="5.28594">
        <ele>596</ele>
        <time>2011-03-27T14:52:27Z</time>
      </trkpt>
      <trkpt lat="43.96927" lon="5.28604">
        <ele>597</ele>
        <time>2011-03-27T14:52:32Z</time>
      </trkpt>
      <trkpt lat="43.9693" lon="5.28615">
        <ele>598</ele>
        <time>2011-03-27T14:52:37Z</time>
      </trkpt>
      <trkpt lat="43.96932" lon="5.28627">
        <ele>597</ele>
        <time>2011-03-27T14:52:43Z</time>
      </trkpt>
      <trkpt lat="43.96936" lon="5.28636">
        <ele>597</ele>
        <time>2011-03-27T14:52:48Z</time>
      </trkpt>
      <trkpt lat="43.9694" lon="5.28646">
        <ele>597</ele>
        <time>2011-03-27T14:52:53Z</time>
      </trkpt>
      <trkpt lat="43.96944" lon="5.28655">
        <ele>597</ele>
        <time>2011-03-27T14:52:58Z</time>
      </trkpt>
      <trkpt lat="43.96948" lon="5.28665">
        <ele>598</ele>
        <time>2011-03-27T14:53:03Z</time>
      </trkpt>
      <trkpt lat="43.96949" lon="5.28667">
        <ele>598</ele>
        <time>2011-03-27T14:53:04Z</time>
      </trkpt>
      <trkpt lat="43.96957" lon="5.28685">
        <ele>598</ele>
        <time>2011-03-27T14:53:14Z</time>
      </trkpt>
      <trkpt lat="43.96961" lon="5.28694">
        <ele>598</ele>
        <time>2011-03-27T14:53:19Z</time>
      </trkpt>
      <trkpt lat="43.96965" lon="5.28703">
        <ele>598</ele>
        <time>2011-03-27T14:53:24Z</time>
      </trkpt>
      <trkpt lat="43.9697" lon="5.28713">
        <ele>598</ele>
        <time>2011-03-27T14:53:29Z</time>
      </trkpt>
      <trkpt lat="43.96974" lon="5.28722">
        <ele>597</ele>
        <time>2011-03-27T14:53:34Z</time>
      </trkpt>
      <trkpt lat="43.96978" lon="5.28731">
        <ele>598</ele>
        <time>2011-03-27T14:53:39Z</time>
      </trkpt>
      <trkpt lat="43.96982" lon="5.2874">
        <ele>599</ele>
        <time>2011-03-27T14:53:44Z</time>
      </trkpt>
      <trkpt lat="43.96986" lon="5.2875">
        <ele>599</ele>
        <time>2011-03-27T14:53:49Z</time>
      </trkpt>
      <trkpt lat="43.9699" lon="5.28761">
        <ele>599</ele>
        <time>2011-03-27T14:53:55Z</time>
      </trkpt>
      <trkpt lat="43.96995" lon="5.2877">
        <ele>598</ele>
        <time>2011-03-27T14:54:15Z</time>
      </trkpt>
      <trkpt lat="43.96996" lon="5.28772">
        <ele>598</ele>
        <time>2011-03-27T14:54:16Z</time>
      </trkpt>
      <trkpt lat="43.97003" lon="5.2879">
        <ele>599</ele>
        <time>2011-03-27T14:54:27Z</time>
      </trkpt>
      <trkpt lat="43.97007" lon="5.28801">
        <ele>598</ele>
        <time>2011-03-27T14:54:33Z</time>
      </trkpt>
      <trkpt lat="43.97012" lon="5.2881">
        <ele>598</ele>
        <time>2011-03-27T14:54:39Z</time>
      </trkpt>
      <trkpt lat="43.97017" lon="5.28819">
        <ele>599</ele>
        <time>2011-03-27T14:54:45Z</time>
      </trkpt>
      <trkpt lat="43.97022" lon="5.28828">
        <ele>598</ele>
        <time>2011-03-27T14:54:50Z</time>
      </trkpt>
      <trkpt lat="43.97027" lon="5.28838">
        <ele>598</ele>
        <time>2011-03-27T14:54:56Z</time>
      </trkpt>
      <trkpt lat="43.97031" lon="5.28846">
        <ele>599</ele>
        <time>2011-03-27T14:55:01Z</time>
      </trkpt>
      <trkpt lat="43.97036" lon="5.28857">
        <ele>598</ele>
        <time>2011-03-27T14:55:07Z</time>
      </trkpt>
      <trkpt lat="43.9704" lon="5.28866">
        <ele>598</ele>
        <time>2011-03-27T14:55:12Z</time>
      </trkpt>
      <trkpt lat="43.97044" lon="5.28874">
        <ele>598</ele>
        <time>2011-03-27T14:55:17Z</time>
      </trkpt>
      <trkpt lat="43.97045" lon="5.28876">
        <ele>597</ele>
        <time>2011-03-27T14:55:18Z</time>
      </trkpt>
      <trkpt lat="43.97055" lon="5.28892">
        <ele>598</ele>
        <time>2011-03-27T14:55:28Z</time>
      </trkpt>
      <trkpt lat="43.9706" lon="5.28901">
        <ele>598</ele>
        <time>2011-03-27T14:55:33Z</time>
      </trkpt>
      <trkpt lat="43.97065" lon="5.2891">
        <ele>597</ele>
        <time>2011-03-27T14:55:38Z</time>
      </trkpt>
      <trkpt lat="43.9707" lon="5.28918">
        <ele>597</ele>
        <time>2011-03-27T14:55:43Z</time>
      </trkpt>
      <trkpt lat="43.97075" lon="5.28925">
        <ele>596</ele>
        <time>2011-03-27T14:55:48Z</time>
      </trkpt>
      <trkpt lat="43.9708" lon="5.28933">
        <ele>597</ele>
        <time>2011-03-27T14:55:53Z</time>
      </trkpt>
      <trkpt lat="43.97086" lon="5.2894">
        <ele>597</ele>
        <time>2011-03-27T14:55:58Z</time>
      </trkpt>
      <trkpt lat="43.97092" lon="5.28949">
        <ele>596</ele>
        <time>2011-03-27T14:56:04Z</time>
      </trkpt>
      <trkpt lat="43.97094" lon="5.2896">
        <ele>596</ele>
        <time>2011-03-27T14:56:10Z</time>
      </trkpt>
      <trkpt lat="43.97094" lon="5.28972">
        <ele>596</ele>
        <time>2011-03-27T14:56:16Z</time>
      </trkpt>
      <trkpt lat="43.97097" lon="5.28983">
        <ele>597</ele>
        <time>2011-03-27T14:56:22Z</time>
      </trkpt>
      <trkpt lat="43.97097" lon="5.28984">
        <ele>597</ele>
        <time>2011-03-27T14:56:23Z</time>
      </trkpt>
      <trkpt lat="43.97103" lon="5.29005">
        <ele>598</ele>
        <time>2011-03-27T14:56:35Z</time>
      </trkpt>
      <trkpt lat="43.97106" lon="5.29015">
        <ele>598</ele>
        <time>2011-03-27T14:56:41Z</time>
      </trkpt>
      <trkpt lat="43.97109" lon="5.29025">
        <ele>597</ele>
        <time>2011-03-27T14:56:47Z</time>
      </trkpt>
      <trkpt lat="43.97115" lon="5.29034">
        <ele>596</ele>
        <time>2011-03-27T14:56:53Z</time>
      </trkpt>
      <trkpt lat="43.9712" lon="5.29043">
        <ele>596</ele>
        <time>2011-03-27T14:57:00Z</time>
      </trkpt>
      <trkpt lat="43.97126" lon="5.29052">
        <ele>595</ele>
        <time>2011-03-27T14:57:07Z</time>
      </trkpt>
      <trkpt lat="43.97134" lon="5.29057">
        <ele>595</ele>
        <time>2011-03-27T14:57:13Z</time>
      </trkpt>
      <trkpt lat="43.97142" lon="5.29062">
        <ele>595</ele>
        <time>2011-03-27T14:57:19Z</time>
      </trkpt>
      <trkpt lat="43.97149" lon="5.29067">
        <ele>593</ele>
        <time>2011-03-27T14:57:25Z</time>
      </trkpt>
      <trkpt lat="43.97151" lon="5.29068">
        <ele>593</ele>
        <time>2011-03-27T14:57:26Z</time>
      </trkpt>
      <trkpt lat="43.97165" lon="5.29077">
        <ele>592</ele>
        <time>2011-03-27T14:57:37Z</time>
      </trkpt>
      <trkpt lat="43.97171" lon="5.29082">
        <ele>592</ele>
        <time>2011-03-27T14:57:42Z</time>
      </trkpt>
      <trkpt lat="43.97177" lon="5.29089">
        <ele>591</ele>
        <time>2011-03-27T14:57:47Z</time>
      </trkpt>
      <trkpt lat="43.97182" lon="5.29097">
        <ele>590</ele>
        <time>2011-03-27T14:57:53Z</time>
      </trkpt>
      <trkpt lat="43.97187" lon="5.29106">
        <ele>590</ele>
        <time>2011-03-27T14:57:59Z</time>
      </trkpt>
      <trkpt lat="43.97191" lon="5.29117">
        <ele>589</ele>
        <time>2011-03-27T14:58:06Z</time>
      </trkpt>
      <trkpt lat="43.97195" lon="5.29128">
        <ele>588</ele>
        <time>2011-03-27T14:58:13Z</time>
      </trkpt>
      <trkpt lat="43.97199" lon="5.29138">
        <ele>588</ele>
        <time>2011-03-27T14:58:20Z</time>
      </trkpt>
      <trkpt lat="43.972" lon="5.29149">
        <ele>587</ele>
        <time>2011-03-27T14:58:26Z</time>
      </trkpt>
      <trkpt lat="43.97199" lon="5.29161">
        <ele>586</ele>
        <time>2011-03-27T14:58:33Z</time>
      </trkpt>
      <trkpt lat="43.97199" lon="5.29163">
        <ele>586</ele>
        <time>2011-03-27T14:58:34Z</time>
      </trkpt>
      <trkpt lat="43.97194" lon="5.29183">
        <ele>563</ele>
        <time>2011-03-27T14:58:46Z</time>
      </trkpt>
      <trkpt lat="43.97193" lon="5.29196">
        <ele>562</ele>
        <time>2011-03-27T14:58:53Z</time>
      </trkpt>
      <trkpt lat="43.97193" lon="5.29207">
        <ele>561</ele>
        <time>2011-03-27T14:58:59Z</time>
      </trkpt>
      <trkpt lat="43.97191" lon="5.29219">
        <ele>559</ele>
        <time>2011-03-27T14:59:06Z</time>
      </trkpt>
      <trkpt lat="43.97191" lon="5.2923">
        <ele>557</ele>
        <time>2011-03-27T14:59:12Z</time>
      </trkpt>
      <trkpt lat="43.97191" lon="5.29241">
        <ele>557</ele>
        <time>2011-03-27T14:59:18Z</time>
      </trkpt>
      <trkpt lat="43.97191" lon="5.29251">
        <ele>555</ele>
        <time>2011-03-27T14:59:24Z</time>
      </trkpt>
      <trkpt lat="43.97191" lon="5.29263">
        <ele>554</ele>
        <time>2011-03-27T14:59:30Z</time>
      </trkpt>
      <trkpt lat="43.97193" lon="5.29275">
        <ele>553</ele>
        <time>2011-03-27T14:59:36Z</time>
      </trkpt>
      <trkpt lat="43.97193" lon="5.29277">
        <ele>553</ele>
        <time>2011-03-27T14:59:37Z</time>
      </trkpt>
      <trkpt lat="43.97197" lon="5.29295">
        <ele>550</ele>
        <time>2011-03-27T14:59:46Z</time>
      </trkpt>
      <trkpt lat="43.97202" lon="5.29305">
        <ele>550</ele>
        <time>2011-03-27T14:59:52Z</time>
      </trkpt>
      <trkpt lat="43.97208" lon="5.29312">
        <ele>550</ele>
        <time>2011-03-27T14:59:57Z</time>
      </trkpt>
      <trkpt lat="43.97215" lon="5.29317">
        <ele>548</ele>
        <time>2011-03-27T15:00:02Z</time>
      </trkpt>
      <trkpt lat="43.97222" lon="5.29324">
        <ele>547</ele>
        <time>2011-03-27T15:00:08Z</time>
      </trkpt>
      <trkpt lat="43.9723" lon="5.29331">
        <ele>546</ele>
        <time>2011-03-27T15:00:14Z</time>
      </trkpt>
      <trkpt lat="43.97237" lon="5.29336">
        <ele>545</ele>
        <time>2011-03-27T15:00:19Z</time>
      </trkpt>
      <trkpt lat="43.97243" lon="5.29344">
        <ele>544</ele>
        <time>2011-03-27T15:00:24Z</time>
      </trkpt>
      <trkpt lat="43.97245" lon="5.29354">
        <ele>543</ele>
        <time>2011-03-27T15:00:29Z</time>
      </trkpt>
      <trkpt lat="43.97246" lon="5.29367">
        <ele>542</ele>
        <time>2011-03-27T15:00:35Z</time>
      </trkpt>
      <trkpt lat="43.97243" lon="5.29377">
        <ele>541</ele>
        <time>2011-03-27T15:00:41Z</time>
      </trkpt>
      <trkpt lat="43.97243" lon="5.29379">
        <ele>541</ele>
        <time>2011-03-27T15:00:42Z</time>
      </trkpt>
      <trkpt lat="43.97236" lon="5.29399">
        <ele>540</ele>
        <time>2011-03-27T15:00:53Z</time>
      </trkpt>
      <trkpt lat="43.97232" lon="5.2941">
        <ele>540</ele>
        <time>2011-03-27T15:00:59Z</time>
      </trkpt>
      <trkpt lat="43.97228" lon="5.29421">
        <ele>540</ele>
        <time>2011-03-27T15:01:05Z</time>
      </trkpt>
      <trkpt lat="43.97222" lon="5.29431">
        <ele>539</ele>
        <time>2011-03-27T15:01:11Z</time>
      </trkpt>
      <trkpt lat="43.97217" lon="5.2944">
        <ele>539</ele>
        <time>2011-03-27T15:01:17Z</time>
      </trkpt>
      <trkpt lat="43.97211" lon="5.29449">
        <ele>540</ele>
        <time>2011-03-27T15:01:23Z</time>
      </trkpt>
      <trkpt lat="43.97206" lon="5.29457">
        <ele>540</ele>
        <time>2011-03-27T15:01:28Z</time>
      </trkpt>
      <trkpt lat="43.972" lon="5.29466">
        <ele>539</ele>
        <time>2011-03-27T15:01:34Z</time>
      </trkpt>
      <trkpt lat="43.97195" lon="5.29474">
        <ele>538</ele>
        <time>2011-03-27T15:01:40Z</time>
      </trkpt>
      <trkpt lat="43.9719" lon="5.29481">
        <ele>539</ele>
        <time>2011-03-27T15:01:45Z</time>
      </trkpt>
      <trkpt lat="43.97189" lon="5.29483">
        <ele>539</ele>
        <time>2011-03-27T15:01:46Z</time>
      </trkpt>
      <trkpt lat="43.97176" lon="5.29496">
        <ele>539</ele>
        <time>2011-03-27T15:01:58Z</time>
      </trkpt>
      <trkpt lat="43.97172" lon="5.29508">
        <ele>538</ele>
        <time>2011-03-27T15:02:47Z</time>
      </trkpt>
      <trkpt lat="43.97172" lon="5.29508">
        <ele>539</ele>
        <time>2011-03-27T15:02:48Z</time>
      </trkpt>
      <trkpt lat="43.97171" lon="5.29521">
        <ele>539</ele>
        <time>2011-03-27T15:04:12Z</time>
      </trkpt>
      <trkpt lat="43.97174" lon="5.29543">
        <ele>538</ele>
        <time>2011-03-27T15:04:25Z</time>
      </trkpt>
      <trkpt lat="43.97176" lon="5.29554">
        <ele>537</ele>
        <time>2011-03-27T15:04:31Z</time>
      </trkpt>
      <trkpt lat="43.97178" lon="5.29566">
        <ele>535</ele>
        <time>2011-03-27T15:04:38Z</time>
      </trkpt>
      <trkpt lat="43.9718" lon="5.29576">
        <ele>535</ele>
        <time>2011-03-27T15:04:44Z</time>
      </trkpt>
      <trkpt lat="43.97183" lon="5.29587">
        <ele>536</ele>
        <time>2011-03-27T15:04:50Z</time>
      </trkpt>
      <trkpt lat="43.97185" lon="5.29597">
        <ele>535</ele>
        <time>2011-03-27T15:04:56Z</time>
      </trkpt>
      <trkpt lat="43.97187" lon="5.29608">
        <ele>535</ele>
        <time>2011-03-27T15:05:02Z</time>
      </trkpt>
      <trkpt lat="43.9719" lon="5.29619">
        <ele>534</ele>
        <time>2011-03-27T15:05:08Z</time>
      </trkpt>
      <trkpt lat="43.97193" lon="5.29629">
        <ele>534</ele>
        <time>2011-03-27T15:05:14Z</time>
      </trkpt>
      <trkpt lat="43.97193" lon="5.29631">
        <ele>534</ele>
        <time>2011-03-27T15:05:15Z</time>
      </trkpt>
      <trkpt lat="43.97202" lon="5.29648">
        <ele>531</ele>
        <time>2011-03-27T15:05:26Z</time>
      </trkpt>
      <trkpt lat="43.97208" lon="5.29655">
        <ele>531</ele>
        <time>2011-03-27T15:05:31Z</time>
      </trkpt>
      <trkpt lat="43.97214" lon="5.2966">
        <ele>532</ele>
        <time>2011-03-27T15:05:36Z</time>
      </trkpt>
      <trkpt lat="43.97222" lon="5.29663">
        <ele>531</ele>
        <time>2011-03-27T15:05:41Z</time>
      </trkpt>
      <trkpt lat="43.97229" lon="5.29664">
        <ele>532</ele>
        <time>2011-03-27T15:05:46Z</time>
      </trkpt>
      <trkpt lat="43.97237" lon="5.29665">
        <ele>531</ele>
        <time>2011-03-27T15:05:51Z</time>
      </trkpt>
      <trkpt lat="43.97246" lon="5.29666">
        <ele>532</ele>
        <time>2011-03-27T15:05:56Z</time>
      </trkpt>
      <trkpt lat="43.97255" lon="5.29666">
        <ele>532</ele>
        <time>2011-03-27T15:06:02Z</time>
      </trkpt>
      <trkpt lat="43.97263" lon="5.29664">
        <ele>531</ele>
        <time>2011-03-27T15:06:08Z</time>
      </trkpt>
      <trkpt lat="43.97271" lon="5.29662">
        <ele>532</ele>
        <time>2011-03-27T15:06:13Z</time>
      </trkpt>
      <trkpt lat="43.9728" lon="5.2966">
        <ele>531</ele>
        <time>2011-03-27T15:06:19Z</time>
      </trkpt>
      <trkpt lat="43.97281" lon="5.2966">
        <ele>531</ele>
        <time>2011-03-27T15:06:20Z</time>
      </trkpt>
      <trkpt lat="43.97296" lon="5.29655">
        <ele>529</ele>
        <time>2011-03-27T15:06:32Z</time>
      </trkpt>
      <trkpt lat="43.97304" lon="5.29661">
        <ele>527</ele>
        <time>2011-03-27T15:06:43Z</time>
      </trkpt>
      <trkpt lat="43.97312" lon="5.29659">
        <ele>528</ele>
        <time>2011-03-27T15:06:48Z</time>
      </trkpt>
      <trkpt lat="43.97319" lon="5.29654">
        <ele>528</ele>
        <time>2011-03-27T15:06:53Z</time>
      </trkpt>
      <trkpt lat="43.97326" lon="5.29646">
        <ele>529</ele>
        <time>2011-03-27T15:06:59Z</time>
      </trkpt>
      <trkpt lat="43.97333" lon="5.29638">
        <ele>528</ele>
        <time>2011-03-27T15:07:04Z</time>
      </trkpt>
      <trkpt lat="43.97338" lon="5.2963">
        <ele>529</ele>
        <time>2011-03-27T15:07:09Z</time>
      </trkpt>
      <trkpt lat="43.97343" lon="5.2962">
        <ele>529</ele>
        <time>2011-03-27T15:07:15Z</time>
      </trkpt>
      <trkpt lat="43.97347" lon="5.29609">
        <ele>530</ele>
        <time>2011-03-27T15:07:21Z</time>
      </trkpt>
      <trkpt lat="43.97348" lon="5.29607">
        <ele>529</ele>
        <time>2011-03-27T15:07:22Z</time>
      </trkpt>
      <trkpt lat="43.97356" lon="5.29591">
        <ele>530</ele>
        <time>2011-03-27T15:07:31Z</time>
      </trkpt>
      <trkpt lat="43.97362" lon="5.29584">
        <ele>531</ele>
        <time>2011-03-27T15:07:36Z</time>
      </trkpt>
      <trkpt lat="43.97368" lon="5.29577">
        <ele>531</ele>
        <time>2011-03-27T15:07:42Z</time>
      </trkpt>
      <trkpt lat="43.97377" lon="5.29574">
        <ele>531</ele>
        <time>2011-03-27T15:07:50Z</time>
      </trkpt>
      <trkpt lat="43.97385" lon="5.29569">
        <ele>531</ele>
        <time>2011-03-27T15:07:57Z</time>
      </trkpt>
      <trkpt lat="43.97392" lon="5.29564">
        <ele>531</ele>
        <time>2011-03-27T15:08:02Z</time>
      </trkpt>
      <trkpt lat="43.974" lon="5.29559">
        <ele>531</ele>
        <time>2011-03-27T15:08:07Z</time>
      </trkpt>
      <trkpt lat="43.97408" lon="5.29555">
        <ele>531</ele>
        <time>2011-03-27T15:08:11Z</time>
      </trkpt>
      <trkpt lat="43.97415" lon="5.29549">
        <ele>531</ele>
        <time>2011-03-27T15:08:16Z</time>
      </trkpt>
      <trkpt lat="43.97423" lon="5.29545">
        <ele>531</ele>
        <time>2011-03-27T15:08:21Z</time>
      </trkpt>
      <trkpt lat="43.9743" lon="5.29542">
        <ele>532</ele>
        <time>2011-03-27T15:08:25Z</time>
      </trkpt>
      <trkpt lat="43.97432" lon="5.29541">
        <ele>532</ele>
        <time>2011-03-27T15:08:26Z</time>
      </trkpt>
      <trkpt lat="43.97447" lon="5.29539">
        <ele>533</ele>
        <time>2011-03-27T15:08:35Z</time>
      </trkpt>
      <trkpt lat="43.97454" lon="5.29538">
        <ele>532</ele>
        <time>2011-03-27T15:08:39Z</time>
      </trkpt>
      <trkpt lat="43.97462" lon="5.29536">
        <ele>533</ele>
        <time>2011-03-27T15:08:44Z</time>
      </trkpt>
      <trkpt lat="43.97471" lon="5.29534">
        <ele>533</ele>
        <time>2011-03-27T15:08:49Z</time>
      </trkpt>
      <trkpt lat="43.97478" lon="5.29531">
        <ele>533</ele>
        <time>2011-03-27T15:08:54Z</time>
      </trkpt>
      <trkpt lat="43.97487" lon="5.29528">
        <ele>532</ele>
        <time>2011-03-27T15:09:00Z</time>
      </trkpt>
      <trkpt lat="43.97495" lon="5.29523">
        <ele>533</ele>
        <time>2011-03-27T15:09:05Z</time>
      </trkpt>
      <trkpt lat="43.97502" lon="5.29519">
        <ele>533</ele>
        <time>2011-03-27T15:09:09Z</time>
      </trkpt>
      <trkpt lat="43.97511" lon="5.29515">
        <ele>533</ele>
        <time>2011-03-27T15:09:14Z</time>
      </trkpt>
      <trkpt lat="43.97519" lon="5.29511">
        <ele>534</ele>
        <time>2011-03-27T15:09:19Z</time>
      </trkpt>
      <trkpt lat="43.97525" lon="5.29508">
        <ele>534</ele>
        <time>2011-03-27T15:09:23Z</time>
      </trkpt>
      <trkpt lat="43.97533" lon="5.29503">
        <ele>535</ele>
        <time>2011-03-27T15:09:28Z</time>
      </trkpt>
      <trkpt lat="43.97535" lon="5.29502">
        <ele>535</ele>
        <time>2011-03-27T15:09:29Z</time>
      </trkpt>
      <trkpt lat="43.97547" lon="5.29495">
        <ele>535</ele>
        <time>2011-03-27T15:09:36Z</time>
      </trkpt>
      <trkpt lat="43.97554" lon="5.2949">
        <ele>535</ele>
        <time>2011-03-27T15:09:40Z</time>
      </trkpt>
      <trkpt lat="43.97562" lon="5.29483">
        <ele>535</ele>
        <time>2011-03-27T15:09:45Z</time>
      </trkpt>
      <trkpt lat="43.97567" lon="5.29475">
        <ele>535</ele>
        <time>2011-03-27T15:09:50Z</time>
      </trkpt>
      <trkpt lat="43.97573" lon="5.29466">
        <ele>537</ele>
        <time>2011-03-27T15:09:55Z</time>
      </trkpt>
      <trkpt lat="43.97577" lon="5.29456">
        <ele>537</ele>
        <time>2011-03-27T15:10:00Z</time>
      </trkpt>
      <trkpt lat="43.97582" lon="5.29447">
        <ele>536</ele>
        <time>2011-03-27T15:10:05Z</time>
      </trkpt>
      <trkpt lat="43.97586" lon="5.29437">
        <ele>538</ele>
        <time>2011-03-27T15:10:11Z</time>
      </trkpt>
      <trkpt lat="43.97586" lon="5.29424">
        <ele>539</ele>
        <time>2011-03-27T15:10:17Z</time>
      </trkpt>
      <trkpt lat="43.97582" lon="5.29414">
        <ele>539</ele>
        <time>2011-03-27T15:10:23Z</time>
      </trkpt>
      <trkpt lat="43.97574" lon="5.29408">
        <ele>539</ele>
        <time>2011-03-27T15:10:29Z</time>
      </trkpt>
      <trkpt lat="43.97573" lon="5.29407">
        <ele>539</ele>
        <time>2011-03-27T15:10:30Z</time>
      </trkpt>
      <trkpt lat="43.97559" lon="5.29399">
        <ele>540</ele>
        <time>2011-03-27T15:10:39Z</time>
      </trkpt>
      <trkpt lat="43.97552" lon="5.29394">
        <ele>540</ele>
        <time>2011-03-27T15:10:44Z</time>
      </trkpt>
      <trkpt lat="43.97545" lon="5.29389">
        <ele>540</ele>
        <time>2011-03-27T15:10:49Z</time>
      </trkpt>
      <trkpt lat="43.97539" lon="5.29381">
        <ele>541</ele>
        <time>2011-03-27T15:10:55Z</time>
      </trkpt>
      <trkpt lat="43.97535" lon="5.29371">
        <ele>542</ele>
        <time>2011-03-27T15:11:01Z</time>
      </trkpt>
      <trkpt lat="43.97535" lon="5.29361">
        <ele>544</ele>
        <time>2011-03-27T15:11:06Z</time>
      </trkpt>
      <trkpt lat="43.97537" lon="5.2935">
        <ele>545</ele>
        <time>2011-03-27T15:11:11Z</time>
      </trkpt>
      <trkpt lat="43.97541" lon="5.2934">
        <ele>544</ele>
        <time>2011-03-27T15:11:16Z</time>
      </trkpt>
      <trkpt lat="43.97547" lon="5.29332">
        <ele>545</ele>
        <time>2011-03-27T15:11:22Z</time>
      </trkpt>
      <trkpt lat="43.97552" lon="5.29323">
        <ele>545</ele>
        <time>2011-03-27T15:11:27Z</time>
      </trkpt>
      <trkpt lat="43.97559" lon="5.29316">
        <ele>545</ele>
        <time>2011-03-27T15:11:32Z</time>
      </trkpt>
      <trkpt lat="43.97561" lon="5.29315">
        <ele>545</ele>
        <time>2011-03-27T15:11:33Z</time>
      </trkpt>
      <trkpt lat="43.97576" lon="5.29312">
        <ele>545</ele>
        <time>2011-03-27T15:11:43Z</time>
      </trkpt>
      <trkpt lat="43.97584" lon="5.29312">
        <ele>546</ele>
        <time>2011-03-27T15:11:48Z</time>
      </trkpt>
      <trkpt lat="43.97592" lon="5.29311">
        <ele>546</ele>
        <time>2011-03-27T15:11:53Z</time>
      </trkpt>
      <trkpt lat="43.97601" lon="5.2931">
        <ele>546</ele>
        <time>2011-03-27T15:11:59Z</time>
      </trkpt>
      <trkpt lat="43.97608" lon="5.2931">
        <ele>546</ele>
        <time>2011-03-27T15:12:04Z</time>
      </trkpt>
      <trkpt lat="43.97616" lon="5.29308">
        <ele>547</ele>
        <time>2011-03-27T15:12:09Z</time>
      </trkpt>
      <trkpt lat="43.97624" lon="5.29305">
        <ele>546</ele>
        <time>2011-03-27T15:12:14Z</time>
      </trkpt>
      <trkpt lat="43.97631" lon="5.29301">
        <ele>547</ele>
        <time>2011-03-27T15:12:19Z</time>
      </trkpt>
      <trkpt lat="43.97639" lon="5.29297">
        <ele>547</ele>
        <time>2011-03-27T15:12:24Z</time>
      </trkpt>
      <trkpt lat="43.97646" lon="5.29294">
        <ele>548</ele>
        <time>2011-03-27T15:12:29Z</time>
      </trkpt>
      <trkpt lat="43.97654" lon="5.29291">
        <ele>548</ele>
        <time>2011-03-27T15:12:34Z</time>
      </trkpt>
      <trkpt lat="43.97656" lon="5.29291">
        <ele>548</ele>
        <time>2011-03-27T15:12:35Z</time>
      </trkpt>
      <trkpt lat="43.97671" lon="5.29293">
        <ele>549</ele>
        <time>2011-03-27T15:12:46Z</time>
      </trkpt>
      <trkpt lat="43.97678" lon="5.29299">
        <ele>550</ele>
        <time>2011-03-27T15:12:53Z</time>
      </trkpt>
      <trkpt lat="43.97684" lon="5.29304">
        <ele>550</ele>
        <time>2011-03-27T15:12:58Z</time>
      </trkpt>
      <trkpt lat="43.97691" lon="5.29311">
        <ele>551</ele>
        <time>2011-03-27T15:13:03Z</time>
      </trkpt>
      <trkpt lat="43.97698" lon="5.29318">
        <ele>551</ele>
        <time>2011-03-27T15:13:09Z</time>
      </trkpt>
      <trkpt lat="43.97704" lon="5.29325">
        <ele>552</ele>
        <time>2011-03-27T15:13:14Z</time>
      </trkpt>
      <trkpt lat="43.97711" lon="5.29331">
        <ele>553</ele>
        <time>2011-03-27T15:13:20Z</time>
      </trkpt>
      <trkpt lat="43.97718" lon="5.29338">
        <ele>552</ele>
        <time>2011-03-27T15:13:25Z</time>
      </trkpt>
      <trkpt lat="43.97725" lon="5.29344">
        <ele>553</ele>
        <time>2011-03-27T15:13:30Z</time>
      </trkpt>
      <trkpt lat="43.97732" lon="5.29349">
        <ele>554</ele>
        <time>2011-03-27T15:13:35Z</time>
      </trkpt>
      <trkpt lat="43.97733" lon="5.2935">
        <ele>554</ele>
        <time>2011-03-27T15:13:36Z</time>
      </trkpt>
      <trkpt lat="43.97747" lon="5.29359">
        <ele>554</ele>
        <time>2011-03-27T15:13:45Z</time>
      </trkpt>
      <trkpt lat="43.97755" lon="5.29361">
        <ele>554</ele>
        <time>2011-03-27T15:13:50Z</time>
      </trkpt>
      <trkpt lat="43.97762" lon="5.29363">
        <ele>554</ele>
        <time>2011-03-27T15:13:55Z</time>
      </trkpt>
      <trkpt lat="43.97771" lon="5.29366">
        <ele>555</ele>
        <time>2011-03-27T15:14:01Z</time>
      </trkpt>
      <trkpt lat="43.97778" lon="5.29368">
        <ele>556</ele>
        <time>2011-03-27T15:14:06Z</time>
      </trkpt>
      <trkpt lat="43.97786" lon="5.29369">
        <ele>557</ele>
        <time>2011-03-27T15:14:11Z</time>
      </trkpt>
      <trkpt lat="43.97794" lon="5.29372">
        <ele>556</ele>
        <time>2011-03-27T15:14:16Z</time>
      </trkpt>
      <trkpt lat="43.97801" lon="5.29374">
        <ele>557</ele>
        <time>2011-03-27T15:14:20Z</time>
      </trkpt>
      <trkpt lat="43.9781" lon="5.29376">
        <ele>557</ele>
        <time>2011-03-27T15:14:24Z</time>
      </trkpt>
      <trkpt lat="43.97817" lon="5.29379">
        <ele>557</ele>
        <time>2011-03-27T15:14:28Z</time>
      </trkpt>
      <trkpt lat="43.97825" lon="5.29382">
        <ele>558</ele>
        <time>2011-03-27T15:14:33Z</time>
      </trkpt>
      <trkpt lat="43.97833" lon="5.29386">
        <ele>559</ele>
        <time>2011-03-27T15:14:38Z</time>
      </trkpt>
      <trkpt lat="43.97835" lon="5.29386">
        <ele>559</ele>
        <time>2011-03-27T15:14:39Z</time>
      </trkpt>
      <trkpt lat="43.97848" lon="5.29394">
        <ele>562</ele>
        <time>2011-03-27T15:14:48Z</time>
      </trkpt>
      <trkpt lat="43.97855" lon="5.294">
        <ele>563</ele>
        <time>2011-03-27T15:14:54Z</time>
      </trkpt>
      <trkpt lat="43.97863" lon="5.29406">
        <ele>563</ele>
        <time>2011-03-27T15:14:59Z</time>
      </trkpt>
      <trkpt lat="43.9787" lon="5.29412">
        <ele>563</ele>
        <time>2011-03-27T15:15:04Z</time>
      </trkpt>
      <trkpt lat="43.97876" lon="5.29421">
        <ele>565</ele>
        <time>2011-03-27T15:15:10Z</time>
      </trkpt>
      <trkpt lat="43.97883" lon="5.29429">
        <ele>565</ele>
        <time>2011-03-27T15:15:16Z</time>
      </trkpt>
      <trkpt lat="43.9789" lon="5.29435">
        <ele>566</ele>
        <time>2011-03-27T15:15:22Z</time>
      </trkpt>
      <trkpt lat="43.97898" lon="5.29437">
        <ele>566</ele>
        <time>2011-03-27T15:15:27Z</time>
      </trkpt>
      <trkpt lat="43.97906" lon="5.29437">
        <ele>567</ele>
        <time>2011-03-27T15:15:32Z</time>
      </trkpt>
      <trkpt lat="43.97914" lon="5.29435">
        <ele>567</ele>
        <time>2011-03-27T15:15:36Z</time>
      </trkpt>
      <trkpt lat="43.97921" lon="5.29433">
        <ele>568</ele>
        <time>2011-03-27T15:15:40Z</time>
      </trkpt>
      <trkpt lat="43.97923" lon="5.29432">
        <ele>568</ele>
        <time>2011-03-27T15:15:41Z</time>
      </trkpt>
      <trkpt lat="43.97936" lon="5.2943">
        <ele>568</ele>
        <time>2011-03-27T15:15:48Z</time>
      </trkpt>
      <trkpt lat="43.97944" lon="5.29429">
        <ele>569</ele>
        <time>2011-03-27T15:15:53Z</time>
      </trkpt>
      <trkpt lat="43.97953" lon="5.29429">
        <ele>570</ele>
        <time>2011-03-27T15:15:58Z</time>
      </trkpt>
      <trkpt lat="43.9796" lon="5.29429">
        <ele>571</ele>
        <time>2011-03-27T15:16:02Z</time>
      </trkpt>
      <trkpt lat="43.97969" lon="5.29429">
        <ele>571</ele>
        <time>2011-03-27T15:16:08Z</time>
      </trkpt>
      <trkpt lat="43.97977" lon="5.29427">
        <ele>571</ele>
        <time>2011-03-27T15:16:14Z</time>
      </trkpt>
      <trkpt lat="43.97985" lon="5.29425">
        <ele>572</ele>
        <time>2011-03-27T15:16:20Z</time>
      </trkpt>
      <trkpt lat="43.97993" lon="5.29422">
        <ele>572</ele>
        <time>2011-03-27T15:16:26Z</time>
      </trkpt>
      <trkpt lat="43.98001" lon="5.29418">
        <ele>572</ele>
        <time>2011-03-27T15:16:31Z</time>
      </trkpt>
      <trkpt lat="43.98007" lon="5.29414">
        <ele>572</ele>
        <time>2011-03-27T15:16:36Z</time>
      </trkpt>
      <trkpt lat="43.98015" lon="5.2941">
        <ele>572</ele>
        <time>2011-03-27T15:16:41Z</time>
      </trkpt>
      <trkpt lat="43.98017" lon="5.29409">
        <ele>572</ele>
        <time>2011-03-27T15:16:42Z</time>
      </trkpt>
      <trkpt lat="43.98031" lon="5.29405">
        <ele>574</ele>
        <time>2011-03-27T15:16:52Z</time>
      </trkpt>
      <trkpt lat="43.9804" lon="5.29404">
        <ele>574</ele>
        <time>2011-03-27T15:16:56Z</time>
      </trkpt>
      <trkpt lat="43.98046" lon="5.29404">
        <ele>576</ele>
        <time>2011-03-27T15:16:59Z</time>
      </trkpt>
      <trkpt lat="43.98055" lon="5.29403">
        <ele>575</ele>
        <time>2011-03-27T15:17:03Z</time>
      </trkpt>
      <trkpt lat="43.98063" lon="5.294">
        <ele>574</ele>
        <time>2011-03-27T15:17:07Z</time>
      </trkpt>
      <trkpt lat="43.98071" lon="5.29396">
        <ele>575</ele>
        <time>2011-03-27T15:17:12Z</time>
      </trkpt>
      <trkpt lat="43.98078" lon="5.29392">
        <ele>575</ele>
        <time>2011-03-27T15:17:17Z</time>
      </trkpt>
      <trkpt lat="43.98084" lon="5.29387">
        <ele>576</ele>
        <time>2011-03-27T15:17:22Z</time>
      </trkpt>
      <trkpt lat="43.98091" lon="5.29382">
        <ele>577</ele>
        <time>2011-03-27T15:17:27Z</time>
      </trkpt>
      <trkpt lat="43.98098" lon="5.29375">
        <ele>577</ele>
        <time>2011-03-27T15:17:32Z</time>
      </trkpt>
      <trkpt lat="43.98105" lon="5.29369">
        <ele>577</ele>
        <time>2011-03-27T15:17:37Z</time>
      </trkpt>
      <trkpt lat="43.98112" lon="5.29362">
        <ele>577</ele>
        <time>2011-03-27T15:17:41Z</time>
      </trkpt>
      <trkpt lat="43.98119" lon="5.29357">
        <ele>577</ele>
        <time>2011-03-27T15:17:45Z</time>
      </trkpt>
      <trkpt lat="43.98121" lon="5.29356">
        <ele>577</ele>
        <time>2011-03-27T15:17:46Z</time>
      </trkpt>
      <trkpt lat="43.98134" lon="5.29348">
        <ele>579</ele>
        <time>2011-03-27T15:17:56Z</time>
      </trkpt>
      <trkpt lat="43.98142" lon="5.29345">
        <ele>579</ele>
        <time>2011-03-27T15:18:02Z</time>
      </trkpt>
      <trkpt lat="43.98151" lon="5.29343">
        <ele>580</ele>
        <time>2011-03-27T15:18:09Z</time>
      </trkpt>
      <trkpt lat="43.98158" lon="5.29342">
        <ele>581</ele>
        <time>2011-03-27T15:18:15Z</time>
      </trkpt>
      <trkpt lat="43.98166" lon="5.29341">
        <ele>582</ele>
        <time>2011-03-27T15:18:20Z</time>
      </trkpt>
      <trkpt lat="43.98173" lon="5.2934">
        <ele>583</ele>
        <time>2011-03-27T15:18:24Z</time>
      </trkpt>
      <trkpt lat="43.98182" lon="5.29338">
        <ele>583</ele>
        <time>2011-03-27T15:18:28Z</time>
      </trkpt>
      <trkpt lat="43.9819" lon="5.29335">
        <ele>583</ele>
        <time>2011-03-27T15:18:32Z</time>
      </trkpt>
      <trkpt lat="43.98198" lon="5.29331">
        <ele>582</ele>
        <time>2011-03-27T15:18:36Z</time>
      </trkpt>
      <trkpt lat="43.98206" lon="5.29326">
        <ele>583</ele>
        <time>2011-03-27T15:18:41Z</time>
      </trkpt>
      <trkpt lat="43.98212" lon="5.29322">
        <ele>584</ele>
        <time>2011-03-27T15:18:44Z</time>
      </trkpt>
      <trkpt lat="43.98218" lon="5.29318">
        <ele>583</ele>
        <time>2011-03-27T15:18:46Z</time>
      </trkpt>
      <trkpt lat="43.98225" lon="5.29313">
        <ele>583</ele>
        <time>2011-03-27T15:18:48Z</time>
      </trkpt>
      <trkpt lat="43.98229" lon="5.2931">
        <ele>583</ele>
        <time>2011-03-27T15:18:49Z</time>
      </trkpt>
      <trkpt lat="43.9824" lon="5.29305">
        <ele>584</ele>
        <time>2011-03-27T15:18:52Z</time>
      </trkpt>
      <trkpt lat="43.98248" lon="5.29302">
        <ele>585</ele>
        <time>2011-03-27T15:18:54Z</time>
      </trkpt>
      <trkpt lat="43.98252" lon="5.293">
        <ele>584</ele>
        <time>2011-03-27T15:18:55Z</time>
      </trkpt>
      <trkpt lat="43.98261" lon="5.29298">
        <ele>584</ele>
        <time>2011-03-27T15:18:57Z</time>
      </trkpt>
      <trkpt lat="43.98269" lon="5.29295">
        <ele>584</ele>
        <time>2011-03-27T15:18:59Z</time>
      </trkpt>
      <trkpt lat="43.98278" lon="5.29294">
        <ele>584</ele>
        <time>2011-03-27T15:19:01Z</time>
      </trkpt>
      <trkpt lat="43.98285" lon="5.29292">
        <ele>584</ele>
        <time>2011-03-27T15:19:03Z</time>
      </trkpt>
      <trkpt lat="43.98293" lon="5.2929">
        <ele>585</ele>
        <time>2011-03-27T15:19:05Z</time>
      </trkpt>
      <trkpt lat="43.98301" lon="5.29288">
        <ele>585</ele>
        <time>2011-03-27T15:19:07Z</time>
      </trkpt>
      <trkpt lat="43.9831" lon="5.29286">
        <ele>585</ele>
        <time>2011-03-27T15:19:09Z</time>
      </trkpt>
      <trkpt lat="43.98318" lon="5.29286">
        <ele>586</ele>
        <time>2011-03-27T15:19:11Z</time>
      </trkpt>
      <trkpt lat="43.98323" lon="5.29285">
        <ele>586</ele>
        <time>2011-03-27T15:19:12Z</time>
      </trkpt>
      <trkpt lat="43.98328" lon="5.29285">
        <ele>587</ele>
        <time>2011-03-27T15:19:13Z</time>
      </trkpt>
      <trkpt lat="43.98332" lon="5.29285">
        <ele>587</ele>
        <time>2011-03-27T15:19:14Z</time>
      </trkpt>
      <trkpt lat="43.98337" lon="5.29285">
        <ele>587</ele>
        <time>2011-03-27T15:19:15Z</time>
      </trkpt>
      <trkpt lat="43.98342" lon="5.29285">
        <ele>587</ele>
        <time>2011-03-27T15:19:16Z</time>
      </trkpt>
      <trkpt lat="43.98347" lon="5.29285">
        <ele>587</ele>
        <time>2011-03-27T15:19:17Z</time>
      </trkpt>
      <trkpt lat="43.98352" lon="5.29285">
        <ele>588</ele>
        <time>2011-03-27T15:19:18Z</time>
      </trkpt>
      <trkpt lat="43.98357" lon="5.29285">
        <ele>588</ele>
        <time>2011-03-27T15:19:19Z</time>
      </trkpt>
      <trkpt lat="43.98361" lon="5.29284">
        <ele>587</ele>
        <time>2011-03-27T15:19:20Z</time>
      </trkpt>
      <trkpt lat="43.98366" lon="5.29284">
        <ele>587</ele>
        <time>2011-03-27T15:19:21Z</time>
      </trkpt>
      <trkpt lat="43.9837" lon="5.29283">
        <ele>587</ele>
        <time>2011-03-27T15:19:22Z</time>
      </trkpt>
      <trkpt lat="43.98375" lon="5.29282">
        <ele>587</ele>
        <time>2011-03-27T15:19:23Z</time>
      </trkpt>
      <trkpt lat="43.98379" lon="5.2928">
        <ele>587</ele>
        <time>2011-03-27T15:19:24Z</time>
      </trkpt>
      <trkpt lat="43.98384" lon="5.29278">
        <ele>588</ele>
        <time>2011-03-27T15:19:25Z</time>
      </trkpt>
      <trkpt lat="43.98388" lon="5.29275">
        <ele>588</ele>
        <time>2011-03-27T15:19:26Z</time>
      </trkpt>
      <trkpt lat="43.98392" lon="5.29272">
        <ele>588</ele>
        <time>2011-03-27T15:19:27Z</time>
      </trkpt>
      <trkpt lat="43.98397" lon="5.29268">
        <ele>589</ele>
        <time>2011-03-27T15:19:28Z</time>
      </trkpt>
      <trkpt lat="43.98401" lon="5.29264">
        <ele>589</ele>
        <time>2011-03-27T15:19:29Z</time>
      </trkpt>
      <trkpt lat="43.98405" lon="5.29261">
        <ele>590</ele>
        <time>2011-03-27T15:19:30Z</time>
      </trkpt>
      <trkpt lat="43.98408" lon="5.29257">
        <ele>590</ele>
        <time>2011-03-27T15:19:31Z</time>
      </trkpt>
      <trkpt lat="43.98412" lon="5.29253">
        <ele>590</ele>
        <time>2011-03-27T15:19:32Z</time>
      </trkpt>
      <trkpt lat="43.98416" lon="5.29249">
        <ele>590</ele>
        <time>2011-03-27T15:19:33Z</time>
      </trkpt>
      <trkpt lat="43.98422" lon="5.29241">
        <ele>590</ele>
        <time>2011-03-27T15:19:35Z</time>
      </trkpt>
      <trkpt lat="43.98428" lon="5.29236">
        <ele>592</ele>
        <time>2011-03-27T15:19:37Z</time>
      </trkpt>
      <trkpt lat="43.98434" lon="5.29231">
        <ele>592</ele>
        <time>2011-03-27T15:19:39Z</time>
      </trkpt>
      <trkpt lat="43.98441" lon="5.29225">
        <ele>592</ele>
        <time>2011-03-27T15:19:41Z</time>
      </trkpt>
      <trkpt lat="43.98449" lon="5.2922">
        <ele>592</ele>
        <time>2011-03-27T15:19:43Z</time>
      </trkpt>
      <trkpt lat="43.98457" lon="5.29216">
        <ele>592</ele>
        <time>2011-03-27T15:19:45Z</time>
      </trkpt>
      <trkpt lat="43.98465" lon="5.29213">
        <ele>592</ele>
        <time>2011-03-27T15:19:47Z</time>
      </trkpt>
      <trkpt lat="43.98473" lon="5.2921">
        <ele>592</ele>
        <time>2011-03-27T15:19:49Z</time>
      </trkpt>
      <trkpt lat="43.98477" lon="5.29208">
        <ele>591</ele>
        <time>2011-03-27T15:19:50Z</time>
      </trkpt>
      <trkpt lat="43.98489" lon="5.29202">
        <ele>592</ele>
        <time>2011-03-27T15:19:53Z</time>
      </trkpt>
      <trkpt lat="43.98493" lon="5.29199">
        <ele>592</ele>
        <time>2011-03-27T15:19:54Z</time>
      </trkpt>
      <trkpt lat="43.98498" lon="5.29196">
        <ele>592</ele>
        <time>2011-03-27T15:19:55Z</time>
      </trkpt>
      <trkpt lat="43.98506" lon="5.29192">
        <ele>593</ele>
        <time>2011-03-27T15:19:57Z</time>
      </trkpt>
      <trkpt lat="43.98515" lon="5.2919">
        <ele>594</ele>
        <time>2011-03-27T15:19:59Z</time>
      </trkpt>
      <trkpt lat="43.9852" lon="5.29189">
        <ele>594</ele>
        <time>2011-03-27T15:20:00Z</time>
      </trkpt>
      <trkpt lat="43.98524" lon="5.29188">
        <ele>594</ele>
        <time>2011-03-27T15:20:01Z</time>
      </trkpt>
      <trkpt lat="43.98533" lon="5.29188">
        <ele>595</ele>
        <time>2011-03-27T15:20:03Z</time>
      </trkpt>
      <trkpt lat="43.98542" lon="5.29186">
        <ele>595</ele>
        <time>2011-03-27T15:20:05Z</time>
      </trkpt>
      <trkpt lat="43.9855" lon="5.2918">
        <ele>595</ele>
        <time>2011-03-27T15:20:07Z</time>
      </trkpt>
      <trkpt lat="43.98553" lon="5.29177">
        <ele>596</ele>
        <time>2011-03-27T15:20:08Z</time>
      </trkpt>
      <trkpt lat="43.98558" lon="5.29175">
        <ele>596</ele>
        <time>2011-03-27T15:20:09Z</time>
      </trkpt>
      <trkpt lat="43.98562" lon="5.29172">
        <ele>596</ele>
        <time>2011-03-27T15:20:10Z</time>
      </trkpt>
      <trkpt lat="43.98566" lon="5.29169">
        <ele>596</ele>
        <time>2011-03-27T15:20:11Z</time>
      </trkpt>
      <trkpt lat="43.98571" lon="5.29166">
        <ele>597</ele>
        <time>2011-03-27T15:20:12Z</time>
      </trkpt>
      <trkpt lat="43.98576" lon="5.29163">
        <ele>597</ele>
        <time>2011-03-27T15:20:13Z</time>
      </trkpt>
      <trkpt lat="43.9858" lon="5.29161">
        <ele>597</ele>
        <time>2011-03-27T15:20:14Z</time>
      </trkpt>
      <trkpt lat="43.98585" lon="5.29158">
        <ele>597</ele>
        <time>2011-03-27T15:20:15Z</time>
      </trkpt>
      <trkpt lat="43.9859" lon="5.29156">
        <ele>598</ele>
        <time>2011-03-27T15:20:16Z</time>
      </trkpt>
      <trkpt lat="43.98595" lon="5.29154">
        <ele>598</ele>
        <time>2011-03-27T15:20:17Z</time>
      </trkpt>
      <trkpt lat="43.98603" lon="5.2915">
        <ele>598</ele>
        <time>2011-03-27T15:20:19Z</time>
      </trkpt>
      <trkpt lat="43.98612" lon="5.29146">
        <ele>598</ele>
        <time>2011-03-27T15:20:21Z</time>
      </trkpt>
      <trkpt lat="43.98616" lon="5.29145">
        <ele>598</ele>
        <time>2011-03-27T15:20:22Z</time>
      </trkpt>
      <trkpt lat="43.98621" lon="5.29144">
        <ele>597</ele>
        <time>2011-03-27T15:20:23Z</time>
      </trkpt>
      <trkpt lat="43.98629" lon="5.29142">
        <ele>598</ele>
        <time>2011-03-27T15:20:25Z</time>
      </trkpt>
      <trkpt lat="43.98638" lon="5.2914">
        <ele>598</ele>
        <time>2011-03-27T15:20:27Z</time>
      </trkpt>
      <trkpt lat="43.98643" lon="5.29138">
        <ele>598</ele>
        <time>2011-03-27T15:20:28Z</time>
      </trkpt>
      <trkpt lat="43.98648" lon="5.29136">
        <ele>599</ele>
        <time>2011-03-27T15:20:29Z</time>
      </trkpt>
      <trkpt lat="43.98653" lon="5.29135">
        <ele>599</ele>
        <time>2011-03-27T15:20:30Z</time>
      </trkpt>
      <trkpt lat="43.98657" lon="5.29134">
        <ele>599</ele>
        <time>2011-03-27T15:20:31Z</time>
      </trkpt>
      <trkpt lat="43.98662" lon="5.29132">
        <ele>600</ele>
        <time>2011-03-27T15:20:32Z</time>
      </trkpt>
      <trkpt lat="43.98666" lon="5.2913">
        <ele>600</ele>
        <time>2011-03-27T15:20:33Z</time>
      </trkpt>
      <trkpt lat="43.9867" lon="5.29127">
        <ele>600</ele>
        <time>2011-03-27T15:20:34Z</time>
      </trkpt>
      <trkpt lat="43.98674" lon="5.29123">
        <ele>600</ele>
        <time>2011-03-27T15:20:35Z</time>
      </trkpt>
      <trkpt lat="43.98678" lon="5.29119">
        <ele>600</ele>
        <time>2011-03-27T15:20:36Z</time>
      </trkpt>
      <trkpt lat="43.98681" lon="5.29115">
        <ele>600</ele>
        <time>2011-03-27T15:20:37Z</time>
      </trkpt>
      <trkpt lat="43.98689" lon="5.29107">
        <ele>601</ele>
        <time>2011-03-27T15:20:39Z</time>
      </trkpt>
      <trkpt lat="43.98696" lon="5.29101">
        <ele>600</ele>
        <time>2011-03-27T15:20:41Z</time>
      </trkpt>
      <trkpt lat="43.987" lon="5.29097">
        <ele>600</ele>
        <time>2011-03-27T15:20:42Z</time>
      </trkpt>
      <trkpt lat="43.98708" lon="5.29092">
        <ele>601</ele>
        <time>2011-03-27T15:20:44Z</time>
      </trkpt>
      <trkpt lat="43.98716" lon="5.29088">
        <ele>601</ele>
        <time>2011-03-27T15:20:46Z</time>
      </trkpt>
      <trkpt lat="43.98725" lon="5.29086">
        <ele>601</ele>
        <time>2011-03-27T15:20:48Z</time>
      </trkpt>
      <trkpt lat="43.98733" lon="5.29082">
        <ele>602</ele>
        <time>2011-03-27T15:20:50Z</time>
      </trkpt>
      <trkpt lat="43.9874" lon="5.29077">
        <ele>603</ele>
        <time>2011-03-27T15:20:52Z</time>
      </trkpt>
      <trkpt lat="43.98743" lon="5.29073">
        <ele>603</ele>
        <time>2011-03-27T15:20:53Z</time>
      </trkpt>
      <trkpt lat="43.98752" lon="5.29059">
        <ele>604</ele>
        <time>2011-03-27T15:20:56Z</time>
      </trkpt>
      <trkpt lat="43.98756" lon="5.29049">
        <ele>605</ele>
        <time>2011-03-27T15:20:58Z</time>
      </trkpt>
      <trkpt lat="43.9876" lon="5.29039">
        <ele>606</ele>
        <time>2011-03-27T15:21:00Z</time>
      </trkpt>
      <trkpt lat="43.98764" lon="5.2903">
        <ele>606</ele>
        <time>2011-03-27T15:21:02Z</time>
      </trkpt>
      <trkpt lat="43.98768" lon="5.29022">
        <ele>606</ele>
        <time>2011-03-27T15:21:05Z</time>
      </trkpt>
      <trkpt lat="43.98774" lon="5.29011">
        <ele>608</ele>
        <time>2011-03-27T15:21:10Z</time>
      </trkpt>
      <trkpt lat="43.98779" lon="5.29004">
        <ele>608</ele>
        <time>2011-03-27T15:21:14Z</time>
      </trkpt>
      <trkpt lat="43.98786" lon="5.28999">
        <ele>609</ele>
        <time>2011-03-27T15:21:20Z</time>
      </trkpt>
      <trkpt lat="43.98794" lon="5.29">
        <ele>609</ele>
        <time>2011-03-27T15:21:26Z</time>
      </trkpt>
      <trkpt lat="43.98803" lon="5.29003">
        <ele>610</ele>
        <time>2011-03-27T15:21:31Z</time>
      </trkpt>
      <trkpt lat="43.9881" lon="5.29008">
        <ele>609</ele>
        <time>2011-03-27T15:21:37Z</time>
      </trkpt>
      <trkpt lat="43.98815" lon="5.29016">
        <ele>610</ele>
        <time>2011-03-27T15:21:43Z</time>
      </trkpt>
      <trkpt lat="43.9882" lon="5.29026">
        <ele>612</ele>
        <time>2011-03-27T15:21:50Z</time>
      </trkpt>
      <trkpt lat="43.98827" lon="5.29034">
        <ele>613</ele>
        <time>2011-03-27T15:21:56Z</time>
      </trkpt>
      <trkpt lat="43.98828" lon="5.29036">
        <ele>613</ele>
        <time>2011-03-27T15:21:57Z</time>
      </trkpt>
      <trkpt lat="43.98839" lon="5.29049">
        <ele>615</ele>
        <time>2011-03-27T15:22:06Z</time>
      </trkpt>
      <trkpt lat="43.98845" lon="5.29057">
        <ele>615</ele>
        <time>2011-03-27T15:22:11Z</time>
      </trkpt>
      <trkpt lat="43.98851" lon="5.29065">
        <ele>616</ele>
        <time>2011-03-27T15:22:16Z</time>
      </trkpt>
      <trkpt lat="43.98856" lon="5.29072">
        <ele>616</ele>
        <time>2011-03-27T15:22:21Z</time>
      </trkpt>
      <trkpt lat="43.98863" lon="5.29079">
        <ele>615</ele>
        <time>2011-03-27T15:22:26Z</time>
      </trkpt>
      <trkpt lat="43.9887" lon="5.29086">
        <ele>616</ele>
        <time>2011-03-27T15:22:31Z</time>
      </trkpt>
      <trkpt lat="43.98877" lon="5.29093">
        <ele>616</ele>
        <time>2011-03-27T15:22:36Z</time>
      </trkpt>
      <trkpt lat="43.98884" lon="5.291">
        <ele>616</ele>
        <time>2011-03-27T15:22:41Z</time>
      </trkpt>
      <trkpt lat="43.98891" lon="5.29107">
        <ele>616</ele>
        <time>2011-03-27T15:22:46Z</time>
      </trkpt>
      <trkpt lat="43.98897" lon="5.29113">
        <ele>616</ele>
        <time>2011-03-27T15:22:50Z</time>
      </trkpt>
      <trkpt lat="43.98903" lon="5.29122">
        <ele>617</ele>
        <time>2011-03-27T15:22:55Z</time>
      </trkpt>
      <trkpt lat="43.98907" lon="5.29131">
        <ele>617</ele>
        <time>2011-03-27T15:23:00Z</time>
      </trkpt>
      <trkpt lat="43.98908" lon="5.29133">
        <ele>617</ele>
        <time>2011-03-27T15:23:01Z</time>
      </trkpt>
      <trkpt lat="43.98916" lon="5.2915">
        <ele>617</ele>
        <time>2011-03-27T15:23:11Z</time>
      </trkpt>
      <trkpt lat="43.9892" lon="5.29161">
        <ele>617</ele>
        <time>2011-03-27T15:23:17Z</time>
      </trkpt>
      <trkpt lat="43.98925" lon="5.29171">
        <ele>618</ele>
        <time>2011-03-27T15:23:23Z</time>
      </trkpt>
      <trkpt lat="43.98926" lon="5.29183">
        <ele>618</ele>
        <time>2011-03-27T15:23:28Z</time>
      </trkpt>
      <trkpt lat="43.98928" lon="5.29193">
        <ele>619</ele>
        <time>2011-03-27T15:23:35Z</time>
      </trkpt>
      <trkpt lat="43.98925" lon="5.29204">
        <ele>620</ele>
        <time>2011-03-27T15:23:41Z</time>
      </trkpt>
      <trkpt lat="43.98922" lon="5.29216">
        <ele>619</ele>
        <time>2011-03-27T15:23:48Z</time>
      </trkpt>
      <trkpt lat="43.98922" lon="5.29228">
        <ele>619</ele>
        <time>2011-03-27T15:23:53Z</time>
      </trkpt>
      <trkpt lat="43.98923" lon="5.2924">
        <ele>619</ele>
        <time>2011-03-27T15:23:58Z</time>
      </trkpt>
      <trkpt lat="43.98925" lon="5.29251">
        <ele>620</ele>
        <time>2011-03-27T15:24:03Z</time>
      </trkpt>
      <trkpt lat="43.98925" lon="5.29253">
        <ele>619</ele>
        <time>2011-03-27T15:24:04Z</time>
      </trkpt>
      <trkpt lat="43.98934" lon="5.29269">
        <ele>620</ele>
        <time>2011-03-27T15:24:13Z</time>
      </trkpt>
      <trkpt lat="43.98941" lon="5.29276">
        <ele>621</ele>
        <time>2011-03-27T15:24:18Z</time>
      </trkpt>
      <trkpt lat="43.98947" lon="5.29283">
        <ele>622</ele>
        <time>2011-03-27T15:24:23Z</time>
      </trkpt>
      <trkpt lat="43.98953" lon="5.29289">
        <ele>622</ele>
        <time>2011-03-27T15:24:27Z</time>
      </trkpt>
      <trkpt lat="43.98961" lon="5.29295">
        <ele>622</ele>
        <time>2011-03-27T15:24:32Z</time>
      </trkpt>
      <trkpt lat="43.98969" lon="5.293">
        <ele>623</ele>
        <time>2011-03-27T15:24:37Z</time>
      </trkpt>
      <trkpt lat="43.98976" lon="5.29306">
        <ele>623</ele>
        <time>2011-03-27T15:24:42Z</time>
      </trkpt>
      <trkpt lat="43.98983" lon="5.29313">
        <ele>624</ele>
        <time>2011-03-27T15:24:47Z</time>
      </trkpt>
      <trkpt lat="43.98989" lon="5.2932">
        <ele>624</ele>
        <time>2011-03-27T15:24:52Z</time>
      </trkpt>
      <trkpt lat="43.98994" lon="5.29328">
        <ele>624</ele>
        <time>2011-03-27T15:24:57Z</time>
      </trkpt>
      <trkpt lat="43.98999" lon="5.29336">
        <ele>624</ele>
        <time>2011-03-27T15:25:02Z</time>
      </trkpt>
      <trkpt lat="43.99005" lon="5.29346">
        <ele>624</ele>
        <time>2011-03-27T15:25:08Z</time>
      </trkpt>
      <trkpt lat="43.99005" lon="5.29348">
        <ele>624</ele>
        <time>2011-03-27T15:25:09Z</time>
      </trkpt>
      <trkpt lat="43.99014" lon="5.29363">
        <ele>626</ele>
        <time>2011-03-27T15:25:18Z</time>
      </trkpt>
      <trkpt lat="43.9902" lon="5.29372">
        <ele>625</ele>
        <time>2011-03-27T15:25:23Z</time>
      </trkpt>
      <trkpt lat="43.99024" lon="5.29381">
        <ele>626</ele>
        <time>2011-03-27T15:25:28Z</time>
      </trkpt>
      <trkpt lat="43.99029" lon="5.29391">
        <ele>627</ele>
        <time>2011-03-27T15:25:33Z</time>
      </trkpt>
      <trkpt lat="43.99036" lon="5.29398">
        <ele>627</ele>
        <time>2011-03-27T15:25:38Z</time>
      </trkpt>
      <trkpt lat="43.99043" lon="5.29405">
        <ele>627</ele>
        <time>2011-03-27T15:25:43Z</time>
      </trkpt>
      <trkpt lat="43.9905" lon="5.2941">
        <ele>628</ele>
        <time>2011-03-27T15:25:48Z</time>
      </trkpt>
      <trkpt lat="43.99057" lon="5.29415">
        <ele>628</ele>
        <time>2011-03-27T15:25:53Z</time>
      </trkpt>
      <trkpt lat="43.99066" lon="5.2942">
        <ele>628</ele>
        <time>2011-03-27T15:25:58Z</time>
      </trkpt>
      <trkpt lat="43.99073" lon="5.29426">
        <ele>629</ele>
        <time>2011-03-27T15:26:03Z</time>
      </trkpt>
      <trkpt lat="43.9908" lon="5.29434">
        <ele>629</ele>
        <time>2011-03-27T15:26:08Z</time>
      </trkpt>
      <trkpt lat="43.99085" lon="5.29442">
        <ele>629</ele>
        <time>2011-03-27T15:26:13Z</time>
      </trkpt>
      <trkpt lat="43.99086" lon="5.29443">
        <ele>629</ele>
        <time>2011-03-27T15:26:14Z</time>
      </trkpt>
      <trkpt lat="43.99098" lon="5.29456">
        <ele>630</ele>
        <time>2011-03-27T15:26:24Z</time>
      </trkpt>
      <trkpt lat="43.99106" lon="5.29461">
        <ele>630</ele>
        <time>2011-03-27T15:26:29Z</time>
      </trkpt>
      <trkpt lat="43.99113" lon="5.29466">
        <ele>631</ele>
        <time>2011-03-27T15:26:33Z</time>
      </trkpt>
      <trkpt lat="43.9912" lon="5.29473">
        <ele>632</ele>
        <time>2011-03-27T15:26:38Z</time>
      </trkpt>
      <trkpt lat="43.99127" lon="5.2948">
        <ele>633</ele>
        <time>2011-03-27T15:26:44Z</time>
      </trkpt>
      <trkpt lat="43.99133" lon="5.29486">
        <ele>633</ele>
        <time>2011-03-27T15:26:49Z</time>
      </trkpt>
      <trkpt lat="43.9914" lon="5.29492">
        <ele>634</ele>
        <time>2011-03-27T15:26:54Z</time>
      </trkpt>
      <trkpt lat="43.99147" lon="5.29499">
        <ele>635</ele>
        <time>2011-03-27T15:26:59Z</time>
      </trkpt>
      <trkpt lat="43.99154" lon="5.29505">
        <ele>634</ele>
        <time>2011-03-27T15:27:04Z</time>
      </trkpt>
      <trkpt lat="43.9916" lon="5.2951">
        <ele>634</ele>
        <time>2011-03-27T15:27:08Z</time>
      </trkpt>
      <trkpt lat="43.99169" lon="5.2951">
        <ele>635</ele>
        <time>2011-03-27T15:27:13Z</time>
      </trkpt>
      <trkpt lat="43.99177" lon="5.29506">
        <ele>636</ele>
        <time>2011-03-27T15:27:18Z</time>
      </trkpt>
      <trkpt lat="43.99178" lon="5.29504">
        <ele>636</ele>
        <time>2011-03-27T15:27:19Z</time>
      </trkpt>
      <trkpt lat="43.99191" lon="5.29494">
        <ele>636</ele>
        <time>2011-03-27T15:27:27Z</time>
      </trkpt>
      <trkpt lat="43.992" lon="5.29491">
        <ele>636</ele>
        <time>2011-03-27T15:27:32Z</time>
      </trkpt>
      <trkpt lat="43.99208" lon="5.2949">
        <ele>636</ele>
        <time>2011-03-27T15:27:37Z</time>
      </trkpt>
      <trkpt lat="43.99216" lon="5.2949">
        <ele>637</ele>
        <time>2011-03-27T15:27:42Z</time>
      </trkpt>
      <trkpt lat="43.99225" lon="5.29493">
        <ele>637</ele>
        <time>2011-03-27T15:27:47Z</time>
      </trkpt>
      <trkpt lat="43.99233" lon="5.29497">
        <ele>638</ele>
        <time>2011-03-27T15:27:52Z</time>
      </trkpt>
      <trkpt lat="43.9924" lon="5.29504">
        <ele>638</ele>
        <time>2011-03-27T15:27:57Z</time>
      </trkpt>
      <trkpt lat="43.99246" lon="5.29511">
        <ele>638</ele>
        <time>2011-03-27T15:28:03Z</time>
      </trkpt>
      <trkpt lat="43.99251" lon="5.29521">
        <ele>639</ele>
        <time>2011-03-27T15:28:10Z</time>
      </trkpt>
      <trkpt lat="43.99256" lon="5.29529">
        <ele>639</ele>
        <time>2011-03-27T15:28:15Z</time>
      </trkpt>
      <trkpt lat="43.99263" lon="5.29537">
        <ele>640</ele>
        <time>2011-03-27T15:28:21Z</time>
      </trkpt>
      <trkpt lat="43.99264" lon="5.29538">
        <ele>640</ele>
        <time>2011-03-27T15:28:22Z</time>
      </trkpt>
      <trkpt lat="43.99275" lon="5.29553">
        <ele>641</ele>
        <time>2011-03-27T15:28:32Z</time>
      </trkpt>
      <trkpt lat="43.99279" lon="5.29563">
        <ele>642</ele>
        <time>2011-03-27T15:28:37Z</time>
      </trkpt>
      <trkpt lat="43.99283" lon="5.29573">
        <ele>642</ele>
        <time>2011-03-27T15:28:42Z</time>
      </trkpt>
      <trkpt lat="43.99286" lon="5.29583">
        <ele>642</ele>
        <time>2011-03-27T15:28:47Z</time>
      </trkpt>
      <trkpt lat="43.9929" lon="5.29594">
        <ele>642</ele>
        <time>2011-03-27T15:28:52Z</time>
      </trkpt>
      <trkpt lat="43.99294" lon="5.29603">
        <ele>642</ele>
        <time>2011-03-27T15:28:56Z</time>
      </trkpt>
      <trkpt lat="43.99299" lon="5.29613">
        <ele>643</ele>
        <time>2011-03-27T15:29:00Z</time>
      </trkpt>
      <trkpt lat="43.99302" lon="5.29622">
        <ele>643</ele>
        <time>2011-03-27T15:29:04Z</time>
      </trkpt>
      <trkpt lat="43.99304" lon="5.29634">
        <ele>644</ele>
        <time>2011-03-27T15:29:10Z</time>
      </trkpt>
      <trkpt lat="43.99303" lon="5.29645">
        <ele>644</ele>
        <time>2011-03-27T15:29:16Z</time>
      </trkpt>
      <trkpt lat="43.99302" lon="5.29657">
        <ele>644</ele>
        <time>2011-03-27T15:29:22Z</time>
      </trkpt>
      <trkpt lat="43.99302" lon="5.29659">
        <ele>645</ele>
        <time>2011-03-27T15:29:23Z</time>
      </trkpt>
      <trkpt lat="43.99301" lon="5.2968">
        <ele>646</ele>
        <time>2011-03-27T15:29:34Z</time>
      </trkpt>
      <trkpt lat="43.99301" lon="5.29691">
        <ele>647</ele>
        <time>2011-03-27T15:29:38Z</time>
      </trkpt>
      <trkpt lat="43.99303" lon="5.29702">
        <ele>647</ele>
        <time>2011-03-27T15:29:42Z</time>
      </trkpt>
      <trkpt lat="43.99304" lon="5.29714">
        <ele>646</ele>
        <time>2011-03-27T15:29:47Z</time>
      </trkpt>
      <trkpt lat="43.99305" lon="5.29725">
        <ele>647</ele>
        <time>2011-03-27T15:29:52Z</time>
      </trkpt>
      <trkpt lat="43.99305" lon="5.29736">
        <ele>648</ele>
        <time>2011-03-27T15:29:56Z</time>
      </trkpt>
      <trkpt lat="43.99305" lon="5.29746">
        <ele>648</ele>
        <time>2011-03-27T15:30:00Z</time>
      </trkpt>
      <trkpt lat="43.99306" lon="5.29756">
        <ele>648</ele>
        <time>2011-03-27T15:30:04Z</time>
      </trkpt>
      <trkpt lat="43.99307" lon="5.29769">
        <ele>649</ele>
        <time>2011-03-27T15:30:09Z</time>
      </trkpt>
      <trkpt lat="43.99308" lon="5.2978">
        <ele>649</ele>
        <time>2011-03-27T15:30:14Z</time>
      </trkpt>
      <trkpt lat="43.99308" lon="5.29791">
        <ele>648</ele>
        <time>2011-03-27T15:30:19Z</time>
      </trkpt>
      <trkpt lat="43.99307" lon="5.29803">
        <ele>649</ele>
        <time>2011-03-27T15:30:24Z</time>
      </trkpt>
      <trkpt lat="43.99306" lon="5.29805">
        <ele>649</ele>
        <time>2011-03-27T15:30:25Z</time>
      </trkpt>
      <trkpt lat="43.99304" lon="5.29825">
        <ele>651</ele>
        <time>2011-03-27T15:30:37Z</time>
      </trkpt>
      <trkpt lat="43.99303" lon="5.29836">
        <ele>651</ele>
        <time>2011-03-27T15:30:42Z</time>
      </trkpt>
      <trkpt lat="43.99306" lon="5.29847">
        <ele>652</ele>
        <time>2011-03-27T15:30:47Z</time>
      </trkpt>
      <trkpt lat="43.9931" lon="5.29858">
        <ele>652</ele>
        <time>2011-03-27T15:30:57Z</time>
      </trkpt>
      <trkpt lat="43.99314" lon="5.29867">
        <ele>652</ele>
        <time>2011-03-27T15:31:05Z</time>
      </trkpt>
      <trkpt lat="43.99321" lon="5.29875">
        <ele>653</ele>
        <time>2011-03-27T15:31:11Z</time>
      </trkpt>
      <trkpt lat="43.99328" lon="5.29878">
        <ele>652</ele>
        <time>2011-03-27T15:31:16Z</time>
      </trkpt>
      <trkpt lat="43.99336" lon="5.29881">
        <ele>653</ele>
        <time>2011-03-27T15:31:21Z</time>
      </trkpt>
      <trkpt lat="43.99343" lon="5.29886">
        <ele>653</ele>
        <time>2011-03-27T15:31:26Z</time>
      </trkpt>
      <trkpt lat="43.99344" lon="5.29887">
        <ele>653</ele>
        <time>2011-03-27T15:31:27Z</time>
      </trkpt>
      <trkpt lat="43.99357" lon="5.29896">
        <ele>654</ele>
        <time>2011-03-27T15:31:36Z</time>
      </trkpt>
      <trkpt lat="43.99364" lon="5.29901">
        <ele>654</ele>
        <time>2011-03-27T15:31:41Z</time>
      </trkpt>
      <trkpt lat="43.9937" lon="5.29907">
        <ele>654</ele>
        <time>2011-03-27T15:31:46Z</time>
      </trkpt>
      <trkpt lat="43.99378" lon="5.29914">
        <ele>655</ele>
        <time>2011-03-27T15:31:52Z</time>
      </trkpt>
      <trkpt lat="43.99385" lon="5.29921">
        <ele>655</ele>
        <time>2011-03-27T15:31:58Z</time>
      </trkpt>
      <trkpt lat="43.9939" lon="5.29929">
        <ele>655</ele>
        <time>2011-03-27T15:32:04Z</time>
      </trkpt>
      <trkpt lat="43.99393" lon="5.2994">
        <ele>656</ele>
        <time>2011-03-27T15:32:10Z</time>
      </trkpt>
      <trkpt lat="43.99394" lon="5.29951">
        <ele>656</ele>
        <time>2011-03-27T15:32:15Z</time>
      </trkpt>
      <trkpt lat="43.99394" lon="5.29963">
        <ele>657</ele>
        <time>2011-03-27T15:32:22Z</time>
      </trkpt>
      <trkpt lat="43.99391" lon="5.29974">
        <ele>657</ele>
        <time>2011-03-27T15:32:29Z</time>
      </trkpt>
      <trkpt lat="43.9939" lon="5.29976">
        <ele>657</ele>
        <time>2011-03-27T15:32:30Z</time>
      </trkpt>
      <trkpt lat="43.99378" lon="5.2999">
        <ele>657</ele>
        <time>2011-03-27T15:32:42Z</time>
      </trkpt>
      <trkpt lat="43.99372" lon="5.29998">
        <ele>659</ele>
        <time>2011-03-27T15:32:49Z</time>
      </trkpt>
      <trkpt lat="43.9937" lon="5.30008">
        <ele>660</ele>
        <time>2011-03-27T15:32:55Z</time>
      </trkpt>
      <trkpt lat="43.9937" lon="5.30021">
        <ele>660</ele>
        <time>2011-03-27T15:33:00Z</time>
      </trkpt>
      <trkpt lat="43.99373" lon="5.3003">
        <ele>660</ele>
        <time>2011-03-27T15:33:04Z</time>
      </trkpt>
      <trkpt lat="43.99372" lon="5.30042">
        <ele>660</ele>
        <time>2011-03-27T15:33:09Z</time>
      </trkpt>
      <trkpt lat="43.99371" lon="5.30054">
        <ele>662</ele>
        <time>2011-03-27T15:33:14Z</time>
      </trkpt>
      <trkpt lat="43.9937" lon="5.30065">
        <ele>662</ele>
        <time>2011-03-27T15:33:20Z</time>
      </trkpt>
      <trkpt lat="43.99369" lon="5.30076">
        <ele>663</ele>
        <time>2011-03-27T15:33:25Z</time>
      </trkpt>
      <trkpt lat="43.9937" lon="5.30088">
        <ele>663</ele>
        <time>2011-03-27T15:33:30Z</time>
      </trkpt>
      <trkpt lat="43.9937" lon="5.3009">
        <ele>663</ele>
        <time>2011-03-27T15:33:31Z</time>
      </trkpt>
      <trkpt lat="43.99374" lon="5.30111">
        <ele>663</ele>
        <time>2011-03-27T15:33:41Z</time>
      </trkpt>
      <trkpt lat="43.99379" lon="5.30121">
        <ele>664</ele>
        <time>2011-03-27T15:33:46Z</time>
      </trkpt>
      <trkpt lat="43.99383" lon="5.3013">
        <ele>664</ele>
        <time>2011-03-27T15:33:51Z</time>
      </trkpt>
      <trkpt lat="43.99387" lon="5.30141">
        <ele>665</ele>
        <time>2011-03-27T15:33:58Z</time>
      </trkpt>
      <trkpt lat="43.9939" lon="5.30152">
        <ele>665</ele>
        <time>2011-03-27T15:34:04Z</time>
      </trkpt>
      <trkpt lat="43.99393" lon="5.30163">
        <ele>665</ele>
        <time>2011-03-27T15:34:09Z</time>
      </trkpt>
      <trkpt lat="43.99397" lon="5.30173">
        <ele>665</ele>
        <time>2011-03-27T15:34:14Z</time>
      </trkpt>
      <trkpt lat="43.99402" lon="5.30182">
        <ele>666</ele>
        <time>2011-03-27T15:34:20Z</time>
      </trkpt>
      <trkpt lat="43.99411" lon="5.30185">
        <ele>667</ele>
        <time>2011-03-27T15:34:25Z</time>
      </trkpt>
      <trkpt lat="43.9942" lon="5.30183">
        <ele>666</ele>
        <time>2011-03-27T15:34:30Z</time>
      </trkpt>
      <trkpt lat="43.99428" lon="5.30181">
        <ele>667</ele>
        <time>2011-03-27T15:34:35Z</time>
      </trkpt>
      <trkpt lat="43.9943" lon="5.30181">
        <ele>667</ele>
        <time>2011-03-27T15:34:36Z</time>
      </trkpt>
      <trkpt lat="43.99444" lon="5.30186">
        <ele>667</ele>
        <time>2011-03-27T15:34:44Z</time>
      </trkpt>
      <trkpt lat="43.99451" lon="5.30193">
        <ele>668</ele>
        <time>2011-03-27T15:34:49Z</time>
      </trkpt>
      <trkpt lat="43.99455" lon="5.30204">
        <ele>668</ele>
        <time>2011-03-27T15:34:54Z</time>
      </trkpt>
      <trkpt lat="43.99457" lon="5.30215">
        <ele>667</ele>
        <time>2011-03-27T15:34:59Z</time>
      </trkpt>
      <trkpt lat="43.99459" lon="5.30225">
        <ele>668</ele>
        <time>2011-03-27T15:35:04Z</time>
      </trkpt>
      <trkpt lat="43.99461" lon="5.30238">
        <ele>668</ele>
        <time>2011-03-27T15:35:10Z</time>
      </trkpt>
      <trkpt lat="43.9946" lon="5.3025">
        <ele>668</ele>
        <time>2011-03-27T15:35:16Z</time>
      </trkpt>
      <trkpt lat="43.99459" lon="5.30262">
        <ele>669</ele>
        <time>2011-03-27T15:35:22Z</time>
      </trkpt>
      <trkpt lat="43.99455" lon="5.30273">
        <ele>670</ele>
        <time>2011-03-27T15:35:28Z</time>
      </trkpt>
      <trkpt lat="43.99451" lon="5.30283">
        <ele>670</ele>
        <time>2011-03-27T15:35:34Z</time>
      </trkpt>
      <trkpt lat="43.99446" lon="5.30292">
        <ele>671</ele>
        <time>2011-03-27T15:35:41Z</time>
      </trkpt>
      <trkpt lat="43.99445" lon="5.30294">
        <ele>671</ele>
        <time>2011-03-27T15:35:42Z</time>
      </trkpt>
      <trkpt lat="43.99437" lon="5.30313">
        <ele>670</ele>
        <time>2011-03-27T15:35:52Z</time>
      </trkpt>
      <trkpt lat="43.99434" lon="5.30323">
        <ele>670</ele>
        <time>2011-03-27T15:35:57Z</time>
      </trkpt>
      <trkpt lat="43.99432" lon="5.30334">
        <ele>672</ele>
        <time>2011-03-27T15:36:03Z</time>
      </trkpt>
      <trkpt lat="43.99432" lon="5.30345">
        <ele>672</ele>
        <time>2011-03-27T15:36:07Z</time>
      </trkpt>
      <trkpt lat="43.99432" lon="5.30356">
        <ele>672</ele>
        <time>2011-03-27T15:36:11Z</time>
      </trkpt>
      <trkpt lat="43.99434" lon="5.30368">
        <ele>672</ele>
        <time>2011-03-27T15:36:16Z</time>
      </trkpt>
      <trkpt lat="43.99438" lon="5.30377">
        <ele>672</ele>
        <time>2011-03-27T15:36:20Z</time>
      </trkpt>
      <trkpt lat="43.99444" lon="5.30386">
        <ele>673</ele>
        <time>2011-03-27T15:36:25Z</time>
      </trkpt>
      <trkpt lat="43.99449" lon="5.30394">
        <ele>673</ele>
        <time>2011-03-27T15:36:30Z</time>
      </trkpt>
      <trkpt lat="43.99454" lon="5.30404">
        <ele>674</ele>
        <time>2011-03-27T15:36:36Z</time>
      </trkpt>
      <trkpt lat="43.99459" lon="5.30412">
        <ele>674</ele>
        <time>2011-03-27T15:36:41Z</time>
      </trkpt>
      <trkpt lat="43.99464" lon="5.3042">
        <ele>673</ele>
        <time>2011-03-27T15:36:46Z</time>
      </trkpt>
      <trkpt lat="43.99465" lon="5.30422">
        <ele>674</ele>
        <time>2011-03-27T15:36:47Z</time>
      </trkpt>
      <trkpt lat="43.99476" lon="5.30437">
        <ele>675</ele>
        <time>2011-03-27T15:36:56Z</time>
      </trkpt>
      <trkpt lat="43.99483" lon="5.30444">
        <ele>675</ele>
        <time>2011-03-27T15:37:01Z</time>
      </trkpt>
      <trkpt lat="43.99489" lon="5.30452">
        <ele>675</ele>
        <time>2011-03-27T15:37:06Z</time>
      </trkpt>
      <trkpt lat="43.99494" lon="5.30459">
        <ele>675</ele>
        <time>2011-03-27T15:37:11Z</time>
      </trkpt>
      <trkpt lat="43.995" lon="5.30466">
        <ele>675</ele>
        <time>2011-03-27T15:37:16Z</time>
      </trkpt>
      <trkpt lat="43.99507" lon="5.30472">
        <ele>676</ele>
        <time>2011-03-27T15:37:21Z</time>
      </trkpt>
      <trkpt lat="43.99514" lon="5.3048">
        <ele>676</ele>
        <time>2011-03-27T15:37:27Z</time>
      </trkpt>
      <trkpt lat="43.99518" lon="5.30488">
        <ele>676</ele>
        <time>2011-03-27T15:37:32Z</time>
      </trkpt>
      <trkpt lat="43.99523" lon="5.30499">
        <ele>677</ele>
        <time>2011-03-27T15:37:38Z</time>
      </trkpt>
      <trkpt lat="43.99526" lon="5.3051">
        <ele>678</ele>
        <time>2011-03-27T15:37:44Z</time>
      </trkpt>
      <trkpt lat="43.9953" lon="5.30521">
        <ele>678</ele>
        <time>2011-03-27T15:37:49Z</time>
      </trkpt>
      <trkpt lat="43.99531" lon="5.30523">
        <ele>677</ele>
        <time>2011-03-27T15:37:50Z</time>
      </trkpt>
      <trkpt lat="43.99539" lon="5.3054">
        <ele>679</ele>
        <time>2011-03-27T15:37:59Z</time>
      </trkpt>
      <trkpt lat="43.99543" lon="5.30549">
        <ele>678</ele>
        <time>2011-03-27T15:38:04Z</time>
      </trkpt>
      <trkpt lat="43.99547" lon="5.30559">
        <ele>678</ele>
        <time>2011-03-27T15:38:09Z</time>
      </trkpt>
      <trkpt lat="43.99551" lon="5.30569">
        <ele>679</ele>
        <time>2011-03-27T15:38:14Z</time>
      </trkpt>
      <trkpt lat="43.99555" lon="5.30578">
        <ele>680</ele>
        <time>2011-03-27T15:38:19Z</time>
      </trkpt>
      <trkpt lat="43.99561" lon="5.30588">
        <ele>680</ele>
        <time>2011-03-27T15:38:25Z</time>
      </trkpt>
      <trkpt lat="43.99567" lon="5.30594">
        <ele>681</ele>
        <time>2011-03-27T15:38:30Z</time>
      </trkpt>
      <trkpt lat="43.99573" lon="5.306">
        <ele>681</ele>
        <time>2011-03-27T15:38:35Z</time>
      </trkpt>
      <trkpt lat="43.9958" lon="5.30606">
        <ele>681</ele>
        <time>2011-03-27T15:38:40Z</time>
      </trkpt>
      <trkpt lat="43.99587" lon="5.30612">
        <ele>682</ele>
        <time>2011-03-27T15:38:45Z</time>
      </trkpt>
      <trkpt lat="43.99594" lon="5.30618">
        <ele>682</ele>
        <time>2011-03-27T15:38:50Z</time>
      </trkpt>
      <trkpt lat="43.99595" lon="5.30619">
        <ele>682</ele>
        <time>2011-03-27T15:38:51Z</time>
      </trkpt>
      <trkpt lat="43.99608" lon="5.3063">
        <ele>683</ele>
        <time>2011-03-27T15:39:01Z</time>
      </trkpt>
      <trkpt lat="43.99615" lon="5.30637">
        <ele>683</ele>
        <time>2011-03-27T15:39:07Z</time>
      </trkpt>
      <trkpt lat="43.99622" lon="5.30643">
        <ele>683</ele>
        <time>2011-03-27T15:39:12Z</time>
      </trkpt>
      <trkpt lat="43.99629" lon="5.30649">
        <ele>683</ele>
        <time>2011-03-27T15:39:18Z</time>
      </trkpt>
      <trkpt lat="43.99636" lon="5.30657">
        <ele>684</ele>
        <time>2011-03-27T15:39:24Z</time>
      </trkpt>
      <trkpt lat="43.99641" lon="5.30664">
        <ele>684</ele>
        <time>2011-03-27T15:39:28Z</time>
      </trkpt>
      <trkpt lat="43.99647" lon="5.30672">
        <ele>684</ele>
        <time>2011-03-27T15:39:33Z</time>
      </trkpt>
      <trkpt lat="43.99653" lon="5.30679">
        <ele>685</ele>
        <time>2011-03-27T15:39:38Z</time>
      </trkpt>
      <trkpt lat="43.99658" lon="5.30687">
        <ele>685</ele>
        <time>2011-03-27T15:39:43Z</time>
      </trkpt>
      <trkpt lat="43.99664" lon="5.30694">
        <ele>685</ele>
        <time>2011-03-27T15:39:48Z</time>
      </trkpt>
      <trkpt lat="43.9967" lon="5.30703">
        <ele>686</ele>
        <time>2011-03-27T15:39:54Z</time>
      </trkpt>
      <trkpt lat="43.99671" lon="5.30704">
        <ele>686</ele>
        <time>2011-03-27T15:39:55Z</time>
      </trkpt>
      <trkpt lat="43.99682" lon="5.30716">
        <ele>686</ele>
        <time>2011-03-27T15:40:04Z</time>
      </trkpt>
      <trkpt lat="43.99688" lon="5.30725">
        <ele>687</ele>
        <time>2011-03-27T15:40:09Z</time>
      </trkpt>
      <trkpt lat="43.99693" lon="5.30734">
        <ele>687</ele>
        <time>2011-03-27T15:40:15Z</time>
      </trkpt>
      <trkpt lat="43.99698" lon="5.30745">
        <ele>688</ele>
        <time>2011-03-27T15:40:21Z</time>
      </trkpt>
      <trkpt lat="43.99701" lon="5.30754">
        <ele>689</ele>
        <time>2011-03-27T15:40:26Z</time>
      </trkpt>
      <trkpt lat="43.99705" lon="5.30763">
        <ele>689</ele>
        <time>2011-03-27T15:40:31Z</time>
      </trkpt>
      <trkpt lat="43.99708" lon="5.30773">
        <ele>690</ele>
        <time>2011-03-27T15:40:36Z</time>
      </trkpt>
      <trkpt lat="43.99711" lon="5.30783">
        <ele>690</ele>
        <time>2011-03-27T15:40:41Z</time>
      </trkpt>
      <trkpt lat="43.99713" lon="5.30793">
        <ele>692</ele>
        <time>2011-03-27T15:40:46Z</time>
      </trkpt>
      <trkpt lat="43.99718" lon="5.30803">
        <ele>692</ele>
        <time>2011-03-27T15:40:52Z</time>
      </trkpt>
      <trkpt lat="43.99725" lon="5.3081">
        <ele>692</ele>
        <time>2011-03-27T15:40:58Z</time>
      </trkpt>
      <trkpt lat="43.99727" lon="5.3081">
        <ele>692</ele>
        <time>2011-03-27T15:40:59Z</time>
      </trkpt>
      <trkpt lat="43.99741" lon="5.30813">
        <ele>693</ele>
        <time>2011-03-27T15:41:09Z</time>
      </trkpt>
      <trkpt lat="43.99749" lon="5.3081">
        <ele>693</ele>
        <time>2011-03-27T15:41:19Z</time>
      </trkpt>
      <trkpt lat="43.99757" lon="5.30816">
        <ele>694</ele>
        <time>2011-03-27T15:41:26Z</time>
      </trkpt>
      <trkpt lat="43.9976" lon="5.30826">
        <ele>695</ele>
        <time>2011-03-27T15:41:32Z</time>
      </trkpt>
      <trkpt lat="43.99762" lon="5.30838">
        <ele>695</ele>
        <time>2011-03-27T15:41:38Z</time>
      </trkpt>
      <trkpt lat="43.99761" lon="5.3085">
        <ele>695</ele>
        <time>2011-03-27T15:41:44Z</time>
      </trkpt>
      <trkpt lat="43.99759" lon="5.30861">
        <ele>696</ele>
        <time>2011-03-27T15:41:50Z</time>
      </trkpt>
      <trkpt lat="43.99758" lon="5.30873">
        <ele>696</ele>
        <time>2011-03-27T15:41:57Z</time>
      </trkpt>
      <trkpt lat="43.99756" lon="5.30885">
        <ele>696</ele>
        <time>2011-03-27T15:42:03Z</time>
      </trkpt>
      <trkpt lat="43.99755" lon="5.30887">
        <ele>696</ele>
        <time>2011-03-27T15:42:04Z</time>
      </trkpt>
      <trkpt lat="43.99752" lon="5.30906">
        <ele>696</ele>
        <time>2011-03-27T15:42:14Z</time>
      </trkpt>
      <trkpt lat="43.99751" lon="5.30918">
        <ele>698</ele>
        <time>2011-03-27T15:42:21Z</time>
      </trkpt>
      <trkpt lat="43.99748" lon="5.30928">
        <ele>698</ele>
        <time>2011-03-27T15:42:26Z</time>
      </trkpt>
      <trkpt lat="43.99745" lon="5.30939">
        <ele>700</ele>
        <time>2011-03-27T15:42:31Z</time>
      </trkpt>
      <trkpt lat="43.99743" lon="5.3095">
        <ele>699</ele>
        <time>2011-03-27T15:42:36Z</time>
      </trkpt>
      <trkpt lat="43.9974" lon="5.30961">
        <ele>700</ele>
        <time>2011-03-27T15:42:41Z</time>
      </trkpt>
      <trkpt lat="43.99739" lon="5.30971">
        <ele>701</ele>
        <time>2011-03-27T15:42:46Z</time>
      </trkpt>
      <trkpt lat="43.99738" lon="5.30982">
        <ele>701</ele>
        <time>2011-03-27T15:42:52Z</time>
      </trkpt>
      <trkpt lat="43.99737" lon="5.30993">
        <ele>703</ele>
        <time>2011-03-27T15:42:58Z</time>
      </trkpt>
      <trkpt lat="43.99734" lon="5.31004">
        <ele>704</ele>
        <time>2011-03-27T15:43:03Z</time>
      </trkpt>
      <trkpt lat="43.99732" lon="5.31014">
        <ele>703</ele>
        <time>2011-03-27T15:43:08Z</time>
      </trkpt>
      <trkpt lat="43.99732" lon="5.31016">
        <ele>703</ele>
        <time>2011-03-27T15:43:09Z</time>
      </trkpt>
      <trkpt lat="43.99727" lon="5.31037">
        <ele>705</ele>
        <time>2011-03-27T15:43:19Z</time>
      </trkpt>
      <trkpt lat="43.99725" lon="5.31048">
        <ele>705</ele>
        <time>2011-03-27T15:43:24Z</time>
      </trkpt>
      <trkpt lat="43.99722" lon="5.3106">
        <ele>706</ele>
        <time>2011-03-27T15:43:29Z</time>
      </trkpt>
      <trkpt lat="43.9972" lon="5.3107">
        <ele>706</ele>
        <time>2011-03-27T15:43:34Z</time>
      </trkpt>
      <trkpt lat="43.99717" lon="5.3108">
        <ele>708</ele>
        <time>2011-03-27T15:43:39Z</time>
      </trkpt>
      <trkpt lat="43.99715" lon="5.31091">
        <ele>709</ele>
        <time>2011-03-27T15:43:44Z</time>
      </trkpt>
      <trkpt lat="43.99712" lon="5.31103">
        <ele>709</ele>
        <time>2011-03-27T15:43:50Z</time>
      </trkpt>
      <trkpt lat="43.99712" lon="5.31115">
        <ele>711</ele>
        <time>2011-03-27T15:43:56Z</time>
      </trkpt>
      <trkpt lat="43.9972" lon="5.31112">
        <ele>712</ele>
        <time>2011-03-27T15:44:07Z</time>
      </trkpt>
      <trkpt lat="43.99727" lon="5.31105">
        <ele>711</ele>
        <time>2011-03-27T15:44:14Z</time>
      </trkpt>
      <trkpt lat="43.99728" lon="5.31104">
        <ele>711</ele>
        <time>2011-03-27T15:44:15Z</time>
      </trkpt>
      <trkpt lat="43.99741" lon="5.31092">
        <ele>710</ele>
        <time>2011-03-27T15:44:27Z</time>
      </trkpt>
      <trkpt lat="43.99749" lon="5.31086">
        <ele>710</ele>
        <time>2011-03-27T15:44:33Z</time>
      </trkpt>
      <trkpt lat="43.99755" lon="5.31079">
        <ele>709</ele>
        <time>2011-03-27T15:44:38Z</time>
      </trkpt>
      <trkpt lat="43.99762" lon="5.31073">
        <ele>708</ele>
        <time>2011-03-27T15:44:43Z</time>
      </trkpt>
      <trkpt lat="43.99769" lon="5.31067">
        <ele>708</ele>
        <time>2011-03-27T15:44:48Z</time>
      </trkpt>
      <trkpt lat="43.99776" lon="5.3106">
        <ele>708</ele>
        <time>2011-03-27T15:44:54Z</time>
      </trkpt>
      <trkpt lat="43.99784" lon="5.31054">
        <ele>708</ele>
        <time>2011-03-27T15:44:59Z</time>
      </trkpt>
      <trkpt lat="43.99791" lon="5.31048">
        <ele>707</ele>
        <time>2011-03-27T15:45:04Z</time>
      </trkpt>
      <trkpt lat="43.99798" lon="5.31043">
        <ele>706</ele>
        <time>2011-03-27T15:45:08Z</time>
      </trkpt>
      <trkpt lat="43.99805" lon="5.31039">
        <ele>706</ele>
        <time>2011-03-27T15:45:13Z</time>
      </trkpt>
      <trkpt lat="43.99813" lon="5.31033">
        <ele>706</ele>
        <time>2011-03-27T15:45:19Z</time>
      </trkpt>
      <trkpt lat="43.99814" lon="5.31033">
        <ele>706</ele>
        <time>2011-03-27T15:45:20Z</time>
      </trkpt>
      <trkpt lat="43.99827" lon="5.31024">
        <ele>706</ele>
        <time>2011-03-27T15:45:28Z</time>
      </trkpt>
      <trkpt lat="43.99833" lon="5.3102">
        <ele>705</ele>
        <time>2011-03-27T15:45:32Z</time>
      </trkpt>
      <trkpt lat="43.99841" lon="5.31014">
        <ele>705</ele>
        <time>2011-03-27T15:45:37Z</time>
      </trkpt>
      <trkpt lat="43.99849" lon="5.31009">
        <ele>705</ele>
        <time>2011-03-27T15:45:42Z</time>
      </trkpt>
      <trkpt lat="43.99856" lon="5.31004">
        <ele>704</ele>
        <time>2011-03-27T15:45:47Z</time>
      </trkpt>
      <trkpt lat="43.99863" lon="5.30998">
        <ele>704</ele>
        <time>2011-03-27T15:45:52Z</time>
      </trkpt>
      <trkpt lat="43.99871" lon="5.30994">
        <ele>704</ele>
        <time>2011-03-27T15:45:57Z</time>
      </trkpt>
      <trkpt lat="43.99878" lon="5.30991">
        <ele>704</ele>
        <time>2011-03-27T15:46:01Z</time>
      </trkpt>
      <trkpt lat="43.99886" lon="5.30987">
        <ele>704</ele>
        <time>2011-03-27T15:46:06Z</time>
      </trkpt>
      <trkpt lat="43.99894" lon="5.30984">
        <ele>704</ele>
        <time>2011-03-27T15:46:11Z</time>
      </trkpt>
      <trkpt lat="43.99901" lon="5.30982">
        <ele>705</ele>
        <time>2011-03-27T15:46:16Z</time>
      </trkpt>
      <trkpt lat="43.99909" lon="5.3098">
        <ele>704</ele>
        <time>2011-03-27T15:46:21Z</time>
      </trkpt>
      <trkpt lat="43.9991" lon="5.30979">
        <ele>704</ele>
        <time>2011-03-27T15:46:22Z</time>
      </trkpt>
      <trkpt lat="43.99925" lon="5.30975">
        <ele>704</ele>
        <time>2011-03-27T15:46:32Z</time>
      </trkpt>
      <trkpt lat="43.99932" lon="5.30972">
        <ele>704</ele>
        <time>2011-03-27T15:46:37Z</time>
      </trkpt>
      <trkpt lat="43.9994" lon="5.30968">
        <ele>704</ele>
        <time>2011-03-27T15:46:43Z</time>
      </trkpt>
      <trkpt lat="43.99948" lon="5.30963">
        <ele>704</ele>
        <time>2011-03-27T15:46:48Z</time>
      </trkpt>
      <trkpt lat="43.99956" lon="5.3096">
        <ele>704</ele>
        <time>2011-03-27T15:46:53Z</time>
      </trkpt>
      <trkpt lat="43.99963" lon="5.30956">
        <ele>703</ele>
        <time>2011-03-27T15:46:58Z</time>
      </trkpt>
      <trkpt lat="43.9997" lon="5.3095">
        <ele>703</ele>
        <time>2011-03-27T15:47:04Z</time>
      </trkpt>
      <trkpt lat="43.99977" lon="5.30945">
        <ele>703</ele>
        <time>2011-03-27T15:47:10Z</time>
      </trkpt>
      <trkpt lat="43.99984" lon="5.30939">
        <ele>703</ele>
        <time>2011-03-27T15:47:15Z</time>
      </trkpt>
      <trkpt lat="43.9999" lon="5.30933">
        <ele>703</ele>
        <time>2011-03-27T15:47:20Z</time>
      </trkpt>
      <trkpt lat="43.99997" lon="5.30926">
        <ele>703</ele>
        <time>2011-03-27T15:47:26Z</time>
      </trkpt>
      <trkpt lat="43.99998" lon="5.30925">
        <ele>703</ele>
        <time>2011-03-27T15:47:27Z</time>
      </trkpt>
      <trkpt lat="44.00012" lon="5.30913">
        <ele>702</ele>
        <time>2011-03-27T15:47:38Z</time>
      </trkpt>
      <trkpt lat="44.00018" lon="5.30905">
        <ele>702</ele>
        <time>2011-03-27T15:47:44Z</time>
      </trkpt>
      <trkpt lat="44.00024" lon="5.30899">
        <ele>702</ele>
        <time>2011-03-27T15:47:49Z</time>
      </trkpt>
      <trkpt lat="44.00031" lon="5.30892">
        <ele>702</ele>
        <time>2011-03-27T15:47:54Z</time>
      </trkpt>
      <trkpt lat="44.00038" lon="5.30884">
        <ele>701</ele>
        <time>2011-03-27T15:48:00Z</time>
      </trkpt>
      <trkpt lat="44.00045" lon="5.30879">
        <ele>701</ele>
        <time>2011-03-27T15:48:07Z</time>
      </trkpt>
      <trkpt lat="44.00053" lon="5.30883">
        <ele>701</ele>
        <time>2011-03-27T15:48:12Z</time>
      </trkpt>
      <trkpt lat="44.0006" lon="5.30887">
        <ele>701</ele>
        <time>2011-03-27T15:48:16Z</time>
      </trkpt>
      <trkpt lat="44.00068" lon="5.30892">
        <ele>701</ele>
        <time>2011-03-27T15:48:21Z</time>
      </trkpt>
      <trkpt lat="44.00074" lon="5.30897">
        <ele>701</ele>
        <time>2011-03-27T15:48:26Z</time>
      </trkpt>
      <trkpt lat="44.00082" lon="5.30902">
        <ele>701</ele>
        <time>2011-03-27T15:48:31Z</time>
      </trkpt>
      <trkpt lat="44.00083" lon="5.30903">
        <ele>701</ele>
        <time>2011-03-27T15:48:32Z</time>
      </trkpt>
      <trkpt lat="44.00095" lon="5.30911">
        <ele>701</ele>
        <time>2011-03-27T15:48:41Z</time>
      </trkpt>
      <trkpt lat="44.00103" lon="5.30916">
        <ele>702</ele>
        <time>2011-03-27T15:48:46Z</time>
      </trkpt>
      <trkpt lat="44.0011" lon="5.3092">
        <ele>702</ele>
        <time>2011-03-27T15:48:51Z</time>
      </trkpt>
      <trkpt lat="44.00117" lon="5.30923">
        <ele>702</ele>
        <time>2011-03-27T15:48:56Z</time>
      </trkpt>
      <trkpt lat="44.00125" lon="5.30927">
        <ele>703</ele>
        <time>2011-03-27T15:49:00Z</time>
      </trkpt>
      <trkpt lat="44.00131" lon="5.3093">
        <ele>702</ele>
        <time>2011-03-27T15:49:02Z</time>
      </trkpt>
      <trkpt lat="44.00139" lon="5.30934">
        <ele>702</ele>
        <time>2011-03-27T15:49:04Z</time>
      </trkpt>
      <trkpt lat="44.00147" lon="5.30938">
        <ele>703</ele>
        <time>2011-03-27T15:49:06Z</time>
      </trkpt>
      <trkpt lat="44.00154" lon="5.30942">
        <ele>703</ele>
        <time>2011-03-27T15:49:08Z</time>
      </trkpt>
      <trkpt lat="44.00162" lon="5.30946">
        <ele>703</ele>
        <time>2011-03-27T15:49:10Z</time>
      </trkpt>
      <trkpt lat="44.00169" lon="5.30949">
        <ele>704</ele>
        <time>2011-03-27T15:49:12Z</time>
      </trkpt>
      <trkpt lat="44.00176" lon="5.30953">
        <ele>704</ele>
        <time>2011-03-27T15:49:14Z</time>
      </trkpt>
      <trkpt lat="44.00184" lon="5.30955">
        <ele>704</ele>
        <time>2011-03-27T15:49:16Z</time>
      </trkpt>
      <trkpt lat="44.0019" lon="5.30957">
        <ele>705</ele>
        <time>2011-03-27T15:49:18Z</time>
      </trkpt>
      <trkpt lat="44.00199" lon="5.3096">
        <ele>705</ele>
        <time>2011-03-27T15:49:20Z</time>
      </trkpt>
      <trkpt lat="44.00207" lon="5.30962">
        <ele>705</ele>
        <time>2011-03-27T15:49:22Z</time>
      </trkpt>
      <trkpt lat="44.00215" lon="5.30964">
        <ele>705</ele>
        <time>2011-03-27T15:49:24Z</time>
      </trkpt>
      <trkpt lat="44.0022" lon="5.30966">
        <ele>705</ele>
        <time>2011-03-27T15:49:25Z</time>
      </trkpt>
      <trkpt lat="44.00224" lon="5.30968">
        <ele>706</ele>
        <time>2011-03-27T15:49:26Z</time>
      </trkpt>
      <trkpt lat="44.00229" lon="5.30969">
        <ele>706</ele>
        <time>2011-03-27T15:49:27Z</time>
      </trkpt>
      <trkpt lat="44.00234" lon="5.3097">
        <ele>706</ele>
        <time>2011-03-27T15:49:28Z</time>
      </trkpt>
      <trkpt lat="44.00242" lon="5.30972">
        <ele>706</ele>
        <time>2011-03-27T15:49:30Z</time>
      </trkpt>
      <trkpt lat="44.00247" lon="5.30972">
        <ele>706</ele>
        <time>2011-03-27T15:49:31Z</time>
      </trkpt>
      <trkpt lat="44.00252" lon="5.30972">
        <ele>706</ele>
        <time>2011-03-27T15:49:32Z</time>
      </trkpt>
      <trkpt lat="44.00256" lon="5.30973">
        <ele>706</ele>
        <time>2011-03-27T15:49:33Z</time>
      </trkpt>
      <trkpt lat="44.00261" lon="5.30974">
        <ele>706</ele>
        <time>2011-03-27T15:49:34Z</time>
      </trkpt>
      <trkpt lat="44.00266" lon="5.30974">
        <ele>706</ele>
        <time>2011-03-27T15:49:35Z</time>
      </trkpt>
      <trkpt lat="44.00272" lon="5.30975">
        <ele>706</ele>
        <time>2011-03-27T15:49:36Z</time>
      </trkpt>
      <trkpt lat="44.00279" lon="5.30975">
        <ele>706</ele>
        <time>2011-03-27T15:49:37Z</time>
      </trkpt>
      <trkpt lat="44.00286" lon="5.30976">
        <ele>706</ele>
        <time>2011-03-27T15:49:38Z</time>
      </trkpt>
      <trkpt lat="44.00291" lon="5.30977">
        <ele>706</ele>
        <time>2011-03-27T15:49:39Z</time>
      </trkpt>
      <trkpt lat="44.00296" lon="5.30978">
        <ele>706</ele>
        <time>2011-03-27T15:49:40Z</time>
      </trkpt>
      <trkpt lat="44.00301" lon="5.30978">
        <ele>706</ele>
        <time>2011-03-27T15:49:41Z</time>
      </trkpt>
      <trkpt lat="44.00307" lon="5.30977">
        <ele>706</ele>
        <time>2011-03-27T15:49:42Z</time>
      </trkpt>
      <trkpt lat="44.00313" lon="5.30976">
        <ele>707</ele>
        <time>2011-03-27T15:49:43Z</time>
      </trkpt>
      <trkpt lat="44.00319" lon="5.30975">
        <ele>707</ele>
        <time>2011-03-27T15:49:44Z</time>
      </trkpt>
      <trkpt lat="44.00325" lon="5.30974">
        <ele>707</ele>
        <time>2011-03-27T15:49:45Z</time>
      </trkpt>
      <trkpt lat="44.00332" lon="5.30972">
        <ele>707</ele>
        <time>2011-03-27T15:49:46Z</time>
      </trkpt>
      <trkpt lat="44.0034" lon="5.3097">
        <ele>708</ele>
        <time>2011-03-27T15:49:47Z</time>
      </trkpt>
      <trkpt lat="44.00348" lon="5.30968">
        <ele>708</ele>
        <time>2011-03-27T15:49:48Z</time>
      </trkpt>
      <trkpt lat="44.00357" lon="5.30966">
        <ele>708</ele>
        <time>2011-03-27T15:49:49Z</time>
      </trkpt>
      <trkpt lat="44.00367" lon="5.30963">
        <ele>709</ele>
        <time>2011-03-27T15:49:50Z</time>
      </trkpt>
      <trkpt lat="44.00376" lon="5.3096">
        <ele>709</ele>
        <time>2011-03-27T15:49:51Z</time>
      </trkpt>
      <trkpt lat="44.00386" lon="5.30957">
        <ele>709</ele>
        <time>2011-03-27T15:49:52Z</time>
      </trkpt>
      <trkpt lat="44.00395" lon="5.30954">
        <ele>710</ele>
        <time>2011-03-27T15:49:53Z</time>
      </trkpt>
      <trkpt lat="44.00402" lon="5.30952">
        <ele>710</ele>
        <time>2011-03-27T15:49:54Z</time>
      </trkpt>
      <trkpt lat="44.00408" lon="5.30951">
        <ele>711</ele>
        <time>2011-03-27T15:49:55Z</time>
      </trkpt>
      <trkpt lat="44.00413" lon="5.30949">
        <ele>712</ele>
        <time>2011-03-27T15:49:56Z</time>
      </trkpt>
      <trkpt lat="44.00418" lon="5.30948">
        <ele>712</ele>
        <time>2011-03-27T15:49:57Z</time>
      </trkpt>
      <trkpt lat="44.00426" lon="5.30945">
        <ele>714</ele>
        <time>2011-03-27T15:49:59Z</time>
      </trkpt>
      <trkpt lat="44.00433" lon="5.30943">
        <ele>715</ele>
        <time>2011-03-27T15:50:02Z</time>
      </trkpt>
      <trkpt lat="44.00441" lon="5.3094">
        <ele>716</ele>
        <time>2011-03-27T15:50:05Z</time>
      </trkpt>
      <trkpt lat="44.00449" lon="5.30935">
        <ele>717</ele>
        <time>2011-03-27T15:50:09Z</time>
      </trkpt>
      <trkpt lat="44.00456" lon="5.3093">
        <ele>717</ele>
        <time>2011-03-27T15:50:13Z</time>
      </trkpt>
      <trkpt lat="44.00463" lon="5.30925">
        <ele>717</ele>
        <time>2011-03-27T15:50:17Z</time>
      </trkpt>
      <trkpt lat="44.0047" lon="5.30919">
        <ele>718</ele>
        <time>2011-03-27T15:50:22Z</time>
      </trkpt>
      <trkpt lat="44.00478" lon="5.30915">
        <ele>717</ele>
        <time>2011-03-27T15:50:26Z</time>
      </trkpt>
      <trkpt lat="44.00485" lon="5.3091">
        <ele>718</ele>
        <time>2011-03-27T15:50:31Z</time>
      </trkpt>
      <trkpt lat="44.00494" lon="5.30907">
        <ele>718</ele>
        <time>2011-03-27T15:50:36Z</time>
      </trkpt>
      <trkpt lat="44.00495" lon="5.30906">
        <ele>718</ele>
        <time>2011-03-27T15:50:37Z</time>
      </trkpt>
      <trkpt lat="44.0051" lon="5.30902">
        <ele>718</ele>
        <time>2011-03-27T15:50:46Z</time>
      </trkpt>
      <trkpt lat="44.00518" lon="5.30899">
        <ele>718</ele>
        <time>2011-03-27T15:50:51Z</time>
      </trkpt>
      <trkpt lat="44.00526" lon="5.30897">
        <ele>718</ele>
        <time>2011-03-27T15:50:56Z</time>
      </trkpt>
      <trkpt lat="44.00534" lon="5.30894">
        <ele>718</ele>
        <time>2011-03-27T15:51:01Z</time>
      </trkpt>
      <trkpt lat="44.00541" lon="5.3089">
        <ele>718</ele>
        <time>2011-03-27T15:51:06Z</time>
      </trkpt>
      <trkpt lat="44.00548" lon="5.30886">
        <ele>717</ele>
        <time>2011-03-27T15:51:11Z</time>
      </trkpt>
      <trkpt lat="44.00555" lon="5.30881">
        <ele>717</ele>
        <time>2011-03-27T15:51:16Z</time>
      </trkpt>
      <trkpt lat="44.00563" lon="5.30877">
        <ele>716</ele>
        <time>2011-03-27T15:51:21Z</time>
      </trkpt>
      <trkpt lat="44.00572" lon="5.30878">
        <ele>717</ele>
        <time>2011-03-27T15:51:26Z</time>
      </trkpt>
      <trkpt lat="44.0058" lon="5.30881">
        <ele>717</ele>
        <time>2011-03-27T15:51:31Z</time>
      </trkpt>
      <trkpt lat="44.00588" lon="5.30884">
        <ele>716</ele>
        <time>2011-03-27T15:51:36Z</time>
      </trkpt>
      <trkpt lat="44.00596" lon="5.30888">
        <ele>717</ele>
        <time>2011-03-27T15:51:42Z</time>
      </trkpt>
      <trkpt lat="44.00598" lon="5.30889">
        <ele>717</ele>
        <time>2011-03-27T15:51:43Z</time>
      </trkpt>
      <trkpt lat="44.00611" lon="5.30895">
        <ele>717</ele>
        <time>2011-03-27T15:51:52Z</time>
      </trkpt>
      <trkpt lat="44.00618" lon="5.30896">
        <ele>717</ele>
        <time>2011-03-27T15:51:57Z</time>
      </trkpt>
      <trkpt lat="44.00625" lon="5.30892">
        <ele>717</ele>
        <time>2011-03-27T15:52:02Z</time>
      </trkpt>
      <trkpt lat="44.00632" lon="5.30886">
        <ele>717</ele>
        <time>2011-03-27T15:52:07Z</time>
      </trkpt>
      <trkpt lat="44.0064" lon="5.3088">
        <ele>718</ele>
        <time>2011-03-27T15:52:13Z</time>
      </trkpt>
      <trkpt lat="44.00648" lon="5.30876">
        <ele>719</ele>
        <time>2011-03-27T15:52:19Z</time>
      </trkpt>
      <trkpt lat="44.00655" lon="5.3087">
        <ele>720</ele>
        <time>2011-03-27T15:52:25Z</time>
      </trkpt>
      <trkpt lat="44.00663" lon="5.30867">
        <ele>721</ele>
        <time>2011-03-27T15:52:31Z</time>
      </trkpt>
      <trkpt lat="44.00671" lon="5.30866">
        <ele>722</ele>
        <time>2011-03-27T15:52:37Z</time>
      </trkpt>
      <trkpt lat="44.00678" lon="5.30865">
        <ele>722</ele>
        <time>2011-03-27T15:52:42Z</time>
      </trkpt>
      <trkpt lat="44.00687" lon="5.30863">
        <ele>722</ele>
        <time>2011-03-27T15:52:48Z</time>
      </trkpt>
      <trkpt lat="44.00688" lon="5.30862">
        <ele>722</ele>
        <time>2011-03-27T15:52:49Z</time>
      </trkpt>
      <trkpt lat="44.00702" lon="5.30857">
        <ele>724</ele>
        <time>2011-03-27T15:52:58Z</time>
      </trkpt>
      <trkpt lat="44.00709" lon="5.30853">
        <ele>725</ele>
        <time>2011-03-27T15:53:03Z</time>
      </trkpt>
      <trkpt lat="44.00716" lon="5.30847">
        <ele>725</ele>
        <time>2011-03-27T15:53:08Z</time>
      </trkpt>
      <trkpt lat="44.00723" lon="5.30841">
        <ele>725</ele>
        <time>2011-03-27T15:53:13Z</time>
      </trkpt>
      <trkpt lat="44.00729" lon="5.30834">
        <ele>726</ele>
        <time>2011-03-27T15:53:22Z</time>
      </trkpt>
      <trkpt lat="44.00734" lon="5.30825">
        <ele>726</ele>
        <time>2011-03-27T15:53:48Z</time>
      </trkpt>
      <trkpt lat="44.00739" lon="5.30817">
        <ele>726</ele>
        <time>2011-03-27T15:54:39Z</time>
      </trkpt>
      <trkpt lat="44.0074" lon="5.30816">
        <ele>726</ele>
        <time>2011-03-27T15:54:40Z</time>
      </trkpt>
      <trkpt lat="44.00749" lon="5.308">
        <ele>726</ele>
        <time>2011-03-27T15:54:49Z</time>
      </trkpt>
      <trkpt lat="44.00754" lon="5.30791">
        <ele>725</ele>
        <time>2011-03-27T15:54:54Z</time>
      </trkpt>
      <trkpt lat="44.00759" lon="5.30781">
        <ele>725</ele>
        <time>2011-03-27T15:54:59Z</time>
      </trkpt>
      <trkpt lat="44.00764" lon="5.30771">
        <ele>725</ele>
        <time>2011-03-27T15:55:04Z</time>
      </trkpt>
      <trkpt lat="44.00769" lon="5.30763">
        <ele>724</ele>
        <time>2011-03-27T15:55:08Z</time>
      </trkpt>
      <trkpt lat="44.00774" lon="5.30755">
        <ele>724</ele>
        <time>2011-03-27T15:55:12Z</time>
      </trkpt>
      <trkpt lat="44.00779" lon="5.30745">
        <ele>723</ele>
        <time>2011-03-27T15:55:17Z</time>
      </trkpt>
      <trkpt lat="44.00785" lon="5.30736">
        <ele>722</ele>
        <time>2011-03-27T15:55:22Z</time>
      </trkpt>
      <trkpt lat="44.0079" lon="5.30727">
        <ele>723</ele>
        <time>2011-03-27T15:55:27Z</time>
      </trkpt>
      <trkpt lat="44.00795" lon="5.30719">
        <ele>723</ele>
        <time>2011-03-27T15:55:31Z</time>
      </trkpt>
      <trkpt lat="44.008" lon="5.3071">
        <ele>723</ele>
        <time>2011-03-27T15:55:36Z</time>
      </trkpt>
      <trkpt lat="44.00805" lon="5.30701">
        <ele>724</ele>
        <time>2011-03-27T15:55:41Z</time>
      </trkpt>
      <trkpt lat="44.00806" lon="5.30699">
        <ele>724</ele>
        <time>2011-03-27T15:55:42Z</time>
      </trkpt>
      <trkpt lat="44.00814" lon="5.30683">
        <ele>723</ele>
        <time>2011-03-27T15:55:51Z</time>
      </trkpt>
      <trkpt lat="44.00819" lon="5.30674">
        <ele>722</ele>
        <time>2011-03-27T15:55:56Z</time>
      </trkpt>
      <trkpt lat="44.00823" lon="5.30663">
        <ele>722</ele>
        <time>2011-03-27T15:56:01Z</time>
      </trkpt>
      <trkpt lat="44.00827" lon="5.30653">
        <ele>721</ele>
        <time>2011-03-27T15:56:06Z</time>
      </trkpt>
      <trkpt lat="44.00831" lon="5.30643">
        <ele>722</ele>
        <time>2011-03-27T15:56:11Z</time>
      </trkpt>
      <trkpt lat="44.00836" lon="5.30634">
        <ele>721</ele>
        <time>2011-03-27T15:56:16Z</time>
      </trkpt>
      <trkpt lat="44.0084" lon="5.30624">
        <ele>721</ele>
        <time>2011-03-27T15:56:21Z</time>
      </trkpt>
      <trkpt lat="44.00845" lon="5.30614">
        <ele>721</ele>
        <time>2011-03-27T15:56:26Z</time>
      </trkpt>
      <trkpt lat="44.0085" lon="5.30605">
        <ele>720</ele>
        <time>2011-03-27T15:56:31Z</time>
      </trkpt>
      <trkpt lat="44.00853" lon="5.30593">
        <ele>720</ele>
        <time>2011-03-27T15:56:36Z</time>
      </trkpt>
      <trkpt lat="44.00857" lon="5.30584">
        <ele>719</ele>
        <time>2011-03-27T15:56:40Z</time>
      </trkpt>
      <trkpt lat="44.0086" lon="5.30575">
        <ele>719</ele>
        <time>2011-03-27T15:56:44Z</time>
      </trkpt>
      <trkpt lat="44.00861" lon="5.30573">
        <ele>719</ele>
        <time>2011-03-27T15:56:45Z</time>
      </trkpt>
      <trkpt lat="44.00867" lon="5.30556">
        <ele>718</ele>
        <time>2011-03-27T15:56:52Z</time>
      </trkpt>
      <trkpt lat="44.0087" lon="5.30547">
        <ele>718</ele>
        <time>2011-03-27T15:56:56Z</time>
      </trkpt>
      <trkpt lat="44.00874" lon="5.30536">
        <ele>718</ele>
        <time>2011-03-27T15:57:01Z</time>
      </trkpt>
      <trkpt lat="44.00877" lon="5.30525">
        <ele>719</ele>
        <time>2011-03-27T15:57:06Z</time>
      </trkpt>
      <trkpt lat="44.0088" lon="5.30515">
        <ele>718</ele>
        <time>2011-03-27T15:57:11Z</time>
      </trkpt>
      <trkpt lat="44.00883" lon="5.30504">
        <ele>719</ele>
        <time>2011-03-27T15:57:16Z</time>
      </trkpt>
      <trkpt lat="44.00886" lon="5.30493">
        <ele>720</ele>
        <time>2011-03-27T15:57:21Z</time>
      </trkpt>
      <trkpt lat="44.00888" lon="5.30483">
        <ele>720</ele>
        <time>2011-03-27T15:57:26Z</time>
      </trkpt>
      <trkpt lat="44.00892" lon="5.30474">
        <ele>721</ele>
        <time>2011-03-27T15:57:31Z</time>
      </trkpt>
      <trkpt lat="44.00899" lon="5.30468">
        <ele>721</ele>
        <time>2011-03-27T15:57:36Z</time>
      </trkpt>
      <trkpt lat="44.00906" lon="5.30462">
        <ele>722</ele>
        <time>2011-03-27T15:57:42Z</time>
      </trkpt>
      <trkpt lat="44.00913" lon="5.30457">
        <ele>723</ele>
        <time>2011-03-27T15:57:47Z</time>
      </trkpt>
      <trkpt lat="44.00914" lon="5.30456">
        <ele>723</ele>
        <time>2011-03-27T15:57:48Z</time>
      </trkpt>
      <trkpt lat="44.00925" lon="5.3044">
        <ele>725</ele>
        <time>2011-03-27T15:57:59Z</time>
      </trkpt>
      <trkpt lat="44.00929" lon="5.3043">
        <ele>727</ele>
        <time>2011-03-27T15:58:05Z</time>
      </trkpt>
      <trkpt lat="44.00931" lon="5.30419">
        <ele>728</ele>
        <time>2011-03-27T15:58:11Z</time>
      </trkpt>
      <trkpt lat="44.00928" lon="5.30408">
        <ele>730</ele>
        <time>2011-03-27T15:58:19Z</time>
      </trkpt>
      <trkpt lat="44.00927" lon="5.30398">
        <ele>731</ele>
        <time>2011-03-27T15:58:25Z</time>
      </trkpt>
      <trkpt lat="44.00926" lon="5.30387">
        <ele>733</ele>
        <time>2011-03-27T15:58:30Z</time>
      </trkpt>
      <trkpt lat="44.00924" lon="5.30375">
        <ele>734</ele>
        <time>2011-03-27T15:58:36Z</time>
      </trkpt>
      <trkpt lat="44.00925" lon="5.30364">
        <ele>735</ele>
        <time>2011-03-27T15:58:41Z</time>
      </trkpt>
      <trkpt lat="44.0093" lon="5.30353">
        <ele>737</ele>
        <time>2011-03-27T15:58:47Z</time>
      </trkpt>
      <trkpt lat="44.00934" lon="5.30344">
        <ele>739</ele>
        <time>2011-03-27T15:58:52Z</time>
      </trkpt>
      <trkpt lat="44.00935" lon="5.30342">
        <ele>740</ele>
        <time>2011-03-27T15:58:53Z</time>
      </trkpt>
      <trkpt lat="44.00944" lon="5.30327">
        <ele>740</ele>
        <time>2011-03-27T15:59:02Z</time>
      </trkpt>
      <trkpt lat="44.00949" lon="5.30319">
        <ele>740</ele>
        <time>2011-03-27T15:59:07Z</time>
      </trkpt>
      <trkpt lat="44.00955" lon="5.3031">
        <ele>741</ele>
        <time>2011-03-27T15:59:12Z</time>
      </trkpt>
      <trkpt lat="44.0096" lon="5.30302">
        <ele>740</ele>
        <time>2011-03-27T15:59:17Z</time>
      </trkpt>
      <trkpt lat="44.00966" lon="5.30296">
        <ele>740</ele>
        <time>2011-03-27T15:59:22Z</time>
      </trkpt>
      <trkpt lat="44.00972" lon="5.30289">
        <ele>742</ele>
        <time>2011-03-27T15:59:27Z</time>
      </trkpt>
      <trkpt lat="44.00978" lon="5.30283">
        <ele>742</ele>
        <time>2011-03-27T15:59:32Z</time>
      </trkpt>
      <trkpt lat="44.00986" lon="5.30276">
        <ele>742</ele>
        <time>2011-03-27T15:59:38Z</time>
      </trkpt>
      <trkpt lat="44.00993" lon="5.30272">
        <ele>743</ele>
        <time>2011-03-27T15:59:43Z</time>
      </trkpt>
      <trkpt lat="44.01" lon="5.30269">
        <ele>744</ele>
        <time>2011-03-27T15:59:48Z</time>
      </trkpt>
      <trkpt lat="44.01007" lon="5.30263">
        <ele>743</ele>
        <time>2011-03-27T15:59:53Z</time>
      </trkpt>
      <trkpt lat="44.01009" lon="5.30262">
        <ele>743</ele>
        <time>2011-03-27T15:59:54Z</time>
      </trkpt>
      <trkpt lat="44.01022" lon="5.30253">
        <ele>744</ele>
        <time>2011-03-27T16:00:03Z</time>
      </trkpt>
      <trkpt lat="44.0103" lon="5.30251">
        <ele>746</ele>
        <time>2011-03-27T16:00:08Z</time>
      </trkpt>
      <trkpt lat="44.01038" lon="5.30249">
        <ele>746</ele>
        <time>2011-03-27T16:00:13Z</time>
      </trkpt>
      <trkpt lat="44.01046" lon="5.30248">
        <ele>746</ele>
        <time>2011-03-27T16:00:18Z</time>
      </trkpt>
      <trkpt lat="44.01054" lon="5.30249">
        <ele>747</ele>
        <time>2011-03-27T16:00:23Z</time>
      </trkpt>
      <trkpt lat="44.01061" lon="5.30252">
        <ele>748</ele>
        <time>2011-03-27T16:00:28Z</time>
      </trkpt>
      <trkpt lat="44.01069" lon="5.30256">
        <ele>749</ele>
        <time>2011-03-27T16:00:33Z</time>
      </trkpt>
      <trkpt lat="44.01076" lon="5.30259">
        <ele>750</ele>
        <time>2011-03-27T16:00:38Z</time>
      </trkpt>
      <trkpt lat="44.01084" lon="5.30262">
        <ele>750</ele>
        <time>2011-03-27T16:00:43Z</time>
      </trkpt>
      <trkpt lat="44.01092" lon="5.30263">
        <ele>750</ele>
        <time>2011-03-27T16:00:47Z</time>
      </trkpt>
      <trkpt lat="44.011" lon="5.30264">
        <ele>750</ele>
        <time>2011-03-27T16:00:52Z</time>
      </trkpt>
      <trkpt lat="44.01108" lon="5.30267">
        <ele>751</ele>
        <time>2011-03-27T16:00:57Z</time>
      </trkpt>
      <trkpt lat="44.01109" lon="5.30267">
        <ele>751</ele>
        <time>2011-03-27T16:00:58Z</time>
      </trkpt>
      <trkpt lat="44.01123" lon="5.30273">
        <ele>752</ele>
        <time>2011-03-27T16:01:07Z</time>
      </trkpt>
      <trkpt lat="44.01131" lon="5.30278">
        <ele>753</ele>
        <time>2011-03-27T16:01:12Z</time>
      </trkpt>
      <trkpt lat="44.01139" lon="5.30281">
        <ele>753</ele>
        <time>2011-03-27T16:01:17Z</time>
      </trkpt>
      <trkpt lat="44.01148" lon="5.30282">
        <ele>754</ele>
        <time>2011-03-27T16:01:22Z</time>
      </trkpt>
      <trkpt lat="44.01157" lon="5.3028">
        <ele>754</ele>
        <time>2011-03-27T16:01:27Z</time>
      </trkpt>
      <trkpt lat="44.01166" lon="5.30279">
        <ele>754</ele>
        <time>2011-03-27T16:01:32Z</time>
      </trkpt>
      <trkpt lat="44.01174" lon="5.30278">
        <ele>755</ele>
        <time>2011-03-27T16:01:37Z</time>
      </trkpt>
      <trkpt lat="44.01183" lon="5.30277">
        <ele>756</ele>
        <time>2011-03-27T16:01:42Z</time>
      </trkpt>
      <trkpt lat="44.01191" lon="5.30274">
        <ele>756</ele>
        <time>2011-03-27T16:01:47Z</time>
      </trkpt>
      <trkpt lat="44.01198" lon="5.30272">
        <ele>757</ele>
        <time>2011-03-27T16:01:51Z</time>
      </trkpt>
      <trkpt lat="44.01207" lon="5.3027">
        <ele>757</ele>
        <time>2011-03-27T16:01:56Z</time>
      </trkpt>
      <trkpt lat="44.01216" lon="5.30271">
        <ele>757</ele>
        <time>2011-03-27T16:02:01Z</time>
      </trkpt>
      <trkpt lat="44.01217" lon="5.30271">
        <ele>757</ele>
        <time>2011-03-27T16:02:02Z</time>
      </trkpt>
      <trkpt lat="44.0123" lon="5.30279">
        <ele>760</ele>
        <time>2011-03-27T16:02:11Z</time>
      </trkpt>
      <trkpt lat="44.01237" lon="5.30284">
        <ele>760</ele>
        <time>2011-03-27T16:02:16Z</time>
      </trkpt>
      <trkpt lat="44.01243" lon="5.30291">
        <ele>761</ele>
        <time>2011-03-27T16:02:21Z</time>
      </trkpt>
      <trkpt lat="44.01248" lon="5.30298">
        <ele>762</ele>
        <time>2011-03-27T16:02:26Z</time>
      </trkpt>
      <trkpt lat="44.01254" lon="5.30305">
        <ele>761</ele>
        <time>2011-03-27T16:02:31Z</time>
      </trkpt>
      <trkpt lat="44.01261" lon="5.30314">
        <ele>761</ele>
        <time>2011-03-27T16:02:36Z</time>
      </trkpt>
      <trkpt lat="44.01267" lon="5.30322">
        <ele>763</ele>
        <time>2011-03-27T16:02:41Z</time>
      </trkpt>
      <trkpt lat="44.01273" lon="5.3033">
        <ele>763</ele>
        <time>2011-03-27T16:02:46Z</time>
      </trkpt>
      <trkpt lat="44.01279" lon="5.30337">
        <ele>763</ele>
        <time>2011-03-27T16:02:51Z</time>
      </trkpt>
      <trkpt lat="44.01285" lon="5.30346">
        <ele>763</ele>
        <time>2011-03-27T16:02:56Z</time>
      </trkpt>
      <trkpt lat="44.01291" lon="5.30354">
        <ele>764</ele>
        <time>2011-03-27T16:03:01Z</time>
      </trkpt>
      <trkpt lat="44.01296" lon="5.30362">
        <ele>765</ele>
        <time>2011-03-27T16:03:06Z</time>
      </trkpt>
      <trkpt lat="44.01297" lon="5.30364">
        <ele>765</ele>
        <time>2011-03-27T16:03:07Z</time>
      </trkpt>
      <trkpt lat="44.0131" lon="5.30375">
        <ele>766</ele>
        <time>2011-03-27T16:03:16Z</time>
      </trkpt>
      <trkpt lat="44.01317" lon="5.3038">
        <ele>767</ele>
        <time>2011-03-27T16:03:21Z</time>
      </trkpt>
      <trkpt lat="44.01324" lon="5.30385">
        <ele>767</ele>
        <time>2011-03-27T16:03:26Z</time>
      </trkpt>
      <trkpt lat="44.01332" lon="5.30389">
        <ele>768</ele>
        <time>2011-03-27T16:03:31Z</time>
      </trkpt>
      <trkpt lat="44.01339" lon="5.30393">
        <ele>768</ele>
        <time>2011-03-27T16:03:36Z</time>
      </trkpt>
      <trkpt lat="44.01346" lon="5.30397">
        <ele>769</ele>
        <time>2011-03-27T16:03:41Z</time>
      </trkpt>
      <trkpt lat="44.01353" lon="5.30401">
        <ele>770</ele>
        <time>2011-03-27T16:03:46Z</time>
      </trkpt>
      <trkpt lat="44.0136" lon="5.30406">
        <ele>771</ele>
        <time>2011-03-27T16:03:51Z</time>
      </trkpt>
      <trkpt lat="44.01367" lon="5.30411">
        <ele>771</ele>
        <time>2011-03-27T16:03:56Z</time>
      </trkpt>
      <trkpt lat="44.01374" lon="5.30416">
        <ele>771</ele>
        <time>2011-03-27T16:04:01Z</time>
      </trkpt>
      <trkpt lat="44.01381" lon="5.30419">
        <ele>772</ele>
        <time>2011-03-27T16:04:06Z</time>
      </trkpt>
      <trkpt lat="44.01389" lon="5.30422">
        <ele>773</ele>
        <time>2011-03-27T16:04:11Z</time>
      </trkpt>
      <trkpt lat="44.0139" lon="5.30422">
        <ele>774</ele>
        <time>2011-03-27T16:04:12Z</time>
      </trkpt>
      <trkpt lat="44.01404" lon="5.30427">
        <ele>774</ele>
        <time>2011-03-27T16:04:21Z</time>
      </trkpt>
      <trkpt lat="44.01411" lon="5.3043">
        <ele>774</ele>
        <time>2011-03-27T16:04:26Z</time>
      </trkpt>
      <trkpt lat="44.01419" lon="5.30433">
        <ele>775</ele>
        <time>2011-03-27T16:04:31Z</time>
      </trkpt>
      <trkpt lat="44.01426" lon="5.30437">
        <ele>774</ele>
        <time>2011-03-27T16:04:36Z</time>
      </trkpt>
      <trkpt lat="44.01433" lon="5.3044">
        <ele>775</ele>
        <time>2011-03-27T16:04:41Z</time>
      </trkpt>
      <trkpt lat="44.01441" lon="5.30443">
        <ele>775</ele>
        <time>2011-03-27T16:04:46Z</time>
      </trkpt>
      <trkpt lat="44.01448" lon="5.30446">
        <ele>776</ele>
        <time>2011-03-27T16:04:51Z</time>
      </trkpt>
      <trkpt lat="44.01456" lon="5.30449">
        <ele>776</ele>
        <time>2011-03-27T16:04:56Z</time>
      </trkpt>
      <trkpt lat="44.01464" lon="5.30452">
        <ele>777</ele>
        <time>2011-03-27T16:05:01Z</time>
      </trkpt>
      <trkpt lat="44.01473" lon="5.30454">
        <ele>778</ele>
        <time>2011-03-27T16:05:07Z</time>
      </trkpt>
      <trkpt lat="44.0148" lon="5.30456">
        <ele>778</ele>
        <time>2011-03-27T16:05:12Z</time>
      </trkpt>
      <trkpt lat="44.01482" lon="5.30457">
        <ele>778</ele>
        <time>2011-03-27T16:05:13Z</time>
      </trkpt>
      <trkpt lat="44.01495" lon="5.30464">
        <ele>781</ele>
        <time>2011-03-27T16:05:22Z</time>
      </trkpt>
      <trkpt lat="44.01501" lon="5.30471">
        <ele>780</ele>
        <time>2011-03-27T16:05:27Z</time>
      </trkpt>
      <trkpt lat="44.01508" lon="5.30478">
        <ele>781</ele>
        <time>2011-03-27T16:05:32Z</time>
      </trkpt>
      <trkpt lat="44.01514" lon="5.30484">
        <ele>782</ele>
        <time>2011-03-27T16:05:37Z</time>
      </trkpt>
      <trkpt lat="44.01521" lon="5.30491">
        <ele>782</ele>
        <time>2011-03-27T16:05:42Z</time>
      </trkpt>
      <trkpt lat="44.01527" lon="5.30497">
        <ele>782</ele>
        <time>2011-03-27T16:05:47Z</time>
      </trkpt>
      <trkpt lat="44.01534" lon="5.30503">
        <ele>783</ele>
        <time>2011-03-27T16:05:52Z</time>
      </trkpt>
      <trkpt lat="44.0154" lon="5.30511">
        <ele>783</ele>
        <time>2011-03-27T16:05:57Z</time>
      </trkpt>
      <trkpt lat="44.01547" lon="5.30517">
        <ele>783</ele>
        <time>2011-03-27T16:06:02Z</time>
      </trkpt>
      <trkpt lat="44.01554" lon="5.30522">
        <ele>784</ele>
        <time>2011-03-27T16:06:07Z</time>
      </trkpt>
      <trkpt lat="44.01561" lon="5.30527">
        <ele>785</ele>
        <time>2011-03-27T16:06:12Z</time>
      </trkpt>
      <trkpt lat="44.01569" lon="5.3053">
        <ele>785</ele>
        <time>2011-03-27T16:06:17Z</time>
      </trkpt>
      <trkpt lat="44.0157" lon="5.3053">
        <ele>785</ele>
        <time>2011-03-27T16:06:18Z</time>
      </trkpt>
      <trkpt lat="44.01584" lon="5.30536">
        <ele>785</ele>
        <time>2011-03-27T16:06:27Z</time>
      </trkpt>
      <trkpt lat="44.01592" lon="5.30539">
        <ele>786</ele>
        <time>2011-03-27T16:06:32Z</time>
      </trkpt>
      <trkpt lat="44.01599" lon="5.30543">
        <ele>787</ele>
        <time>2011-03-27T16:06:37Z</time>
      </trkpt>
      <trkpt lat="44.01607" lon="5.30546">
        <ele>787</ele>
        <time>2011-03-27T16:06:42Z</time>
      </trkpt>
      <trkpt lat="44.01614" lon="5.3055">
        <ele>788</ele>
        <time>2011-03-27T16:06:47Z</time>
      </trkpt>
      <trkpt lat="44.01621" lon="5.30553">
        <ele>789</ele>
        <time>2011-03-27T16:06:52Z</time>
      </trkpt>
      <trkpt lat="44.01629" lon="5.30557">
        <ele>790</ele>
        <time>2011-03-27T16:06:58Z</time>
      </trkpt>
      <trkpt lat="44.01637" lon="5.30562">
        <ele>791</ele>
        <time>2011-03-27T16:07:04Z</time>
      </trkpt>
      <trkpt lat="44.01646" lon="5.30567">
        <ele>792</ele>
        <time>2011-03-27T16:07:10Z</time>
      </trkpt>
      <trkpt lat="44.01654" lon="5.30571">
        <ele>793</ele>
        <time>2011-03-27T16:07:16Z</time>
      </trkpt>
      <trkpt lat="44.01663" lon="5.30573">
        <ele>793</ele>
        <time>2011-03-27T16:07:22Z</time>
      </trkpt>
      <trkpt lat="44.01664" lon="5.30573">
        <ele>793</ele>
        <time>2011-03-27T16:07:23Z</time>
      </trkpt>
      <trkpt lat="44.01678" lon="5.30574">
        <ele>794</ele>
        <time>2011-03-27T16:07:32Z</time>
      </trkpt>
      <trkpt lat="44.01686" lon="5.30575">
        <ele>795</ele>
        <time>2011-03-27T16:07:37Z</time>
      </trkpt>
      <trkpt lat="44.01694" lon="5.30578">
        <ele>796</ele>
        <time>2011-03-27T16:07:42Z</time>
      </trkpt>
      <trkpt lat="44.01701" lon="5.30583">
        <ele>796</ele>
        <time>2011-03-27T16:07:47Z</time>
      </trkpt>
      <trkpt lat="44.01707" lon="5.3059">
        <ele>796</ele>
        <time>2011-03-27T16:07:52Z</time>
      </trkpt>
      <trkpt lat="44.01787" lon="5.30536">
        <ele>817</ele>
        <time>2011-03-27T16:18:27Z</time>
      </trkpt>
      <trkpt lat="44.01798" lon="5.30549">
        <ele>817</ele>
        <time>2011-03-27T16:18:36Z</time>
      </trkpt>
      <trkpt lat="44.01804" lon="5.30557">
        <ele>817</ele>
        <time>2011-03-27T16:18:41Z</time>
      </trkpt>
      <trkpt lat="44.01809" lon="5.30565">
        <ele>817</ele>
        <time>2011-03-27T16:18:46Z</time>
      </trkpt>
      <trkpt lat="44.01814" lon="5.30574">
        <ele>817</ele>
        <time>2011-03-27T16:18:52Z</time>
      </trkpt>
      <trkpt lat="44.01818" lon="5.30583">
        <ele>818</ele>
        <time>2011-03-27T16:18:57Z</time>
      </trkpt>
      <trkpt lat="44.01822" lon="5.30592">
        <ele>817</ele>
        <time>2011-03-27T16:19:02Z</time>
      </trkpt>
      <trkpt lat="44.01826" lon="5.30601">
        <ele>817</ele>
        <time>2011-03-27T16:19:07Z</time>
      </trkpt>
      <trkpt lat="44.01831" lon="5.30612">
        <ele>817</ele>
        <time>2011-03-27T16:19:13Z</time>
      </trkpt>
      <trkpt lat="44.01836" lon="5.3062">
        <ele>817</ele>
        <time>2011-03-27T16:19:18Z</time>
      </trkpt>
      <trkpt lat="44.01841" lon="5.30631">
        <ele>816</ele>
        <time>2011-03-27T16:19:24Z</time>
      </trkpt>
      <trkpt lat="44.01843" lon="5.3064">
        <ele>815</ele>
        <time>2011-03-27T16:19:29Z</time>
      </trkpt>
      <trkpt lat="44.01844" lon="5.30642">
        <ele>815</ele>
        <time>2011-03-27T16:19:30Z</time>
      </trkpt>
      <trkpt lat="44.01859" lon="5.30643">
        <ele>816</ele>
        <time>2011-03-27T16:20:16Z</time>
      </trkpt>
      <trkpt lat="44.01866" lon="5.30636">
        <ele>816</ele>
        <time>2011-03-27T16:20:22Z</time>
      </trkpt>
      <trkpt lat="44.01874" lon="5.30642">
        <ele>816</ele>
        <time>2011-03-27T16:20:27Z</time>
      </trkpt>
      <trkpt lat="44.0188" lon="5.30649">
        <ele>816</ele>
        <time>2011-03-27T16:20:32Z</time>
      </trkpt>
      <trkpt lat="44.01881" lon="5.3065">
        <ele>816</ele>
        <time>2011-03-27T16:20:33Z</time>
      </trkpt>
      <trkpt lat="44.01894" lon="5.3066">
        <ele>816</ele>
        <time>2011-03-27T16:20:43Z</time>
      </trkpt>
      <trkpt lat="44.019" lon="5.30668">
        <ele>816</ele>
        <time>2011-03-27T16:20:49Z</time>
      </trkpt>
      <trkpt lat="44.01907" lon="5.30675">
        <ele>816</ele>
        <time>2011-03-27T16:20:55Z</time>
      </trkpt>
      <trkpt lat="44.01913" lon="5.30683">
        <ele>817</ele>
        <time>2011-03-27T16:21:01Z</time>
      </trkpt>
      <trkpt lat="44.0192" lon="5.30691">
        <ele>818</ele>
        <time>2011-03-27T16:21:07Z</time>
      </trkpt>
      <trkpt lat="44.01926" lon="5.30699">
        <ele>818</ele>
        <time>2011-03-27T16:21:13Z</time>
      </trkpt>
      <trkpt lat="44.01933" lon="5.30707">
        <ele>819</ele>
        <time>2011-03-27T16:21:19Z</time>
      </trkpt>
      <trkpt lat="44.01939" lon="5.30714">
        <ele>820</ele>
        <time>2011-03-27T16:21:25Z</time>
      </trkpt>
      <trkpt lat="44.01946" lon="5.30722">
        <ele>821</ele>
        <time>2011-03-27T16:21:31Z</time>
      </trkpt>
      <trkpt lat="44.01953" lon="5.30727">
        <ele>821</ele>
        <time>2011-03-27T16:21:37Z</time>
      </trkpt>
      <trkpt lat="44.01954" lon="5.30728">
        <ele>822</ele>
        <time>2011-03-27T16:21:38Z</time>
      </trkpt>
      <trkpt lat="44.01968" lon="5.3074">
        <ele>824</ele>
        <time>2011-03-27T16:21:50Z</time>
      </trkpt>
      <trkpt lat="44.01974" lon="5.30749">
        <ele>824</ele>
        <time>2011-03-27T16:21:58Z</time>
      </trkpt>
      <trkpt lat="44.01979" lon="5.30758">
        <ele>824</ele>
        <time>2011-03-27T16:22:03Z</time>
      </trkpt>
      <trkpt lat="44.01983" lon="5.30769">
        <ele>824</ele>
        <time>2011-03-27T16:22:09Z</time>
      </trkpt>
      <trkpt lat="44.01988" lon="5.30777">
        <ele>826</ele>
        <time>2011-03-27T16:22:15Z</time>
      </trkpt>
      <trkpt lat="44.01994" lon="5.30784">
        <ele>828</ele>
        <time>2011-03-27T16:22:21Z</time>
      </trkpt>
      <trkpt lat="44.02" lon="5.30793">
        <ele>828</ele>
        <time>2011-03-27T16:22:27Z</time>
      </trkpt>
      <trkpt lat="44.02006" lon="5.30802">
        <ele>830</ele>
        <time>2011-03-27T16:22:34Z</time>
      </trkpt>
      <trkpt lat="44.02013" lon="5.30808">
        <ele>833</ele>
        <time>2011-03-27T16:22:41Z</time>
      </trkpt>
      <trkpt lat="44.02014" lon="5.30809">
        <ele>834</ele>
        <time>2011-03-27T16:22:42Z</time>
      </trkpt>
      <trkpt lat="44.02025" lon="5.30824">
        <ele>837</ele>
        <time>2011-03-27T16:22:55Z</time>
      </trkpt>
      <trkpt lat="44.02032" lon="5.30831">
        <ele>841</ele>
        <time>2011-03-27T16:23:06Z</time>
      </trkpt>
      <trkpt lat="44.02039" lon="5.30838">
        <ele>843</ele>
        <time>2011-03-27T16:23:14Z</time>
      </trkpt>
      <trkpt lat="44.02044" lon="5.30846">
        <ele>845</ele>
        <time>2011-03-27T16:23:21Z</time>
      </trkpt>
      <trkpt lat="44.0205" lon="5.30854">
        <ele>846</ele>
        <time>2011-03-27T16:23:28Z</time>
      </trkpt>
      <trkpt lat="44.02056" lon="5.30863">
        <ele>850</ele>
        <time>2011-03-27T16:23:36Z</time>
      </trkpt>
      <trkpt lat="44.02061" lon="5.30871">
        <ele>852</ele>
        <time>2011-03-27T16:23:43Z</time>
      </trkpt>
      <trkpt lat="44.02062" lon="5.30872">
        <ele>852</ele>
        <time>2011-03-27T16:23:44Z</time>
      </trkpt>
      <trkpt lat="44.02074" lon="5.30884">
        <ele>857</ele>
        <time>2011-03-27T16:23:55Z</time>
      </trkpt>
      <trkpt lat="44.0208" lon="5.30892">
        <ele>859</ele>
        <time>2011-03-27T16:24:01Z</time>
      </trkpt>
      <trkpt lat="44.02086" lon="5.30899">
        <ele>862</ele>
        <time>2011-03-27T16:24:08Z</time>
      </trkpt>
      <trkpt lat="44.02093" lon="5.30904">
        <ele>864</ele>
        <time>2011-03-27T16:24:15Z</time>
      </trkpt>
      <trkpt lat="44.02098" lon="5.30914">
        <ele>865</ele>
        <time>2011-03-27T16:24:22Z</time>
      </trkpt>
      <trkpt lat="44.02103" lon="5.30923">
        <ele>867</ele>
        <time>2011-03-27T16:24:28Z</time>
      </trkpt>
      <trkpt lat="44.02111" lon="5.30927">
        <ele>870</ele>
        <time>2011-03-27T16:24:35Z</time>
      </trkpt>
      <trkpt lat="44.0212" lon="5.30928">
        <ele>871</ele>
        <time>2011-03-27T16:24:42Z</time>
      </trkpt>
      <trkpt lat="44.02127" lon="5.30935">
        <ele>874</ele>
        <time>2011-03-27T16:24:49Z</time>
      </trkpt>
      <trkpt lat="44.02128" lon="5.30936">
        <ele>874</ele>
        <time>2011-03-27T16:24:50Z</time>
      </trkpt>
      <trkpt lat="44.02139" lon="5.30949">
        <ele>877</ele>
        <time>2011-03-27T16:25:01Z</time>
      </trkpt>
      <trkpt lat="44.02145" lon="5.30957">
        <ele>878</ele>
        <time>2011-03-27T16:25:07Z</time>
      </trkpt>
      <trkpt lat="44.02151" lon="5.30965">
        <ele>878</ele>
        <time>2011-03-27T16:25:13Z</time>
      </trkpt>
      <trkpt lat="44.02158" lon="5.30971">
        <ele>878</ele>
        <time>2011-03-27T16:25:19Z</time>
      </trkpt>
      <trkpt lat="44.02164" lon="5.3098">
        <ele>880</ele>
        <time>2011-03-27T16:25:25Z</time>
      </trkpt>
      <trkpt lat="44.0217" lon="5.30987">
        <ele>879</ele>
        <time>2011-03-27T16:25:31Z</time>
      </trkpt>
      <trkpt lat="44.02177" lon="5.30994">
        <ele>879</ele>
        <time>2011-03-27T16:25:38Z</time>
      </trkpt>
      <trkpt lat="44.02183" lon="5.31003">
        <ele>880</ele>
        <time>2011-03-27T16:25:45Z</time>
      </trkpt>
      <trkpt lat="44.02189" lon="5.3101">
        <ele>879</ele>
        <time>2011-03-27T16:25:52Z</time>
      </trkpt>
      <trkpt lat="44.0219" lon="5.31011">
        <ele>880</ele>
        <time>2011-03-27T16:25:53Z</time>
      </trkpt>
      <trkpt lat="44.02201" lon="5.31025">
        <ele>880</ele>
        <time>2011-03-27T16:26:09Z</time>
      </trkpt>
      <trkpt lat="44.02208" lon="5.31033">
        <ele>879</ele>
        <time>2011-03-27T16:26:17Z</time>
      </trkpt>
      <trkpt lat="44.02214" lon="5.31041">
        <ele>880</ele>
        <time>2011-03-27T16:26:24Z</time>
      </trkpt>
      <trkpt lat="44.0222" lon="5.31049">
        <ele>879</ele>
        <time>2011-03-27T16:26:36Z</time>
      </trkpt>
      <trkpt lat="44.02226" lon="5.31055">
        <ele>879</ele>
        <time>2011-03-27T16:26:42Z</time>
      </trkpt>
      <trkpt lat="44.02232" lon="5.31062">
        <ele>879</ele>
        <time>2011-03-27T16:26:48Z</time>
      </trkpt>
      <trkpt lat="44.02239" lon="5.3107">
        <ele>879</ele>
        <time>2011-03-27T16:26:54Z</time>
      </trkpt>
      <trkpt lat="44.0224" lon="5.31071">
        <ele>880</ele>
        <time>2011-03-27T16:26:55Z</time>
      </trkpt>
      <trkpt lat="44.02252" lon="5.31086">
        <ele>879</ele>
        <time>2011-03-27T16:27:07Z</time>
      </trkpt>
      <trkpt lat="44.02258" lon="5.31093">
        <ele>880</ele>
        <time>2011-03-27T16:27:14Z</time>
      </trkpt>
      <trkpt lat="44.02265" lon="5.311">
        <ele>880</ele>
        <time>2011-03-27T16:28:20Z</time>
      </trkpt>
      <trkpt lat="44.02265" lon="5.31101">
        <ele>880</ele>
        <time>2011-03-27T16:28:21Z</time>
      </trkpt>
      <trkpt lat="44.02259" lon="5.31091">
        <ele>878</ele>
        <time>2011-03-27T16:30:19Z</time>
      </trkpt>
      <trkpt lat="44.02251" lon="5.31108">
        <ele>878</ele>
        <time>2011-03-27T16:30:57Z</time>
      </trkpt>
      <trkpt lat="44.02249" lon="5.3112">
        <ele>878</ele>
        <time>2011-03-27T16:31:05Z</time>
      </trkpt>
      <trkpt lat="44.02247" lon="5.3113">
        <ele>878</ele>
        <time>2011-03-27T16:31:11Z</time>
      </trkpt>
      <trkpt lat="44.02248" lon="5.31142">
        <ele>879</ele>
        <time>2011-03-27T16:31:18Z</time>
      </trkpt>
      <trkpt lat="44.02249" lon="5.31153">
        <ele>880</ele>
        <time>2011-03-27T16:31:24Z</time>
      </trkpt>
      <trkpt lat="44.0225" lon="5.31155">
        <ele>880</ele>
        <time>2011-03-27T16:31:25Z</time>
      </trkpt>
      <trkpt lat="44.02246" lon="5.31176">
        <ele>881</ele>
        <time>2011-03-27T16:31:38Z</time>
      </trkpt>
      <trkpt lat="44.02246" lon="5.31187">
        <ele>882</ele>
        <time>2011-03-27T16:31:45Z</time>
      </trkpt>
      <trkpt lat="44.02247" lon="5.31199">
        <ele>884</ele>
        <time>2011-03-27T16:31:53Z</time>
      </trkpt>
      <trkpt lat="44.02247" lon="5.31212">
        <ele>885</ele>
        <time>2011-03-27T16:32:01Z</time>
      </trkpt>
      <trkpt lat="44.02248" lon="5.31224">
        <ele>886</ele>
        <time>2011-03-27T16:32:10Z</time>
      </trkpt>
      <trkpt lat="44.02255" lon="5.31231">
        <ele>888</ele>
        <time>2011-03-27T16:32:18Z</time>
      </trkpt>
      <trkpt lat="44.02262" lon="5.31239">
        <ele>890</ele>
        <time>2011-03-27T16:32:26Z</time>
      </trkpt>
      <trkpt lat="44.02263" lon="5.31239">
        <ele>891</ele>
        <time>2011-03-27T16:32:27Z</time>
      </trkpt>
      <trkpt lat="44.02274" lon="5.31257">
        <ele>894</ele>
        <time>2011-03-27T16:32:49Z</time>
      </trkpt>
      <trkpt lat="44.02283" lon="5.31258">
        <ele>894</ele>
        <time>2011-03-27T16:32:57Z</time>
      </trkpt>
      <trkpt lat="44.0229" lon="5.31266">
        <ele>896</ele>
        <time>2011-03-27T16:33:04Z</time>
      </trkpt>
      <trkpt lat="44.02293" lon="5.31276">
        <ele>897</ele>
        <time>2011-03-27T16:33:10Z</time>
      </trkpt>
      <trkpt lat="44.02294" lon="5.31288">
        <ele>898</ele>
        <time>2011-03-27T16:33:17Z</time>
      </trkpt>
      <trkpt lat="44.02299" lon="5.31297">
        <ele>900</ele>
        <time>2011-03-27T16:33:23Z</time>
      </trkpt>
      <trkpt lat="44.02304" lon="5.31306">
        <ele>901</ele>
        <time>2011-03-27T16:33:30Z</time>
      </trkpt>
      <trkpt lat="44.02305" lon="5.31307">
        <ele>901</ele>
        <time>2011-03-27T16:33:31Z</time>
      </trkpt>
      <trkpt lat="44.02321" lon="5.31312">
        <ele>903</ele>
        <time>2011-03-27T16:33:44Z</time>
      </trkpt>
      <trkpt lat="44.02329" lon="5.31311">
        <ele>902</ele>
        <time>2011-03-27T16:33:52Z</time>
      </trkpt>
      <trkpt lat="44.02338" lon="5.31314">
        <ele>902</ele>
        <time>2011-03-27T16:34:00Z</time>
      </trkpt>
      <trkpt lat="44.02346" lon="5.31315">
        <ele>898</ele>
        <time>2011-03-27T16:34:07Z</time>
      </trkpt>
      <trkpt lat="44.02354" lon="5.31318">
        <ele>888</ele>
        <time>2011-03-27T16:34:14Z</time>
      </trkpt>
      <trkpt lat="44.02361" lon="5.31325">
        <ele>886</ele>
        <time>2011-03-27T16:34:20Z</time>
      </trkpt>
      <trkpt lat="44.02365" lon="5.31335">
        <ele>886</ele>
        <time>2011-03-27T16:34:26Z</time>
      </trkpt>
      <trkpt lat="44.02368" lon="5.31347">
        <ele>887</ele>
        <time>2011-03-27T16:34:33Z</time>
      </trkpt>
      <trkpt lat="44.02368" lon="5.31349">
        <ele>887</ele>
        <time>2011-03-27T16:34:34Z</time>
      </trkpt>
      <trkpt lat="44.02368" lon="5.31369">
        <ele>888</ele>
        <time>2011-03-27T16:34:46Z</time>
      </trkpt>
      <trkpt lat="44.0237" lon="5.31381">
        <ele>889</ele>
        <time>2011-03-27T16:34:53Z</time>
      </trkpt>
      <trkpt lat="44.02376" lon="5.31389">
        <ele>889</ele>
        <time>2011-03-27T16:35:00Z</time>
      </trkpt>
      <trkpt lat="44.02383" lon="5.31395">
        <ele>888</ele>
        <time>2011-03-27T16:35:09Z</time>
      </trkpt>
      <trkpt lat="44.02392" lon="5.31399">
        <ele>888</ele>
        <time>2011-03-27T16:37:23Z</time>
      </trkpt>
      <trkpt lat="44.02392" lon="5.31399">
        <ele>887</ele>
        <time>2011-03-27T16:37:24Z</time>
      </trkpt>
      <trkpt lat="44.02408" lon="5.31405">
        <ele>885</ele>
        <time>2011-03-27T16:37:44Z</time>
      </trkpt>
      <trkpt lat="44.02416" lon="5.31401">
        <ele>885</ele>
        <time>2011-03-27T16:37:51Z</time>
      </trkpt>
      <trkpt lat="44.02424" lon="5.31397">
        <ele>883</ele>
        <time>2011-03-27T16:38:04Z</time>
      </trkpt>
      <trkpt lat="44.02433" lon="5.31401">
        <ele>881</ele>
        <time>2011-03-27T16:38:13Z</time>
      </trkpt>
      <trkpt lat="44.02438" lon="5.31409">
        <ele>880</ele>
        <time>2011-03-27T16:38:21Z</time>
      </trkpt>
      <trkpt lat="44.02446" lon="5.31414">
        <ele>879</ele>
        <time>2011-03-27T16:38:30Z</time>
      </trkpt>
      <trkpt lat="44.02447" lon="5.31415">
        <ele>879</ele>
        <time>2011-03-27T16:38:31Z</time>
      </trkpt>
      <trkpt lat="44.02461" lon="5.31426">
        <ele>877</ele>
        <time>2011-03-27T16:38:47Z</time>
      </trkpt>
      <trkpt lat="44.02469" lon="5.31424">
        <ele>875</ele>
        <time>2011-03-27T16:38:57Z</time>
      </trkpt>
      <trkpt lat="44.02478" lon="5.31422">
        <ele>874</ele>
        <time>2011-03-27T16:39:04Z</time>
      </trkpt>
      <trkpt lat="44.02486" lon="5.31418">
        <ele>872</ele>
        <time>2011-03-27T16:39:11Z</time>
      </trkpt>
      <trkpt lat="44.02492" lon="5.31411">
        <ele>870</ele>
        <time>2011-03-27T16:39:19Z</time>
      </trkpt>
      <trkpt lat="44.02489" lon="5.314">
        <ele>868</ele>
        <time>2011-03-27T16:39:27Z</time>
      </trkpt>
      <trkpt lat="44.02485" lon="5.3139">
        <ele>869</ele>
        <time>2011-03-27T16:39:33Z</time>
      </trkpt>
      <trkpt lat="44.02485" lon="5.31388">
        <ele>868</ele>
        <time>2011-03-27T16:39:34Z</time>
      </trkpt>
      <trkpt lat="44.0249" lon="5.3137">
        <ele>863</ele>
        <time>2011-03-27T16:39:49Z</time>
      </trkpt>
      <trkpt lat="44.02498" lon="5.31375">
        <ele>863</ele>
        <time>2011-03-27T16:41:10Z</time>
      </trkpt>
      <trkpt lat="44.02498" lon="5.31376">
        <ele>863</ele>
        <time>2011-03-27T16:41:11Z</time>
      </trkpt>
      <trkpt lat="44.02509" lon="5.3139">
        <ele>863</ele>
        <time>2011-03-27T16:41:25Z</time>
      </trkpt>
      <trkpt lat="44.02515" lon="5.31397">
        <ele>864</ele>
        <time>2011-03-27T16:41:31Z</time>
      </trkpt>
      <trkpt lat="44.02521" lon="5.31405">
        <ele>864</ele>
        <time>2011-03-27T16:41:37Z</time>
      </trkpt>
      <trkpt lat="44.02527" lon="5.31412">
        <ele>864</ele>
        <time>2011-03-27T16:41:43Z</time>
      </trkpt>
      <trkpt lat="44.02534" lon="5.3142">
        <ele>863</ele>
        <time>2011-03-27T16:41:50Z</time>
      </trkpt>
      <trkpt lat="44.0254" lon="5.31429">
        <ele>864</ele>
        <time>2011-03-27T16:41:57Z</time>
      </trkpt>
      <trkpt lat="44.02547" lon="5.31436">
        <ele>863</ele>
        <time>2011-03-27T16:42:04Z</time>
      </trkpt>
      <trkpt lat="44.02553" lon="5.31443">
        <ele>862</ele>
        <time>2011-03-27T16:42:11Z</time>
      </trkpt>
      <trkpt lat="44.02555" lon="5.31443">
        <ele>862</ele>
        <time>2011-03-27T16:42:12Z</time>
      </trkpt>
      <trkpt lat="44.02568" lon="5.31454">
        <ele>861</ele>
        <time>2011-03-27T16:42:24Z</time>
      </trkpt>
      <trkpt lat="44.02576" lon="5.3146">
        <ele>860</ele>
        <time>2011-03-27T16:42:31Z</time>
      </trkpt>
      <trkpt lat="44.02583" lon="5.31465">
        <ele>860</ele>
        <time>2011-03-27T16:42:38Z</time>
      </trkpt>
      <trkpt lat="44.0259" lon="5.31471">
        <ele>859</ele>
        <time>2011-03-27T16:42:46Z</time>
      </trkpt>
      <trkpt lat="44.02597" lon="5.31479">
        <ele>858</ele>
        <time>2011-03-27T16:42:54Z</time>
      </trkpt>
      <trkpt lat="44.02604" lon="5.31484">
        <ele>856</ele>
        <time>2011-03-27T16:43:03Z</time>
      </trkpt>
      <trkpt lat="44.02611" lon="5.31491">
        <ele>854</ele>
        <time>2011-03-27T16:43:12Z</time>
      </trkpt>
      <trkpt lat="44.02612" lon="5.31492">
        <ele>854</ele>
        <time>2011-03-27T16:43:13Z</time>
      </trkpt>
      <trkpt lat="44.02625" lon="5.31504">
        <ele>852</ele>
        <time>2011-03-27T16:43:28Z</time>
      </trkpt>
      <trkpt lat="44.02632" lon="5.3151">
        <ele>851</ele>
        <time>2011-03-27T16:43:34Z</time>
      </trkpt>
      <trkpt lat="44.02638" lon="5.31518">
        <ele>849</ele>
        <time>2011-03-27T16:43:42Z</time>
      </trkpt>
      <trkpt lat="44.02642" lon="5.31529">
        <ele>848</ele>
        <time>2011-03-27T16:43:51Z</time>
      </trkpt>
      <trkpt lat="44.02643" lon="5.31541">
        <ele>846</ele>
        <time>2011-03-27T16:44:01Z</time>
      </trkpt>
      <trkpt lat="44.02644" lon="5.31553">
        <ele>845</ele>
        <time>2011-03-27T16:44:10Z</time>
      </trkpt>
      <trkpt lat="44.02645" lon="5.31565">
        <ele>843</ele>
        <time>2011-03-27T16:44:18Z</time>
      </trkpt>
      <trkpt lat="44.02645" lon="5.31567">
        <ele>842</ele>
        <time>2011-03-27T16:44:19Z</time>
      </trkpt>
      <trkpt lat="44.02642" lon="5.31587">
        <ele>838</ele>
        <time>2011-03-27T16:44:35Z</time>
      </trkpt>
      <trkpt lat="44.02635" lon="5.31594">
        <ele>838</ele>
        <time>2011-03-27T16:44:41Z</time>
      </trkpt>
      <trkpt lat="44.02627" lon="5.31598">
        <ele>836</ele>
        <time>2011-03-27T16:44:48Z</time>
      </trkpt>
      <trkpt lat="44.0262" lon="5.31605">
        <ele>835</ele>
        <time>2011-03-27T16:44:55Z</time>
      </trkpt>
      <trkpt lat="44.02614" lon="5.31613">
        <ele>834</ele>
        <time>2011-03-27T16:45:02Z</time>
      </trkpt>
      <trkpt lat="44.02607" lon="5.3162">
        <ele>833</ele>
        <time>2011-03-27T16:45:09Z</time>
      </trkpt>
      <trkpt lat="44.02601" lon="5.31628">
        <ele>833</ele>
        <time>2011-03-27T16:45:15Z</time>
      </trkpt>
      <trkpt lat="44.02596" lon="5.31639">
        <ele>831</ele>
        <time>2011-03-27T16:45:22Z</time>
      </trkpt>
      <trkpt lat="44.02596" lon="5.31641">
        <ele>831</ele>
        <time>2011-03-27T16:45:23Z</time>
      </trkpt>
      <trkpt lat="44.02595" lon="5.31661">
        <ele>831</ele>
        <time>2011-03-27T16:45:34Z</time>
      </trkpt>
      <trkpt lat="44.02596" lon="5.31671">
        <ele>830</ele>
        <time>2011-03-27T16:45:39Z</time>
      </trkpt>
      <trkpt lat="44.02597" lon="5.31682">
        <ele>829</ele>
        <time>2011-03-27T16:45:44Z</time>
      </trkpt>
      <trkpt lat="44.02597" lon="5.31695">
        <ele>830</ele>
        <time>2011-03-27T16:45:50Z</time>
      </trkpt>
      <trkpt lat="44.02598" lon="5.31707">
        <ele>829</ele>
        <time>2011-03-27T16:45:56Z</time>
      </trkpt>
      <trkpt lat="44.02598" lon="5.31718">
        <ele>828</ele>
        <time>2011-03-27T16:46:01Z</time>
      </trkpt>
      <trkpt lat="44.02596" lon="5.3173">
        <ele>829</ele>
        <time>2011-03-27T16:46:05Z</time>
      </trkpt>
      <trkpt lat="44.02594" lon="5.31742">
        <ele>828</ele>
        <time>2011-03-27T16:46:10Z</time>
      </trkpt>
      <trkpt lat="44.02594" lon="5.31754">
        <ele>828</ele>
        <time>2011-03-27T16:46:18Z</time>
      </trkpt>
      <trkpt lat="44.02595" lon="5.31766">
        <ele>828</ele>
        <time>2011-03-27T16:46:25Z</time>
      </trkpt>
      <trkpt lat="44.02595" lon="5.31767">
        <ele>828</ele>
        <time>2011-03-27T16:46:26Z</time>
      </trkpt>
      <trkpt lat="44.02596" lon="5.31787">
        <ele>827</ele>
        <time>2011-03-27T16:46:34Z</time>
      </trkpt>
      <trkpt lat="44.02596" lon="5.31798">
        <ele>827</ele>
        <time>2011-03-27T16:46:39Z</time>
      </trkpt>
      <trkpt lat="44.02595" lon="5.3181">
        <ele>828</ele>
        <time>2011-03-27T16:46:45Z</time>
      </trkpt>
      <trkpt lat="44.02596" lon="5.31821">
        <ele>827</ele>
        <time>2011-03-27T16:46:52Z</time>
      </trkpt>
      <trkpt lat="44.02596" lon="5.31831">
        <ele>827</ele>
        <time>2011-03-27T16:46:58Z</time>
      </trkpt>
      <trkpt lat="44.02596" lon="5.31843">
        <ele>826</ele>
        <time>2011-03-27T16:47:04Z</time>
      </trkpt>
      <trkpt lat="44.02596" lon="5.31854">
        <ele>827</ele>
        <time>2011-03-27T16:47:10Z</time>
      </trkpt>
      <trkpt lat="44.02596" lon="5.31865">
        <ele>827</ele>
        <time>2011-03-27T16:47:15Z</time>
      </trkpt>
      <trkpt lat="44.02597" lon="5.31875">
        <ele>827</ele>
        <time>2011-03-27T16:47:19Z</time>
      </trkpt>
      <trkpt lat="44.02597" lon="5.31886">
        <ele>826</ele>
        <time>2011-03-27T16:47:23Z</time>
      </trkpt>
      <trkpt lat="44.02597" lon="5.31896">
        <ele>827</ele>
        <time>2011-03-27T16:47:27Z</time>
      </trkpt>
      <trkpt lat="44.02597" lon="5.31899">
        <ele>827</ele>
        <time>2011-03-27T16:47:28Z</time>
      </trkpt>
      <trkpt lat="44.02594" lon="5.3192">
        <ele>827</ele>
        <time>2011-03-27T16:47:38Z</time>
      </trkpt>
      <trkpt lat="44.02593" lon="5.31931">
        <ele>826</ele>
        <time>2011-03-27T16:47:44Z</time>
      </trkpt>
      <trkpt lat="44.02592" lon="5.31942">
        <ele>826</ele>
        <time>2011-03-27T16:47:49Z</time>
      </trkpt>
      <trkpt lat="44.0259" lon="5.31953">
        <ele>825</ele>
        <time>2011-03-27T16:47:54Z</time>
      </trkpt>
      <trkpt lat="44.02587" lon="5.31963">
        <ele>824</ele>
        <time>2011-03-27T16:48:00Z</time>
      </trkpt>
      <trkpt lat="44.02583" lon="5.31973">
        <ele>824</ele>
        <time>2011-03-27T16:48:07Z</time>
      </trkpt>
      <trkpt lat="44.02579" lon="5.31983">
        <ele>823</ele>
        <time>2011-03-27T16:48:14Z</time>
      </trkpt>
      <trkpt lat="44.02574" lon="5.31992">
        <ele>823</ele>
        <time>2011-03-27T16:48:19Z</time>
      </trkpt>
      <trkpt lat="44.0257" lon="5.32001">
        <ele>823</ele>
        <time>2011-03-27T16:48:24Z</time>
      </trkpt>
      <trkpt lat="44.02565" lon="5.32011">
        <ele>824</ele>
        <time>2011-03-27T16:48:30Z</time>
      </trkpt>
      <trkpt lat="44.02564" lon="5.32012">
        <ele>824</ele>
        <time>2011-03-27T16:48:31Z</time>
      </trkpt>
      <trkpt lat="44.02554" lon="5.32029">
        <ele>824</ele>
        <time>2011-03-27T16:48:39Z</time>
      </trkpt>
      <trkpt lat="44.02548" lon="5.32037">
        <ele>824</ele>
        <time>2011-03-27T16:48:43Z</time>
      </trkpt>
      <trkpt lat="44.02543" lon="5.32045">
        <ele>824</ele>
        <time>2011-03-27T16:48:47Z</time>
      </trkpt>
      <trkpt lat="44.02538" lon="5.32054">
        <ele>824</ele>
        <time>2011-03-27T16:48:51Z</time>
      </trkpt>
      <trkpt lat="44.02533" lon="5.32063">
        <ele>824</ele>
        <time>2011-03-27T16:48:56Z</time>
      </trkpt>
      <trkpt lat="44.02529" lon="5.32074">
        <ele>825</ele>
        <time>2011-03-27T16:49:01Z</time>
      </trkpt>
      <trkpt lat="44.02525" lon="5.32084">
        <ele>826</ele>
        <time>2011-03-27T16:49:06Z</time>
      </trkpt>
      <trkpt lat="44.02522" lon="5.32095">
        <ele>827</ele>
        <time>2011-03-27T16:49:11Z</time>
      </trkpt>
      <trkpt lat="44.02521" lon="5.32107">
        <ele>828</ele>
        <time>2011-03-27T16:49:17Z</time>
      </trkpt>
      <trkpt lat="44.0252" lon="5.32117">
        <ele>828</ele>
        <time>2011-03-27T16:49:22Z</time>
      </trkpt>
      <trkpt lat="44.02518" lon="5.32129">
        <ele>828</ele>
        <time>2011-03-27T16:49:27Z</time>
      </trkpt>
      <trkpt lat="44.02516" lon="5.3214">
        <ele>828</ele>
        <time>2011-03-27T16:49:33Z</time>
      </trkpt>
      <trkpt lat="44.02515" lon="5.32142">
        <ele>828</ele>
        <time>2011-03-27T16:49:34Z</time>
      </trkpt>
      <trkpt lat="44.02508" lon="5.32161">
        <ele>829</ele>
        <time>2011-03-27T16:49:46Z</time>
      </trkpt>
      <trkpt lat="44.02501" lon="5.32168">
        <ele>829</ele>
        <time>2011-03-27T16:49:52Z</time>
      </trkpt>
      <trkpt lat="44.02496" lon="5.32177">
        <ele>829</ele>
        <time>2011-03-27T16:49:58Z</time>
      </trkpt>
      <trkpt lat="44.02488" lon="5.32179">
        <ele>830</ele>
        <time>2011-03-27T16:50:04Z</time>
      </trkpt>
      <trkpt lat="44.0248" lon="5.32177">
        <ele>829</ele>
        <time>2011-03-27T16:50:10Z</time>
      </trkpt>
      <trkpt lat="44.02472" lon="5.32178">
        <ele>829</ele>
        <time>2011-03-27T16:50:16Z</time>
      </trkpt>
      <trkpt lat="44.02464" lon="5.32174">
        <ele>827</ele>
        <time>2011-03-27T16:50:22Z</time>
      </trkpt>
    </trkseg>
  </trk>
</gpx>